# Wetter Temperatur Luftdruck Luftfeuchtigkeit Sichtweite Windgeschwindigkeit Windrichtung Zeit
1 Rain 7 1032 99 0 1.34 64 07:18 11.07.2020
2 Rain 7 1032 99 0 2.24 104 06:28 11.07.2020
3 Rain 8 1033 99 0 0.45 174 05:59 11.07.2020
4 Rain 10 1020 96 0 3.55 332 05:20 11.07.2020
5 Rain 10 1020 95 0 3.55 332 04:53 11.07.2020
6 Rain 10 1020 96 0 3.55 332 04:31 11.07.2020
7 Rain 9 1033 98 0 3.58 81 02:57 11.07.2020
8 Rain 9 1035 99 0 1.34 86 02:35 11.07.2020
9 Clouds 11 1019 93 0 1.5 330 01:27 11.07.2020
10 Rain 11 1019 88 0 2.6 0 00:58 11.07.2020
11 Rain 9 1036 98 0 2.24 74 00:38 11.07.2020
12 Rain 11 1019 88 0 4.1 290 00:19 11.07.2020
13 Rain 12 1017 88 0 1 0 23:46 10.07.2020
14 Clouds 13 1017 82 0 4.1 120 23:27 10.07.2020
15 Clouds 13 1017 88 0 4.1 100 22:59 10.07.2020
16 Clouds 13 1017 88 0 4.1 100 22:41 10.07.2020
17 Rain 12 1020 93 0 1.07 349 22:19 10.07.2020
18 Clouds 14 1017 88 0 3.1 110 21:40 10.07.2020
19 Rain 14 1020 92 0 0.45 310 21:21 10.07.2020
20 Rain 14 1020 92 0 0.92 302 20:58 10.07.2020
21 Rain 14 1021 91 0 0.92 302 20:40 10.07.2020
22 Rain 15 1020 90 0 0.7 315 20:20 10.07.2020
23 Rain 14 1020 89 0 0.7 315 19:57 10.07.2020
24 Rain 15 1020 87 0 0.7 315 19:38 10.07.2020
25 Rain 15 1020 80 0 0.83 289 19:19 10.07.2020
26 Clouds 17 1015 64 0 3.6 60 18:41 10.07.2020
27 Rain 17 1020 75 0 1.08 278 18:19 10.07.2020
28 Rain 17 1020 78 0 1.08 278 17:56 10.07.2020
29 Rain 16 1020 85 0 1.08 278 17:38 10.07.2020
30 Rain 15 1020 91 0 1.08 251 17:19 10.07.2020
31 Rain 15 1021 91 0 1.08 251 16:42 10.07.2020
32 Rain 15 1021 90 0 0.45 154 16:20 10.07.2020
33 Rain 14 1021 79 0 2.24 181 15:45 10.07.2020
34 Rain 14 1034 85 0 5.36 76 15:23 10.07.2020
35 Rain 15 1036 84 0 3.58 73 14:55 10.07.2020
36 Rain 18 1016 57 10000 2.6 240 14:37 10.07.2020
37 Clouds 18 1016 50 10000 4.1 250 14:19 10.07.2020
38 Clouds 20 1016 44 0 3.6 240 13:56 10.07.2020
39 Clouds 20 1016 44 0 3.6 240 13:37 10.07.2020
40 Clouds 20 1016 44 0 3.6 240 13:37 10.07.2020
41 Clouds 20 1016 44 0 3.6 240 13:37 10.07.2020
42 Rain 20 1016 44 0 3.6 230 13:19 10.07.2020
43 Rain 20 1016 41 0 3.1 240 12:43 10.07.2020
44 Rain 19 1016 47 10000 3.1 280 12:24 10.07.2020
45 Rain 20 1016 47 10000 3.6 260 11:59 10.07.2020
46 Rain 19 1016 53 10000 2.6 270 11:38 10.07.2020
47 Rain 19 1016 60 10000 2.1 260 11:19 10.07.2020
48 Rain 19 1016 60 10000 2.1 260 10:55 10.07.2020
49 Rain 18 1016 64 10000 1.5 290 10:36 10.07.2020
50 Clouds 18 1016 68 10000 1 0 10:18 10.07.2020
51 Clouds 18 1017 64 0 1.45 195 09:38 10.07.2020
52 Clouds 17 1027 54 0 0.894 180 09:19 10.07.2020
53 Clouds 17 1010 37 0 0.894 45 08:57 10.07.2020
54 Clouds 17 1017 74 0 1.73 191 08:39 10.07.2020
55 Clouds 16 1020 74 0 1.61 197 08:21 10.07.2020
56 Clouds 14 1020 74 0 1.61 197 07:42 10.07.2020
57 Clouds 14 1020 77 0 1.18 198 07:22 10.07.2020
58 Clouds 14 1020 76 0 1.18 198 06:51 10.07.2020
59 Clouds 15 1011 48 0 2.235 135 06:24 10.07.2020
60 Clear 15 1011 53 0 3.576 112 04:43 10.07.2020
61 Clouds 15 1029 55 0 4.47 180 03:38 10.07.2020
62 Clouds 15 1013 50 0 0.6 247 02:52 10.07.2020
63 Clouds 16 1030 60 0 5.364 225 01:50 10.07.2020
64 Clouds 15 1018 82 0 1.1 219 00:48 10.07.2020
65 Clouds 15 1017 77 0 0.94 217 00:20 10.07.2020
66 Clouds 15 1017 82 0 1 0 23:46 09.07.2020
67 Clouds 16 1017 72 0 2.6 120 23:23 09.07.2020
68 Clouds 16 1017 72 0 2.6 100 22:59 09.07.2020
69 Clouds 16 1017 72 0 2.6 100 22:41 09.07.2020
70 Clouds 17 1017 68 0 2.6 90 22:21 09.07.2020
71 Clouds 18 1013 52 0 0.894 292 21:56 09.07.2020
72 Clouds 18 1030 61 0 4.47 247 21:38 09.07.2020
73 Clouds 16 1038 59 0 0.45 79 21:19 09.07.2020
74 Clouds 19 1016 57 0 1.5 70 20:45 09.07.2020
75 Clouds 18 1020 47 0 0.61 315 20:26 09.07.2020
76 Clouds 21 1016 39 0 2.1 230 19:58 09.07.2020
77 Clouds 21 1016 39 0 2.1 230 19:40 09.07.2020
78 Clouds 21 1016 42 0 2.1 230 19:21 09.07.2020
79 Clouds 22 1016 39 0 2.1 230 18:43 09.07.2020
80 Clouds 22 1017 39 0 2.1 230 18:22 09.07.2020
81 Clouds 22 1017 39 0 2.1 0 17:56 09.07.2020
82 Clouds 22 1017 39 0 2.1 0 17:38 09.07.2020
83 Clouds 22 1017 37 10000 1.5 0 17:19 09.07.2020
84 Clouds 22 1018 42 10000 2.1 200 16:55 09.07.2020
85 Clouds 22 1018 42 10000 2.1 200 16:37 09.07.2020
86 Clouds 21 1018 42 10000 2.6 230 16:19 09.07.2020
87 Clouds 21 1018 39 10000 3.1 230 15:54 09.07.2020
88 Clouds 21 1018 39 10000 3.1 230 15:36 09.07.2020
89 Clouds 20 1018 39 10000 3.6 260 15:18 09.07.2020
90 Clouds 20 1019 47 10000 3.6 250 14:54 09.07.2020
91 Clouds 19 1019 47 10000 3.6 250 14:36 09.07.2020
92 Clouds 20 1019 47 10000 3.6 250 14:18 09.07.2020
93 Clouds 19 1019 47 10000 4.6 250 13:41 09.07.2020
94 Clouds 18 1037 36 0 0.75 294 13:21 09.07.2020
95 Clouds 18 1036 35 0 0.75 294 12:58 09.07.2020
96 Clouds 18 1037 37 0 1.79 262 12:39 09.07.2020
97 Clouds 19 1019 53 10000 1.5 260 12:20 09.07.2020
98 Clouds 19 1019 50 10000 0.83 308 11:55 09.07.2020
99 Clouds 19 1019 50 10000 0.83 308 11:36 09.07.2020
100 Clear 16 1036 50 0 0.45 290 11:18 09.07.2020
101 Clear 18 1022 54 0 0.89 126 10:42 09.07.2020
102 Clear 17 1022 62 0 0.45 136 10:23 09.07.2020
103 Clear 18 1022 61 0 1.14 339 09:58 09.07.2020
104 Clear 18 1022 63 0 1.14 339 09:40 09.07.2020
105 Clear 18 1022 60 0 1.14 339 09:40 09.07.2020
106 Clear 15 1033 60 0 3.129 247 09:21 09.07.2020
107 Clear 13 1016 51 0 1.341 292 08:44 09.07.2020
108 Clouds 13 1022 77 0 1.34 324 08:25 09.07.2020
109 Clouds 13 1023 83 0 1.34 324 07:47 09.07.2020
110 Clouds 12 1023 84 0 1.1 318 07:22 09.07.2020
111 Clouds 12 1022 84 0 1.1 318 06:53 09.07.2020
112 Clouds 11 1022 84 0 0.96 307 06:20 09.07.2020
113 Clouds 11 1022 82 0 1.09 311 04:29 09.07.2020
114 Clouds 11 1023 81 0 1.09 311 03:48 09.07.2020
115 Clouds 11 1021 82 0 1.21 314 02:21 09.07.2020
116 Clouds 11 1021 82 0 1.5 100 01:37 09.07.2020
117 Clouds 11 1020 82 0 3.1 100 00:49 09.07.2020
118 Clouds 12 1020 77 0 4.6 110 00:24 09.07.2020
119 Clouds 12 1020 68 0 4.1 90 23:46 08.07.2020
120 Clouds 13 1020 63 0 3.6 90 23:28 08.07.2020
121 Clouds 13 1020 68 0 3.1 110 22:58 08.07.2020
122 Clouds 13 1020 68 0 3.1 110 22:40 08.07.2020
123 Clouds 13 1019 72 0 3.6 110 22:22 08.07.2020
124 Clouds 14 1019 60 0 1 0 21:58 08.07.2020
125 Clouds 14 1019 60 0 1 0 21:58 08.07.2020
126 Clouds 13 1022 61 0 0.45 284 21:38 08.07.2020
127 Clouds 14 1022 62 0 0.45 144 21:20 08.07.2020
128 Clouds 14 1021 62 0 2.05 341 20:54 08.07.2020
129 Clouds 13 1036 70 0 1.34 75 20:36 08.07.2020
130 Clouds 14 1035 69 0 1.34 83 20:18 08.07.2020
131 Clouds 17 1019 39 0 2.6 220 19:42 08.07.2020
132 Clouds 17 1019 39 0 3.1 250 19:22 08.07.2020
133 Clouds 17 1019 39 0 3.1 250 19:22 08.07.2020
134 Clouds 17 1019 39 0 3.1 250 18:57 08.07.2020
135 Clouds 17 1019 39 0 3.1 250 18:39 08.07.2020
136 Rain 15 1035 63 0 1.34 223 18:19 08.07.2020
137 Rain 15 1035 62 0 2.24 182 17:55 08.07.2020
138 Rain 15 1035 63 0 1.34 141 17:37 08.07.2020
139 Rain 15 1034 62 0 2.68 161 17:19 08.07.2020
140 Rain 15 1034 58 0 0.89 113 16:40 08.07.2020
141 Clouds 16 1034 60 0 1.79 154 16:22 08.07.2020
142 Clouds 17 1019 44 10000 4.1 240 15:59 08.07.2020
143 Clouds 16 1034 56 0 1.79 75 15:41 08.07.2020
144 Clouds 16 1034 56 0 1.79 206 15:19 08.07.2020
145 Clouds 16 1034 53 0 1.34 96 14:57 08.07.2020
146 Clouds 16 1034 55 0 1.79 51 14:39 08.07.2020
147 Clouds 16 1034 52 0 1.79 94 14:18 08.07.2020
148 Clouds 16 1020 43 10000 3.6 260 13:42 08.07.2020
149 Clouds 16 1020 49 0 4.1 250 13:22 08.07.2020
150 Clouds 16 1020 52 0 4.6 250 12:45 08.07.2020
151 Clouds 16 1020 52 10000 3.1 280 12:21 08.07.2020
152 Clouds 15 1019 56 10000 2.6 250 11:57 08.07.2020
153 Clouds 15 1019 56 10000 2.6 250 11:38 08.07.2020
154 Clear 15 1019 56 10000 2.6 250 11:20 08.07.2020
155 Clear 16 1020 61 0 0.89 314 10:45 08.07.2020
156 Clear 17 1020 63 0 1.01 318 10:26 08.07.2020
157 Clear 16 1020 65 0 1.01 318 09:59 08.07.2020
158 Clear 16 1020 69 0 1.01 318 09:40 08.07.2020
159 Clear 13 1020 77 10000 1 0 09:20 08.07.2020
160 Clear 12 1021 76 0 0.9 312 08:42 08.07.2020
161 Clouds 12 1021 80 0 0.83 267 08:24 08.07.2020
162 Clouds 10 1021 87 0 0.83 267 07:46 08.07.2020
163 Clouds 9 1021 88 0 0.65 280 07:23 08.07.2020
164 Clouds 9 1021 88 0 0.65 280 06:54 08.07.2020
165 Clouds 8 1021 88 0 0.65 280 06:35 08.07.2020
166 Clouds 8 1020 93 0 1.5 140 05:54 08.07.2020
167 Clouds 8 1020 93 0 0.5 0 05:20 08.07.2020
168 Clouds 9 1020 93 0 1.5 110 04:27 08.07.2020
169 Clouds 10 1020 82 0 0.61 268 02:20 08.07.2020
170 Clouds 10 1020 82 0 0.61 268 01:45 08.07.2020
171 Clouds 9 1020 87 0 1.5 100 01:19 08.07.2020
172 Clouds 8 1022 82 0 0.89 302 00:25 08.07.2020
173 Clouds 10 1020 76 0 3.1 100 23:55 07.07.2020
174 Clouds 10 1020 76 0 3.1 100 23:37 07.07.2020
175 Clouds 10 1020 76 0 3.1 110 23:18 07.07.2020
176 Clouds 11 1020 63 0 3.6 120 22:41 07.07.2020
177 Clouds 11 1019 59 0 3.1 70 22:21 07.07.2020
178 Clouds 12 1019 48 0 2.1 70 21:59 07.07.2020
179 Clouds 12 1019 48 0 2.1 70 21:59 07.07.2020
180 Clouds 12 1019 48 0 2.1 70 21:39 07.07.2020
181 Clouds 11 1020 67 0 1.48 346 21:21 07.07.2020
182 Clouds 12 1020 65 0 1.48 346 20:57 07.07.2020
183 Clouds 12 1020 61 0 1.48 346 20:38 07.07.2020
184 Clouds 10 1031 79 0 1.34 26 20:20 07.07.2020
185 Clouds 10 1031 79 0 1.34 26 20:20 07.07.2020
186 Clouds 12 1018 49 0 6.2 30 19:40 07.07.2020
187 Clouds 13 1018 46 0 4.6 50 19:21 07.07.2020
188 Clouds 13 1018 46 0 4.6 50 19:21 07.07.2020
189 Clouds 14 1018 46 0 3.6 40 18:56 07.07.2020
190 Clouds 14 1018 46 0 3.6 40 18:38 07.07.2020
191 Clear 15 1019 53 0 3.58 272 18:20 07.07.2020
192 Clear 15 1019 51 0 4.02 310 17:57 07.07.2020
193 Clear 15 1019 47 0 4.47 319 17:38 07.07.2020
194 Clear 12 1030 59 0 1.79 66 17:20 07.07.2020
195 Clear 12 1030 55 0 1.79 230 16:43 07.07.2020
196 Clear 14 1019 43 10000 1 0 16:24 07.07.2020
197 Clear 14 1019 43 10000 2.6 260 15:58 07.07.2020
198 Clear 14 1019 43 10000 2.6 260 15:58 07.07.2020
199 Clear 14 1019 43 10000 2.6 260 15:39 07.07.2020
200 Clear 12 1030 48 0 1.6 339 15:20 07.07.2020
201 Clear 12 1030 50 0 0.89 196 14:46 07.07.2020
202 Clear 13 1019 46 0 4.6 60 14:25 07.07.2020
203 Clear 12 1030 40 0 0.45 302 13:57 07.07.2020
204 Clear 15 1019 47 0 0.45 130 13:38 07.07.2020
205 Clear 15 1020 49 0 0.45 136 13:18 07.07.2020
206 Clear 14 1020 49 0 0.89 160 12:40 07.07.2020
207 Clear 11 1019 55 10000 4.6 50 12:22 07.07.2020
208 Clear 11 1020 56 0 0.89 132 11:50 07.07.2020
209 Clear 10 1021 55 0 0.45 126 11:26 07.07.2020
210 Clear 12 1021 58 0 0.45 124 10:59 07.07.2020
211 Clear 14 1021 58 0 0.89 138 10:41 07.07.2020
212 Clear 13 1021 63 0 0.89 122 10:22 07.07.2020
213 Clear 13 1021 66 0 0.45 163 09:56 07.07.2020
214 Clear 12 1021 69 0 0.8 78 09:38 07.07.2020
215 Clear 9 1020 58 10000 3.1 80 09:19 07.07.2020
216 Clear 6 1027 61 0 1.12 59 08:42 07.07.2020
217 Clouds 6 1026 60 0 1.35 28 08:23 07.07.2020
218 Clouds 5 1022 83 0 1.35 28 07:43 07.07.2020
219 Clouds 5 1022 84 0 1.57 19 07:22 07.07.2020
220 Clouds 4 1022 84 0 1.57 19 06:49 07.07.2020
221 Clouds 3 1022 84 0 2.25 5 06:29 07.07.2020
222 Clouds 3 1022 82 0 2.25 5 05:53 07.07.2020
223 Clouds 5 1021 58 0 4.6 50 05:22 07.07.2020
224 Clouds 6 1022 58 0 4.1 60 04:38 07.07.2020
225 Clouds 6 1021 51 0 3.1 0 03:35 07.07.2020
226 Clouds 7 1021 48 0 3.1 0 02:21 07.07.2020
227 Clouds 7 1022 48 0 3.1 0 01:22 07.07.2020
228 Clouds 7 1022 45 0 3.1 0 00:43 07.07.2020
229 Clouds 4 1032 85 0 3.98 347 00:24 07.07.2020
230 Clouds 7 1022 48 0 1.5 0 23:55 06.07.2020
231 Clouds 8 1022 48 0 1.5 0 23:36 06.07.2020
232 Clouds 8 1021 42 0 2.6 0 23:18 06.07.2020
233 Clouds 8 1021 45 0 3.1 0 22:41 06.07.2020
234 Clouds 8 1021 48 0 2.6 0 22:20 06.07.2020
235 Clouds 8 1020 52 0 3.1 0 21:57 06.07.2020
236 Clouds 9 1020 52 0 3.1 0 21:38 06.07.2020
237 Clouds 8 1021 70 0 2.24 332 21:19 06.07.2020
238 Clouds 8 1021 71 0 4.02 349 20:59 06.07.2020
239 Clouds 9 1021 73 0 3.13 326 20:37 06.07.2020
240 Clouds 9 1020 73 0 3.13 324 20:19 06.07.2020
241 Clouds 9 1020 76 0 4.02 284 19:56 06.07.2020
242 Clouds 9 1020 78 0 3.13 308 19:37 06.07.2020
243 Clouds 8 1020 80 0 4.92 294 19:19 06.07.2020
244 Clouds 8 1019 82 0 5.81 284 18:41 06.07.2020
245 Clouds 11 1019 81 0 4.02 353 18:23 06.07.2020
246 Clouds 12 1019 84 0 4.47 289 17:59 06.07.2020
247 Clouds 11 1019 82 0 4.92 292 17:41 06.07.2020
248 Clouds 12 1018 75 0 4.92 348 17:21 06.07.2020
249 Clouds 13 1018 75 0 5.36 297 16:55 06.07.2020
250 Clouds 10 1032 82 0 0.89 164 16:37 06.07.2020
251 Clouds 10 1032 84 0 4.51 339 16:18 06.07.2020
252 Clouds 11 1033 86 0 2.24 117 15:42 06.07.2020
253 Rain 15 1017 70 0 5.36 32 15:24 06.07.2020
254 Rain 15 1017 66 0 5.81 1 14:56 06.07.2020
255 Rain 15 1017 62 0 3.58 222 14:37 06.07.2020
256 Rain 16 1017 65 0 4.47 274 14:18 06.07.2020
257 Rain 15 1016 58 0 4.92 295 13:44 06.07.2020
258 Rain 15 1016 57 0 4.02 322 13:26 06.07.2020
259 Rain 16 1017 54 0 4.02 261 12:56 06.07.2020
260 Rain 18 1017 53 0 2.68 296 12:38 06.07.2020
261 Clouds 15 1016 60 0 2.1 190 12:18 06.07.2020
262 Rain 13 1034 71 0 0.45 261 11:57 06.07.2020
263 Rain 13 1034 78 0 2.52 334 11:36 06.07.2020
264 Clouds 13 1034 78 0 2.54 334 11:18 06.07.2020
265 Clouds 12 1034 76 0 2.54 334 10:41 06.07.2020
266 Clouds 15 1018 65 0 3.58 290 10:21 06.07.2020
267 Clouds 15 1018 66 0 2.24 310 09:55 06.07.2020
268 Clouds 12 1034 82 0 2.39 334 09:37 06.07.2020
269 Clouds 14 1018 88 10000 2.35 334 09:19 06.07.2020
270 Clouds 14 1018 88 10000 2.35 334 09:19 06.07.2020
271 Clouds 14 1018 88 10000 2.64 334 08:41 06.07.2020
272 Clouds 13 1019 81 0 2.17 330 08:22 06.07.2020
273 Clouds 14 1019 84 0 2.17 330 07:54 06.07.2020
274 Clouds 14 1019 86 0 2.17 330 07:35 06.07.2020
275 Clouds 13 1019 87 0 1.69 321 06:57 06.07.2020
276 Clouds 13 1019 87 0 1.69 321 06:38 06.07.2020
277 Clouds 11 1020 86 0 1.75 322 05:56 06.07.2020
278 Clouds 11 1020 87 0 0.45 233 05:29 06.07.2020
279 Clouds 11 1020 88 0 2.05 324 04:33 06.07.2020
280 Clouds 12 1021 86 0 2.36 324 02:44 06.07.2020
281 Clouds 12 1021 86 0 1.92 326 02:19 06.07.2020
282 Clouds 14 1019 88 0 1.5 110 00:52 06.07.2020
283 Clouds 13 1022 84 0 1.79 319 00:28 06.07.2020
284 Clouds 15 1019 88 0 1.79 319 23:58 05.07.2020
285 Clouds 15 1019 88 0 1.79 319 23:40 05.07.2020
286 Clouds 15 1019 88 0 1 120 23:21 05.07.2020
287 Clouds 15 1018 88 0 1.5 110 22:58 05.07.2020
288 Clouds 15 1018 88 0 1.5 110 22:37 05.07.2020
289 Clouds 15 1018 88 0 1.5 90 22:19 05.07.2020
290 Clouds 16 1018 78 0 1.5 110 21:55 05.07.2020
291 Clouds 16 1018 78 0 1.5 110 21:37 05.07.2020
292 Clouds 15 1021 69 0 0.89 232 21:18 05.07.2020
293 Clouds 14 1037 86 0 2.24 88 20:41 05.07.2020
294 Clouds 14 1037 85 0 2.68 68 20:23 05.07.2020
295 Clouds 17 1018 61 0 2.6 230 19:58 05.07.2020
296 Clouds 17 1018 61 0 2.6 230 19:40 05.07.2020
297 Clouds 17 1018 57 0 2.6 260 19:19 05.07.2020
298 Clouds 17 1018 61 0 2.6 230 18:42 05.07.2020
299 Clouds 16 1037 71 0 1.79 84 18:23 05.07.2020
300 Clouds 18 1019 54 0 3.6 250 17:59 05.07.2020
301 Clouds 18 1019 54 0 3.6 250 17:41 05.07.2020
302 Clouds 19 1019 51 0 3.1 250 17:19 05.07.2020
303 Clouds 19 1019 47 0 3.6 240 16:45 05.07.2020
304 Clouds 18 1019 50 0 4.1 260 16:25 05.07.2020
305 Clouds 19 1020 50 0 4.6 250 15:58 05.07.2020
306 Clouds 19 1020 50 0 4.6 250 15:38 05.07.2020
307 Clouds 18 1020 53 0 4.1 250 15:19 05.07.2020
308 Clouds 19 1020 50 0 4.1 270 14:42 05.07.2020
309 Clouds 19 1020 53 0 5.1 250 14:23 05.07.2020
310 Clouds 18 1021 57 0 4.1 260 13:58 05.07.2020
311 Clouds 18 1021 57 0 4.1 260 13:39 05.07.2020
312 Clear 18 1021 56 0 2.1 240 13:19 05.07.2020
313 Clear 18 1021 53 0 2.1 250 12:40 05.07.2020
314 Clear 17 1021 56 0 2.6 250 12:20 05.07.2020
315 Clear 17 1022 64 0 3.1 250 11:55 05.07.2020
316 Clear 16 1036 53 0 0.89 294 11:37 05.07.2020
317 Clear 15 1036 55 0 0.89 254 11:18 05.07.2020
318 Clear 17 1023 63 0 0.89 144 10:42 05.07.2020
319 Clouds 16 1023 59 0 0.45 153 10:20 05.07.2020
320 Clouds 16 1023 59 0 0.45 153 10:20 05.07.2020
321 Clouds 18 1023 63 0 0.89 153 09:59 05.07.2020
322 Clouds 17 1023 68 0 0.45 153 09:41 05.07.2020
323 Clear 14 1018 59 0 0.894 22 09:20 05.07.2020
324 Clear 14 1018 51 0 0.447 225 08:55 05.07.2020
325 Clear 14 1036 65 0 2.235 225 08:36 05.07.2020
326 Clear 10 1024 89 0 1.56 327 07:51 05.07.2020
327 Clear 11 1024 90 0 1.56 327 07:30 05.07.2020
328 Clear 11 1024 89 0 1.34 320 06:54 05.07.2020
329 Clear 9 1024 89 0 1.41 321 06:25 05.07.2020
330 Clear 10 1023 100 0 1.5 60 03:55 05.07.2020
331 Clear 9 1024 87 0 1.94 325 02:57 05.07.2020
332 Clear 10 1024 87 0 1.94 325 02:33 05.07.2020
333 Clouds 11 1023 93 0 1.74 320 01:43 05.07.2020
334 Clouds 11 1023 93 0 1.71 321 01:22 05.07.2020
335 Clouds 11 1022 93 0 1 0 00:45 05.07.2020
336 Clouds 11 1022 87 0 1.46 323 00:26 05.07.2020
337 Clouds 11 1022 87 0 1 0 23:55 04.07.2020
338 Clouds 12 1022 88 0 1 70 23:32 04.07.2020
339 Clouds 12 1022 82 0 1.5 110 22:59 04.07.2020
340 Clouds 12 1022 82 0 1.5 110 22:40 04.07.2020
341 Clouds 12 1022 82 0 1.5 90 22:22 04.07.2020
342 Clouds 13 1022 82 0 1.5 90 21:58 04.07.2020
343 Clouds 13 1022 82 0 1.5 90 21:40 04.07.2020
344 Clouds 13 1023 66 0 1.79 331 21:21 04.07.2020
345 Clouds 11 1034 86 0 2.24 78 20:42 04.07.2020
346 Clouds 12 1035 81 0 1.34 177 20:21 04.07.2020
347 Clouds 15 1020 53 0 1 0 19:56 04.07.2020
348 Clouds 16 1020 53 0 1 0 19:38 04.07.2020
349 Rain 16 1021 53 0 2.6 280 19:20 04.07.2020
350 Clouds 16 1021 53 0 2.6 280 18:43 04.07.2020
351 Clouds 16 1022 55 0 2.68 303 18:22 04.07.2020
352 Clouds 16 1022 55 0 3.58 334 17:46 04.07.2020
353 Clouds 13 1034 66 0 0.89 292 17:28 04.07.2020
354 Clouds 13 1034 66 0 2.24 110 16:59 04.07.2020
355 Clouds 14 1034 69 0 1.79 106 16:39 04.07.2020
356 Clouds 14 1034 69 0 1.79 106 16:39 04.07.2020
357 Clouds 15 1021 49 0 4.6 240 16:21 04.07.2020
358 Clouds 15 1021 53 0 4.1 250 15:58 04.07.2020
359 Clouds 15 1021 53 0 4.1 250 15:40 04.07.2020
360 Clouds 14 1021 49 0 3.6 250 15:21 04.07.2020
361 Clouds 14 1021 53 0 3.6 250 14:56 04.07.2020
362 Clouds 14 1021 53 0 3.6 250 14:37 04.07.2020
363 Clouds 13 1033 54 0 0.93 330 14:18 04.07.2020
364 Clouds 13 1033 68 0 0.93 330 13:41 04.07.2020
365 Clouds 13 1033 69 0 1.02 329 13:19 04.07.2020
366 Clouds 12 1033 70 0 1.79 221 12:56 04.07.2020
367 Clouds 11 1032 73 0 1.02 329 12:38 04.07.2020
368 Clouds 11 1032 73 0 0.75 331 12:18 04.07.2020
369 Clouds 10 1032 75 0 1.79 220 11:43 04.07.2020
370 Clouds 10 1032 76 0 0.45 285 11:23 04.07.2020
371 Clouds 9 1031 83 0 0.42 320 10:56 04.07.2020
372 Clouds 9 1031 82 0 0.42 320 10:37 04.07.2020
373 Clouds 11 1023 70 0 0.36 270 10:18 04.07.2020
374 Clouds 11 1023 70 0 0.36 270 10:18 04.07.2020
375 Clear 14 1023 73 0 0.89 147 09:41 04.07.2020
376 Clouds 7 1030 88 0 0.44 209 09:22 04.07.2020
377 Clear 7 1030 92 0 0.39 236 08:58 04.07.2020
378 Clear 8 1023 88 0 0.39 236 08:39 04.07.2020
379 Clouds 8 1023 92 0 0.42 180 08:20 04.07.2020
380 Clouds 10 1023 94 0 0.42 180 07:40 04.07.2020
381 Clouds 9 1023 94 0 0.21 15 07:18 04.07.2020
382 Clouds 9 1023 94 0 0.21 15 06:38 04.07.2020
383 Clouds 7 1023 93 10000 1 0 06:18 04.07.2020
384 Clouds 7 1022 100 0 0.89 4 05:28 04.07.2020
385 Clouds 7 1020 83 0 1.13 4 03:56 04.07.2020
386 Clouds 5 1030 99 0 1.53 357 02:41 04.07.2020
387 Clouds 5 1031 99 0 1.62 358 01:40 04.07.2020
388 Clouds 6 1031 99 0 1.6 2 00:49 04.07.2020
389 Clouds 6 1031 99 0 1.88 7 00:30 04.07.2020
390 Clouds 6 1031 94 0 1.88 7 23:59 03.07.2020
391 Clouds 7 1022 93 0 1 0 23:39 03.07.2020
392 Clouds 8 1022 93 0 2.25 2 23:18 03.07.2020
393 Clouds 8 1022 93 0 2.25 2 22:41 03.07.2020
394 Clouds 8 1022 87 0 1 0 22:23 03.07.2020
395 Clouds 8 1021 87 0 1 0 21:58 03.07.2020
396 Clouds 8 1021 87 0 1 0 21:38 03.07.2020
397 Clouds 9 1022 81 0 2.53 348 21:19 03.07.2020
398 Clouds 9 1021 80 0 0.45 288 20:42 03.07.2020
399 Clouds 9 1021 80 0 0.45 288 20:42 03.07.2020
400 Clouds 9 1021 80 0 0.45 288 20:42 03.07.2020
401 Clouds 9 1021 76 0 2.24 330 20:24 03.07.2020
402 Clouds 10 1021 72 0 1.79 305 19:55 03.07.2020
403 Clouds 10 1021 74 0 1.79 297 19:37 03.07.2020
404 Rain 10 1021 74 0 3.58 292 19:18 03.07.2020
405 Rain 8 1020 73 0 4.02 314 18:42 03.07.2020
406 Rain 10 1020 73 0 4.02 324 18:23 03.07.2020
407 Rain 11 1020 71 0 4.02 312 17:47 03.07.2020
408 Rain 11 1020 69 0 4.02 302 17:24 03.07.2020
409 Rain 8 1030 81 0 2.68 8 16:59 03.07.2020
410 Rain 8 1030 84 0 1.34 240 16:40 03.07.2020
411 Rain 12 1020 71 0 0.45 144 16:20 03.07.2020
412 Rain 10 1020 70 0 0.45 254 15:44 03.07.2020
413 Rain 11 1020 75 0 3.13 298 15:23 03.07.2020
414 Rain 11 1020 76 0 0.89 280 14:56 03.07.2020
415 Rain 11 1020 80 0 0.45 247 14:37 03.07.2020
416 Rain 11 1020 82 0 0.45 126 14:19 03.07.2020
417 Rain 9 1020 82 0 0.45 136 13:43 03.07.2020
418 Clouds 11 1020 82 0 0.45 125 13:24 03.07.2020
419 Clouds 11 1020 87 0 3.2 1 12:45 03.07.2020
420 Clouds 8 1020 84 0 2.81 2 12:24 03.07.2020
421 Clouds 8 1020 88 0 0.45 146 11:58 03.07.2020
422 Clouds 10 1020 90 0 0.45 135 11:40 03.07.2020
423 Clouds 12 1020 93 0 2.72 359 11:21 03.07.2020
424 Clouds 12 1020 93 0 2.72 359 10:55 03.07.2020
425 Clouds 12 1020 94 0 2.72 359 10:36 03.07.2020
426 Clouds 12 1020 94 0 2.87 358 10:18 03.07.2020
427 Clouds 11 1020 93 0 2.87 358 09:40 03.07.2020
428 Clouds 6 1028 93 0 0.45 167 09:22 03.07.2020
429 Clouds 6 1028 99 0 2.99 358 08:58 03.07.2020
430 Clouds 8 1020 93 0 2.99 358 08:38 03.07.2020
431 Rain 8 1019 93 0 3.06 360 08:18 03.07.2020
432 Rain 8 1019 93 0 3.06 360 08:18 03.07.2020
433 Rain 8 1019 93 0 3.06 360 07:47 03.07.2020
434 Clouds 8 1019 93 0 3.22 0 07:22 03.07.2020
435 Clouds 8 1019 89 0 0.45 286 06:40 03.07.2020
436 Clouds 8 1019 92 0 3.04 2 05:55 03.07.2020
437 Clouds 7 1029 99 0 2.68 84 04:28 03.07.2020
438 Clouds 9 1019 94 0 3.12 345 02:57 03.07.2020
439 Clouds 9 1019 94 0 3.12 345 02:32 03.07.2020
440 Rain 10 1019 93 0 3.41 344 01:51 03.07.2020
441 Rain 9 1019 93 0 3.28 342 01:22 03.07.2020
442 Rain 10 1019 93 0 3.28 342 00:42 03.07.2020
443 Rain 11 1019 93 0 3.24 334 00:18 03.07.2020
444 Rain 10 1019 93 0 3.24 334 23:43 02.07.2020
445 Rain 10 1019 93 0 3.06 332 23:20 02.07.2020
446 Rain 9 1031 99 0 3.06 332 22:57 02.07.2020
447 Rain 9 1031 99 0 0.45 100 22:38 02.07.2020
448 Rain 9 1031 99 0 0.45 114 22:20 02.07.2020
449 Rain 9 1031 99 0 1.34 129 21:54 02.07.2020
450 Rain 11 1016 82 0 3.6 50 21:36 02.07.2020
451 Rain 11 1016 82 0 3.6 50 21:36 02.07.2020
452 Rain 11 1018 90 0 2.89 325 21:18 02.07.2020
453 Rain 12 1018 89 0 2.89 325 20:41 02.07.2020
454 Rain 12 1018 88 0 2.72 330 20:20 02.07.2020
455 Rain 11 1031 86 0 0.45 21 19:56 02.07.2020
456 Rain 11 1030 82 0 2.72 330 19:38 02.07.2020
457 Rain 11 1030 85 0 2.69 335 19:20 02.07.2020
458 Rain 11 1030 84 0 2.24 54 18:56 02.07.2020
459 Rain 13 1027 93 0 3.129 337 18:37 02.07.2020
460 Rain 12 1030 75 0 0.45 221 18:19 02.07.2020
461 Rain 13 1015 88 0 2.1 140 17:39 02.07.2020
462 Rain 14 1027 93 0 2.235 0 17:20 02.07.2020
463 Rain 15 1009 80 0 0.894 315 16:56 02.07.2020
464 Rain 13 1030 72 0 1.79 124 16:38 02.07.2020
465 Rain 12 1031 82 0 0.89 110 16:19 02.07.2020
466 Rain 13 1014 82 10000 2.1 70 15:41 02.07.2020
467 Clouds 14 1014 64 10000 3.6 230 15:21 02.07.2020
468 Clouds 15 1014 64 10000 3.6 230 14:54 02.07.2020
469 Clouds 15 1014 64 10000 3.6 230 14:36 02.07.2020
470 Rain 15 1031 61 0 1.31 327 14:18 02.07.2020
471 Rain 15 1031 58 0 1.31 327 13:40 02.07.2020
472 Rain 15 1032 64 0 0.45 210 13:21 02.07.2020
473 Rain 15 1032 57 0 1.06 324 12:59 02.07.2020
474 Rain 15 1032 62 0 1.34 252 12:39 02.07.2020
475 Clouds 16 1015 64 10000 3.1 260 12:21 02.07.2020
476 Clouds 15 1015 77 10000 1 0 11:44 02.07.2020
477 Clear 16 1009 80 0 0.447 22 11:26 02.07.2020
478 Clear 14 1032 67 0 0.45 234 10:50 02.07.2020
479 Clear 16 1017 72 0 0.89 157 10:29 02.07.2020
480 Clear 17 1017 75 0 0.45 167 09:59 02.07.2020
481 Clear 17 1017 79 0 1.07 347 09:41 02.07.2020
482 Clouds 13 1016 88 10000 0.5 0 09:21 02.07.2020
483 Clear 13 1018 92 0 1.48 357 08:57 02.07.2020
484 Clear 12 1018 94 0 1.48 357 08:38 02.07.2020
485 Clouds 13 1018 96 0 1.4 350 08:18 02.07.2020
486 Clouds 12 1018 96 0 1.4 350 07:41 02.07.2020
487 Clouds 11 1018 96 0 1.05 340 07:20 02.07.2020
488 Clouds 11 1018 95 0 1.05 340 06:41 02.07.2020
489 Clouds 10 1018 95 0 1.18 340 06:20 02.07.2020
490 Clouds 10 1017 95 0 1.18 340 05:46 02.07.2020
491 Clouds 11 1017 95 0 1.41 345 04:40 02.07.2020
492 Clouds 12 1016 93 0 1.5 110 03:32 02.07.2020
493 Clouds 12 1016 100 0 1.03 352 01:44 02.07.2020
494 Rain 12 1017 100 0 0.5 0 00:26 02.07.2020
495 Rain 12 1017 93 0 1.5 90 23:51 01.07.2020
496 Rain 12 1017 93 0 1.5 90 23:31 01.07.2020
497 Rain 12 1016 93 0 1 0 22:57 01.07.2020
498 Rain 12 1016 93 0 1 0 22:38 01.07.2020
499 Clouds 13 1014 88 0 2.1 280 22:20 01.07.2020
500 Clouds 14 1013 77 0 2.6 0 21:59 01.07.2020
501 Clouds 14 1013 77 0 2.6 0 21:41 01.07.2020
502 Rain 14 1018 90 0 0.81 339 21:22 01.07.2020
503 Rain 15 1018 88 0 0.81 339 20:59 01.07.2020
504 Rain 15 1018 86 0 0.81 339 20:41 01.07.2020
505 Rain 15 1018 85 0 1.52 354 20:23 01.07.2020
506 Rain 16 1018 86 0 1.52 354 19:55 01.07.2020
507 Rain 14 1018 85 0 1.52 354 19:37 01.07.2020
508 Rain 15 1017 85 0 1.67 344 19:18 01.07.2020
509 Rain 15 1016 89 0 1.67 344 18:42 01.07.2020
510 Rain 18 1017 82 0 1.46 332 18:21 01.07.2020
511 Rain 18 1017 82 0 1.46 332 18:21 01.07.2020
512 Rain 15 1017 78 0 1.46 332 17:58 01.07.2020
513 Rain 16 1017 83 0 0.89 137 17:39 01.07.2020
514 Rain 13 1017 82 0 0.45 136 17:19 01.07.2020
515 Rain 13 1017 82 0 0.45 136 17:19 01.07.2020
516 Rain 15 1013 73 10000 1.5 0 16:46 01.07.2020
517 Clouds 16 1012 64 10000 1.5 0 16:27 01.07.2020
518 Clouds 18 1012 61 10000 1 0 15:55 01.07.2020
519 Clouds 19 1012 61 10000 1 0 15:37 01.07.2020
520 Clouds 19 1012 65 10000 2.1 100 15:19 01.07.2020
521 Clouds 19 1012 61 10000 2.6 260 14:44 01.07.2020
522 Rain 19 1013 64 10000 3.1 230 14:21 01.07.2020
523 Rain 18 1013 69 10000 4.1 270 13:57 01.07.2020
524 Rain 18 1013 69 10000 4.1 270 13:38 01.07.2020
525 Rain 18 1013 60 0 4.1 260 13:20 01.07.2020
526 Clouds 18 1013 64 0 1.5 270 12:57 01.07.2020
527 Clouds 18 1013 64 0 1.5 270 12:38 01.07.2020
528 Clouds 18 1013 64 10000 1 0 12:20 01.07.2020
529 Clouds 18 1013 64 10000 1 0 12:20 01.07.2020
530 Rain 18 1009 70 0 0.894 22 11:40 01.07.2020
531 Rain 18 1009 75 0 0.447 0 11:22 01.07.2020
532 Rain 18 1009 75 0 1.341 22 10:58 01.07.2020
533 Rain 18 1026 77 0 1.788 22 10:39 01.07.2020
534 Rain 18 1009 70 0 0.68 161 10:21 01.07.2020
535 Rain 17 1026 82 0 0.447 45 09:40 01.07.2020
536 Rain 16 1009 72 0 0.894 45 09:21 01.07.2020
537 Rain 15 1009 73 0 0.39 188 08:59 01.07.2020
538 Rain 15 1009 75 0 0.447 45 08:40 01.07.2020
539 Rain 14 1009 77 0 1.341 67 08:21 01.07.2020
540 Rain 13 1017 88 0 0.44 205 07:45 01.07.2020
541 Rain 13 1017 89 0 0.31 227 07:27 01.07.2020
542 Rain 13 1017 89 0 0.31 227 06:59 01.07.2020
543 Rain 13 1017 89 0 0.31 227 06:59 01.07.2020
544 Rain 13 1017 89 0 0.31 227 06:41 01.07.2020
545 Rain 11 1017 88 0 0.37 259 06:21 01.07.2020
546 Rain 12 1017 89 0 0.62 243 04:30 01.07.2020
547 Rain 12 1014 93 0 0.5 0 03:44 01.07.2020
548 Rain 12 1014 100 0 1 0 03:26 01.07.2020
549 Rain 13 1015 100 0 1.03 206 02:34 01.07.2020
550 Clouds 14 1015 88 0 0.86 206 01:26 01.07.2020
551 Rain 14 1015 88 0 0.86 206 00:40 01.07.2020
552 Clouds 13 1014 88 0 0.9 196 00:21 01.07.2020
553 Clouds 13 1014 88 0 1.5 110 23:40 30.06.2020
554 Clouds 13 1014 88 0 2.1 90 23:21 30.06.2020
555 Clouds 14 1014 82 0 2.6 100 22:43 30.06.2020
556 Clouds 14 1014 77 0 2.6 90 22:20 30.06.2020
557 Clouds 15 1014 77 0 2.1 80 21:55 30.06.2020
558 Clouds 15 1014 77 0 2.1 80 21:37 30.06.2020
559 Rain 13 1033 83 0 0.52 349 21:19 30.06.2020
560 Clouds 16 1014 64 0 1.5 30 20:43 30.06.2020
561 Rain 16 1011 77 0 0.97 335 20:21 30.06.2020
562 Rain 16 1014 57 0 2.1 260 19:46 30.06.2020
563 Rain 17 1014 53 0 2.6 250 19:22 30.06.2020
564 Rain 17 1014 53 0 2.6 260 18:59 30.06.2020
565 Rain 17 1014 53 0 2.6 260 18:41 30.06.2020
566 Rain 18 1014 53 0 3.1 260 18:20 30.06.2020
567 Rain 18 1014 50 0 3.1 270 17:40 30.06.2020
568 Clouds 18 1014 50 10000 3.1 250 17:21 30.06.2020
569 Clouds 17 1014 53 10000 4.1 250 16:59 30.06.2020
570 Clouds 17 1014 53 10000 4.1 250 16:40 30.06.2020
571 Clouds 17 1014 53 10000 4.1 260 16:21 30.06.2020
572 Clouds 17 1014 53 10000 4.1 260 16:21 30.06.2020
573 Clouds 17 1015 53 10000 3.6 250 15:56 30.06.2020
574 Clouds 17 1015 53 10000 3.6 250 15:38 30.06.2020
575 Clouds 17 1014 57 10000 2.1 0 15:19 30.06.2020
576 Clouds 16 1015 60 0 3.1 260 14:43 30.06.2020
577 Clouds 16 1015 60 0 3.1 260 14:22 30.06.2020
578 Clouds 17 1015 60 0 3.1 260 13:58 30.06.2020
579 Clouds 16 1031 55 0 1.79 264 13:37 30.06.2020
580 Clouds 16 1031 53 0 3.58 229 13:19 30.06.2020
581 Clouds 15 1031 54 0 1.79 248 12:56 30.06.2020
582 Clouds 15 1031 58 0 0.56 236 12:38 30.06.2020
583 Clear 15 1016 60 10000 3.6 260 12:18 30.06.2020
584 Clear 14 1016 63 10000 3.6 260 11:56 30.06.2020
585 Clear 14 1016 63 10000 3.6 260 11:37 30.06.2020
586 Clear 14 1030 58 0 0.52 227 11:18 30.06.2020
587 Clouds 17 1018 69 0 2.1 110 16:47 28.06.2020
588 Rain 17 1020 64 0 1.34 174 16:28 28.06.2020
589 Rain 17 1018 78 0 1 0 15:59 28.06.2020
590 Rain 17 1018 78 0 1 0 15:59 28.06.2020
591 Rain 17 1018 78 0 1 0 15:40 28.06.2020
592 Rain 16 1019 83 0 1.5 220 15:20 28.06.2020
593 Rain 16 1019 77 0 2.6 250 14:58 28.06.2020
594 Rain 15 1019 77 0 2.6 250 14:39 28.06.2020
595 Rain 16 1020 64 0 0.45 305 14:21 28.06.2020
596 Rain 16 1020 62 0 0.45 152 13:40 28.06.2020
597 Clouds 16 1019 68 0 3.1 240 13:21 28.06.2020
598 Clouds 17 1019 68 0 3.1 280 12:58 28.06.2020
599 Clouds 18 1019 68 0 3.1 280 12:38 28.06.2020
600 Clouds 19 1019 64 10000 3.1 250 12:19 28.06.2020
601 Clouds 19 1019 64 10000 2.1 230 11:58 28.06.2020
602 Clouds 19 1019 64 10000 2.1 230 11:40 28.06.2020
603 Clouds 18 1019 68 0 3.6 260 11:20 28.06.2020
604 Clouds 17 1019 77 0 3.6 240 10:58 28.06.2020
605 Clouds 17 1019 77 0 3.6 240 10:39 28.06.2020
606 Clouds 17 1019 82 10000 1.5 280 10:21 28.06.2020
607 Clouds 17 1019 82 10000 1.5 280 10:21 28.06.2020
608 Clouds 16 1019 88 0 1.5 110 09:41 28.06.2020
609 Clouds 15 1019 93 10000 1.09 170 09:22 28.06.2020
610 Clouds 14 1019 93 0 1 0 08:55 28.06.2020
611 Clouds 15 1020 87 0 1.15 158 08:35 28.06.2020
612 Clouds 13 1021 86 0 0.66 138 07:55 28.06.2020
613 Clouds 12 1021 85 0 0.66 138 07:31 28.06.2020
614 Clouds 12 1021 85 0 0.34 122 06:55 28.06.2020
615 Clouds 12 1021 86 0 0.34 122 06:32 28.06.2020
616 Clouds 13 1018 100 0 1 0 05:30 28.06.2020
617 Clouds 13 1018 100 0 0.5 0 03:52 28.06.2020
618 Mist 13 1018 100 0 1 0 02:56 28.06.2020
619 Clouds 12 1021 89 0 0.33 230 02:19 28.06.2020
620 Clouds 14 1018 93 0 0.5 0 01:27 28.06.2020
621 Clouds 14 1018 93 0 1 0 00:53 28.06.2020
622 Clouds 13 1022 89 0 1.19 163 00:29 28.06.2020
623 Clouds 14 1018 100 0 0.5 0 23:45 27.06.2020
624 Rain 15 1018 100 0 1 0 23:24 27.06.2020
625 Rain 15 1018 93 0 1 0 22:59 27.06.2020
626 Rain 15 1018 93 0 1 0 22:59 27.06.2020
627 Rain 15 1018 93 0 1 0 22:41 27.06.2020
628 Rain 14 1022 91 0 0.42 197 22:23 27.06.2020
629 Rain 15 1022 90 0 0.42 197 21:57 27.06.2020
630 Clouds 16 1017 93 0 1 0 21:38 27.06.2020
631 Rain 14 1021 87 0 0.36 116 21:20 27.06.2020
632 Rain 14 1021 87 0 0.36 116 21:20 27.06.2020
633 Rain 14 1034 89 0 0.36 116 20:45 27.06.2020
634 Clouds 15 1017 82 0 3.6 90 20:19 27.06.2020
635 Clouds 15 1017 82 0 3.6 90 20:19 27.06.2020
636 Clouds 18 1017 88 0 3.1 90 19:56 27.06.2020
637 Clouds 18 1017 88 0 3.1 90 19:37 27.06.2020
638 Clouds 18 1017 83 0 3.6 80 19:18 27.06.2020
639 Clouds 18 1017 77 0 7.2 40 18:47 27.06.2020
640 Rain 17 1018 82 0 2.6 220 18:28 27.06.2020
641 Clouds 17 1017 83 0 3.1 130 17:58 27.06.2020
642 Clouds 17 1017 83 0 3.1 130 17:38 27.06.2020
643 Clouds 18 1017 83 0 3.6 60 17:19 27.06.2020
644 Rain 19 1017 83 0 4.1 90 16:46 27.06.2020
645 Rain 19 1017 88 0 2.1 130 16:28 27.06.2020
646 Rain 19 1017 88 0 2.1 210 15:59 27.06.2020
647 Rain 19 1017 88 0 2.1 210 15:39 27.06.2020
648 Rain 17 1017 88 0 1.5 210 15:21 27.06.2020
649 Clouds 16 1017 64 0 2.1 230 14:43 27.06.2020
650 Clouds 16 1016 64 0 3.1 260 14:24 27.06.2020
651 Clouds 16 1016 73 0 2.1 260 13:58 27.06.2020
652 Clouds 17 1016 73 0 2.1 260 13:38 27.06.2020
653 Clouds 20 1016 68 0 0.5 0 13:19 27.06.2020
654 Clouds 20 1016 64 0 2.1 230 12:57 27.06.2020
655 Clouds 20 1016 64 0 2.1 230 12:38 27.06.2020
656 Clouds 20 1017 68 0 2.1 270 12:20 27.06.2020
657 Clouds 20 1017 64 0 2.1 260 11:43 27.06.2020
658 Clouds 19 1017 68 0 3.6 250 11:24 27.06.2020
659 Clouds 19 1017 68 0 2.1 260 10:59 27.06.2020
660 Clouds 19 1017 68 0 2.1 260 10:38 27.06.2020
661 Clouds 18 1017 72 0 1.5 260 10:18 27.06.2020
662 Rain 15 1020 80 0 1.97 179 09:41 27.06.2020
663 Clouds 17 1017 77 0 3.6 70 09:21 27.06.2020
664 Clouds 16 1018 88 0 3.1 70 08:56 27.06.2020
665 Clouds 16 1018 88 0 3.1 70 08:38 27.06.2020
666 Clouds 14 1020 92 0 2.26 173 08:19 27.06.2020
667 Clouds 12 1020 91 0 2.26 173 07:38 27.06.2020
668 Clouds 12 1020 91 0 2.18 172 07:19 27.06.2020
669 Clouds 11 1020 90 0 2.18 172 06:38 27.06.2020
670 Clouds 11 1020 91 0 2.29 177 06:18 27.06.2020
671 Clouds 11 1020 92 0 2.2 185 04:22 27.06.2020
672 Clouds 11 1021 92 0 2.2 185 03:51 27.06.2020
673 Clouds 11 1021 93 0 2.23 181 02:48 27.06.2020
674 Clouds 11 1021 93 0 2.34 181 02:28 27.06.2020
675 Clouds 12 1016 100 0 1.5 90 01:41 27.06.2020
676 Clouds 13 1016 93 0 0.5 0 00:56 27.06.2020
677 Clouds 13 1016 93 0 1 0 00:27 27.06.2020
678 Clouds 13 1017 88 0 1.5 110 23:41 26.06.2020
679 Clouds 13 1017 100 0 2.1 100 23:22 26.06.2020
680 Clouds 14 1017 93 0 1 0 22:56 26.06.2020
681 Clouds 14 1017 93 0 1 0 22:37 26.06.2020
682 Clouds 15 1017 88 0 2.05 185 22:18 26.06.2020
683 Clouds 15 1016 88 0 2.05 185 21:56 26.06.2020
684 Rain 13 1021 92 0 2.05 185 21:37 26.06.2020
685 Rain 14 1021 92 0 2.29 174 21:18 26.06.2020
686 Rain 14 1020 91 0 1.73 179 20:42 26.06.2020
687 Rain 14 1020 90 0 1.68 180 20:19 26.06.2020
688 Rain 14 1020 89 0 1.68 180 19:42 26.06.2020
689 Rain 14 1020 84 0 1.79 153 19:23 26.06.2020
690 Rain 15 1033 91 0 4.92 80 18:54 26.06.2020
691 Rain 16 1035 92 0 0.89 287 18:36 26.06.2020
692 Rain 18 1016 88 0 2.1 210 18:18 26.06.2020
693 Rain 18 1017 77 0 5.1 250 17:43 26.06.2020
694 Rain 20 1016 68 0 5.7 310 17:23 26.06.2020
695 Clouds 20 1016 60 10000 6.2 270 16:47 26.06.2020
696 Clouds 22 1015 57 10000 3.6 30 16:25 26.06.2020
697 Clouds 22 1015 51 10000 1.5 0 15:54 26.06.2020
698 Clouds 22 1015 51 10000 1.5 0 15:36 26.06.2020
699 Clouds 23 1015 48 10000 2.1 210 15:18 26.06.2020
700 Clouds 23 1015 57 10000 3.1 30 14:40 26.06.2020
701 Clouds 24 1015 47 10000 3.1 230 14:22 26.06.2020
702 Clouds 22 1016 50 10000 2.1 240 13:59 26.06.2020
703 Clouds 22 1016 50 10000 2.1 240 13:41 26.06.2020
704 Clouds 23 1016 50 0 3.1 250 13:18 26.06.2020
705 Clouds 22 1016 57 0 4.1 250 12:41 26.06.2020
706 Clouds 22 1016 57 0 4.1 250 12:41 26.06.2020
707 Clouds 21 1016 61 10000 4.1 90 12:23 26.06.2020
708 Clouds 21 1016 64 10000 1 0 11:59 26.06.2020
709 Clouds 21 1016 64 10000 1 0 11:39 26.06.2020
710 Clouds 21 1016 64 10000 1 0 11:39 26.06.2020
711 Clouds 21 1016 60 10000 0.82 220 11:21 26.06.2020
712 Clouds 21 1016 53 7000 0.82 220 10:58 26.06.2020
713 Clouds 21 1016 53 7000 0.82 220 10:38 26.06.2020
714 Clouds 21 1016 64 10000 1.5 120 10:19 26.06.2020
715 Rain 20 1017 64 10000 1.5 100 09:44 26.06.2020
716 Clouds 19 1017 73 10000 1.5 90 09:25 26.06.2020
717 Clouds 17 1017 77 10000 2.1 100 08:57 26.06.2020
718 Clouds 16 1017 82 10000 1.5 90 08:29 26.06.2020
719 Clouds 13 1020 89 0 1.25 182 07:53 26.06.2020
720 Clouds 13 1020 89 0 1.29 180 07:25 26.06.2020
721 Clouds 12 1020 87 0 1.31 174 06:59 26.06.2020
722 Clouds 12 1020 87 0 1.31 174 06:41 26.06.2020
723 Clouds 13 1016 93 10000 1 0 06:23 26.06.2020
724 Clouds 13 1017 93 0 1.5 110 05:48 26.06.2020
725 Clouds 14 1017 87 0 1.5 140 03:55 26.06.2020
726 Clear 13 1017 93 0 1.5 90 02:22 26.06.2020
727 Clouds 14 1017 82 0 1 0 01:21 26.06.2020
728 Clouds 14 1017 82 0 1 0 00:41 26.06.2020
729 Clouds 17 1017 82 0 2.6 110 00:20 26.06.2020
730 Clouds 17 1017 82 0 2.6 110 23:43 25.06.2020
731 Clouds 18 1017 82 0 2.6 100 23:19 25.06.2020
732 Clouds 18 1017 77 0 3.1 90 22:56 25.06.2020
733 Clouds 18 1017 77 0 3.1 90 22:37 25.06.2020
734 Clouds 19 1017 77 10000 3.6 90 22:19 25.06.2020
735 Clouds 19 1017 83 10000 2.6 100 21:56 25.06.2020
736 Clouds 19 1017 83 10000 2.6 100 21:38 25.06.2020
737 Rain 15 1020 81 0 1.34 174 21:19 25.06.2020
738 Rain 20 1016 60 10000 2.6 350 20:45 25.06.2020
739 Clouds 21 1016 50 0 7.2 30 20:24 25.06.2020
740 Clouds 22 1016 53 0 6.2 30 19:58 25.06.2020
741 Clouds 22 1016 53 0 6.2 30 19:40 25.06.2020
742 Clouds 23 1016 50 0 6.2 20 19:19 25.06.2020
743 Clouds 23 1016 50 0 6.2 20 18:57 25.06.2020
744 Clouds 23 1016 50 0 6.2 20 18:37 25.06.2020
745 Clouds 23 1016 54 0 5.7 30 18:19 25.06.2020
746 Clouds 23 1016 54 0 5.7 30 18:19 25.06.2020
747 Clouds 23 1016 51 0 5.7 50 17:41 25.06.2020
748 Clouds 23 1016 51 10000 5.1 50 17:19 25.06.2020
749 Clouds 23 1016 51 10000 6.7 50 16:57 25.06.2020
750 Clouds 23 1016 51 10000 6.7 50 16:57 25.06.2020
751 Clouds 24 1016 51 10000 6.7 50 16:37 25.06.2020
752 Clouds 23 1016 51 10000 5.7 50 16:18 25.06.2020
753 Clouds 23 1017 51 10000 3.6 50 15:41 25.06.2020
754 Clouds 23 1017 54 10000 2.6 0 15:21 25.06.2020
755 Clouds 22 1017 54 10000 3.1 270 14:44 25.06.2020
756 Clouds 22 1017 54 10000 3.6 250 14:25 25.06.2020
757 Rain 21 1018 57 10000 4.1 260 13:57 25.06.2020
758 Rain 22 1018 57 10000 4.1 260 13:38 25.06.2020
759 Rain 21 1018 57 0 4.1 250 13:19 25.06.2020
760 Rain 21 1018 53 10000 1 0 12:46 25.06.2020
761 Clouds 21 1018 60 10000 3.1 250 12:21 25.06.2020
762 Clouds 20 1018 60 10000 1 0 11:58 25.06.2020
763 Clouds 20 1018 60 10000 1 0 11:40 25.06.2020
764 Clouds 19 1018 56 10000 1.5 230 11:21 25.06.2020
765 Clouds 19 1018 64 10000 1.18 311 10:42 25.06.2020
766 Clouds 18 1019 64 10000 0.5 0 10:24 25.06.2020
767 Clear 17 1035 69 0 0.45 222 09:42 25.06.2020
768 Clouds 17 1019 77 10000 2.6 80 09:23 25.06.2020
769 Clouds 17 1019 77 10000 2.6 80 09:23 25.06.2020
770 Clouds 16 1019 77 10000 2.1 80 08:56 25.06.2020
771 Clouds 16 1019 77 10000 2.1 80 08:38 25.06.2020
772 Clear 13 1020 80 0 0.98 289 08:18 25.06.2020
773 Clear 12 1021 89 0 0.98 289 07:41 25.06.2020
774 Clear 13 1021 88 0 0.92 289 07:21 25.06.2020
775 Clouds 12 1019 93 10000 0.5 0 06:31 25.06.2020
776 Clouds 14 1019 87 0 0.97 306 05:55 25.06.2020
777 Clouds 14 1019 93 0 1.5 100 05:29 25.06.2020
778 Clear 15 1020 93 0 1.12 308 03:36 25.06.2020
779 Clear 14 1020 87 0 1.5 80 02:45 25.06.2020
780 Clear 15 1020 82 0 0.73 278 02:25 25.06.2020
781 Clear 15 1020 87 0 0.73 278 01:41 25.06.2020
782 Clear 16 1020 82 0 1 0 00:50 25.06.2020
783 Clouds 16 1020 77 0 3.1 100 00:22 25.06.2020
784 Clouds 16 1020 72 0 3.1 90 23:58 24.06.2020
785 Clouds 16 1020 72 0 3.1 90 23:38 24.06.2020
786 Clouds 17 1019 68 0 3.6 110 23:19 24.06.2020
787 Clouds 18 1019 53 0 3.6 70 22:42 24.06.2020
788 Clouds 19 1019 46 0 5.1 60 22:21 24.06.2020
789 Clouds 19 1019 46 0 4.6 60 21:57 24.06.2020
790 Clouds 17 1019 46 0 4.6 60 21:37 24.06.2020
791 Clouds 17 1019 44 0 5.1 60 21:19 24.06.2020
792 Clouds 18 1019 41 0 6.7 30 20:58 24.06.2020
793 Clouds 18 1019 41 0 6.7 30 20:39 24.06.2020
794 Clouds 18 1019 47 0 6.2 20 20:21 24.06.2020
795 Clouds 22 1018 44 0 6.2 30 19:58 24.06.2020
796 Clouds 22 1018 44 0 6.2 30 19:38 24.06.2020
797 Clouds 22 1019 47 0 5.1 30 19:20 24.06.2020
798 Clouds 23 1019 50 0 6.7 30 18:58 24.06.2020
799 Clouds 23 1019 50 0 6.7 30 18:39 24.06.2020
800 Clouds 22 1019 50 0 6.2 30 18:20 24.06.2020
801 Rain 23 1019 54 0 6.2 30 17:55 24.06.2020
802 Rain 23 1019 54 0 6.2 30 17:37 24.06.2020
803 Clouds 23 1019 50 10000 6.2 40 17:18 24.06.2020
804 Clouds 23 1019 51 10000 5.7 50 16:55 24.06.2020
805 Clouds 23 1019 51 10000 5.7 50 16:37 24.06.2020
806 Clouds 23 1019 51 10000 5.7 50 16:37 24.06.2020
807 Clouds 23 1019 51 10000 5.1 50 16:19 24.06.2020
808 Clouds 23 1019 51 10000 5.1 50 16:19 24.06.2020
809 Clouds 23 1019 51 10000 4.6 50 15:55 24.06.2020
810 Clouds 23 1019 51 10000 4.6 50 15:37 24.06.2020
811 Rain 23 1019 50 10000 6.2 50 15:18 24.06.2020
812 Rain 23 1019 50 10000 4.6 50 14:40 24.06.2020
813 Rain 23 1020 50 10000 1.5 0 14:22 24.06.2020
814 Rain 22 1020 47 10000 1.5 220 13:42 24.06.2020
815 Rain 18 1020 53 0 2.6 270 13:22 24.06.2020
816 Clouds 17 1021 60 0 4.1 270 12:46 24.06.2020
817 Haze 18 1021 60 1800 1.5 0 12:22 24.06.2020
818 Rain 17 1021 56 10000 1.5 0 11:59 24.06.2020
819 Rain 17 1021 56 10000 1.5 0 11:41 24.06.2020
820 Clouds 17 1021 64 10000 0.5 0 11:23 24.06.2020
821 Clouds 17 1021 64 10000 0.5 0 10:54 24.06.2020
822 Clouds 17 1021 64 10000 0.5 0 10:36 24.06.2020
823 Clear 17 1016 62 0 0.7 316 10:18 24.06.2020
824 Clear 17 1022 69 0 0.45 148 09:42 24.06.2020
825 Clear 16 1016 56 0 0.447 0 09:20 24.06.2020
826 Clear 15 1017 59 0 0.894 202 08:41 24.06.2020
827 Clear 14 1023 80 0 1.3 213 08:20 24.06.2020
828 Clear 13 1023 86 0 1.3 213 07:50 24.06.2020
829 Clouds 13 1023 87 0 1.51 203 07:26 24.06.2020
830 Clouds 12 1023 88 0 1.51 203 06:49 24.06.2020
831 Clouds 11 1023 88 0 1.69 197 06:25 24.06.2020
832 Clouds 11 1023 88 0 1.69 197 05:46 24.06.2020
833 Clouds 11 1024 88 0 1.72 190 04:41 24.06.2020
834 Clouds 12 1021 87 0 3.1 90 03:41 24.06.2020
835 Clouds 11 1024 88 0 1.69 174 03:19 24.06.2020
836 Clouds 11 1021 93 0 3.6 110 02:41 24.06.2020
837 Clouds 12 1022 82 0 3.6 90 00:58 24.06.2020
838 Clouds 12 1022 82 0 3.6 90 00:39 24.06.2020
839 Clouds 13 1022 82 0 3.6 90 00:21 24.06.2020
840 Clouds 13 1022 72 0 4.1 90 23:40 23.06.2020
841 Clouds 13 1022 77 0 3.6 60 23:18 23.06.2020
842 Clouds 14 1022 60 0 3.1 100 22:41 23.06.2020
843 Clouds 14 1021 49 0 3.1 60 22:19 23.06.2020
844 Clouds 15 1021 49 0 3.6 50 21:59 23.06.2020
845 Clouds 15 1021 49 0 3.6 50 21:38 23.06.2020
846 Clouds 14 1024 69 0 1.81 3 21:18 23.06.2020
847 Clouds 15 1024 62 0 0.89 335 20:55 23.06.2020
848 Clouds 15 1024 63 0 0.89 324 20:36 23.06.2020
849 Rain 16 1021 47 0 4.6 50 20:18 23.06.2020
850 Rain 17 1021 50 0 4.6 60 19:43 23.06.2020
851 Rain 17 1021 50 0 4.6 60 19:43 23.06.2020
852 Rain 17 1021 47 0 4.6 60 19:24 23.06.2020
853 Rain 17 1021 47 0 4.6 0 18:40 23.06.2020
854 Rain 18 1023 56 0 4.47 294 18:19 23.06.2020
855 Rain 18 1023 52 0 3.13 282 17:44 23.06.2020
856 Rain 18 1023 51 0 4.02 303 17:25 23.06.2020
857 Rain 19 1023 52 0 3.58 273 16:58 23.06.2020
858 Rain 19 1023 51 0 4.47 294 16:39 23.06.2020
859 Rain 18 1023 48 0 4.02 284 16:21 23.06.2020
860 Rain 17 1023 48 0 4.47 286 15:59 23.06.2020
861 Rain 16 1038 56 0 0.89 300 15:41 23.06.2020
862 Clouds 16 1038 57 0 1.79 128 15:23 23.06.2020
863 Clouds 17 1022 53 10000 5.7 0 14:54 23.06.2020
864 Clouds 17 1022 53 10000 5.7 0 14:36 23.06.2020
865 Clouds 17 1022 50 10000 6.2 20 14:18 23.06.2020
866 Clear 16 1022 53 10000 5.7 30 13:44 23.06.2020
867 Clear 17 1024 46 0 0.45 126 13:25 23.06.2020
868 Clear 16 1024 49 0 0.45 141 12:46 23.06.2020
869 Clear 16 1023 56 10000 6.2 50 12:23 23.06.2020
870 Clear 15 1023 60 10000 4.6 50 11:59 23.06.2020
871 Clear 16 1023 60 10000 4.6 50 11:40 23.06.2020
872 Clear 15 1025 62 0 0.89 111 11:21 23.06.2020
873 Clear 15 1025 60 0 0.45 117 10:58 23.06.2020
874 Clear 17 1025 61 0 0.45 125 10:39 23.06.2020
875 Clear 18 1025 63 0 1.3 53 10:21 23.06.2020
876 Clear 17 1025 69 0 1.3 53 09:55 23.06.2020
877 Clear 15 1025 71 0 1.22 48 09:37 23.06.2020
878 Clear 12 1038 81 0 0.447 180 09:18 23.06.2020
879 Clear 13 1025 79 0 0.93 44 08:42 23.06.2020
880 Clouds 13 1025 84 0 0.37 60 08:22 23.06.2020
881 Clouds 11 1025 90 0 0.37 60 07:45 23.06.2020
882 Clouds 10 1025 91 0 0.14 100 07:24 23.06.2020
883 Clouds 9 1025 91 0 0.14 100 06:52 23.06.2020
884 Clouds 8 1023 89 0 0.14 100 06:32 23.06.2020
885 Clouds 7 1025 91 0 0.23 131 05:54 23.06.2020
886 Clouds 7 1025 90 0 0.36 115 04:42 23.06.2020
887 Clouds 8 1024 93 0 1.5 100 03:21 23.06.2020
888 Clouds 8 1024 93 0 0.83 45 02:47 23.06.2020
889 Clouds 9 1024 87 0 0.5 0 02:28 23.06.2020
890 Clouds 9 1024 82 0 2.1 110 01:45 23.06.2020
891 Clouds 10 1024 77 0 3.6 80 01:21 23.06.2020
892 Clouds 10 1024 77 0 3.6 80 00:40 23.06.2020
893 Clouds 11 1024 72 0 3.6 90 00:19 23.06.2020
894 Clouds 11 1023 82 0 3.6 90 23:39 22.06.2020
895 Clouds 11 1023 72 0 2.6 90 23:19 22.06.2020
896 Clouds 12 1023 56 0 2.1 0 22:59 22.06.2020
897 Clouds 12 1023 56 0 2.1 0 22:40 22.06.2020
898 Clouds 12 1023 56 0 2.1 0 22:20 22.06.2020
899 Clouds 13 1023 56 0 3.6 70 21:58 22.06.2020
900 Clouds 13 1023 56 0 3.6 70 21:58 22.06.2020
901 Clouds 13 1023 56 0 3.6 70 21:58 22.06.2020
902 Clouds 13 1023 56 0 3.6 70 21:40 22.06.2020
903 Clouds 11 1025 81 0 2.38 1 21:21 22.06.2020
904 Clouds 12 1025 78 0 2.38 1 20:55 22.06.2020
905 Clouds 11 1025 75 0 2.38 1 20:36 22.06.2020
906 Clouds 11 1025 74 0 2.76 1 20:18 22.06.2020
907 Clouds 12 1025 73 0 2.76 1 19:43 22.06.2020
908 Clouds 14 1023 44 0 4.6 70 19:19 22.06.2020
909 Clouds 15 1023 44 0 4.6 70 18:56 22.06.2020
910 Clouds 15 1023 41 0 4.6 80 18:36 22.06.2020
911 Clouds 13 1025 70 0 3.15 355 18:18 22.06.2020
912 Clouds 14 1023 44 0 4.6 60 17:55 22.06.2020
913 Clouds 14 1023 44 10000 4.1 70 17:36 22.06.2020
914 Clouds 14 1023 44 10000 4.1 70 17:18 22.06.2020
915 Rain 15 1026 72 0 0.89 50 16:41 22.06.2020
916 Rain 12 1026 71 0 3.42 349 16:18 22.06.2020
917 Rain 12 1026 64 0 3.13 330 15:55 22.06.2020
918 Rain 12 1022 64 0 2.24 71 15:37 22.06.2020
919 Clouds 15 1026 65 0 2.24 286 15:19 22.06.2020
920 Clouds 12 1026 67 0 2.68 292 14:39 22.06.2020
921 Clouds 14 1026 64 0 2.24 307 14:20 22.06.2020
922 Clouds 13 1026 66 0 1.79 297 13:56 22.06.2020
923 Clouds 13 1026 64 0 2.68 323 13:37 22.06.2020
924 Clouds 13 1026 67 0 2.24 281 13:19 22.06.2020
925 Clouds 15 1026 69 0 0.89 265 12:42 22.06.2020
926 Clouds 12 1026 69 0 0.89 309 12:23 22.06.2020
927 Clouds 12 1026 76 0 1.34 322 11:39 22.06.2020
928 Clouds 11 1026 77 0 2.24 286 11:20 22.06.2020
929 Clouds 11 1026 82 0 0.45 338 10:57 22.06.2020
930 Clouds 11 1026 82 0 0.45 338 10:57 22.06.2020
931 Clouds 13 1026 85 0 3.5 353 10:39 22.06.2020
932 Clouds 13 1026 87 0 3.53 351 10:19 22.06.2020
933 Clouds 13 1026 87 0 3.53 351 09:59 22.06.2020
934 Clouds 12 1026 90 0 3.53 351 09:41 22.06.2020
935 Clouds 8 1033 83 0 1.79 106 09:20 22.06.2020
936 Clouds 8 1033 89 0 1.79 82 08:58 22.06.2020
937 Clouds 9 1025 92 0 3.55 351 08:38 22.06.2020
938 Clouds 9 1025 92 0 3.39 349 08:20 22.06.2020
939 Clouds 9 1025 92 0 3.39 349 07:50 22.06.2020
940 Clouds 9 1025 91 0 3.39 349 07:31 22.06.2020
941 Clouds 8 1025 90 0 0.45 181 06:44 22.06.2020
942 Clouds 9 1026 93 10000 0.5 60 06:26 22.06.2020
943 Clouds 9 1025 93 0 3.46 345 05:53 22.06.2020
944 Clouds 9 1025 93 0 3.24 339 04:22 22.06.2020
945 Clouds 9 1025 87 0 2.87 340 02:35 22.06.2020
946 Clouds 9 1025 93 0 1 70 01:21 22.06.2020
947 Clouds 9 1024 93 0 1.5 90 00:39 22.06.2020
948 Clouds 10 1024 82 0 0.5 0 23:58 21.06.2020
949 Clouds 10 1024 82 0 3.1 336 23:39 21.06.2020
950 Clouds 10 1024 82 0 3.17 336 23:21 21.06.2020
951 Clouds 10 1024 82 0 1 90 22:57 21.06.2020
952 Clouds 11 1023 77 0 3.17 336 22:37 21.06.2020
953 Clouds 11 1023 77 0 3.24 336 22:19 21.06.2020
954 Clouds 11 1023 77 0 3.24 336 22:19 21.06.2020
955 Clouds 10 1023 82 0 3.24 336 21:57 21.06.2020
956 Clouds 11 1023 77 0 0.5 0 21:39 21.06.2020
957 Clouds 11 1024 71 0 3.3 338 21:20 21.06.2020
958 Clouds 9 1034 78 0 1.79 65 20:57 21.06.2020
959 Clouds 9 1033 79 0 3.3 338 20:37 21.06.2020
960 Clouds 10 1033 78 0 0.89 66 20:18 21.06.2020
961 Clouds 10 1033 78 0 0.89 66 20:18 21.06.2020
962 Clouds 13 1022 60 0 1 0 19:55 21.06.2020
963 Clouds 13 1022 49 0 1.5 220 19:37 21.06.2020
964 Clouds 13 1022 49 0 1.5 220 19:18 21.06.2020
965 Clouds 13 1022 49 0 1 0 18:40 21.06.2020
966 Clouds 13 1022 49 0 1 0 18:22 21.06.2020
967 Clouds 13 1022 49 0 2.1 220 17:59 21.06.2020
968 Clouds 13 1022 49 0 2.6 260 17:39 21.06.2020
969 Clouds 13 1022 49 0 2.6 260 17:20 21.06.2020
970 Clouds 13 1022 49 0 2.6 290 16:43 21.06.2020
971 Clouds 13 1022 49 0 2.6 290 16:23 21.06.2020
972 Clouds 11 1023 61 0 1.34 340 15:57 21.06.2020
973 Clouds 13 1023 59 0 1.79 340 15:37 21.06.2020
974 Clouds 16 1023 55 0 0.89 357 15:19 21.06.2020
975 Clouds 16 1022 58 0 2.68 290 14:39 21.06.2020
976 Clouds 13 1023 57 0 1.34 242 14:20 21.06.2020
977 Clouds 14 1023 59 0 0.89 355 13:58 21.06.2020
978 Clouds 15 1022 57 0 2.24 338 13:40 21.06.2020
979 Clouds 15 1023 70 0 0.89 149 13:21 21.06.2020
980 Clouds 14 1023 79 0 4.03 344 12:45 21.06.2020
981 Clear 13 1023 60 0 1.79 248 12:26 21.06.2020
982 Clear 13 1023 62 0 0.89 344 11:59 21.06.2020
983 Clear 11 1023 63 0 2.24 340 11:41 21.06.2020
984 Clear 10 1023 61 0 1.79 342 11:23 21.06.2020
985 Clear 11 1022 61 0 1.34 57 10:57 21.06.2020
986 Clear 13 1022 61 0 1.34 336 10:38 21.06.2020
987 Clear 13 1022 65 0 0.89 280 10:20 21.06.2020
988 Clear 13 1022 72 0 0.45 105 09:43 21.06.2020
989 Clouds 8 1024 87 0 3.64 338 09:22 21.06.2020
990 Clear 9 1020 83 0 3.64 338 08:57 21.06.2020
991 Clear 8 1038 97 0 1.788 0 08:39 21.06.2020
992 Clouds 7 1022 91 0 3.02 340 08:19 21.06.2020
993 Clouds 7 1022 94 0 3.02 340 07:41 21.06.2020
994 Clouds 6 1022 94 0 2.27 335 07:23 21.06.2020
995 Clouds 6 1022 94 0 2.27 335 06:50 21.06.2020
996 Clouds 6 1023 93 10000 1.5 30 06:19 21.06.2020
997 Clouds 6 1023 100 0 3.1 80 05:57 21.06.2020
998 Clouds 7 1023 93 0 2.6 335 04:29 21.06.2020
999 Clouds 7 1023 93 0 2.59 330 03:19 21.06.2020
1000 Clouds 7 1023 93 0 1.5 80 02:22 21.06.2020
1001 Clouds 7 1024 100 0 2.1 90 01:36 21.06.2020
1002 Clouds 7 1024 100 0 2.1 90 01:18 21.06.2020
1003 Rain 7 1024 93 0 1.5 70 00:41 21.06.2020
1004 Clouds 5 1030 95 0 0.45 43 00:23 21.06.2020
1005 Rain 8 1023 93 0 2.6 260 23:45 20.06.2020
1006 Rain 8 1023 93 0 2.6 260 23:22 20.06.2020
1007 Rain 8 1023 100 0 3.1 250 22:57 20.06.2020
1008 Rain 9 1023 87 0 1.5 270 22:39 20.06.2020
1009 Rain 9 1023 87 0 1.5 270 22:19 20.06.2020
1010 Clouds 9 1022 87 0 2.1 40 21:58 20.06.2020
1011 Rain 9 1021 67 0 5.1 30 21:39 20.06.2020
1012 Clouds 9 1021 69 0 0.45 283 21:20 20.06.2020
1013 Clouds 9 1021 69 0 0.45 283 21:20 20.06.2020
1014 Clouds 9 1021 65 0 0.89 288 20:58 20.06.2020
1015 Clouds 7 1030 83 0 1.34 68 20:39 20.06.2020
1016 Clouds 7 1029 83 0 3.32 344 20:20 20.06.2020
1017 Clouds 8 1030 80 0 0.89 86 19:55 20.06.2020
1018 Clouds 10 1021 55 0 3.6 30 19:37 20.06.2020
1019 Clouds 11 1021 55 0 3.6 30 19:19 20.06.2020
1020 Clouds 11 1021 52 0 1.5 0 18:42 20.06.2020
1021 Rain 11 1021 58 0 0.89 317 18:20 20.06.2020
1022 Rain 12 1021 57 0 0.45 333 17:57 20.06.2020
1023 Rain 11 1021 57 0 1.34 307 17:39 20.06.2020
1024 Rain 11 1021 60 0 0.45 245 17:20 20.06.2020
1025 Clouds 11 1021 52 0 2.6 0 16:42 20.06.2020
1026 Clouds 11 1021 52 0 2.6 0 16:19 20.06.2020
1027 Rain 11 1021 54 0 0.89 91 15:57 20.06.2020
1028 Clouds 11 1022 52 0 4.1 40 15:39 20.06.2020
1029 Clouds 11 1022 52 0 4.1 40 15:18 20.06.2020
1030 Clouds 11 1022 55 0 2.1 270 14:42 20.06.2020
1031 Clouds 10 1021 66 0 0.45 145 14:21 20.06.2020
1032 Clouds 13 1021 65 0 2.88 349 13:42 20.06.2020
1033 Clouds 14 1021 64 0 0.45 238 13:23 20.06.2020
1034 Clouds 14 1021 66 0 0.45 163 12:57 20.06.2020
1035 Clouds 14 1021 64 0 0.45 137 12:38 20.06.2020
1036 Clouds 8 1039 91 0 1.788 22 12:19 20.06.2020
1037 Clouds 10 1022 67 0 3.6 270 11:55 20.06.2020
1038 Clouds 9 1022 67 0 1.5 270 11:36 20.06.2020
1039 Clouds 9 1022 67 0 1.5 270 11:18 20.06.2020
1040 Clouds 10 1021 77 0 2.8 354 10:42 20.06.2020
1041 Clouds 8 1021 79 0 2.77 358 10:20 20.06.2020
1042 Clouds 8 1021 76 0 2.77 358 09:54 20.06.2020
1043 Clouds 10 1021 78 0 2.69 354 09:36 20.06.2020
1044 Clouds 8 1022 82 0 1 0 09:18 20.06.2020
1045 Clouds 7 1022 100 10000 2.69 353 08:43 20.06.2020
1046 Clouds 7 1021 89 0 2.43 348 08:25 20.06.2020
1047 Clouds 6 1022 95 0 2.43 348 07:51 20.06.2020
1048 Clear 7 1022 95 0 2.06 342 07:26 20.06.2020
1049 Clear 6 1022 95 0 2.06 342 06:51 20.06.2020
1050 Clouds 6 1022 93 10000 0.5 0 06:23 20.06.2020
1051 Clear 4 1022 94 0 1.96 345 05:49 20.06.2020
1052 Clear 4 1021 94 0 2.09 344 04:49 20.06.2020
1053 Clouds 6 1023 100 0 2.14 339 02:20 20.06.2020
1054 Clouds 6 1023 93 0 1 0 01:45 20.06.2020
1055 Clouds 6 1023 87 0 0.5 0 00:50 20.06.2020
1056 Clouds 6 1022 87 0 2.09 341 00:20 20.06.2020
1057 Clouds 6 1022 87 0 2.09 341 23:48 19.06.2020
1058 Clouds 6 1022 87 0 1.5 90 23:21 19.06.2020
1059 Clouds 7 1022 82 0 5.1 60 22:58 19.06.2020
1060 Clouds 7 1022 82 0 4.6 50 22:40 19.06.2020
1061 Clouds 7 1022 82 0 4.6 50 22:21 19.06.2020
1062 Clouds 7 1020 80 0 2.33 331 21:56 19.06.2020
1063 Clouds 7 1020 80 0 2.33 331 21:56 19.06.2020
1064 Clouds 5 1026 91 0 1.34 57 21:37 19.06.2020
1065 Clouds 8 1021 90 0 2.66 332 21:18 19.06.2020
1066 Clouds 9 1020 90 0 2.66 332 20:57 19.06.2020
1067 Clouds 9 1020 90 0 2.66 332 20:39 19.06.2020
1068 Clouds 9 1020 88 0 3.25 334 20:20 19.06.2020
1069 Clouds 7 1020 87 0 3.25 334 19:55 19.06.2020
1070 Clouds 9 1020 87 0 3.25 334 19:37 19.06.2020
1071 Rain 8 1020 87 0 0.45 342 19:18 19.06.2020
1072 Clouds 9 1020 67 0 3.6 50 18:40 19.06.2020
1073 Rain 10 1019 76 0 1.34 313 18:21 19.06.2020
1074 Rain 9 1019 71 0 1.79 5 17:54 19.06.2020
1075 Rain 9 1019 68 0 2.24 328 17:36 19.06.2020
1076 Rain 9 1019 67 0 1.34 34 17:18 19.06.2020
1077 Rain 9 1019 69 0 2.68 324 16:41 19.06.2020
1078 Rain 9 1019 69 0 1.34 296 16:23 19.06.2020
1079 Rain 9 1019 70 0 2.24 357 15:58 19.06.2020
1080 Rain 11 1019 69 0 2.24 274 15:40 19.06.2020
1081 Rain 10 1019 71 0 1.34 317 15:19 19.06.2020
1082 Rain 9 1019 76 0 2.24 301 14:55 19.06.2020
1083 Rain 9 1019 78 0 3.13 288 14:37 19.06.2020
1084 Rain 9 1019 75 0 2.24 313 14:18 19.06.2020
1085 Rain 10 1018 75 0 2.24 336 13:41 19.06.2020
1086 Rain 11 1018 73 0 2.68 354 13:23 19.06.2020
1087 Rain 11 1018 84 0 0.45 143 12:46 19.06.2020
1088 Rain 5 1024 82 0 1.34 232 12:22 19.06.2020
1089 Rain 5 1024 91 0 2.24 225 11:57 19.06.2020
1090 Rain 5 1024 90 0 2.78 346 11:38 19.06.2020
1091 Rain 8 1017 84 0 2.52 347 11:18 19.06.2020
1092 Rain 8 1016 91 0 2.52 347 10:45 19.06.2020
1093 Rain 8 1017 90 0 2.43 346 10:26 19.06.2020
1094 Rain 8 1017 92 0 2.43 346 09:58 19.06.2020
1095 Rain 7 1017 91 0 2.43 346 09:40 19.06.2020
1096 Clouds 5 1023 96 0 2.49 353 09:20 19.06.2020
1097 Clouds 5 1023 91 0 2.49 353 08:43 19.06.2020
1098 Clouds 5 1022 92 0 2.05 350 08:24 19.06.2020
1099 Clouds 4 1022 96 0 2.05 350 07:56 19.06.2020
1100 Clouds 4 1022 98 0 2.05 350 07:37 19.06.2020
1101 Clouds 4 1023 96 0 1.78 341 07:18 19.06.2020
1102 Mist 6 1018 100 1500 0.5 0 06:23 19.06.2020
1103 Clouds 6 1018 100 0 1.79 346 05:43 19.06.2020
1104 Clouds 6 1018 100 0 0.5 0 04:23 19.06.2020
1105 Clouds 4 1024 92 0 1.5 348 02:50 19.06.2020
1106 Rain 4 1025 99 0 1.79 79 00:49 19.06.2020
1107 Rain 5 1018 93 0 0.94 345 00:22 19.06.2020
1108 Rain 5 1018 92 0 0.94 345 23:59 18.06.2020
1109 Rain 4 1025 99 0 0.94 345 23:41 18.06.2020
1110 Rain 4 1025 99 0 0.45 287 23:23 18.06.2020
1111 Rain 6 1017 90 0 1.34 167 22:58 18.06.2020
1112 Rain 5 1026 93 0 1.14 12 22:36 18.06.2020
1113 Rain 5 1025 92 0 1.64 14 22:18 18.06.2020
1114 Rain 5 1023 95 0 3.13 77 21:38 18.06.2020
1115 Rain 7 1016 72 0 3.13 288 21:19 18.06.2020
1116 Rain 6 1016 75 0 4.02 322 20:56 18.06.2020
1117 Rain 7 1015 78 0 3.58 309 20:38 18.06.2020
1118 Rain 7 1015 88 0 0.45 316 20:18 18.06.2020
1119 Rain 6 1015 86 0 1.87 324 19:42 18.06.2020
1120 Rain 7 1016 93 0 1 0 19:20 18.06.2020
1121 Rain 7 1015 87 0 4.6 290 18:57 18.06.2020
1122 Rain 6 1023 93 0 1.34 209 18:37 18.06.2020
1123 Rain 8 1015 89 0 2.26 301 18:18 18.06.2020
1124 Rain 8 1015 85 0 2.26 301 17:45 18.06.2020
1125 Rain 8 1015 86 0 0.45 171 17:25 18.06.2020
1126 Rain 8 1015 86 0 0.89 183 16:56 18.06.2020
1127 Rain 8 1014 84 0 1.34 176 16:37 18.06.2020
1128 Rain 7 1014 82 0 2.24 257 16:18 18.06.2020
1129 Rain 9 1014 77 0 1.79 240 15:55 18.06.2020
1130 Rain 9 1014 73 0 2.24 326 15:37 18.06.2020
1131 Rain 9 1013 72 0 3.58 297 15:18 18.06.2020
1132 Rain 8 1023 72 0 1.34 197 14:41 18.06.2020
1133 Clouds 10 1014 63 10000 4.6 270 14:23 18.06.2020
1134 Clouds 11 1014 55 10000 4.1 250 13:58 18.06.2020
1135 Clouds 10 1014 55 0 4.1 250 13:40 18.06.2020
1136 Clouds 10 1014 55 0 4.1 250 13:40 18.06.2020
1137 Clouds 10 1014 55 0 4.1 250 13:20 18.06.2020
1138 Clouds 10 1014 63 0 3.6 270 12:55 18.06.2020
1139 Clouds 10 1015 63 10000 4.1 270 12:37 18.06.2020
1140 Clouds 10 1015 63 10000 4.1 270 12:19 18.06.2020
1141 Rain 10 1014 65 0 0.45 126 11:46 18.06.2020
1142 Clouds 10 1015 67 10000 1 0 11:21 18.06.2020
1143 Clouds 10 1015 67 10000 1 0 11:21 18.06.2020
1144 Clouds 9 1015 74 0 0.45 136 10:41 18.06.2020
1145 Clear 8 1015 79 0 1.91 21 10:20 18.06.2020
1146 Clear 9 1015 83 0 1.91 21 09:58 18.06.2020
1147 Clear 8 1015 82 0 1.91 21 09:40 18.06.2020
1148 Clouds 8 1012 82 0 0.894 45 09:21 18.06.2020
1149 Clouds 6 1015 92 0 0.45 161 08:41 18.06.2020
1150 Clouds 6 1015 94 0 1.93 3 08:22 18.06.2020
1151 Clouds 6 1015 94 0 1.93 3 07:57 18.06.2020
1152 Clouds 6 1015 94 0 1.93 3 07:37 18.06.2020
1153 Clouds 5 1015 94 0 1.51 350 07:19 18.06.2020
1154 Clouds 4 1016 100 10000 1.5 100 06:22 18.06.2020
1155 Mist 5 1016 100 0 1.5 80 04:26 18.06.2020
1156 Mist 6 1016 93 0 1.64 338 02:51 18.06.2020
1157 Clouds 6 1016 100 0 1 0 01:30 18.06.2020
1158 Clouds 7 1016 93 0 1.63 319 00:58 18.06.2020
1159 Clouds 7 1016 100 0 1 0 00:39 18.06.2020
1160 Clouds 7 1016 100 0 1 0 00:20 18.06.2020
1161 Clouds 7 1016 100 0 0.5 0 23:44 17.06.2020
1162 Clouds 7 1016 100 0 0.5 0 23:21 17.06.2020
1163 Rain 7 1016 93 0 1 80 22:58 17.06.2020
1164 Rain 7 1015 93 0 1.73 328 22:39 17.06.2020
1165 Rain 7 1015 93 0 1.93 330 22:20 17.06.2020
1166 Rain 7 1015 93 0 0.5 0 21:55 17.06.2020
1167 Clouds 5 1021 99 0 1.93 330 21:37 17.06.2020
1168 Clouds 6 1014 92 0 2.21 338 21:18 17.06.2020
1169 Clouds 7 1014 91 0 0.45 315 20:38 17.06.2020
1170 Clouds 7 1014 91 0 2.58 341 20:20 17.06.2020
1171 Clouds 8 1014 91 0 2.58 341 19:56 17.06.2020
1172 Clouds 5 1021 95 0 0.45 16 19:37 17.06.2020
1173 Clouds 6 1021 96 0 2.62 335 19:18 17.06.2020
1174 Clouds 6 1021 90 0 2.62 335 18:45 17.06.2020
1175 Rain 9 1014 67 0 1.5 260 18:27 17.06.2020
1176 Clouds 7 1013 92 0 2.32 330 17:45 17.06.2020
1177 Clouds 8 1013 92 0 2.11 324 17:23 17.06.2020
1178 Clouds 8 1013 91 0 2.11 324 16:58 17.06.2020
1179 Clouds 8 1013 88 0 2.11 324 16:39 17.06.2020
1180 Clouds 8 1013 88 0 1.92 317 16:21 17.06.2020
1181 Clouds 8 1013 88 0 1.92 317 15:57 17.06.2020
1182 Clouds 8 1013 89 0 1.92 317 15:39 17.06.2020
1183 Clouds 9 1014 77 10000 2.6 70 15:19 17.06.2020
1184 Rain 8 1014 82 10000 2.6 110 14:57 17.06.2020
1185 Rain 7 1014 82 10000 1.5 0 14:39 17.06.2020
1186 Rain 5 1020 98 0 1.61 310 14:19 17.06.2020
1187 Rain 5 1021 97 0 1.61 310 13:56 17.06.2020
1188 Rain 5 1020 99 0 1.61 310 13:36 17.06.2020
1189 Rain 5 1020 99 0 1.68 312 13:18 17.06.2020
1190 Rain 5 1020 99 0 1.68 312 12:42 17.06.2020
1191 Rain 4 1021 99 0 1.44 307 12:22 17.06.2020
1192 Rain 4 1021 99 0 1.44 307 11:45 17.06.2020
1193 Rain 4 1021 99 0 0.67 278 11:26 17.06.2020
1194 Rain 4 1021 99 0 0.67 278 10:59 17.06.2020
1195 Rain 4 1020 99 0 0.67 278 10:38 17.06.2020
1196 Rain 4 1021 99 0 0.89 237 10:19 17.06.2020
1197 Rain 4 1021 99 0 0.32 12 09:56 17.06.2020
1198 Rain 4 1021 99 0 1.79 309 09:37 17.06.2020
1199 Rain 4 1021 99 0 0.45 240 09:19 17.06.2020
1200 Rain 5 1021 99 0 2.68 246 08:44 17.06.2020
1201 Rain 5 1020 99 0 3.13 253 08:20 17.06.2020
1202 Rain 5 1020 99 0 0.31 140 07:55 17.06.2020
1203 Rain 7 1012 95 0 0.31 140 07:37 17.06.2020
1204 Rain 7 1012 95 0 0.27 174 07:18 17.06.2020
1205 Rain 6 1021 99 0 0.27 174 06:41 17.06.2020
1206 Rain 6 1021 99 0 0.17 327 06:22 17.06.2020
1207 Rain 6 1020 95 0 0.89 82 05:56 17.06.2020
1208 Rain 6 1020 99 0 0.3 355 04:39 17.06.2020
1209 Rain 8 1014 93 0 0.88 35 02:44 17.06.2020
1210 Rain 7 1025 99 0 2.24 215 01:20 17.06.2020
1211 Rain 7 1025 99 0 0.89 307 00:37 17.06.2020
1212 Clouds 9 1014 93 0 0.92 11 00:18 17.06.2020
1213 Drizzle 9 1014 93 0 0.92 11 23:41 16.06.2020
1214 Drizzle 9 1014 93 0 1.02 21 23:23 16.06.2020
1215 Rain 9 1014 93 0 1.02 21 22:58 16.06.2020
1216 Rain 9 1014 93 0 1 0 22:39 16.06.2020
1217 Rain 9 1014 93 0 1 0 22:19 16.06.2020
1218 Clouds 9 1014 82 0 3.6 240 21:58 16.06.2020
1219 Clouds 9 1014 82 0 3.6 240 21:58 16.06.2020
1220 Rain 8 1024 84 0 1.31 353 21:40 16.06.2020
1221 Rain 11 1015 87 0 1.57 356 21:21 16.06.2020
1222 Rain 12 1015 86 0 1.59 356 20:44 16.06.2020
1223 Rain 10 1016 86 0 1.57 9 20:25 16.06.2020
1224 Rain 10 1016 85 0 1.57 9 19:59 16.06.2020
1225 Rain 10 1016 84 0 1.57 9 19:40 16.06.2020
1226 Rain 10 1016 82 0 1.46 2 19:22 16.06.2020
1227 Rain 8 1024 86 0 1.46 2 18:59 16.06.2020
1228 Clouds 11 1014 56 0 4.1 70 18:41 16.06.2020
1229 Rain 11 1016 77 0 1.25 358 18:21 16.06.2020
1230 Rain 10 1016 75 0 1.25 358 17:57 16.06.2020
1231 Rain 10 1016 74 0 1.25 358 17:38 16.06.2020
1232 Rain 10 1016 75 0 1.08 358 17:19 16.06.2020
1233 Rain 10 1016 74 0 1.08 358 16:56 16.06.2020
1234 Rain 7 1024 98 0 6.26 82 16:38 16.06.2020
1235 Rain 8 1025 90 0 4.92 63 16:19 16.06.2020
1236 Rain 9 1025 77 0 1.79 138 15:56 16.06.2020
1237 Rain 9 1025 77 0 2.24 80 15:38 16.06.2020
1238 Rain 9 1025 74 0 0.89 96 15:20 16.06.2020
1239 Rain 11 1014 79 0 0.447 337 14:43 16.06.2020
1240 Rain 11 1014 79 0 1.08 21 14:25 16.06.2020
1241 Rain 11 1014 79 0 0.447 0 13:58 16.06.2020
1242 Rain 11 1014 79 0 0.447 0 13:40 16.06.2020
1243 Clouds 10 1016 72 0 2.6 250 13:22 16.06.2020
1244 Clouds 10 1017 63 10000 5.1 60 12:42 16.06.2020
1245 Clouds 10 1017 63 10000 5.1 60 12:21 16.06.2020
1246 Clouds 10 1017 77 10000 1.5 280 11:56 16.06.2020
1247 Clouds 9 1017 77 10000 1.5 280 11:38 16.06.2020
1248 Rain 11 1018 83 0 0.45 140 11:20 16.06.2020
1249 Rain 10 1018 84 0 0.45 155 10:55 16.06.2020
1250 Rain 10 1019 84 0 0.45 340 10:37 16.06.2020
1251 Clouds 10 1019 84 0 1.73 17 10:18 16.06.2020
1252 Clouds 11 1019 88 0 1.73 17 09:43 16.06.2020
1253 Clouds 8 1018 87 10000 2.12 11 09:22 16.06.2020
1254 Clouds 8 1019 94 0 0.45 345 08:48 16.06.2020
1255 Clouds 7 1019 94 0 2.12 11 08:30 16.06.2020
1256 Clouds 8 1019 95 0 2.1 1 07:51 16.06.2020
1257 Clouds 8 1019 95 0 2.17 352 07:29 16.06.2020
1258 Clouds 8 1019 95 0 2.17 352 06:56 16.06.2020
1259 Clouds 7 1019 100 10000 2 348 06:29 16.06.2020
1260 Clouds 7 1019 100 0 2 348 05:47 16.06.2020
1261 Clouds 7 1019 100 0 1 0 04:42 16.06.2020
1262 Clouds 7 1019 93 0 1 0 03:53 16.06.2020
1263 Clouds 7 1020 93 0 2.12 333 02:28 16.06.2020
1264 Clouds 7 1020 93 0 0.5 0 01:32 16.06.2020
1265 Drizzle 7 1020 93 0 2.17 331 00:52 16.06.2020
1266 Clouds 7 1021 100 0 2.1 260 00:22 16.06.2020
1267 Clouds 8 1020 93 0 2.08 330 23:43 15.06.2020
1268 Clouds 8 1020 93 0 2.09 333 23:24 15.06.2020
1269 Clouds 8 1020 93 0 1 110 22:59 15.06.2020
1270 Clouds 8 1020 93 10000 1 0 22:41 15.06.2020
1271 Clouds 7 1020 93 10000 1 0 22:21 15.06.2020
1272 Clouds 7 1020 93 0 0.5 0 21:56 15.06.2020
1273 Clouds 6 1028 92 0 0.45 92 21:38 15.06.2020
1274 Clouds 8 1020 85 0 2.46 341 21:19 15.06.2020
1275 Clouds 8 1020 85 0 2.46 341 20:57 15.06.2020
1276 Clouds 8 1020 84 0 2.46 341 20:38 15.06.2020
1277 Clouds 8 1020 84 0 3.03 345 20:19 15.06.2020
1278 Clouds 8 1020 83 0 3.03 345 19:56 15.06.2020
1279 Clouds 9 1020 83 0 0.45 311 19:38 15.06.2020
1280 Clouds 9 1020 82 0 0.45 163 19:19 15.06.2020
1281 Clouds 9 1019 81 0 3.55 347 18:56 15.06.2020
1282 Clouds 7 1027 85 0 3.55 347 18:37 15.06.2020
1283 Clouds 9 1019 76 0 0.89 320 18:19 15.06.2020
1284 Clouds 9 1019 70 0 1.79 340 17:42 15.06.2020
1285 Clouds 9 1019 73 0 0.45 294 17:22 15.06.2020
1286 Clouds 8 1019 81 0 0.45 140 16:59 15.06.2020
1287 Clouds 8 1019 80 0 3.69 346 16:40 15.06.2020
1288 Clouds 8 1019 78 0 3.69 345 16:19 15.06.2020
1289 Clouds 10 1019 78 0 3.69 345 15:56 15.06.2020
1290 Clouds 10 1019 78 0 3.69 345 15:56 15.06.2020
1291 Clouds 9 1019 77 0 3.69 345 15:36 15.06.2020
1292 Clouds 10 1019 78 0 3.54 345 15:18 15.06.2020
1293 Clouds 10 1019 77 0 3.54 345 14:42 15.06.2020
1294 Clouds 10 1019 79 0 3.18 349 14:21 15.06.2020
1295 Clouds 10 1019 75 0 3.18 349 13:59 15.06.2020
1296 Clouds 10 1019 72 0 0.45 124 13:39 15.06.2020
1297 Clouds 10 1019 78 0 0.45 138 13:20 15.06.2020
1298 Clouds 10 1019 78 0 2.99 345 12:55 15.06.2020
1299 Clouds 10 1020 81 0 0.45 149 12:36 15.06.2020
1300 Clouds 7 1026 86 0 0.45 161 12:18 15.06.2020
1301 Clouds 7 1026 85 0 3.13 285 11:43 15.06.2020
1302 Clouds 8 1020 82 10000 2.6 250 11:24 15.06.2020
1303 Clouds 8 1017 83 0 0.447 337 10:44 15.06.2020
1304 Clouds 8 1017 83 0 0.447 22 10:22 15.06.2020
1305 Clouds 9 1020 88 0 2.87 343 09:48 15.06.2020
1306 Clouds 8 1017 83 0 0.447 0 09:27 15.06.2020
1307 Clouds 8 1017 83 0 2.9 341 08:58 15.06.2020
1308 Clouds 8 1035 100 0 2.9 341 08:39 15.06.2020
1309 Clouds 5 1025 90 0 2.82 339 08:20 15.06.2020
1310 Clouds 7 1019 95 0 2.82 339 07:45 15.06.2020
1311 Clouds 7 1019 95 0 2.85 335 07:26 15.06.2020
1312 Clouds 6 1019 95 0 2.85 335 06:48 15.06.2020
1313 Drizzle 7 1019 93 4000 2.68 341 06:25 15.06.2020
1314 Drizzle 6 1019 100 0 2.68 341 05:46 15.06.2020
1315 Rain 7 1019 93 0 0.5 0 05:25 15.06.2020
1316 Clouds 7 1019 93 0 2.91 334 04:20 15.06.2020
1317 Clouds 7 1020 93 0 0.5 0 03:41 15.06.2020
1318 Clouds 7 1019 93 0 2.91 330 02:54 15.06.2020
1319 Clouds 7 1019 93 0 1.5 110 01:57 15.06.2020
1320 Clouds 7 1019 93 0 1 0 01:34 15.06.2020
1321 Clouds 7 1019 93 0 2.68 334 00:58 15.06.2020
1322 Drizzle 7 1019 93 0 0.5 80 00:39 15.06.2020
1323 Drizzle 7 1019 93 0 0.5 80 00:20 15.06.2020
1324 Clouds 7 1019 93 0 0.5 0 23:46 14.06.2020
1325 Clouds 7 1019 93 0 2.44 334 23:24 14.06.2020
1326 Clouds 7 1019 93 0 2.44 334 22:58 14.06.2020
1327 Clouds 8 1019 87 10000 0.5 100 22:39 14.06.2020
1328 Clouds 8 1019 87 10000 0.5 100 22:20 14.06.2020
1329 Clouds 8 1019 87 10000 0.5 100 22:20 14.06.2020
1330 Clouds 8 1019 87 10000 2.55 338 21:57 14.06.2020
1331 Clouds 8 1019 87 10000 2.55 338 21:57 14.06.2020
1332 Clouds 8 1019 87 0 2.55 338 21:38 14.06.2020
1333 Clouds 7 1019 86 0 2.72 339 21:19 14.06.2020
1334 Clouds 8 1019 86 0 2.72 339 20:58 14.06.2020
1335 Clouds 8 1019 86 0 2.72 339 20:38 14.06.2020
1336 Clouds 8 1019 85 0 2.98 341 20:20 14.06.2020
1337 Clouds 8 1019 84 0 2.98 341 19:59 14.06.2020
1338 Clouds 8 1018 84 0 2.98 341 19:38 14.06.2020
1339 Clouds 6 1024 94 0 0.89 73 19:19 14.06.2020
1340 Clouds 6 1024 94 0 0.89 73 19:19 14.06.2020
1341 Clouds 6 1024 92 0 1.79 310 18:57 14.06.2020
1342 Clouds 6 1024 92 0 1.79 310 18:57 14.06.2020
1343 Clouds 6 1024 92 0 0.45 87 18:38 14.06.2020
1344 Clouds 12 1018 81 0 0.45 7 18:20 14.06.2020
1345 Clouds 12 1018 82 0 3.16 340 17:57 14.06.2020
1346 Clouds 12 1018 81 0 3.16 340 17:38 14.06.2020
1347 Clouds 12 1018 81 0 3.25 341 17:19 14.06.2020
1348 Clouds 12 1018 81 0 0.45 313 16:41 14.06.2020
1349 Clouds 12 1018 79 0 0.45 172 16:21 14.06.2020
1350 Clouds 9 1024 89 0 0.89 312 15:59 14.06.2020
1351 Clouds 9 1024 91 0 1.34 121 15:40 14.06.2020
1352 Clouds 12 1018 79 0 0.89 206 15:18 14.06.2020
1353 Clouds 9 1018 78 0 0.45 325 14:58 14.06.2020
1354 Clouds 9 1024 95 0 0.45 137 14:40 14.06.2020
1355 Clouds 6 1024 94 0 2.24 45 14:21 14.06.2020
1356 Clouds 8 1024 95 0 3.42 344 13:55 14.06.2020
1357 Clouds 8 1024 95 0 3.42 344 13:37 14.06.2020
1358 Clouds 11 1018 69 0 1.34 337 13:19 14.06.2020
1359 Clouds 11 1018 73 0 1.79 299 12:55 14.06.2020
1360 Clouds 8 1018 75 0 0.89 344 12:37 14.06.2020
1361 Clouds 8 1018 85 0 0.45 247 12:18 14.06.2020
1362 Clouds 8 1018 87 0 3.33 350 11:55 14.06.2020
1363 Clouds 10 1018 86 0 3.33 350 11:37 14.06.2020
1364 Clouds 10 1017 87 0 3.42 342 11:18 14.06.2020
1365 Clouds 9 1017 87 0 0.45 168 10:41 14.06.2020
1366 Clouds 9 1017 88 0 0.45 324 10:19 14.06.2020
1367 Clouds 9 1017 83 0 0.45 247 09:45 14.06.2020
1368 Rain 4 1022 99 0 3.48 339 09:24 14.06.2020
1369 Clouds 4 1022 99 0 3.33 341 08:44 14.06.2020
1370 Rain 3 1022 99 0 1.79 277 08:22 14.06.2020
1371 Rain 3 1023 99 0 3.61 333 08:00 14.06.2020
1372 Rain 3 1023 99 0 0.89 57 07:41 14.06.2020
1373 Rain 3 1023 99 0 3.53 330 07:23 14.06.2020
1374 Rain 3 1024 99 0 3.01 327 06:25 14.06.2020
1375 Rain 3 1024 99 0 3.01 327 05:39 14.06.2020
1376 Rain 4 1024 99 0 1.79 173 04:51 14.06.2020
1377 Rain 4 1024 99 0 3.13 338 04:25 14.06.2020
1378 Clouds 4 1024 99 0 3.25 329 02:53 14.06.2020
1379 Rain 6 1016 87 0 0.89 163 02:23 14.06.2020
1380 Rain 4 1024 99 0 3.1 322 01:36 14.06.2020
1381 Rain 4 1024 99 0 2.68 322 00:50 14.06.2020
1382 Rain 4 1024 99 0 2.68 322 00:31 14.06.2020
1383 Rain 4 1025 99 0 2.22 325 23:56 13.06.2020
1384 Rain 4 1024 99 0 2.22 325 23:38 13.06.2020
1385 Rain 4 1024 99 0 1.23 312 23:20 13.06.2020
1386 Rain 5 1024 99 0 2.24 239 22:54 13.06.2020
1387 Rain 5 1024 99 0 1.23 312 22:36 13.06.2020
1388 Rain 5 1024 99 0 0.71 286 22:18 13.06.2020
1389 Rain 5 1024 99 0 0.71 286 21:43 13.06.2020
1390 Rain 7 1014 85 0 0.45 236 21:24 13.06.2020
1391 Rain 7 1014 88 0 0.81 350 20:57 13.06.2020
1392 Rain 8 1014 87 0 0.89 174 20:39 13.06.2020
1393 Rain 11 1014 88 0 0.28 234 20:18 13.06.2020
1394 Rain 9 1014 88 0 0.45 162 19:41 13.06.2020
1395 Rain 9 1014 88 0 0.45 162 19:41 13.06.2020
1396 Rain 13 1014 86 0 0.45 186 19:20 13.06.2020
1397 Rain 11 1014 85 0 0.85 178 18:59 13.06.2020
1398 Rain 11 1014 78 0 1.34 286 18:40 13.06.2020
1399 Rain 13 1014 71 0 1.79 209 18:20 13.06.2020
1400 Clouds 12 1011 55 10000 8.2 300 17:57 13.06.2020
1401 Clouds 13 1009 53 10000 5.7 60 17:39 13.06.2020
1402 Clouds 14 1009 53 10000 5.7 60 17:20 13.06.2020
1403 Clouds 15 1008 53 10000 6.2 70 16:55 13.06.2020
1404 Clouds 15 1009 53 10000 5.1 0 16:37 13.06.2020
1405 Clouds 15 1009 53 10000 5.1 0 16:18 13.06.2020
1406 Clouds 16 1009 53 10000 5.7 70 15:44 13.06.2020
1407 Clouds 15 1009 53 10000 5.7 70 15:25 13.06.2020
1408 Clouds 14 1010 60 10000 6.7 60 14:45 13.06.2020
1409 Clouds 14 1010 60 10000 6.7 60 14:26 13.06.2020
1410 Clouds 13 1010 56 10000 7.7 50 13:59 13.06.2020
1411 Clouds 14 1010 56 0 6.2 60 13:40 13.06.2020
1412 Clouds 14 1010 56 0 6.2 60 13:22 13.06.2020
1413 Clouds 12 1014 62 0 2.85 146 12:44 13.06.2020
1414 Clouds 13 1011 64 10000 3.6 0 12:26 13.06.2020
1415 Clouds 13 1011 63 10000 3.1 0 11:59 13.06.2020
1416 Clouds 13 1011 60 10000 1.5 0 11:39 13.06.2020
1417 Clouds 13 1011 60 10000 1.5 0 11:19 13.06.2020
1418 Clouds 12 1007 79 0 4.023 22 10:56 13.06.2020
1419 Clouds 12 1024 89 0 1.788 0 10:38 13.06.2020
1420 Clouds 13 1024 84 0 0.894 315 10:18 13.06.2020
1421 Clouds 11 1015 75 0 0.45 161 09:44 13.06.2020
1422 Clouds 12 1012 63 10000 1.81 148 09:22 13.06.2020
1423 Clouds 11 1012 72 10000 1.81 148 08:49 13.06.2020
1424 Clouds 10 1012 72 10000 1 0 08:30 13.06.2020
1425 Clouds 9 1015 85 0 1.8 155 07:54 13.06.2020
1426 Clouds 9 1015 83 0 1.9 156 07:28 13.06.2020
1427 Clouds 7 1015 84 0 1.9 156 06:50 13.06.2020
1428 Clouds 8 1024 90 0 0.894 292 06:30 13.06.2020
1429 Clouds 8 1011 76 0 2.1 0 05:45 13.06.2020
1430 Clouds 8 1007 78 0 2.4 170 05:24 13.06.2020
1431 Clouds 9 1024 73 0 0.894 67 03:47 13.06.2020
1432 Clouds 10 1010 62 0 3.1 290 02:54 13.06.2020
1433 Clouds 11 1010 45 0 3.6 130 02:34 13.06.2020
1434 Clouds 12 1009 40 0 7.2 80 01:45 13.06.2020
1435 Clouds 12 1009 40 0 7.2 80 01:19 13.06.2020
1436 Clouds 11 1009 48 0 4.1 120 00:42 13.06.2020
1437 Clouds 11 1009 48 0 4.1 120 00:23 13.06.2020
1438 Clouds 12 1008 40 0 8.2 90 23:41 12.06.2020
1439 Clouds 12 1008 40 0 8.2 90 23:19 12.06.2020
1440 Clouds 12 1007 40 0 10.3 90 22:58 12.06.2020
1441 Clouds 12 1007 40 0 10.8 80 22:39 12.06.2020
1442 Clouds 12 1007 40 0 10.8 80 22:19 12.06.2020
1443 Clouds 12 1007 40 0 10.8 80 21:47 12.06.2020
1444 Clouds 10 1015 78 0 4.08 162 21:24 12.06.2020
1445 Clouds 9 1022 77 0 4.02 88 20:58 12.06.2020
1446 Clouds 10 1022 78 0 4.92 91 20:39 12.06.2020
1447 Clouds 10 1022 76 0 3.13 91 20:21 12.06.2020
1448 Clouds 14 1006 35 0 11.3 90 19:54 12.06.2020
1449 Clouds 14 1005 40 0 12.3 90 19:36 12.06.2020
1450 Clouds 12 1014 72 0 4.57 164 19:18 12.06.2020
1451 Clouds 14 1005 37 0 12.3 90 18:37 12.06.2020
1452 Clouds 11 1014 63 0 1.34 302 18:18 12.06.2020
1453 Clouds 12 1014 64 0 4.79 163 17:46 12.06.2020
1454 Rain 12 1014 61 0 0.45 247 17:27 12.06.2020
1455 Rain 12 1014 62 0 0.89 233 16:59 12.06.2020
1456 Rain 12 1014 64 0 1.79 261 16:40 12.06.2020
1457 Clouds 11 1021 72 0 3.58 99 16:19 12.06.2020
1458 Clouds 11 1021 74 0 6.26 88 15:45 12.06.2020
1459 Rain 11 1021 79 0 7.6 93 15:25 12.06.2020
1460 Rain 11 1020 78 0 7.6 89 14:55 12.06.2020
1461 Rain 15 1004 38 10000 15.4 100 14:36 12.06.2020
1462 Clouds 11 1021 79 0 8.94 93 14:18 12.06.2020
1463 Clouds 15 1004 38 0 12.9 90 13:41 12.06.2020
1464 Clouds 10 1020 82 0 4.92 89 13:20 12.06.2020
1465 Clouds 15 1005 38 10000 12.9 100 12:40 12.06.2020
1466 Clouds 15 1005 38 10000 12.9 100 12:20 12.06.2020
1467 Clouds 14 1005 40 10000 12.3 100 11:57 12.06.2020
1468 Clouds 14 1005 37 10000 12.9 90 11:38 12.06.2020
1469 Clouds 14 1005 37 10000 12.9 90 11:19 12.06.2020
1470 Clouds 14 1005 43 10000 11.3 100 10:45 12.06.2020
1471 Clouds 13 1005 43 10000 11.3 100 10:24 12.06.2020
1472 Clouds 11 1006 77 10000 5.1 280 09:45 12.06.2020
1473 Clouds 11 1006 77 10000 5.1 280 09:21 12.06.2020
1474 Clouds 10 1006 93 10000 3.6 260 08:44 12.06.2020
1475 Clouds 10 1006 93 10000 3.6 260 08:25 12.06.2020
1476 Clouds 10 1007 93 0 2.1 300 07:44 12.06.2020
1477 Clouds 9 1007 93 0 2.1 300 07:25 12.06.2020
1478 Clouds 9 1007 93 10000 4.6 240 06:55 12.06.2020
1479 Clouds 8 1007 93 10000 1.5 0 06:30 12.06.2020
1480 Clouds 8 1007 100 0 1 0 05:53 12.06.2020
1481 Clouds 8 1007 93 0 1 0 05:30 12.06.2020
1482 Clouds 9 1007 93 0 2.6 240 04:55 12.06.2020
1483 Clouds 8 1008 93 0 1.5 110 03:20 12.06.2020
1484 Clouds 8 1009 93 0 1.5 120 01:53 12.06.2020
1485 Clouds 8 1009 93 0 3.65 165 01:26 12.06.2020
1486 Clouds 8 1009 93 0 2.1 70 00:43 12.06.2020
1487 Clouds 8 1009 93 0 2.1 70 00:24 12.06.2020
1488 Clouds 8 1009 93 0 3.46 165 23:59 11.06.2020
1489 Clouds 8 1009 87 0 1 0 23:40 11.06.2020
1490 Clouds 8 1009 87 0 1 0 23:21 11.06.2020
1491 Clouds 8 1009 87 0 1.5 270 22:57 11.06.2020
1492 Clouds 9 1008 82 10000 1 0 22:38 11.06.2020
1493 Clouds 9 1008 82 10000 1 0 22:20 11.06.2020
1494 Clouds 10 1008 72 0 3.1 0 21:56 11.06.2020
1495 Clouds 10 1007 67 10000 5.7 30 21:37 11.06.2020
1496 Clouds 7 1018 77 0 3.58 79 21:19 11.06.2020
1497 Clouds 7 1018 84 0 3.13 91 20:43 11.06.2020
1498 Rain 7 1018 87 0 2.68 96 20:21 11.06.2020
1499 Rain 7 1018 84 0 2.68 94 19:55 11.06.2020
1500 Rain 11 1024 100 0 2.235 157 19:36 11.06.2020
1501 Rain 11 1024 100 0 1.788 157 19:18 11.06.2020
1502 Clouds 10 1007 63 10000 1.5 0 18:41 11.06.2020
1503 Rain 7 1018 78 0 4.92 85 18:20 11.06.2020
1504 Rain 7 1018 78 0 4.92 85 18:20 11.06.2020
1505 Rain 8 1018 77 0 2.68 98 17:56 11.06.2020
1506 Clouds 11 1007 63 8000 2.6 20 17:37 11.06.2020
1507 Rain 11 1024 100 0 1.341 22 17:19 11.06.2020
1508 Rain 7 1007 77 0 0.447 0 16:55 11.06.2020
1509 Rain 7 1024 100 0 0.447 180 16:37 11.06.2020
1510 Rain 7 1024 100 0 0.894 0 16:18 11.06.2020
1511 Rain 6 1007 80 0 0.894 0 15:42 11.06.2020
1512 Rain 6 1007 80 0 0.894 22 15:23 11.06.2020
1513 Clouds 9 1008 59 0 6.2 40 14:55 11.06.2020
1514 Clouds 10 1008 59 0 6.2 40 14:37 11.06.2020
1515 Rain 9 1010 75 0 1.97 160 14:19 11.06.2020
1516 Rain 9 1010 78 0 1.97 160 13:54 11.06.2020
1517 Rain 9 1010 79 0 1.97 160 13:36 11.06.2020
1518 Clouds 10 1008 63 0 5.1 40 13:18 11.06.2020
1519 Clouds 10 1008 67 0 5.7 60 12:39 11.06.2020
1520 Clouds 9 1008 67 10000 6.2 70 12:21 11.06.2020
1521 Rain 9 1008 63 10000 5.7 60 11:59 11.06.2020
1522 Rain 9 1008 63 10000 5.7 60 11:41 11.06.2020
1523 Clouds 9 1009 72 10000 4.1 70 11:22 11.06.2020
1524 Clouds 8 1009 72 10000 4.1 70 10:59 11.06.2020
1525 Rain 6 1016 89 0 0.45 239 10:41 11.06.2020
1526 Clouds 5 1016 93 0 1.5 157 10:18 11.06.2020
1527 Clouds 5 1016 90 0 1.5 157 09:43 11.06.2020
1528 Clouds 4 1016 99 0 1.12 159 09:25 11.06.2020
1529 Clouds 4 1015 99 0 1.12 159 08:44 11.06.2020
1530 Clouds 3 1015 99 0 0.81 167 08:21 11.06.2020
1531 Clouds 5 1011 96 0 0.81 167 07:59 11.06.2020
1532 Clouds 5 1011 96 0 0.81 167 07:41 11.06.2020
1533 Clouds 5 1011 96 0 0.81 167 07:41 11.06.2020
1534 Clouds 5 1011 96 0 0.28 174 07:22 11.06.2020
1535 Clouds 5 1011 96 0 0.28 174 07:22 11.06.2020
1536 Clouds 3 1016 99 0 1.79 223 06:31 11.06.2020
1537 Clouds 3 1015 99 0 0.19 322 05:50 11.06.2020
1538 Rain 3 1016 99 0 0.75 318 03:59 11.06.2020
1539 Rain 4 1011 95 0 1.06 321 03:24 11.06.2020
1540 Rain 3 1016 99 0 1.06 321 02:40 11.06.2020
1541 Rain 5 1012 93 0 1 0 01:55 11.06.2020
1542 Clouds 5 1013 93 0 1.2 326 01:31 11.06.2020
1543 Drizzle 5 1013 100 0 1 0 00:51 11.06.2020
1544 Rain 3 1017 99 0 1.34 88 00:30 11.06.2020
1545 Rain 5 1013 93 0 1.62 329 23:56 10.06.2020
1546 Clouds 3 1017 99 0 1.62 329 23:37 10.06.2020
1547 Rain 3 1017 99 0 1.9 330 23:18 10.06.2020
1548 Clouds 5 1013 93 0 1.9 330 22:40 10.06.2020
1549 Clouds 5 1013 93 10000 2.07 329 22:22 10.06.2020
1550 Clouds 5 1012 93 10000 0.5 0 21:58 10.06.2020
1551 Clouds 5 1012 93 10000 0.5 0 21:40 10.06.2020
1552 Rain 4 1017 95 0 2.14 332 21:19 10.06.2020
1553 Clouds 5 1012 93 10000 0.5 0 20:57 10.06.2020
1554 Clouds 5 1012 93 10000 0.5 0 20:39 10.06.2020
1555 Clouds 6 1013 87 10000 1 0 20:21 10.06.2020
1556 Clouds 6 1013 87 10000 1 0 20:21 10.06.2020
1557 Clouds 6 1013 87 10000 2.6 60 19:56 10.06.2020
1558 Clouds 6 1013 87 10000 2.6 60 19:37 10.06.2020
1559 Clouds 6 1013 93 0 2.1 100 19:18 10.06.2020
1560 Rain 6 1013 93 10000 1.5 90 18:41 10.06.2020
1561 Rain 4 1017 91 0 1.34 87 18:20 10.06.2020
1562 Rain 4 1017 92 0 1.34 187 17:58 10.06.2020
1563 Rain 5 1018 92 0 0.89 166 17:40 10.06.2020
1564 Rain 5 1017 89 0 0.89 69 17:19 10.06.2020
1565 Clouds 6 1013 81 10000 1.5 220 16:58 10.06.2020
1566 Clouds 6 1013 81 10000 1.5 220 16:39 10.06.2020
1567 Clouds 6 1013 81 10000 1.5 220 16:39 10.06.2020
1568 Clouds 6 1013 81 10000 0.5 0 16:20 10.06.2020
1569 Rain 5 1018 88 0 3.13 188 15:55 10.06.2020
1570 Rain 5 1018 87 0 1.34 172 15:36 10.06.2020
1571 Clouds 6 1013 87 10000 0.5 0 15:18 10.06.2020
1572 Rain 4 1018 91 0 0.89 284 14:40 10.06.2020
1573 Rain 4 1018 97 0 1.34 234 14:21 10.06.2020
1574 Rain 4 1017 98 0 2.36 343 13:43 10.06.2020
1575 Clouds 6 1013 80 0 1.79 313 13:22 10.06.2020
1576 Clouds 6 1013 91 0 2.04 343 12:58 10.06.2020
1577 Clouds 6 1013 91 0 2.04 343 12:39 10.06.2020
1578 Clouds 3 1017 94 0 1.73 341 12:18 10.06.2020
1579 Clouds 3 1017 99 0 1.73 341 11:44 10.06.2020
1580 Clouds 5 1013 92 0 1.3 340 11:20 10.06.2020
1581 Clouds 5 1014 93 0 1.3 340 10:58 10.06.2020
1582 Clouds 4 1014 93 0 1.3 340 10:40 10.06.2020
1583 Rain 4 1013 94 0 1.08 334 10:21 10.06.2020
1584 Rain 4 1013 95 0 1.08 334 09:44 10.06.2020
1585 Rain 4 1014 100 7000 0.5 0 09:25 10.06.2020
1586 Rain 2 1016 98 0 1.09 321 08:58 10.06.2020
1587 Rain 2 1016 98 0 1.09 321 08:39 10.06.2020
1588 Rain 1 1016 99 0 0.95 324 08:21 10.06.2020
1589 Rain 1 1016 99 0 0.95 324 07:41 10.06.2020
1590 Rain 1 1016 99 0 0.9 317 07:23 10.06.2020
1591 Rain 1 1016 99 0 1.79 82 06:50 10.06.2020
1592 Rain 1 1017 99 0 1.34 85 06:31 10.06.2020
1593 Rain 1 1016 99 0 2.24 82 05:59 10.06.2020
1594 Rain 1 1017 99 0 3.13 80 05:30 10.06.2020
1595 Rain 2 1019 99 0 0.45 85 04:48 10.06.2020
1596 Rain 2 1018 99 0 1.34 80 04:28 10.06.2020
1597 Rain 4 1014 94 0 1.23 323 02:24 10.06.2020
1598 Rain 2 1018 98 0 2.68 71 01:40 10.06.2020
1599 Rain 3 1018 99 0 1.14 334 00:42 10.06.2020
1600 Rain 4 1014 94 0 1.38 338 00:23 10.06.2020
1601 Rain 5 1014 93 0 1.5 260 23:59 09.06.2020
1602 Rain 5 1014 93 0 1.5 260 23:41 09.06.2020
1603 Clouds 5 1014 93 0 1.5 240 23:22 09.06.2020
1604 Clouds 5 1014 100 0 1.5 240 22:56 09.06.2020
1605 Clouds 5 1014 100 0 1.5 240 22:38 09.06.2020
1606 Rain 5 1014 100 3800 1.5 250 22:20 09.06.2020
1607 Clouds 6 1014 93 3000 1.5 220 21:57 09.06.2020
1608 Clouds 6 1014 93 3000 1.5 220 21:57 09.06.2020
1609 Clouds 6 1014 93 3000 1.5 220 21:38 09.06.2020
1610 Rain 6 1014 89 0 1.94 342 21:20 09.06.2020
1611 Rain 4 1018 94 0 1.94 342 20:57 09.06.2020
1612 Rain 4 1018 93 0 1.94 342 20:38 09.06.2020
1613 Rain 4 1018 95 0 0.89 75 20:20 09.06.2020
1614 Rain 4 1018 95 0 0.89 75 20:20 09.06.2020
1615 Clouds 6 1013 93 10000 1.5 270 19:57 09.06.2020
1616 Clouds 6 1013 93 10000 1.5 270 19:39 09.06.2020
1617 Clouds 6 1013 87 10000 3.6 250 19:20 09.06.2020
1618 Clouds 6 1013 87 10000 3.6 250 19:20 09.06.2020
1619 Clouds 6 1013 87 0 3.1 250 18:56 09.06.2020
1620 Clouds 6 1013 87 0 3.1 250 18:38 09.06.2020
1621 Rain 5 1018 90 0 0.45 21 18:18 09.06.2020
1622 Rain 7 1013 79 0 2.29 356 17:55 09.06.2020
1623 Rain 7 1013 80 0 0.45 191 17:36 09.06.2020
1624 Rain 6 1013 85 0 0.89 201 17:18 09.06.2020
1625 Rain 5 1013 84 0 2.24 356 16:42 09.06.2020
1626 Rain 6 1013 86 0 2.11 355 16:22 09.06.2020
1627 Rain 6 1013 76 0 0.45 236 15:55 09.06.2020
1628 Rain 6 1013 77 0 0.89 191 15:37 09.06.2020
1629 Clouds 6 1013 81 10000 2.1 280 15:18 09.06.2020
1630 Rain 4 1017 92 0 1.96 349 14:40 09.06.2020
1631 Rain 4 1017 99 0 0.45 286 14:21 09.06.2020
1632 Rain 7 1013 77 0 2.28 347 13:58 09.06.2020
1633 Rain 7 1013 77 0 2.28 347 13:39 09.06.2020
1634 Rain 7 1013 78 0 0.45 122 13:20 09.06.2020
1635 Rain 7 1013 79 0 0.45 117 12:43 09.06.2020
1636 Rain 7 1013 79 0 0.45 117 12:43 09.06.2020
1637 Clouds 5 1013 87 10000 1.5 290 12:21 09.06.2020
1638 Clouds 5 1013 87 10000 1.5 290 12:21 09.06.2020
1639 Clouds 5 1013 87 10000 2.1 260 11:58 09.06.2020
1640 Clouds 5 1013 83 0 1.94 355 11:40 09.06.2020
1641 Rain 4 1013 85 0 1.51 14 11:20 09.06.2020
1642 Rain 4 1013 84 0 1.51 14 10:58 09.06.2020
1643 Rain 4 1013 86 0 1.51 14 10:39 09.06.2020
1644 Clouds 6 1013 87 0 1.43 22 10:19 09.06.2020
1645 Clouds 6 1013 89 0 1.43 22 09:43 09.06.2020
1646 Clouds 4 1013 87 10000 1.5 270 09:24 09.06.2020
1647 Clouds 4 1012 100 10000 1 0 08:56 09.06.2020
1648 Clouds 4 1012 100 10000 1 0 08:37 09.06.2020
1649 Rain 2 1013 94 0 1.31 18 08:19 09.06.2020
1650 Rain 3 1013 95 0 1.31 18 07:38 09.06.2020
1651 Rain 3 1013 95 0 1.54 9 07:19 09.06.2020
1652 Rain 4 1013 95 0 1.54 9 06:53 09.06.2020
1653 Rain 4 1013 95 0 1.54 9 06:33 09.06.2020
1654 Rain 4 1012 95 0 1.8 12 05:23 09.06.2020
1655 Rain 4 1013 94 0 1.62 1 02:56 09.06.2020
1656 Rain 3 1014 94 0 1.92 346 01:41 09.06.2020
1657 Rain 3 1014 94 0 1.87 356 01:19 09.06.2020
1658 Rain 4 1014 93 0 1.87 356 00:45 09.06.2020
1659 Rain 4 1014 93 0 1.8 357 00:20 09.06.2020
1660 Rain 4 1014 92 0 1.8 357 23:55 08.06.2020
1661 Rain 4 1014 92 0 0.45 176 23:37 08.06.2020
1662 Rain 5 1013 91 0 0.89 176 23:19 08.06.2020
1663 Rain 3 1014 93 0 1.95 2 22:41 08.06.2020
1664 Rain 3 1013 93 0 1.75 6 22:22 08.06.2020
1665 Rain 3 1013 93 0 1.75 6 21:58 08.06.2020
1666 Rain 3 1013 93 0 0.89 178 21:39 08.06.2020
1667 Rain 3 1013 92 0 1.77 6 21:21 08.06.2020
1668 Rain 3 1013 92 0 0.45 161 20:57 08.06.2020
1669 Rain 4 1012 92 0 0.45 168 20:39 08.06.2020
1670 Rain 4 1012 93 0 0.45 167 20:20 08.06.2020
1671 Rain 4 1012 92 0 1.51 34 19:44 08.06.2020
1672 Rain 5 1012 92 0 2.15 30 19:22 08.06.2020
1673 Rain 6 1010 83 0 1.341 337 18:59 08.06.2020
1674 Rain 6 1028 100 0 3.129 337 18:40 08.06.2020
1675 Clouds 7 1012 89 0 2.04 16 18:18 08.06.2020
1676 Clouds 8 1012 88 0 2.04 16 17:55 08.06.2020
1677 Clouds 8 1012 86 0 0.45 107 17:37 08.06.2020
1678 Clouds 8 1012 86 0 0.45 107 17:37 08.06.2020
1679 Rain 5 1012 85 0 2.09 7 17:18 08.06.2020
1680 Rain 5 1011 81 0 2.09 7 16:44 08.06.2020
1681 Rain 5 1011 77 0 1.89 5 16:23 08.06.2020
1682 Rain 6 1028 100 0 3.129 0 15:46 08.06.2020
1683 Rain 6 1011 83 0 2.235 22 15:23 08.06.2020
1684 Rain 6 1011 82 0 0.894 0 14:59 08.06.2020
1685 Rain 6 1011 82 0 1.341 0 14:41 08.06.2020
1686 Rain 6 1011 82 0 0.447 22 14:22 08.06.2020
1687 Rain 6 1011 82 0 1.95 351 13:56 08.06.2020
1688 Rain 6 1029 100 0 3.576 0 13:38 08.06.2020
1689 Rain 6 1029 100 0 3.576 0 13:19 08.06.2020
1690 Rain 6 1029 99 0 2.682 0 12:40 08.06.2020
1691 Rain 6 1029 99 0 2.235 337 12:19 08.06.2020
1692 Rain 6 1011 81 0 0.447 22 11:42 08.06.2020
1693 Rain 6 1011 81 0 0.447 22 11:24 08.06.2020
1694 Rain 6 1011 81 0 0.447 22 10:59 08.06.2020
1695 Rain 6 1011 81 0 1.788 22 10:40 08.06.2020
1696 Snow 6 1010 81 0 2.3 12 10:21 08.06.2020
1697 Snow 5 1013 88 0 0.45 123 09:59 08.06.2020
1698 Snow 5 1012 87 0 2.3 12 09:41 08.06.2020
1699 Clouds 5 1011 87 10000 1 0 09:23 08.06.2020
1700 Clouds 4 1012 93 10000 1.5 80 08:49 08.06.2020
1701 Clouds 4 1012 93 0 1.5 100 08:23 08.06.2020
1702 Clouds 3 1028 99 0 1.788 90 07:48 08.06.2020
1703 Clouds 3 1010 82 0 2.09 12 07:24 08.06.2020
1704 Clouds 3 1012 96 0 2.09 12 06:54 08.06.2020
1705 Clouds 2 1012 96 0 2.09 12 06:36 08.06.2020
1706 Snow 1 1013 96 0 1.88 5 05:54 08.06.2020
1707 Clouds 2 1012 96 0 1.69 357 04:32 08.06.2020
1708 Clouds 2 1013 95 0 1.62 357 02:54 08.06.2020
1709 Clouds 2 1013 95 0 1.5 351 02:25 08.06.2020
1710 Clouds 2 1013 95 0 1.58 1 01:38 08.06.2020
1711 Clouds 2 1013 95 0 1.6 3 00:41 08.06.2020
1712 Clouds 2 1013 95 0 1.45 357 00:18 08.06.2020
1713 Clouds 2 1013 95 0 1.45 357 23:37 07.06.2020
1714 Clouds 2 1013 94 0 1.48 351 23:18 07.06.2020
1715 Clouds 2 1014 94 0 1.48 351 22:55 07.06.2020
1716 Clouds 2 1014 94 0 1.48 351 22:36 07.06.2020
1717 Clouds 2 1013 94 0 1.52 358 22:18 07.06.2020
1718 Clouds 2 1013 94 0 1.52 358 21:56 07.06.2020
1719 Clouds 2 1013 94 0 1.52 358 21:36 07.06.2020
1720 Clouds 2 1013 94 0 1.52 358 21:36 07.06.2020
1721 Clouds 2 1013 94 0 1.52 358 21:36 07.06.2020
1722 Clouds 2 1013 93 0 1.77 8 21:18 07.06.2020
1723 Rain 4 1012 93 0 1.77 8 20:39 07.06.2020
1724 Rain 4 1012 93 0 0.5 0 20:20 07.06.2020
1725 Drizzle 4 1012 93 10000 1.5 240 19:56 07.06.2020
1726 Drizzle 4 1012 93 10000 1.5 240 19:38 07.06.2020
1727 Drizzle 4 1012 93 10000 1.5 240 19:19 07.06.2020
1728 Clouds 5 1012 81 0 2.6 250 18:56 07.06.2020
1729 Clouds 5 1012 81 0 2.6 250 18:37 07.06.2020
1730 Clouds 5 1012 87 10000 1.5 230 18:19 07.06.2020
1731 Clouds 5 1012 87 10000 2.6 230 17:55 07.06.2020
1732 Clouds 5 1012 87 10000 2.6 230 17:37 07.06.2020
1733 Rain 4 1012 93 0 3.1 220 17:19 07.06.2020
1734 Rain 5 1012 87 2500 2.6 280 16:42 07.06.2020
1735 Rain 3 1018 95 0 1.71 344 16:21 07.06.2020
1736 Rain 3 1018 95 0 0.45 159 15:40 07.06.2020
1737 Rain 3 1018 95 0 0.45 159 15:21 07.06.2020
1738 Rain 2 1018 94 0 2.03 349 14:40 07.06.2020
1739 Rain 2 1018 94 0 2.22 337 14:21 07.06.2020
1740 Rain 2 1017 94 0 2.22 337 13:48 07.06.2020
1741 Rain 2 1017 93 0 2.08 350 13:21 07.06.2020
1742 Rain 2 1017 93 0 2.08 350 12:56 07.06.2020
1743 Rain 3 1017 93 0 2.08 350 12:37 07.06.2020
1744 Rain 3 1017 93 0 2.16 345 12:18 07.06.2020
1745 Rain 3 1017 93 0 2.16 345 11:55 07.06.2020
1746 Rain 4 1016 93 0 2.16 345 11:36 07.06.2020
1747 Rain 3 1016 92 0 2.01 330 11:18 07.06.2020
1748 Rain 4 1016 92 0 0.89 181 10:43 07.06.2020
1749 Rain 5 1015 93 0 0.38 331 10:20 07.06.2020
1750 Rain 6 1015 93 0 0.38 331 09:57 07.06.2020
1751 Rain 6 1014 94 0 0.38 331 09:38 07.06.2020
1752 Rain 8 1014 95 0 0.45 333 09:20 07.06.2020
1753 Rain 8 1014 95 0 0.45 333 08:48 07.06.2020
1754 Rain 8 1014 94 0 0.2 143 08:24 07.06.2020
1755 Rain 8 1014 95 0 0.2 143 07:57 07.06.2020
1756 Rain 8 1013 95 0 0.2 143 07:30 07.06.2020
1757 Rain 6 1013 95 0 0.77 189 06:51 07.06.2020
1758 Rain 5 1016 94 0 1.53 187 05:52 07.06.2020
1759 Rain 5 1017 99 0 2.2 171 04:21 07.06.2020
1760 Rain 6 1017 99 0 0.89 52 02:57 07.06.2020
1761 Rain 6 1018 99 0 1.59 177 01:58 07.06.2020
1762 Rain 6 1018 99 0 0.89 262 01:25 07.06.2020
1763 Rain 7 1018 99 0 1.79 207 00:47 07.06.2020
1764 Rain 8 1007 100 0 0.5 0 00:19 07.06.2020
1765 Clouds 9 1007 100 0 1.5 60 23:58 06.06.2020
1766 Clouds 8 1007 100 0 1.5 60 23:37 06.06.2020
1767 Rain 8 1007 100 0 0.5 0 23:19 06.06.2020
1768 Clouds 8 1007 100 0 0.95 173 22:56 06.06.2020
1769 Clouds 8 1007 100 0 0.95 173 22:38 06.06.2020
1770 Clouds 8 1007 93 0 1 0 22:18 06.06.2020
1771 Clouds 8 1006 93 10000 3.6 110 21:45 06.06.2020
1772 Rain 6 1018 98 0 0.81 179 21:22 06.06.2020
1773 Rain 7 1018 91 0 2.68 77 20:57 06.06.2020
1774 Rain 7 1018 97 0 1.79 80 20:38 06.06.2020
1775 Rain 7 1018 99 0 0.58 196 20:18 06.06.2020
1776 Rain 7 1018 99 0 0.58 196 20:18 06.06.2020
1777 Rain 7 1018 99 0 0.58 196 19:57 06.06.2020
1778 Clouds 9 1005 68 0 3.1 40 19:38 06.06.2020
1779 Clouds 10 1005 68 0 3.1 40 19:19 06.06.2020
1780 Clouds 11 1005 68 0 2.6 40 18:43 06.06.2020
1781 Rain 9 1018 81 0 1.34 91 18:24 06.06.2020
1782 Rain 12 1006 77 0 1 0 17:58 06.06.2020
1783 Rain 12 1006 77 0 1 0 17:39 06.06.2020
1784 Clouds 11 1006 72 10000 1 0 17:19 06.06.2020
1785 Rain 11 1006 77 10000 3.1 210 16:44 06.06.2020
1786 Rain 10 1006 72 0 2.1 300 16:22 06.06.2020
1787 Rain 11 1006 63 10000 3.6 250 15:58 06.06.2020
1788 Rain 11 1006 63 10000 3.6 250 15:40 06.06.2020
1789 Rain 11 1005 63 10000 2.6 270 15:20 06.06.2020
1790 Clouds 13 1005 56 0 2.6 270 14:43 06.06.2020
1791 Clouds 14 1005 52 0 1.5 290 14:25 06.06.2020
1792 Rain 11 1019 79 0 1.34 224 13:59 06.06.2020
1793 Rain 11 1018 83 0 1.79 201 13:40 06.06.2020
1794 Rain 10 1018 83 0 0.89 269 13:18 06.06.2020
1795 Rain 10 1018 83 0 0.89 269 13:18 06.06.2020
1796 Rain 9 1017 89 0 0.45 300 12:43 06.06.2020
1797 Rain 9 1017 92 0 1.77 193 12:24 06.06.2020
1798 Rain 9 1017 93 0 0.45 298 11:58 06.06.2020
1799 Rain 11 1004 69 0 6.259 157 11:39 06.06.2020
1800 Rain 11 1004 73 0 8.494 157 11:20 06.06.2020
1801 Rain 10 1004 79 0 3.576 202 10:58 06.06.2020
1802 Rain 10 1004 79 0 3.576 202 10:58 06.06.2020
1803 Rain 10 1004 82 0 0.894 225 10:39 06.06.2020
1804 Clouds 8 1016 88 0 2.06 188 10:21 06.06.2020
1805 Clouds 7 1016 91 0 2.06 188 09:58 06.06.2020
1806 Clouds 7 1016 87 0 0.89 217 09:40 06.06.2020
1807 Clouds 8 1004 82 0 2.7 191 09:20 06.06.2020
1808 Clouds 8 1004 82 0 0.447 337 08:40 06.06.2020
1809 Clouds 8 1003 80 0 2.73 189 08:20 06.06.2020
1810 Clouds 7 1015 86 0 2.73 189 07:46 06.06.2020
1811 Clouds 7 1015 90 0 2.63 191 07:22 06.06.2020
1812 Clouds 7 1015 94 0 0.89 82 06:48 06.06.2020
1813 Clouds 9 1022 73 0 3.129 157 06:30 06.06.2020
1814 Clouds 9 1005 93 0 2.68 192 05:55 06.06.2020
1815 Clouds 9 1005 93 0 1 0 05:28 06.06.2020
1816 Clouds 9 1006 93 0 1.5 70 04:46 06.06.2020
1817 Clouds 8 1006 93 0 1 0 02:52 06.06.2020
1818 Clouds 8 1006 87 0 1.5 110 01:57 06.06.2020
1819 Clouds 7 1006 87 0 1.5 110 01:19 06.06.2020
1820 Clouds 7 1007 87 0 1.5 110 00:46 06.06.2020
1821 Clouds 7 1007 87 0 1 0 00:27 06.06.2020
1822 Clouds 7 1007 87 0 1.5 90 23:56 05.06.2020
1823 Clouds 7 1007 87 0 1.5 90 23:38 05.06.2020
1824 Clouds 7 1007 87 0 1.5 80 23:18 05.06.2020
1825 Clouds 7 1006 87 0 2.1 70 22:55 05.06.2020
1826 Clouds 7 1006 87 0 2.1 70 22:37 05.06.2020
1827 Clouds 7 1006 82 10000 2.1 120 22:18 05.06.2020
1828 Clouds 7 1006 82 10000 2.1 120 22:18 05.06.2020
1829 Clouds 7 1006 82 0 1.5 100 21:41 05.06.2020
1830 Clouds 5 1013 89 0 1.94 302 21:22 05.06.2020
1831 Clouds 5 1013 92 0 1.94 302 20:57 05.06.2020
1832 Clouds 5 1013 85 0 1.79 85 20:38 05.06.2020
1833 Clouds 5 1013 87 0 2.02 304 20:20 05.06.2020
1834 Clouds 5 1012 86 0 2.02 304 19:41 05.06.2020
1835 Rain 8 1005 72 0 1 0 19:22 05.06.2020
1836 Clouds 8 1004 67 10000 2.6 40 18:56 05.06.2020
1837 Clouds 8 1004 67 10000 2.6 40 18:38 05.06.2020
1838 Rain 5 1012 82 0 2.51 311 18:19 05.06.2020
1839 Rain 5 1012 86 0 0.89 291 17:57 05.06.2020
1840 Rain 5 1012 93 0 2.51 311 17:38 05.06.2020
1841 Rain 8 1022 85 0 11.176 225 17:18 05.06.2020
1842 Clouds 8 1004 67 10000 2.6 0 16:38 05.06.2020
1843 Rain 5 1011 78 0 2.68 237 16:20 05.06.2020
1844 Clouds 7 1004 63 10000 2.6 0 15:43 05.06.2020
1845 Clouds 7 1004 63 10000 2.6 0 15:43 05.06.2020
1846 Clouds 7 1003 63 10000 1 0 15:22 05.06.2020
1847 Clouds 7 1003 62 10000 1.5 0 14:58 05.06.2020
1848 Clouds 7 1003 62 10000 1.5 0 14:40 05.06.2020
1849 Clouds 6 1003 71 0 2.1 0 14:22 05.06.2020
1850 Clouds 6 1003 71 0 2.1 0 13:58 05.06.2020
1851 Clouds 6 1003 71 0 2.1 0 13:58 05.06.2020
1852 Clouds 6 1003 71 0 2.1 0 13:38 05.06.2020
1853 Clouds 6 1003 71 0 2.1 0 13:19 05.06.2020
1854 Clouds 3 1008 97 0 2.03 316 12:42 05.06.2020
1855 Clouds 6 1003 71 0 3.6 280 12:20 05.06.2020
1856 Clouds 7 1002 71 10000 3.6 260 11:55 05.06.2020
1857 Clouds 6 1002 71 10000 3.6 260 11:37 05.06.2020
1858 Clouds 6 1002 71 10000 3.1 0 11:18 05.06.2020
1859 Clouds 3 1007 99 0 2.14 324 10:42 05.06.2020
1860 Snow 3 1007 99 0 2.65 329 10:21 05.06.2020
1861 Snow 3 1006 99 0 0.45 259 09:58 05.06.2020
1862 Snow 4 1009 93 0 2.65 329 09:40 05.06.2020
1863 Snow 3 1006 99 0 3.07 330 09:21 05.06.2020
1864 Snow 2 1006 99 0 3.07 330 08:59 05.06.2020
1865 Snow 2 1006 99 0 3.07 330 08:58 05.06.2020
1866 Snow 2 1006 99 0 3.07 330 08:58 05.06.2020
1867 Snow 2 1006 99 0 3.07 330 08:40 05.06.2020
1868 Snow 2 1006 99 0 0.89 303 08:19 05.06.2020
1869 Snow 2 1006 99 0 3.28 332 07:53 05.06.2020
1870 Snow 1 1006 99 0 3.28 332 07:34 05.06.2020
1871 Snow 3 1008 95 0 3.26 336 06:50 05.06.2020
1872 Rain 1 1006 99 0 0.45 178 05:23 05.06.2020
1873 Rain 2 1006 99 0 3.06 331 04:31 05.06.2020
1874 Rain 2 1006 99 0 2.24 317 03:38 05.06.2020
1875 Rain 2 1008 99 0 2.65 338 02:30 05.06.2020
1876 Clouds 2 1008 99 0 2.67 328 01:59 05.06.2020
1877 Clouds 2 1008 98 0 0.89 85 01:34 05.06.2020
1878 Rain 2 1008 99 0 2.24 321 00:55 05.06.2020
1879 Rain 2 1008 99 0 2.24 321 00:36 05.06.2020
1880 Rain 2 1008 99 0 1.87 311 00:18 05.06.2020
1881 Rain 2 1008 99 0 1.87 311 23:42 04.06.2020
1882 Rain 2 1008 99 0 1.93 316 23:24 04.06.2020
1883 Rain 2 1008 99 0 1.34 229 22:42 04.06.2020
1884 Rain 2 1008 99 0 2.02 316 22:22 04.06.2020
1885 Rain 2 1008 99 0 0.89 84 21:58 04.06.2020
1886 Rain 2 1008 99 0 1.34 81 21:39 04.06.2020
1887 Rain 3 1007 91 0 2.44 339 21:20 04.06.2020
1888 Rain 3 1007 91 0 2.44 339 20:57 04.06.2020
1889 Rain 3 1007 90 0 2.44 339 20:39 04.06.2020
1890 Rain 3 1007 90 0 2.44 339 20:39 04.06.2020
1891 Rain 1 1008 99 0 2.24 79 20:20 04.06.2020
1892 Rain 1 1008 99 0 3.13 93 19:55 04.06.2020
1893 Rain 1 1008 99 0 0.45 82 19:37 04.06.2020
1894 Rain 4 1000 93 3500 0.5 0 19:18 04.06.2020
1895 Rain 5 1000 100 5000 1.5 70 18:39 04.06.2020
1896 Rain 3 1008 97 0 0.45 76 18:20 04.06.2020
1897 Rain 4 1009 97 0 0.89 344 17:56 04.06.2020
1898 Rain 4 1009 97 0 0.89 37 17:38 04.06.2020
1899 Rain 7 999 82 5000 2.6 60 17:19 04.06.2020
1900 Rain 7 999 93 5000 3.1 70 16:41 04.06.2020
1901 Rain 5 1010 99 0 0.91 126 16:20 04.06.2020
1902 Rain 7 999 93 5000 2.1 80 15:46 04.06.2020
1903 Rain 5 1010 99 0 1.34 223 15:27 04.06.2020
1904 Rain 7 999 93 6000 1.5 290 14:55 04.06.2020
1905 Rain 7 999 93 6000 1.5 290 14:37 04.06.2020
1906 Rain 7 999 82 5000 3.6 250 14:18 04.06.2020
1907 Rain 8 1000 87 8000 3.6 250 13:41 04.06.2020
1908 Rain 8 1000 82 0 1.5 250 13:21 04.06.2020
1909 Rain 8 1000 82 0 0.98 177 12:59 04.06.2020
1910 Rain 8 1000 82 0 0.98 177 12:41 04.06.2020
1911 Rain 8 1000 82 8000 2.41 167 12:23 04.06.2020
1912 Rain 8 1000 87 6000 2.41 167 11:56 04.06.2020
1913 Rain 8 1000 87 6000 2.41 167 11:38 04.06.2020
1914 Rain 8 1000 93 6000 2.82 152 11:19 04.06.2020
1915 Rain 8 1000 93 6000 2.82 152 10:42 04.06.2020
1916 Clouds 8 1000 93 10000 2.6 80 10:23 04.06.2020
1917 Clouds 8 1000 93 10000 2.6 80 09:58 04.06.2020
1918 Clouds 8 1000 93 10000 2.6 80 09:40 04.06.2020
1919 Clouds 8 1000 93 10000 2.6 80 09:22 04.06.2020
1920 Clouds 8 1000 93 10000 1.5 110 08:44 04.06.2020
1921 Clouds 8 1000 100 10000 1 0 08:25 04.06.2020
1922 Clouds 7 1000 93 10000 2.1 240 07:47 04.06.2020
1923 Rain 7 1000 93 8000 1.81 159 07:26 04.06.2020
1924 Clouds 7 1001 100 10000 1.5 280 06:43 04.06.2020
1925 Rain 5 1013 99 0 1.73 154 06:24 04.06.2020
1926 Rain 5 1013 99 0 1.73 154 05:34 04.06.2020
1927 Rain 6 1015 96 0 1.96 157 04:31 04.06.2020
1928 Rain 8 1003 93 0 1 0 03:23 04.06.2020
1929 Clouds 8 1004 93 0 1.5 70 01:56 04.06.2020
1930 Clouds 8 1004 93 0 1.5 70 01:56 04.06.2020
1931 Clouds 8 1004 93 0 1.5 100 01:19 04.06.2020
1932 Clouds 9 1005 93 0 0.5 0 00:40 04.06.2020
1933 Clouds 9 1005 93 0 0.5 0 23:44 03.06.2020
1934 Clouds 9 1005 93 0 2.14 164 23:20 03.06.2020
1935 Clouds 9 1005 93 0 1 0 22:59 03.06.2020
1936 Clouds 9 1005 93 0 1 0 22:39 03.06.2020
1937 Clouds 9 1005 93 0 1 0 22:18 03.06.2020
1938 Clouds 9 1005 93 0 1 0 21:57 03.06.2020
1939 Clouds 9 1005 93 0 1 0 21:38 03.06.2020
1940 Clouds 7 1020 81 0 2.2 166 21:20 03.06.2020
1941 Rain 7 1020 86 0 1.34 85 20:54 03.06.2020
1942 Rain 7 1020 86 0 1.6 174 20:36 03.06.2020
1943 Rain 7 1020 86 0 1.6 174 20:36 03.06.2020
1944 Rain 7 1019 86 0 1.87 172 20:18 03.06.2020
1945 Rain 7 1019 84 0 1.87 172 19:54 03.06.2020
1946 Rain 8 1019 82 0 1.87 172 19:36 03.06.2020
1947 Rain 11 1006 59 0 10.8 310 19:18 03.06.2020
1948 Clouds 12 1005 56 0 3.1 280 18:41 03.06.2020
1949 Rain 13 1005 56 0 2.6 280 18:21 03.06.2020
1950 Clouds 13 1005 49 0 4.1 300 17:55 03.06.2020
1951 Clouds 13 1005 49 0 4.1 300 17:37 03.06.2020
1952 Clouds 13 1005 49 10000 4.6 290 17:18 03.06.2020
1953 Clouds 14 1005 46 10000 5.1 290 16:41 03.06.2020
1954 Clouds 14 1005 43 10000 3.6 250 16:20 03.06.2020
1955 Clouds 15 1005 38 10000 4.6 260 15:57 03.06.2020
1956 Clouds 16 1005 38 10000 4.6 260 15:38 03.06.2020
1957 Clouds 16 1005 36 10000 5.1 260 15:20 03.06.2020
1958 Clouds 15 1006 38 10000 2.6 230 14:46 03.06.2020
1959 Clouds 16 1006 31 10000 3.6 240 14:24 03.06.2020
1960 Clouds 15 1007 40 10000 2.1 220 13:55 03.06.2020
1961 Clouds 15 1007 40 10000 2.1 220 13:37 03.06.2020
1962 Clouds 15 1007 43 0 3.1 240 13:18 03.06.2020
1963 Rain 15 1008 49 0 4.1 250 12:42 03.06.2020
1964 Clouds 15 1008 40 10000 1 0 12:20 03.06.2020
1965 Clouds 15 1009 40 10000 0.5 0 11:45 03.06.2020
1966 Clouds 15 1009 43 10000 0.56 195 11:26 03.06.2020
1967 Clouds 14 1006 47 0 0.56 195 10:55 03.06.2020
1968 Clouds 14 1024 66 0 1.788 22 10:37 03.06.2020
1969 Clouds 14 1006 53 0 0.447 247 10:19 03.06.2020
1970 Clouds 11 1023 53 0 0.45 284 09:41 03.06.2020
1971 Clouds 12 1011 55 10000 0.85 319 09:19 03.06.2020
1972 Clouds 11 1011 62 10000 0.56 307 08:47 03.06.2020
1973 Clouds 10 1019 60 0 0.75 300 08:22 03.06.2020
1974 Clouds 10 1019 71 0 0.75 300 07:58 03.06.2020
1975 Clouds 9 1020 72 0 0.75 300 07:37 03.06.2020
1976 Clouds 8 1020 72 0 0.65 292 07:18 03.06.2020
1977 Clouds 7 1025 62 0 0.65 292 06:45 03.06.2020
1978 Clouds 6 1020 74 0 0.45 247 06:22 03.06.2020
1979 Clouds 6 1020 72 0 0.78 290 05:45 03.06.2020
1980 Clouds 6 1020 71 0 1.06 313 04:26 03.06.2020
1981 Clouds 7 1013 81 0 1 0 03:42 03.06.2020
1982 Clouds 6 1021 71 0 0.94 314 02:39 03.06.2020
1983 Clouds 8 1014 76 0 0.95 317 01:44 03.06.2020
1984 Clouds 9 1014 66 0 0.76 312 00:39 03.06.2020
1985 Clouds 9 1014 62 0 2.1 120 00:20 03.06.2020
1986 Clouds 9 1014 62 0 3.1 90 23:45 02.06.2020
1987 Clouds 10 1013 58 0 2.6 100 23:27 02.06.2020
1988 Clouds 10 1013 58 0 2.6 100 22:55 02.06.2020
1989 Clouds 10 1013 58 0 2.6 100 22:36 02.06.2020
1990 Clouds 11 1013 42 0 2.1 90 22:18 02.06.2020
1991 Clouds 12 1013 39 0 2.6 80 21:54 02.06.2020
1992 Clouds 12 1013 39 0 2.6 80 21:36 02.06.2020
1993 Rain 10 1028 66 0 0.45 54 21:18 02.06.2020
1994 Rain 10 1028 67 0 1.97 334 20:42 02.06.2020
1995 Rain 14 1013 35 0 2.1 20 20:23 02.06.2020
1996 Rain 14 1013 35 0 2.1 20 20:23 02.06.2020
1997 Clouds 14 1013 38 0 4.6 50 19:58 02.06.2020
1998 Clouds 14 1013 38 0 4.6 50 19:39 02.06.2020
1999 Clouds 14 1013 36 0 5.1 70 19:21 02.06.2020
2000 Clouds 14 1013 38 0 5.1 40 18:55 02.06.2020
2001 Clouds 15 1013 38 0 5.1 40 18:37 02.06.2020
2002 Rain 13 1022 55 0 0.89 38 18:18 02.06.2020
2003 Rain 13 1022 52 0 0.89 3 17:41 02.06.2020
2004 Clouds 15 1014 41 10000 4.6 70 17:23 02.06.2020
2005 Clouds 15 1014 41 10000 5.1 60 16:57 02.06.2020
2006 Clouds 15 1014 41 10000 5.1 60 16:38 02.06.2020
2007 Clouds 15 1014 41 10000 4.1 50 16:20 02.06.2020
2008 Clouds 15 1015 38 10000 5.7 40 15:44 02.06.2020
2009 Clouds 15 1015 38 10000 5.7 40 15:24 02.06.2020
2010 Clouds 15 1016 43 10000 1.5 0 14:50 02.06.2020
2011 Clouds 14 1016 43 10000 1.5 0 14:31 02.06.2020
2012 Clouds 14 1016 46 10000 3.1 260 13:58 02.06.2020
2013 Clouds 14 1016 46 10000 3.1 260 13:39 02.06.2020
2014 Clear 14 1016 46 0 3.1 260 13:19 02.06.2020
2015 Clear 14 1017 49 0 3.6 270 12:58 02.06.2020
2016 Clear 14 1024 44 0 3.13 299 12:40 02.06.2020
2017 Clear 14 1017 49 0 2.1 260 12:20 02.06.2020
2018 Clear 14 1017 49 0 2.1 260 12:20 02.06.2020
2019 Clear 14 1017 49 0 2.1 260 11:56 02.06.2020
2020 Clear 14 1017 49 0 2.1 260 11:38 02.06.2020
2021 Clear 13 1017 52 10000 1.5 260 11:20 02.06.2020
2022 Clear 13 1017 52 10000 1.5 260 10:47 02.06.2020
2023 Clear 12 1013 63 0 0.894 22 10:28 02.06.2020
2024 Clear 11 1028 59 0 1.34 149 09:56 02.06.2020
2025 Clear 12 1025 65 0 0.45 138 09:37 02.06.2020
2026 Clear 11 1014 70 0 1.341 45 09:19 02.06.2020
2027 Clear 11 1018 67 10000 2.62 342 08:46 02.06.2020
2028 Clear 10 1018 81 10000 2.37 336 08:20 02.06.2020
2029 Clear 10 1025 82 0 2.37 336 07:46 02.06.2020
2030 Clear 10 1025 82 0 2.37 336 07:46 02.06.2020
2031 Clear 9 1025 83 0 1.72 326 07:25 02.06.2020
2032 Clear 8 1025 82 0 1.72 326 06:43 02.06.2020
2033 Clear 7 1018 93 0 2.1 100 05:57 02.06.2020
2034 Clear 7 1018 81 0 1.07 311 05:19 02.06.2020
2035 Clear 7 1018 81 0 0.49 292 03:22 02.06.2020
2036 Clouds 8 1018 76 0 0.66 256 02:25 02.06.2020
2037 Clouds 8 1018 71 0 1.5 100 01:22 02.06.2020
2038 Clouds 9 1018 62 0 3.6 90 00:25 02.06.2020
2039 Clouds 9 1018 67 0 4.1 80 23:56 01.06.2020
2040 Clouds 9 1018 67 0 4.1 80 23:37 01.06.2020
2041 Clouds 10 1018 55 0 4.1 70 23:18 01.06.2020
2042 Clouds 10 1017 51 0 3.1 80 22:41 01.06.2020
2043 Clouds 11 1017 42 0 2.6 90 22:21 01.06.2020
2044 Clouds 11 1017 39 0 3.1 60 21:58 01.06.2020
2045 Clouds 12 1017 39 0 3.1 60 21:40 01.06.2020
2046 Rain 12 1017 35 0 4.1 60 21:19 01.06.2020
2047 Rain 13 1017 35 0 4.1 60 20:56 01.06.2020
2048 Rain 13 1017 35 0 4.1 60 20:38 01.06.2020
2049 Rain 13 1017 37 0 4.6 40 20:19 01.06.2020
2050 Rain 14 1017 37 0 4.6 40 19:43 01.06.2020
2051 Rain 14 1017 33 0 4.1 50 19:21 01.06.2020
2052 Rain 14 1017 35 0 3.1 0 18:59 01.06.2020
2053 Rain 14 1017 35 0 3.1 0 18:39 01.06.2020
2054 Rain 14 1017 40 0 3.6 40 18:20 01.06.2020
2055 Clouds 14 1017 40 0 2.6 0 17:58 01.06.2020
2056 Clouds 14 1017 40 0 2.6 0 17:40 01.06.2020
2057 Rain 14 1017 40 0 5.1 60 17:19 01.06.2020
2058 Rain 14 1017 43 0 5.1 40 16:42 01.06.2020
2059 Rain 14 1017 46 0 6.2 40 16:22 01.06.2020
2060 Clouds 14 1017 49 0 7.7 40 15:57 01.06.2020
2061 Clouds 14 1017 49 0 7.7 40 15:39 01.06.2020
2062 Rain 14 1018 46 0 6.7 50 15:19 01.06.2020
2063 Rain 14 1018 46 0 5.1 50 14:57 01.06.2020
2064 Rain 14 1018 46 0 5.1 50 14:39 01.06.2020
2065 Clouds 14 1018 46 0 1.5 280 14:21 01.06.2020
2066 Clouds 13 1018 45 0 3.1 250 13:44 01.06.2020
2067 Clouds 13 1018 45 0 3.1 250 13:22 01.06.2020
2068 Clouds 13 1018 45 0 3.1 250 12:59 01.06.2020
2069 Clouds 13 1019 48 0 4.6 260 12:40 01.06.2020
2070 Clouds 13 1019 48 0 4.6 260 12:22 01.06.2020
2071 Clouds 13 1019 52 0 2.6 270 11:59 01.06.2020
2072 Clouds 12 1035 54 0 2.682 0 11:38 01.06.2020
2073 Clouds 12 1017 49 0 1.788 22 11:19 01.06.2020
2074 Clouds 12 1016 47 0 1.788 0 10:56 01.06.2020
2075 Clouds 12 1034 53 0 4.023 0 10:37 01.06.2020
2076 Clouds 12 1034 53 0 3.129 0 10:18 01.06.2020
2077 Clouds 11 1034 53 0 1.788 22 09:46 01.06.2020
2078 Clouds 11 1018 62 0 2.1 250 09:26 01.06.2020
2079 Clouds 10 1018 71 0 1 0 08:57 01.06.2020
2080 Clouds 10 1018 76 0 0.5 0 08:37 01.06.2020
2081 Clear 9 1034 56 0 0.894 90 08:18 01.06.2020
2082 Clear 7 1026 81 0 1.26 192 07:41 01.06.2020
2083 Clear 7 1026 82 0 1.77 201 07:22 01.06.2020
2084 Clear 6 1027 85 0 1.77 201 06:49 01.06.2020
2085 Clear 5 1026 84 0 1.93 202 05:57 01.06.2020
2086 Clear 6 1019 87 0 1.5 120 04:58 01.06.2020
2087 Clear 7 1018 81 0 3.1 110 03:57 01.06.2020
2088 Clear 7 1018 71 0 4.1 100 03:39 01.06.2020
2089 Clear 7 1018 81 0 4.1 110 02:56 01.06.2020
2090 Clouds 7 1018 71 0 2.6 80 01:40 01.06.2020
2091 Clouds 7 1018 71 0 2.6 80 01:18 01.06.2020
2092 Clouds 7 1018 66 0 3.6 100 00:46 01.06.2020
2093 Clouds 5 1027 81 0 0.21 229 00:22 01.06.2020
2094 Clouds 7 1018 62 0 4.1 110 23:59 31.05.2020
2095 Clouds 8 1018 44 0 4.6 50 23:40 31.05.2020
2096 Clouds 8 1018 44 0 4.6 50 23:22 31.05.2020
2097 Clouds 8 1018 44 0 4.6 70 22:58 31.05.2020
2098 Clouds 8 1017 44 0 4.1 60 22:40 31.05.2020
2099 Clouds 8 1017 44 0 4.1 60 22:22 31.05.2020
2100 Clouds 9 1017 42 0 5.1 60 21:57 31.05.2020
2101 Clouds 9 1017 45 0 5.7 60 21:38 31.05.2020
2102 Clouds 8 1025 65 0 1.84 354 21:20 31.05.2020
2103 Clouds 7 1026 77 0 0.89 90 20:44 31.05.2020
2104 Clouds 10 1016 39 0 4.1 40 20:25 31.05.2020
2105 Clouds 10 1016 42 0 4.6 30 19:56 31.05.2020
2106 Clouds 10 1016 42 0 4.6 50 19:38 31.05.2020
2107 Clouds 10 1016 42 0 4.6 50 19:20 31.05.2020
2108 Clouds 11 1016 40 0 5.1 50 18:45 31.05.2020
2109 Clouds 9 1024 57 0 3.13 317 18:25 31.05.2020
2110 Clouds 9 1024 57 0 2.68 292 17:59 31.05.2020
2111 Clouds 9 1024 56 0 3.58 295 17:40 31.05.2020
2112 Clouds 10 1024 54 0 3.13 311 17:21 31.05.2020
2113 Clouds 11 1016 49 0 5.1 70 16:41 31.05.2020
2114 Clouds 9 1023 52 0 3.13 278 16:21 31.05.2020
2115 Clouds 11 1016 45 0 5.7 60 15:56 31.05.2020
2116 Clouds 10 1024 58 0 2.68 290 15:37 31.05.2020
2117 Clouds 10 1023 54 0 2.24 313 15:18 31.05.2020
2118 Clouds 10 1017 52 0 6.7 20 14:41 31.05.2020
2119 Clouds 10 1017 52 0 6.7 20 14:19 31.05.2020
2120 Clouds 10 1017 52 0 6.7 30 13:55 31.05.2020
2121 Clouds 10 1017 52 0 7.2 40 13:37 31.05.2020
2122 Clouds 10 1017 52 0 7.2 40 13:19 31.05.2020
2123 Clouds 10 1017 51 0 7.2 40 12:46 31.05.2020
2124 Clouds 10 1017 51 0 6.7 50 12:24 31.05.2020
2125 Clouds 10 1017 48 0 6.2 60 11:56 31.05.2020
2126 Clouds 9 1017 51 0 3.1 0 11:38 31.05.2020
2127 Clear 9 1017 51 0 3.1 0 11:19 31.05.2020
2128 Clear 8 1017 51 0 1.5 0 10:44 31.05.2020
2129 Clear 8 1017 51 0 1.5 0 10:44 31.05.2020
2130 Clear 8 1017 51 0 1.5 0 10:44 31.05.2020
2131 Clear 9 1017 51 0 1.5 0 10:26 31.05.2020
2132 Clear 8 1023 66 0 0.45 130 09:59 31.05.2020
2133 Clear 10 1023 65 0 0.45 132 09:41 31.05.2020
2134 Clear 8 1017 62 0 3.6 110 09:21 31.05.2020
2135 Clear 7 1014 78 0 0.447 22 08:43 31.05.2020
2136 Clouds 6 1024 79 0 1.09 235 08:24 31.05.2020
2137 Clouds 6 1024 85 0 1.09 235 07:52 31.05.2020
2138 Clouds 5 1024 86 0 1.14 210 07:22 31.05.2020
2139 Clouds 5 1024 86 0 1.14 210 06:57 31.05.2020
2140 Clouds 4 1024 86 0 1.14 210 06:36 31.05.2020
2141 Clouds 4 1017 75 0 4.1 110 05:55 31.05.2020
2142 Clouds 4 1017 75 0 4.1 110 05:37 31.05.2020
2143 Clouds 4 1017 76 0 3.6 100 04:18 31.05.2020
2144 Clouds 3 1018 81 0 3.1 90 03:44 31.05.2020
2145 Clouds 3 1018 76 0 3.1 80 02:49 31.05.2020
2146 Clouds 4 1018 71 0 3.6 90 01:46 31.05.2020
2147 Clouds 5 1018 58 0 2.6 90 00:46 31.05.2020
2148 Clouds 6 1018 50 0 3.6 60 00:28 31.05.2020
2149 Clouds 6 1018 47 0 2.6 0 23:42 30.05.2020
2150 Clouds 6 1018 47 0 2.6 0 23:24 30.05.2020
2151 Clouds 6 1018 47 0 2.6 0 22:57 30.05.2020
2152 Clouds 6 1017 41 0 3.1 40 22:39 30.05.2020
2153 Clouds 6 1017 41 0 3.1 40 22:21 30.05.2020
2154 Clouds 7 1017 39 0 2.6 0 21:43 30.05.2020
2155 Clouds 4 1023 81 0 2.24 81 21:22 30.05.2020
2156 Clouds 4 1023 80 0 0.45 81 20:58 30.05.2020
2157 Clouds 4 1024 79 0 2.24 85 20:40 30.05.2020
2158 Clouds 5 1024 80 0 0.89 72 20:21 30.05.2020
2159 -273 0 0 0 0 0 19:58 30.05.2020
2160 Clouds 8 1017 42 0 2.1 210 19:40 30.05.2020
2161 Clouds 8 1017 42 0 2.1 210 19:20 30.05.2020
2162 Clouds 8 1017 45 0 2.1 0 18:43 30.05.2020
2163 Rain 10 1024 68 0 0.45 90 18:20 30.05.2020
2164 Rain 7 1024 68 0 0.45 165 17:43 30.05.2020
2165 Rain 7 1024 66 0 0.45 109 17:25 30.05.2020
2166 Rain 8 1024 64 0 0.45 314 16:59 30.05.2020
2167 Rain 8 1024 63 0 1.79 322 16:40 30.05.2020
2168 Rain 8 1024 63 0 2.24 291 16:21 30.05.2020
2169 Rain 8 1024 61 0 2.24 344 15:44 30.05.2020
2170 Rain 8 1024 61 0 2.68 329 15:26 30.05.2020
2171 Rain 7 1024 61 0 3.13 287 14:45 30.05.2020
2172 Rain 7 1024 58 0 2.68 300 14:27 30.05.2020
2173 Clouds 9 1018 55 0 6.2 40 13:44 30.05.2020
2174 Clouds 9 1018 55 0 6.2 40 13:26 30.05.2020
2175 Rain 9 1018 59 0 6.7 40 12:43 30.05.2020
2176 Clouds 9 1018 59 0 6.7 40 12:23 30.05.2020
2177 Clouds 9 1018 59 0 4.1 0 11:59 30.05.2020
2178 Clouds 9 1019 59 0 4.6 80 11:41 30.05.2020
2179 Clouds 9 1019 59 0 4.6 80 11:22 30.05.2020
2180 Clouds 8 1016 80 0 2.235 22 10:55 30.05.2020
2181 Clouds 8 1035 89 0 3.576 315 10:37 30.05.2020
2182 Clouds 8 1016 80 0 0.894 337 10:19 30.05.2020
2183 Clouds 7 1016 81 0 2.235 22 09:42 30.05.2020
2184 Clouds 7 1019 66 0 1.1 336 09:24 30.05.2020
2185 Clouds 6 1019 71 0 3.1 80 08:41 30.05.2020
2186 Clouds 6 1019 71 0 3.1 80 08:21 30.05.2020
2187 Clouds 4 1025 85 0 0.7 304 07:39 30.05.2020
2188 Clouds 4 1025 86 0 1 218 07:18 30.05.2020
2189 Clouds 4 1025 84 0 1.39 201 06:28 30.05.2020
2190 Clouds 4 1025 83 0 1.39 201 05:49 30.05.2020
2191 Clouds 4 1025 83 0 1.85 190 04:37 30.05.2020
2192 Clouds 3 1026 81 0 2.01 182 02:34 30.05.2020
2193 Clouds 3 1026 81 0 1.8 178 01:57 30.05.2020
2194 Clouds 4 1027 79 0 1.89 177 00:44 30.05.2020
2195 Clouds 6 1019 54 0 3.1 0 00:24 30.05.2020
2196 Clouds 6 1019 51 0 5.1 40 23:59 29.05.2020
2197 Clouds 6 1019 51 0 2.6 0 23:38 29.05.2020
2198 Clouds 6 1019 51 0 2.6 0 23:19 29.05.2020
2199 Clouds 7 1019 48 0 2.6 60 22:54 29.05.2020
2200 Clouds 7 1019 48 0 1.5 0 22:36 29.05.2020
2201 Clouds 7 1019 48 0 1.5 0 22:18 29.05.2020
2202 Clouds 7 1019 48 0 1.5 0 22:18 29.05.2020
2203 Clouds 8 1019 45 0 2.1 0 21:39 29.05.2020
2204 Clouds 4 1027 81 0 1.34 66 21:21 29.05.2020
2205 Clouds 5 1028 79 0 1.34 116 20:57 29.05.2020
2206 Clouds 8 1019 39 0 2.6 0 20:38 29.05.2020
2207 Clouds 8 1019 39 0 2.6 0 20:19 29.05.2020
2208 Clouds 8 1019 42 0 3.1 0 19:42 29.05.2020
2209 Clouds 8 1019 42 0 3.1 0 19:24 29.05.2020
2210 Clouds 8 1019 42 0 2.6 0 18:48 29.05.2020
2211 Clouds 9 1019 42 0 4.1 0 18:23 29.05.2020
2212 Clouds 9 1019 39 0 3.6 0 17:59 29.05.2020
2213 Clouds 9 1019 39 0 4.6 0 17:39 29.05.2020
2214 Clouds 9 1019 39 0 4.6 0 17:20 29.05.2020
2215 Clouds 9 1019 39 0 4.6 0 16:47 29.05.2020
2216 Clouds 9 1019 42 0 4.6 60 16:29 29.05.2020
2217 Clouds 9 1019 39 10000 6.7 80 15:59 29.05.2020
2218 Clouds 10 1019 42 10000 5.7 70 15:41 29.05.2020
2219 Clouds 10 1019 42 10000 5.7 70 15:21 29.05.2020
2220 Clouds 9 1020 45 10000 5.7 80 14:57 29.05.2020
2221 Clouds 9 1020 42 10000 5.7 80 14:38 29.05.2020
2222 Clouds 9 1020 42 10000 5.7 80 14:19 29.05.2020
2223 Clear 8 1021 45 0 5.7 80 13:41 29.05.2020
2224 Clear 8 1021 45 0 5.7 80 13:21 29.05.2020
2225 Clear 8 1021 48 0 7.2 70 12:55 29.05.2020
2226 Clear 8 1021 51 10000 7.2 60 12:37 29.05.2020
2227 Clear 8 1021 51 10000 7.2 60 12:18 29.05.2020
2228 Clear 7 1021 51 10000 7.2 50 11:42 29.05.2020
2229 Clear 7 1021 51 10000 7.2 50 11:42 29.05.2020
2230 Clear 7 1021 51 10000 7.2 50 11:24 29.05.2020
2231 Clear 7 1022 54 10000 5.7 60 10:43 29.05.2020
2232 Clear 7 1022 54 10000 5.7 60 10:24 29.05.2020
2233 Clear 6 1029 69 0 0.89 153 09:58 29.05.2020
2234 Clear 6 1029 68 0 0.45 167 09:40 29.05.2020
2235 Clear 6 1022 58 10000 6.2 50 09:19 29.05.2020
2236 Clear 6 1022 58 10000 6.7 60 08:47 29.05.2020
2237 Clouds 6 1023 62 10000 5.7 60 08:23 29.05.2020
2238 Clouds 4 1036 88 0 1.788 0 07:48 29.05.2020
2239 Clouds 2 1027 64 0 0.45 62 07:29 29.05.2020
2240 Clouds 2 1028 64 0 1.04 28 06:55 29.05.2020
2241 Clouds 2 1029 72 0 1.04 28 06:37 29.05.2020
2242 Clouds 4 1023 71 0 4.6 100 06:18 29.05.2020
2243 Clouds 5 1023 62 0 5.7 60 05:36 29.05.2020
2244 Clouds 6 1024 58 0 4.1 50 01:48 29.05.2020
2245 Clouds 7 1024 58 0 3.1 70 01:27 29.05.2020
2246 Clouds 7 1024 58 0 3.1 70 00:50 29.05.2020
2247 Clouds 7 1024 51 0 2.6 0 00:28 29.05.2020
2248 Rain 8 1024 51 0 3.6 0 23:41 28.05.2020
2249 Rain 8 1024 51 0 3.6 0 23:20 28.05.2020
2250 Rain 8 1024 51 0 3.6 0 23:20 28.05.2020
2251 Clouds 8 1024 51 0 4.1 0 22:59 28.05.2020
2252 Clouds 8 1024 48 0 4.1 0 22:40 28.05.2020
2253 Clouds 8 1024 48 0 4.1 0 22:40 28.05.2020
2254 Clouds 9 1024 48 0 4.1 0 22:20 28.05.2020
2255 Clouds 9 1024 39 0 3.6 0 21:55 28.05.2020
2256 Clouds 9 1024 42 0 2.6 0 21:37 28.05.2020
2257 Clouds 9 1024 42 0 2.6 0 21:18 28.05.2020
2258 Clouds 10 1024 34 0 2.6 0 20:42 28.05.2020
2259 Rain 10 1024 34 0 2.6 0 20:20 28.05.2020
2260 Clouds 10 1024 34 0 3.1 50 19:59 28.05.2020
2261 Clouds 11 1024 34 0 3.1 0 19:41 28.05.2020
2262 Clouds 11 1024 34 0 3.1 0 19:20 28.05.2020
2263 Rain 12 1024 33 0 3.1 0 18:57 28.05.2020
2264 Rain 12 1024 28 0 3.1 0 18:38 28.05.2020
2265 Rain 10 1031 50 0 0.45 103 18:20 28.05.2020
2266 Rain 10 1032 51 0 0.45 70 17:40 28.05.2020
2267 Clouds 10 1032 50 0 0.45 270 17:21 28.05.2020
2268 Clouds 13 1025 28 10000 2.6 0 16:55 28.05.2020
2269 Clouds 12 1025 28 10000 4.1 0 16:36 28.05.2020
2270 Clouds 12 1025 28 10000 4.1 0 16:18 28.05.2020
2271 Clouds 12 1025 40 10000 4.1 90 15:40 28.05.2020
2272 Clouds 11 1032 48 0 0.45 322 15:22 28.05.2020
2273 Clouds 12 1026 40 10000 4.6 70 14:43 28.05.2020
2274 Clouds 12 1026 40 10000 4.6 70 14:23 28.05.2020
2275 Clouds 10 1033 53 0 0.89 289 13:48 28.05.2020
2276 Clouds 11 1027 42 0 4.1 0 13:30 28.05.2020
2277 Clouds 9 1033 50 0 2.68 291 12:59 28.05.2020
2278 Clouds 9 1033 50 0 2.68 288 12:38 28.05.2020
2279 Clouds 10 1027 42 10000 5.7 20 12:18 28.05.2020
2280 Clouds 10 1027 42 10000 5.1 40 11:41 28.05.2020
2281 Clouds 10 1027 42 10000 5.1 40 11:23 28.05.2020
2282 Clouds 10 1028 51 10000 3.37 353 10:56 28.05.2020
2283 Clouds 10 1028 51 10000 3.37 353 10:37 28.05.2020
2284 Clouds 10 1042 75 0 3.576 0 10:18 28.05.2020
2285 Clouds 9 1042 73 0 2.235 315 09:39 28.05.2020
2286 Clouds 8 1025 61 0 0.447 22 09:19 28.05.2020
2287 Clouds 9 1042 74 0 0.894 0 08:45 28.05.2020
2288 Clouds 8 1025 62 0 2.86 344 08:26 28.05.2020
2289 Clouds 6 1035 79 0 2.86 344 07:45 28.05.2020
2290 Clouds 5 1035 81 0 2.27 334 07:25 28.05.2020
2291 Clouds 5 1035 81 0 2.27 334 06:55 28.05.2020
2292 Clouds 5 1035 81 0 2.27 334 06:36 28.05.2020
2293 Clouds 4 1035 80 0 1.82 325 05:40 28.05.2020
2294 Clouds 4 1035 80 0 1.6 324 04:54 28.05.2020
2295 Clouds 4 1036 80 0 1.51 326 04:27 28.05.2020
2296 Clouds 5 1030 87 0 1.5 80 03:45 28.05.2020
2297 Clouds 5 1036 78 0 1.5 329 02:45 28.05.2020
2298 Clouds 6 1030 71 0 1.53 330 01:50 28.05.2020
2299 Clouds 6 1030 66 0 3.1 80 00:54 28.05.2020
2300 Clouds 7 1030 58 0 3.6 80 00:24 28.05.2020
2301 Clouds 8 1030 47 0 2.1 90 23:57 27.05.2020
2302 Clouds 8 1030 47 0 2.1 90 23:39 27.05.2020
2303 Clouds 8 1030 47 0 2.1 90 23:20 27.05.2020
2304 Clouds 8 1030 44 0 2.6 60 22:54 27.05.2020
2305 Clouds 9 1030 31 0 3.6 20 22:36 27.05.2020
2306 Clouds 9 1030 31 0 3.6 20 22:18 27.05.2020
2307 Clouds 10 1029 32 0 5.1 20 21:40 27.05.2020
2308 Clouds 8 1036 69 0 0.45 163 21:21 27.05.2020
2309 Clouds 8 1036 65 0 2.49 340 20:58 27.05.2020
2310 Clouds 9 1036 61 0 0.45 118 20:40 27.05.2020
2311 Clouds 11 1029 34 0 5.1 30 20:20 27.05.2020
2312 Clouds 12 1029 37 0 5.7 40 19:47 27.05.2020
2313 Clouds 12 1029 37 0 5.7 40 19:47 27.05.2020
2314 Clouds 20 1029 34 0 4.1 30 19:21 27.05.2020
2315 Clouds 20 1029 37 0 4.1 40 18:58 27.05.2020
2316 Clouds 20 1029 37 0 4.6 50 18:39 27.05.2020
2317 Clouds 19 1029 37 0 4.6 50 18:19 27.05.2020
2318 Clouds 12 1035 48 0 4.02 292 17:43 27.05.2020
2319 Clouds 13 1029 40 10000 3.1 0 17:25 27.05.2020
2320 Clouds 13 1029 40 10000 4.6 50 16:57 27.05.2020
2321 Clouds 13 1029 40 10000 4.6 50 16:57 27.05.2020
2322 Clouds 12 1029 43 10000 5.7 60 16:38 27.05.2020
2323 Clouds 12 1029 43 10000 5.7 60 16:38 27.05.2020
2324 Clouds 12 1029 43 10000 5.7 60 16:20 27.05.2020
2325 Clouds 12 1029 42 10000 3.6 0 15:55 27.05.2020
2326 Clouds 12 1029 42 10000 6.7 40 15:37 27.05.2020
2327 Clear 12 1029 42 10000 6.7 40 15:18 27.05.2020
2328 Clear 12 1030 45 10000 7.7 40 14:42 27.05.2020
2329 Clear 12 1030 45 10000 7.7 40 14:42 27.05.2020
2330 Clear 11 1030 45 10000 7.7 40 14:20 27.05.2020
2331 Clear 11 1030 45 0 8.2 40 13:44 27.05.2020
2332 Clear 11 1030 45 0 8.2 40 13:25 27.05.2020
2333 Clear 11 1030 45 0 5.7 30 12:56 27.05.2020
2334 Clear 11 1030 48 10000 6.7 30 12:37 27.05.2020
2335 Clouds 11 1030 48 10000 6.7 30 12:18 27.05.2020
2336 Clouds 10 1030 51 10000 5.7 50 11:39 27.05.2020
2337 Clouds 10 1030 51 10000 5.7 50 11:21 27.05.2020
2338 Clouds 10 1030 51 10000 5.7 80 10:56 27.05.2020
2339 Clouds 10 1030 51 10000 5.7 80 10:38 27.05.2020
2340 Clouds 10 1030 51 10000 5.7 80 10:19 27.05.2020
2341 Clouds 8 1036 63 0 0.62 126 09:40 27.05.2020
2342 Clear 7 1028 62 0 0.894 22 09:21 27.05.2020
2343 Clear 8 1027 45 0 0.91 148 08:55 27.05.2020
2344 Clear 7 1046 22 0 1.341 112 08:36 27.05.2020
2345 Clouds 7 1037 73 0 1.25 175 08:18 27.05.2020
2346 Clouds 6 1037 84 0 1.25 175 07:41 27.05.2020
2347 Clouds 5 1037 84 0 1.18 186 07:23 27.05.2020
2348 Clouds 4 1037 84 0 1.18 186 06:45 27.05.2020
2349 Clear 5 1030 81 0 3.1 90 06:20 27.05.2020
2350 Clear 5 1030 81 0 3.1 90 05:48 27.05.2020
2351 Clear 5 1031 71 0 4.1 100 04:24 27.05.2020
2352 Clear 5 1031 76 0 3.6 110 02:32 27.05.2020
2353 Clouds 5 1031 71 0 3.6 100 01:53 27.05.2020
2354 Clouds 5 1031 66 0 3.6 80 01:29 27.05.2020
2355 Clouds 6 1031 62 0 3.6 100 00:46 27.05.2020
2356 Clouds 6 1031 62 0 3.6 100 00:46 27.05.2020
2357 Clouds 6 1031 51 0 3.1 70 00:20 27.05.2020
2358 Clouds 7 1031 51 0 4.1 50 23:54 26.05.2020
2359 Clouds 7 1031 44 0 3.1 70 23:36 26.05.2020
2360 Clouds 7 1031 44 0 3.1 70 23:18 26.05.2020
2361 Clouds 7 1031 42 0 2.6 0 22:40 26.05.2020
2362 Clouds 8 1031 42 0 2.6 0 22:21 26.05.2020
2363 Clouds 8 1031 42 0 3.1 0 21:58 26.05.2020
2364 Clouds 8 1030 42 0 4.1 40 21:40 26.05.2020
2365 Clouds 7 1037 60 0 1.34 299 21:21 26.05.2020
2366 Clouds 5 1037 73 0 1.34 83 20:43 26.05.2020
2367 Clouds 9 1030 42 0 3.6 0 20:22 26.05.2020
2368 Clouds 9 1030 39 0 5.1 30 19:58 26.05.2020
2369 Clouds 9 1030 42 0 4.6 0 19:38 26.05.2020
2370 Clouds 10 1030 42 0 4.6 0 19:19 26.05.2020
2371 Clouds 10 1029 45 0 4.6 70 18:43 26.05.2020
2372 Clouds 10 1029 45 0 4.6 70 18:23 26.05.2020
2373 Clouds 10 1029 45 0 8.2 60 17:59 26.05.2020
2374 Clouds 11 1031 45 10000 4.1 290 17:38 26.05.2020
2375 Clouds 10 1030 42 10000 5.1 70 17:20 26.05.2020
2376 Clouds 10 1030 42 10000 5.1 70 16:42 26.05.2020
2377 Clouds 11 1030 42 10000 5.1 70 16:20 26.05.2020
2378 Clouds 11 1030 42 10000 6.2 60 15:55 26.05.2020
2379 Clouds 11 1030 42 10000 7.7 50 15:37 26.05.2020
2380 Clouds 10 1036 52 0 3.13 286 15:18 26.05.2020
2381 Clouds 10 1036 55 0 3.13 285 14:43 26.05.2020
2382 Clouds 10 1035 51 0 4.02 283 14:23 26.05.2020
2383 Clouds 10 1030 48 10000 7.7 60 13:56 26.05.2020
2384 Clouds 10 1030 48 0 7.2 60 13:37 26.05.2020
2385 Clouds 10 1030 48 0 7.2 60 13:18 26.05.2020
2386 Clouds 10 1030 51 10000 7.7 50 12:42 26.05.2020
2387 Clouds 10 1030 51 10000 7.7 50 12:20 26.05.2020
2388 Clouds 10 1030 51 10000 7.2 60 11:58 26.05.2020
2389 Clouds 10 1030 55 10000 6.7 50 11:40 26.05.2020
2390 Clouds 9 1031 59 10000 5.7 70 11:18 26.05.2020
2391 Clouds 9 1028 73 0 2.682 22 10:42 26.05.2020
2392 Clouds 9 1047 72 0 0.894 247 10:19 26.05.2020
2393 Clouds 8 1037 67 0 0.45 136 09:40 26.05.2020
2394 Clear 8 1031 62 10000 4.1 60 09:20 26.05.2020
2395 Clear 7 1028 81 0 1.341 22 08:43 26.05.2020
2396 Clouds 7 1028 73 0 2.44 4 08:22 26.05.2020
2397 Clouds 6 1037 85 0 2.44 4 07:57 26.05.2020
2398 Clouds 5 1037 86 0 2.44 4 07:37 26.05.2020
2399 Clouds 5 1037 86 0 2.01 0 07:18 26.05.2020
2400 Clouds 5 1037 87 0 2.01 0 06:44 26.05.2020
2401 Clouds 4 1037 86 0 1.8 356 05:55 26.05.2020
2402 Clouds 5 1031 81 0 3.6 80 05:35 26.05.2020
2403 Clouds 4 1031 76 0 3.6 80 04:54 26.05.2020
2404 Clouds 4 1031 81 0 4.1 80 04:33 26.05.2020
2405 Clouds 4 1031 76 0 3.6 70 03:59 26.05.2020
2406 Clouds 3 1037 85 0 1.8 12 02:45 26.05.2020
2407 Clouds 3 1037 84 0 2.5 10 01:49 26.05.2020
2408 Clouds 3 1037 83 0 2.77 4 01:27 26.05.2020
2409 Clouds 4 1037 81 0 2.77 4 00:39 26.05.2020
2410 Clouds 7 1031 54 0 2.6 0 00:19 26.05.2020
2411 Clouds 7 1031 51 0 2.6 0 23:56 25.05.2020
2412 Clouds 7 1031 51 0 2.6 0 23:37 25.05.2020
2413 Clouds 7 1031 51 0 2.6 0 23:18 25.05.2020
2414 Clouds 7 1031 51 0 1.5 0 22:55 25.05.2020
2415 Clouds 8 1031 48 0 2.1 0 22:36 25.05.2020
2416 Clouds 8 1031 48 0 2.1 0 22:36 25.05.2020
2417 Clouds 8 1031 48 0 2.1 0 22:18 25.05.2020
2418 Clouds 8 1030 48 0 2.6 0 21:55 25.05.2020
2419 Clouds 8 1030 48 0 2.6 0 21:36 25.05.2020
2420 Clouds 5 1036 80 0 0.45 21 21:18 25.05.2020
2421 Clouds 5 1036 80 0 0.45 21 21:18 25.05.2020
2422 Clouds 5 1036 79 0 1.79 76 20:42 25.05.2020
2423 Clouds 5 1036 79 0 1.34 83 20:21 25.05.2020
2424 Clouds 9 1030 39 0 2.6 0 19:59 25.05.2020
2425 Clouds 9 1030 42 0 3.6 0 19:39 25.05.2020
2426 Clouds 9 1030 42 0 3.6 0 19:18 25.05.2020
2427 Clouds 9 1030 39 0 3.1 0 18:54 25.05.2020
2428 Clouds 9 1030 42 0 4.1 0 18:36 25.05.2020
2429 Clouds 9 1030 42 0 4.1 0 18:18 25.05.2020
2430 Clouds 10 1030 45 10000 4.1 80 17:41 25.05.2020
2431 Clouds 10 1030 45 10000 4.1 80 17:23 25.05.2020
2432 Clouds 10 1030 42 10000 5.1 0 16:56 25.05.2020
2433 Clouds 10 1030 42 10000 6.7 80 16:38 25.05.2020
2434 Clouds 10 1030 42 10000 6.7 80 16:19 25.05.2020
2435 Clouds 10 1030 42 10000 6.7 80 16:19 25.05.2020
2436 Clouds 10 1030 42 10000 6.2 70 15:44 25.05.2020
2437 Clouds 10 1030 42 10000 6.2 70 15:19 25.05.2020
2438 Clouds 10 1030 42 10000 6.7 60 14:57 25.05.2020
2439 Clouds 10 1030 45 10000 7.7 60 14:38 25.05.2020
2440 Clouds 10 1030 45 10000 7.7 60 14:19 25.05.2020
2441 Clouds 10 1030 51 0 5.7 40 13:39 25.05.2020
2442 Clouds 10 1030 51 0 5.7 40 13:21 25.05.2020
2443 Clouds 9 1030 51 0 6.2 50 12:58 25.05.2020
2444 Clouds 9 1030 59 10000 6.7 40 12:38 25.05.2020
2445 Clear 9 1030 59 10000 6.7 40 12:20 25.05.2020
2446 Clear 9 1031 54 10000 6.7 40 11:39 25.05.2020
2447 Clear 8 1031 54 10000 6.7 40 11:20 25.05.2020
2448 Clear 8 1031 58 10000 7.2 60 10:56 25.05.2020
2449 Clear 8 1031 58 10000 7.2 60 10:56 25.05.2020
2450 Clear 8 1031 54 10000 3.1 110 10:37 25.05.2020
2451 Clear 8 1031 54 10000 3.1 110 10:19 25.05.2020
2452 Clear 8 1032 62 10000 3.1 100 09:54 25.05.2020
2453 Clear 8 1036 68 0 3.21 0 09:36 25.05.2020
2454 Clouds 8 1032 66 10000 2.6 110 09:18 25.05.2020
2455 Clouds 7 1032 81 10000 2.6 110 08:39 25.05.2020
2456 Clouds 6 1037 78 0 2.69 355 08:20 25.05.2020
2457 Clouds 4 1037 84 0 2.69 355 07:50 25.05.2020
2458 Clouds 4 1037 85 0 2.69 355 07:32 25.05.2020
2459 Clouds 3 1037 83 0 2.04 354 06:57 25.05.2020
2460 Clouds 3 1036 83 0 2.04 354 06:36 25.05.2020
2461 Clouds 2 1037 83 0 1.45 1 05:25 25.05.2020
2462 Clouds 2 1037 82 0 1.83 355 03:28 25.05.2020
2463 Clouds 2 1037 81 0 1.83 355 02:47 25.05.2020
2464 Clouds 2 1037 81 0 1.34 349 02:20 25.05.2020
2465 Clouds 2 1037 80 0 1.43 354 01:42 25.05.2020
2466 Clouds 4 1031 81 0 3.1 80 00:47 25.05.2020
2467 Clouds 3 1037 79 0 1.66 11 00:26 25.05.2020
2468 Clouds 3 1037 79 0 1.66 11 23:58 24.05.2020
2469 Clouds 3 1037 77 0 1.66 11 23:39 24.05.2020
2470 Clouds 3 1037 77 0 1.66 11 23:39 24.05.2020
2471 Clouds 3 1037 77 0 1.66 11 23:39 24.05.2020
2472 Clouds 3 1037 77 0 1.66 11 23:39 24.05.2020
2473 Clouds 5 1032 62 0 2.6 0 23:20 24.05.2020
2474 Clouds 6 1031 62 0 1.5 0 22:55 24.05.2020
2475 Clouds 6 1031 54 0 2.1 30 22:37 24.05.2020
2476 Clouds 6 1031 54 0 2.1 30 22:18 24.05.2020
2477 Clouds 6 1031 54 0 2.6 40 21:54 24.05.2020
2478 Clouds 7 1031 48 0 4.6 30 21:36 24.05.2020
2479 Clouds 5 1036 65 0 2.24 301 21:18 24.05.2020
2480 Clouds 4 1033 80 0 0.89 90 20:42 24.05.2020
2481 Clouds 4 1033 77 0 1.34 145 20:21 24.05.2020
2482 Clouds 8 1031 48 0 3.6 30 19:56 24.05.2020
2483 Clouds 8 1031 45 0 3.6 50 19:37 24.05.2020
2484 Clouds 8 1031 45 0 3.6 50 19:18 24.05.2020
2485 Clouds 8 1031 45 0 3.6 40 18:42 24.05.2020
2486 Clouds 7 1036 53 0 1.79 314 18:23 24.05.2020
2487 Clouds 7 1036 53 0 1.79 353 17:57 24.05.2020
2488 Clouds 6 1036 52 0 2.68 334 17:38 24.05.2020
2489 Clouds 7 1036 51 0 2.24 294 17:19 24.05.2020
2490 Clouds 7 1036 51 0 2.24 324 16:56 24.05.2020
2491 Clouds 7 1036 51 0 2.24 324 16:56 24.05.2020
2492 Clouds 7 1036 49 0 1.79 291 16:36 24.05.2020
2493 Clouds 7 1036 48 0 1.79 223 16:18 24.05.2020
2494 Clouds 7 1036 46 0 1.79 342 15:55 24.05.2020
2495 Clouds 8 1031 45 0 3.6 240 15:36 24.05.2020
2496 Clouds 8 1031 45 0 3.6 240 15:18 24.05.2020
2497 Clouds 6 1036 52 0 3.13 241 14:41 24.05.2020
2498 Clouds 6 1036 52 0 3.13 241 14:41 24.05.2020
2499 Clouds 6 1036 55 0 2.24 291 14:22 24.05.2020
2500 Clouds 6 1036 56 0 4.47 317 13:55 24.05.2020
2501 Clouds 6 1036 52 0 2.68 307 13:37 24.05.2020
2502 Clouds 6 1036 54 0 2.68 282 13:19 24.05.2020
2503 Clouds 8 1036 54 0 2.24 254 12:56 24.05.2020
2504 Clouds 7 1036 56 0 0.45 257 12:37 24.05.2020
2505 Clouds 7 1032 54 0 2.6 240 12:19 24.05.2020
2506 Clouds 6 1032 50 0 3.1 250 11:54 24.05.2020
2507 Clouds 6 1032 58 0 3.6 260 11:36 24.05.2020
2508 Clouds 6 1032 58 0 3.6 260 11:18 24.05.2020
2509 Clouds 5 1033 66 0 1.5 280 10:42 24.05.2020
2510 Clouds 5 1036 67 0 3.17 349 10:23 24.05.2020
2511 Clouds 5 1036 69 0 0.45 139 09:57 24.05.2020
2512 Clouds 5 1036 74 0 0.45 145 09:39 24.05.2020
2513 Clouds 4 1033 66 0 1 0 09:18 24.05.2020
2514 Clouds 1 1029 69 0 0.89 35 08:42 24.05.2020
2515 Clouds 1 1029 71 0 1.79 86 08:24 24.05.2020
2516 Clouds 1 1036 86 0 3.38 342 07:59 24.05.2020
2517 Clouds 1 1036 89 0 3.38 342 07:40 24.05.2020
2518 Clouds 0 1036 90 0 2.79 337 07:21 24.05.2020
2519 Clouds 0 1036 89 0 2.79 337 06:39 24.05.2020
2520 Clouds -1 1036 87 0 2.72 337 05:50 24.05.2020
2521 Clouds -1 1030 86 0 0.45 128 03:58 24.05.2020
2522 Clouds -1 1031 89 0 2.24 76 03:39 24.05.2020
2523 Clouds 2 1036 73 0 1.34 344 02:26 24.05.2020
2524 Clouds 1 1035 99 0 0.45 170 01:21 24.05.2020
2525 Clouds 4 1031 81 0 2.1 30 00:38 24.05.2020
2526 Rain 4 1034 80 0 3.13 315 00:20 24.05.2020
2527 Rain 3 1035 99 0 0.45 79 23:40 23.05.2020
2528 Rain 3 1035 99 0 1.79 86 23:20 23.05.2020
2529 Rain 3 1035 99 0 3.89 341 22:56 23.05.2020
2530 Rain 3 1034 99 0 1.34 90 22:37 23.05.2020
2531 Rain 3 1034 99 0 0.89 100 22:19 23.05.2020
2532 Rain 3 1034 99 0 1.34 78 21:57 23.05.2020
2533 Rain 3 1034 99 0 0.45 102 21:37 23.05.2020
2534 Clouds 4 1033 99 0 0.45 181 21:18 23.05.2020
2535 Clouds 6 1029 87 0 2.6 290 20:54 23.05.2020
2536 Clouds 6 1028 93 0 1.5 140 20:36 23.05.2020
2537 Clouds 6 1028 93 0 1.5 140 20:18 23.05.2020
2538 Rain 7 1029 93 0 1 0 19:41 23.05.2020
2539 Rain 7 1029 93 0 1 0 19:19 23.05.2020
2540 Rain 7 1030 93 0 1.5 0 18:56 23.05.2020
2541 Rain 7 1030 93 0 3.6 230 18:37 23.05.2020
2542 Rain 7 1033 74 0 2.24 300 18:19 23.05.2020
2543 Rain 7 1033 76 0 2.68 322 17:54 23.05.2020
2544 Rain 7 1033 74 0 1.79 357 17:36 23.05.2020
2545 Rain 7 1032 75 0 3.13 344 17:18 23.05.2020
2546 Rain 8 1032 78 0 4.02 3 16:55 23.05.2020
2547 Rain 8 1031 75 0 3.13 300 16:37 23.05.2020
2548 Rain 9 1031 81 0 3.58 288 16:18 23.05.2020
2549 Rain 9 1025 87 0 6.2 280 15:41 23.05.2020
2550 Rain 12 1029 71 0 2.68 325 15:23 23.05.2020
2551 Clouds 12 1021 49 0 1.5 270 14:43 23.05.2020
2552 Clouds 13 1021 49 0 1.5 270 14:24 23.05.2020
2553 Clouds 14 1021 43 0 2.1 290 13:57 23.05.2020
2554 Clouds 15 1021 40 0 6.2 270 13:38 23.05.2020
2555 Clouds 16 1021 40 0 6.2 270 13:18 23.05.2020
2556 Clouds 18 1020 46 0 1 0 12:41 23.05.2020
2557 Clouds 18 1020 46 0 1 0 12:20 23.05.2020
2558 Rain 18 1021 46 0 1 0 11:59 23.05.2020
2559 Rain 18 1021 46 0 1 0 11:59 23.05.2020
2560 Clouds 18 1022 46 0 0.5 0 11:40 23.05.2020
2561 Clouds 17 1022 46 0 0.5 0 11:19 23.05.2020
2562 Rain 17 1022 56 0 1 0 10:56 23.05.2020
2563 Rain 16 1023 52 0 1 0 10:37 23.05.2020
2564 Clouds 16 1035 56 0 2.235 225 10:18 23.05.2020
2565 Clouds 15 1031 55 0 1.31 213 09:43 23.05.2020
2566 Clouds 14 1018 53 0 1.05 231 09:24 23.05.2020
2567 Clouds 14 1018 55 0 0.83 268 08:58 23.05.2020
2568 Clouds 13 1031 70 0 0.83 268 08:38 23.05.2020
2569 Clouds 13 1032 74 0 0.72 252 08:19 23.05.2020
2570 Clouds 12 1032 71 0 0.72 252 07:45 23.05.2020
2571 Clouds 12 1032 69 0 0.75 272 07:27 23.05.2020
2572 Clouds 11 1032 68 0 0.75 272 06:43 23.05.2020
2573 Clouds 13 1036 60 0 4.023 180 05:59 23.05.2020
2574 Clouds 11 1025 76 0 1.53 292 03:55 23.05.2020
2575 Clouds 11 1025 81 0 0.5 0 03:26 23.05.2020
2576 Clouds 11 1025 81 0 0.5 0 03:26 23.05.2020
2577 Clouds 11 1025 81 0 1 0 02:40 23.05.2020
2578 Clouds 12 1025 67 0 1.33 310 01:50 23.05.2020
2579 Clouds 12 1025 76 0 0.5 0 01:18 23.05.2020
2580 Clouds 13 1024 72 0 1.5 90 00:42 23.05.2020
2581 Clouds 13 1024 72 0 1.5 90 00:19 23.05.2020
2582 Clouds 12 1024 72 0 1.5 80 23:44 22.05.2020
2583 Clouds 12 1024 72 0 1.5 80 23:22 22.05.2020
2584 Clouds 13 1024 72 0 1.5 90 22:59 22.05.2020
2585 Clouds 13 1024 67 0 1.5 80 22:40 22.05.2020
2586 Clouds 13 1024 67 0 1.5 80 22:21 22.05.2020
2587 Clouds 14 1024 59 0 1 0 21:48 22.05.2020
2588 Clouds 13 1032 57 0 0.45 175 21:24 22.05.2020
2589 Clouds 15 1023 53 0 1 0 20:59 22.05.2020
2590 Clouds 15 1023 53 0 1 0 20:41 22.05.2020
2591 Clouds 16 1023 53 0 1 0 20:20 22.05.2020
2592 Clouds 16 1023 53 0 1 0 20:20 22.05.2020
2593 Clouds 16 1023 53 0 0.5 0 19:45 22.05.2020
2594 Clouds 17 1023 39 0 1 0 19:26 22.05.2020
2595 Clouds 18 1023 32 0 1.5 0 18:57 22.05.2020
2596 Clouds 18 1023 34 0 3.1 230 18:38 22.05.2020
2597 Clouds 18 1023 34 0 3.1 230 18:19 22.05.2020
2598 Clouds 18 1023 36 0 3.6 240 17:40 22.05.2020
2599 Clouds 19 1023 36 0 3.6 240 17:20 22.05.2020
2600 Clouds 18 1023 34 0 3.6 250 16:57 22.05.2020
2601 Clouds 18 1023 38 0 4.1 260 16:39 22.05.2020
2602 Clouds 18 1023 38 0 4.1 260 16:39 22.05.2020
2603 Clouds 18 1023 38 0 4.1 260 16:19 22.05.2020
2604 Clouds 18 1024 36 0 4.1 260 15:54 22.05.2020
2605 Clouds 18 1024 36 0 4.1 260 15:54 22.05.2020
2606 Clouds 18 1024 41 0 4.1 280 15:36 22.05.2020
2607 Clouds 17 1024 41 0 4.1 280 15:18 22.05.2020
2608 Clouds 17 1024 38 0 4.6 270 14:39 22.05.2020
2609 Clouds 18 1024 38 0 4.6 270 14:20 22.05.2020
2610 Clouds 17 1025 40 0 2.1 250 13:42 22.05.2020
2611 Clouds 17 1025 40 0 2.1 250 13:19 22.05.2020
2612 Clouds 16 1025 46 0 2.1 280 12:43 22.05.2020
2613 Clouds 16 1025 46 0 2.1 280 12:24 22.05.2020
2614 Clouds 16 1025 52 0 1.5 280 11:47 22.05.2020
2615 Clouds 15 1025 52 0 1.71 320 11:22 22.05.2020
2616 Clouds 15 1024 59 0 1.71 320 10:59 22.05.2020
2617 Clouds 14 1032 52 0 1.71 320 10:39 22.05.2020
2618 Clouds 14 1031 53 0 1.21 318 10:20 22.05.2020
2619 Clouds 14 1032 55 0 1.21 318 09:55 22.05.2020
2620 Clouds 14 1032 58 0 1.21 318 09:36 22.05.2020
2621 Clouds 13 1039 45 0 1.788 202 09:18 22.05.2020
2622 Clouds 12 1020 41 0 1.34 317 08:42 22.05.2020
2623 Clouds 12 1020 44 0 0.9 286 08:19 22.05.2020
2624 Clouds 10 1031 77 0 0.9 286 07:52 22.05.2020
2625 Clouds 9 1032 76 0 1.01 278 07:24 22.05.2020
2626 Clouds 8 1032 74 0 1.01 278 06:54 22.05.2020
2627 Clouds 8 1031 76 0 1.01 278 06:32 22.05.2020
2628 Clouds 8 1024 87 0 1 0 05:38 22.05.2020
2629 Clouds 8 1024 87 0 0.5 0 04:50 22.05.2020
2630 Clear 8 1024 81 0 0.85 319 04:19 22.05.2020
2631 Clear 8 1023 81 0 1.5 130 03:41 22.05.2020
2632 Clouds 7 1031 76 0 1.03 325 02:59 22.05.2020
2633 Clouds 9 1023 76 0 2.1 100 01:49 22.05.2020
2634 Clouds 9 1024 71 0 1.5 90 01:24 22.05.2020
2635 Clouds 10 1024 62 0 2.1 120 00:34 22.05.2020
2636 Clouds 10 1024 63 0 3.1 90 23:59 21.05.2020
2637 Clouds 11 1023 63 0 4.1 110 23:40 21.05.2020
2638 Clouds 10 1023 63 0 4.1 110 23:22 21.05.2020
2639 Clouds 11 1023 63 0 4.1 100 22:57 21.05.2020
2640 Clouds 12 1022 45 0 3.1 110 22:37 21.05.2020
2641 Clouds 12 1022 45 0 3.1 110 22:19 21.05.2020
2642 Clouds 12 1022 45 0 4.1 50 21:48 21.05.2020
2643 Clear 11 1030 61 0 0.45 172 21:27 21.05.2020
2644 Clear 13 1021 37 0 5.1 30 20:58 21.05.2020
2645 Clear 14 1021 35 0 5.1 30 20:40 21.05.2020
2646 Clear 14 1021 35 0 5.1 30 20:21 21.05.2020
2647 Clear 14 1021 35 0 4.6 20 19:40 21.05.2020
2648 Clear 15 1021 35 0 4.6 20 19:20 21.05.2020
2649 Clear 15 1020 36 0 4.6 20 18:58 21.05.2020
2650 Clear 15 1020 38 0 3.6 0 18:37 21.05.2020
2651 Clear 16 1020 38 0 3.6 0 18:18 21.05.2020
2652 Clear 16 1020 38 0 4.6 0 17:54 21.05.2020
2653 Clear 16 1020 36 0 3.6 60 17:36 21.05.2020
2654 Clear 16 1020 36 0 3.6 60 17:18 21.05.2020
2655 Clear 16 1020 36 0 4.1 0 16:40 21.05.2020
2656 Clear 16 1020 36 0 4.1 0 16:21 21.05.2020
2657 Clear 15 1020 38 0 5.7 50 15:41 21.05.2020
2658 Clear 15 1020 38 0 5.7 50 15:22 21.05.2020
2659 Clear 15 1020 40 0 6.7 30 14:41 21.05.2020
2660 Clear 15 1020 40 0 6.7 30 14:23 21.05.2020
2661 Clear 15 1020 37 0 7.7 40 13:56 21.05.2020
2662 Clear 15 1020 37 0 6.7 40 13:37 21.05.2020
2663 Clear 14 1020 37 0 6.7 40 13:18 21.05.2020
2664 Clear 14 1021 40 0 5.7 50 12:39 21.05.2020
2665 Clear 14 1021 40 0 5.7 50 12:20 21.05.2020
2666 Clear 14 1021 43 0 4.6 60 11:57 21.05.2020
2667 Clear 14 1021 52 0 1.5 280 11:39 21.05.2020
2668 Clear 14 1021 52 0 1.5 280 11:39 21.05.2020
2669 Clear 13 1021 52 0 1.5 280 11:20 21.05.2020
2670 Clear 12 1019 60 0 0.447 337 10:43 21.05.2020
2671 Clear 12 1019 62 0 1.788 22 10:23 21.05.2020
2672 Clear 12 1028 62 0 2.6 355 09:58 21.05.2020
2673 Clear 11 1028 66 0 2.6 355 09:39 21.05.2020
2674 Clear 11 1019 60 0 2.55 348 09:21 21.05.2020
2675 Clear 9 1019 62 0 2.55 348 08:50 21.05.2020
2676 Clear 10 1037 71 0 0.894 180 08:31 21.05.2020
2677 Clear 7 1028 85 0 1.83 346 07:54 21.05.2020
2678 Clear 7 1029 85 0 1.83 346 07:36 21.05.2020
2679 Clear 7 1028 85 0 1.35 347 07:18 21.05.2020
2680 Clear 5 1028 86 0 1.1 347 06:26 21.05.2020
2681 Clear 5 1028 85 0 1.1 347 05:50 21.05.2020
2682 Clear 7 1020 76 0 3.1 100 03:47 21.05.2020
2683 Clear 5 1029 84 0 1.1 9 03:20 21.05.2020
2684 Clear 6 1028 83 0 1.1 9 02:31 21.05.2020
2685 Clouds 6 1028 82 0 0.95 357 01:50 21.05.2020
2686 Clouds 7 1020 71 0 3.6 100 01:24 21.05.2020
2687 Clouds 8 1020 71 0 4.1 70 00:54 21.05.2020
2688 Clouds 8 1020 71 0 4.1 80 00:26 21.05.2020
2689 Clouds 8 1020 67 0 4.1 80 23:56 20.05.2020
2690 Clouds 9 1020 48 0 1.5 80 23:37 20.05.2020
2691 Clouds 10 1020 48 0 1.5 80 23:18 20.05.2020
2692 Clouds 10 1020 48 0 1.5 0 22:42 20.05.2020
2693 Clouds 10 1020 48 0 1.5 0 22:23 20.05.2020
2694 Clouds 11 1019 42 0 2.1 0 21:42 20.05.2020
2695 Clouds 11 1019 42 0 2.1 0 21:23 20.05.2020
2696 Clouds 11 1019 42 0 3.1 0 20:59 20.05.2020
2697 Clouds 11 1019 40 0 3.6 30 20:41 20.05.2020
2698 Clouds 12 1019 40 0 3.6 30 20:22 20.05.2020
2699 Clouds 12 1019 37 0 3.1 0 19:42 20.05.2020
2700 Clouds 12 1019 37 0 3.1 0 19:23 20.05.2020
2701 Clouds 12 1019 37 0 3.1 0 18:58 20.05.2020
2702 Clouds 13 1018 38 0 3.6 0 18:38 20.05.2020
2703 Clouds 10 1026 62 0 1.79 332 18:20 20.05.2020
2704 Clouds 11 1026 60 0 2.24 304 17:39 20.05.2020
2705 Clouds 10 1026 61 0 2.24 278 17:21 20.05.2020
2706 Clouds 10 1026 64 0 2.68 292 16:43 20.05.2020
2707 Clouds 11 1026 63 0 2.68 313 16:24 20.05.2020
2708 Clouds 12 1019 43 10000 3.1 0 15:59 20.05.2020
2709 Clouds 11 1026 64 0 4.02 319 15:40 20.05.2020
2710 Clouds 11 1026 59 0 3.58 285 15:22 20.05.2020
2711 Clouds 11 1026 63 0 4.02 286 14:43 20.05.2020
2712 Clouds 11 1026 65 0 4.02 298 14:21 20.05.2020
2713 Clouds 10 1026 64 0 3.13 297 13:41 20.05.2020
2714 Clouds 10 1026 59 0 4.47 307 13:20 20.05.2020
2715 Clouds 12 1019 49 0 7.2 60 12:58 20.05.2020
2716 Clouds 11 1019 49 10000 3.6 0 12:39 20.05.2020
2717 Clouds 12 1019 49 10000 3.6 0 12:19 20.05.2020
2718 Clouds 12 1019 49 10000 2.6 0 11:36 20.05.2020
2719 Clouds 12 1019 49 10000 2.6 0 11:36 20.05.2020
2720 Clouds 11 1019 49 10000 2.6 0 11:18 20.05.2020
2721 Clouds 11 1019 48 10000 2.6 0 10:43 20.05.2020
2722 Clouds 10 1019 48 10000 2.6 0 10:20 20.05.2020
2723 Clouds 9 1026 73 0 3.7 6 09:45 20.05.2020
2724 Clouds 10 1019 59 10000 3.1 120 09:22 20.05.2020
2725 Clear 10 1019 63 10000 2.1 100 08:57 20.05.2020
2726 Clear 10 1019 72 10000 2.1 110 08:39 20.05.2020
2727 Clouds 9 1019 72 10000 2.1 110 08:18 20.05.2020
2728 Clouds 8 1019 76 10000 2.6 90 07:46 20.05.2020
2729 Clouds 8 1019 67 10000 3.1 70 07:21 20.05.2020
2730 Clouds 8 1019 67 10000 3.1 70 07:21 20.05.2020
2731 Clouds 8 1019 76 0 1 0 06:43 20.05.2020
2732 Clouds 9 1019 51 0 3.6 60 05:24 20.05.2020
2733 Clouds 9 1019 48 0 3.1 70 04:33 20.05.2020
2734 Clouds 9 1019 48 0 3.1 40 03:52 20.05.2020
2735 Clouds 10 1019 45 0 2.1 0 02:31 20.05.2020
2736 Clouds 10 1020 42 0 3.6 180 01:30 20.05.2020
2737 Clouds 9 1019 59 0 1 0 00:45 20.05.2020
2738 Clouds 10 1019 59 0 1 0 00:24 20.05.2020
2739 Clouds 10 1019 59 0 1.5 80 23:43 19.05.2020
2740 Clouds 10 1019 59 0 1.5 80 23:20 19.05.2020
2741 Clouds 11 1019 45 0 2.6 150 22:56 19.05.2020
2742 Clouds 11 1019 45 0 2.1 0 22:38 19.05.2020
2743 Clouds 11 1019 45 0 2.1 0 22:20 19.05.2020
2744 Clouds 11 1019 45 0 2.1 0 22:20 19.05.2020
2745 Clouds 11 1019 43 0 3.6 180 21:58 19.05.2020
2746 Clouds 11 1018 43 0 2.1 160 21:38 19.05.2020
2747 Clouds 11 1018 43 0 2.1 160 21:20 19.05.2020
2748 Clouds 12 1018 43 0 3.6 190 20:58 19.05.2020
2749 Clouds 12 1018 40 0 4.6 170 20:39 19.05.2020
2750 Clouds 12 1018 40 0 4.6 170 20:21 19.05.2020
2751 Clouds 12 1018 40 0 5.1 0 19:55 19.05.2020
2752 Clouds 12 1018 40 0 4.1 0 19:37 19.05.2020
2753 Clouds 12 1018 40 0 4.1 0 19:18 19.05.2020
2754 Clouds 12 1018 40 0 4.1 0 18:42 19.05.2020
2755 Rain 10 1025 65 0 4.02 294 18:20 19.05.2020
2756 Rain 10 1025 66 0 4.92 307 17:44 19.05.2020
2757 Rain 10 1025 65 0 4.92 299 17:21 19.05.2020
2758 Rain 10 1025 63 0 4.92 302 16:59 19.05.2020
2759 Clouds 13 1018 38 10000 2.6 0 16:39 19.05.2020
2760 Clouds 13 1018 38 10000 2.6 0 16:20 19.05.2020
2761 Clouds 13 1018 40 10000 5.7 0 15:47 19.05.2020
2762 Clouds 13 1018 40 10000 5.7 0 15:23 19.05.2020
2763 Rain 12 1019 46 10000 6.2 70 14:58 19.05.2020
2764 Rain 12 1019 46 10000 6.2 70 14:40 19.05.2020
2765 Clouds 12 1019 46 10000 6.2 70 14:21 19.05.2020
2766 Clouds 12 1019 49 10000 8.2 50 13:58 19.05.2020
2767 Clouds 12 1019 49 0 7.2 40 13:39 19.05.2020
2768 Clouds 12 1019 49 0 7.2 40 13:21 19.05.2020
2769 Clouds 11 1026 55 0 3.58 328 12:57 19.05.2020
2770 Clouds 12 1020 49 0 6.2 60 12:38 19.05.2020
2771 Clouds 11 1020 49 0 6.2 60 12:20 19.05.2020
2772 Clouds 11 1020 52 10000 4.6 70 11:55 19.05.2020
2773 Clouds 11 1021 59 10000 1 0 11:37 19.05.2020
2774 Clouds 10 1020 55 10000 5.7 80 11:18 19.05.2020
2775 Clouds 10 1020 55 10000 5.7 80 10:43 19.05.2020
2776 Clouds 10 1017 78 0 4.023 22 10:23 19.05.2020
2777 Clouds 10 1017 78 0 1.788 22 09:55 19.05.2020
2778 Clouds 10 1035 86 0 2.235 0 09:37 19.05.2020
2779 Clouds 9 1035 84 0 1.788 315 09:18 19.05.2020
2780 Clouds 9 1017 73 0 0.447 0 08:41 19.05.2020
2781 Clouds 8 1017 72 0 2.82 8 08:23 19.05.2020
2782 Clouds 7 1027 85 0 2.82 8 07:42 19.05.2020
2783 Clouds 6 1027 85 0 2.27 5 07:24 19.05.2020
2784 Clouds 5 1028 85 0 2.27 5 06:41 19.05.2020
2785 Clouds 5 1028 85 0 2.09 3 06:22 19.05.2020
2786 Clouds 5 1028 85 0 2.09 3 05:40 19.05.2020
2787 Clouds 5 1028 84 0 1.89 8 04:54 19.05.2020
2788 Clouds 5 1029 82 0 2.02 14 02:59 19.05.2020
2789 Clouds 8 1022 71 0 3.1 90 01:22 19.05.2020
2790 Clouds 8 1022 71 0 3.1 100 00:41 19.05.2020
2791 Clouds 8 1022 71 0 3.1 100 00:21 19.05.2020
2792 Clouds 9 1022 67 0 2.1 80 23:40 18.05.2020
2793 Clouds 9 1022 67 0 2.1 80 23:21 18.05.2020
2794 Clouds 10 1022 48 0 2.1 90 22:59 18.05.2020
2795 Clouds 10 1022 48 0 2.1 90 22:39 18.05.2020
2796 Clouds 10 1022 48 0 2.1 90 22:21 18.05.2020
2797 Clouds 11 1021 42 0 3.1 0 21:43 18.05.2020
2798 Clouds 11 1021 42 0 3.1 0 21:22 18.05.2020
2799 Clouds 11 1021 42 0 2.6 30 20:58 18.05.2020
2800 Clouds 11 1021 42 0 2.6 30 20:58 18.05.2020
2801 Clouds 12 1021 40 0 2.1 0 20:40 18.05.2020
2802 Clouds 12 1021 43 0 4.1 50 20:21 18.05.2020
2803 Clouds 12 1021 43 0 4.1 50 20:21 18.05.2020
2804 Clouds 12 1021 43 0 4.1 50 19:57 18.05.2020
2805 Clouds 12 1021 43 0 6.2 50 19:38 18.05.2020
2806 Rain 12 1021 43 0 6.2 50 19:18 18.05.2020
2807 Rain 13 1021 40 0 3.6 40 18:45 18.05.2020
2808 Rain 13 1021 46 0 4.1 50 18:24 18.05.2020
2809 Clouds 13 1021 43 10000 4.1 60 17:40 18.05.2020
2810 Clouds 13 1021 43 10000 4.1 60 17:18 18.05.2020
2811 Clouds 14 1022 43 10000 3.1 0 16:57 18.05.2020
2812 Clouds 13 1022 46 10000 5.7 60 16:38 18.05.2020
2813 Clouds 13 1022 46 10000 5.7 60 16:18 18.05.2020
2814 Clouds 13 1022 46 10000 3.6 0 15:57 18.05.2020
2815 Clouds 13 1022 43 10000 5.1 50 15:37 18.05.2020
2816 Clouds 13 1022 43 10000 5.1 50 15:19 18.05.2020
2817 Clouds 13 1023 49 10000 2.1 0 14:43 18.05.2020
2818 Clouds 13 1023 49 10000 2.1 0 14:25 18.05.2020
2819 Rain 12 1023 52 10000 2.1 0 13:58 18.05.2020
2820 Rain 12 1023 55 0 1.5 280 13:39 18.05.2020
2821 Clouds 12 1023 55 0 1.5 280 13:19 18.05.2020
2822 Clouds 12 1023 55 0 2.1 260 12:56 18.05.2020
2823 Clouds 11 1023 59 10000 2.1 280 12:38 18.05.2020
2824 Clouds 12 1023 59 10000 2.1 280 12:18 18.05.2020
2825 Clouds 12 1024 55 10000 1 0 11:47 18.05.2020
2826 Clouds 11 1024 59 10000 2.1 270 11:27 18.05.2020
2827 Clouds 10 1021 77 0 0.447 22 10:58 18.05.2020
2828 Clouds 10 1021 79 0 0.447 22 10:40 18.05.2020
2829 Clouds 10 1021 80 0 1.788 45 10:22 18.05.2020
2830 Clouds 10 1021 79 0 1.341 45 09:43 18.05.2020
2831 Clouds 10 1024 71 10000 1.5 250 09:24 18.05.2020
2832 Clouds 8 1039 86 0 0.78 224 08:45 18.05.2020
2833 Clear 8 1029 82 0 1.3 203 08:26 18.05.2020
2834 Clear 7 1029 89 0 1.3 203 07:54 18.05.2020
2835 Clear 6 1029 89 0 1.65 189 07:26 18.05.2020
2836 Clear 5 1029 89 0 1.65 189 06:51 18.05.2020
2837 Clear 5 1029 89 0 1.65 189 06:33 18.05.2020
2838 Clear 6 1022 87 0 1.59 183 05:49 18.05.2020
2839 Clear 5 1023 93 0 3.1 110 04:52 18.05.2020
2840 Clear 5 1023 93 0 1 0 03:31 18.05.2020
2841 Clouds 5 1023 87 0 2.1 110 02:21 18.05.2020
2842 Clouds 7 1022 76 0 3.1 90 00:55 18.05.2020
2843 Clouds 7 1022 76 0 3.1 80 00:25 18.05.2020
2844 Clouds 7 1022 76 0 3.1 80 23:57 17.05.2020
2845 Clouds 7 1022 71 0 2.6 90 23:39 17.05.2020
2846 Clouds 7 1022 71 0 2.6 90 23:20 17.05.2020
2847 Clouds 8 1021 51 0 2.1 90 22:56 17.05.2020
2848 Clouds 8 1021 48 0 2.1 70 22:37 17.05.2020
2849 Clouds 8 1021 48 0 2.1 70 22:19 17.05.2020
2850 Clouds 9 1021 48 0 1 0 21:55 17.05.2020
2851 Clouds 9 1021 42 0 1.5 0 21:36 17.05.2020
2852 Clouds 9 1021 42 0 1.5 0 21:18 17.05.2020
2853 Clouds 9 1020 42 0 3.1 50 20:41 17.05.2020
2854 Clouds 9 1020 42 0 3.1 50 20:20 17.05.2020
2855 Clouds 10 1020 42 0 4.6 30 19:56 17.05.2020
2856 Clouds 10 1020 42 0 3.1 0 19:37 17.05.2020
2857 Clouds 10 1020 42 0 3.1 0 19:19 17.05.2020
2858 Clouds 10 1020 45 0 4.6 60 18:41 17.05.2020
2859 Clouds 10 1020 45 0 4.6 60 18:23 17.05.2020
2860 Clouds 10 1020 45 0 5.1 70 17:58 17.05.2020
2861 Clouds 10 1020 45 0 5.7 60 17:39 17.05.2020
2862 Clouds 11 1020 45 0 5.7 60 17:18 17.05.2020
2863 Clouds 10 1020 45 0 6.7 60 16:40 17.05.2020
2864 Clouds 10 1020 45 0 6.7 60 16:20 17.05.2020
2865 Clouds 11 1020 49 0 6.2 60 15:57 17.05.2020
2866 Clouds 11 1020 49 0 4.6 60 15:39 17.05.2020
2867 Clouds 10 1020 49 0 4.6 60 15:20 17.05.2020
2868 Clouds 10 1021 52 0 6.7 60 14:43 17.05.2020
2869 Clouds 10 1021 52 0 6.7 60 14:24 17.05.2020
2870 Clouds 10 1021 55 0 6.2 50 13:58 17.05.2020
2871 Clouds 10 1021 55 0 5.7 0 13:40 17.05.2020
2872 Clouds 9 1021 55 0 5.7 0 13:19 17.05.2020
2873 Clouds 5 1019 93 0 0.92 28 04:41 17.05.2020
2874 Clouds 6 1020 93 0 2.1 100 02:39 17.05.2020
2875 Clouds 6 1020 93 0 2.1 100 02:19 17.05.2020
2876 Clouds 6 1020 93 0 1 0 01:44 17.05.2020
2877 Clouds 6 1019 93 0 0.5 0 00:40 17.05.2020
2878 Clouds 6 1019 93 0 0.5 0 00:19 17.05.2020
2879 Clouds 6 1019 93 0 1 0 23:40 16.05.2020
2880 Clouds 6 1019 93 0 1 0 23:20 16.05.2020
2881 Clouds 7 1019 93 0 1.5 80 22:58 16.05.2020
2882 Rain 7 1019 93 0 2.6 90 22:40 16.05.2020
2883 Rain 7 1019 93 0 2.6 90 22:20 16.05.2020
2884 Rain 7 1019 93 0 3.1 80 21:46 16.05.2020
2885 Rain 7 1019 93 0 3.1 80 21:46 16.05.2020
2886 Rain 7 1019 87 0 3.1 80 21:27 16.05.2020
2887 Clouds 7 1019 87 0 3.1 80 20:59 16.05.2020
2888 Clouds 8 1019 67 0 5.1 50 20:41 16.05.2020
2889 Clouds 8 1019 67 0 5.1 50 20:41 16.05.2020
2890 Clouds 8 1019 67 0 5.1 50 20:22 16.05.2020
2891 Clouds 8 1019 67 0 4.6 60 19:58 16.05.2020
2892 Clouds 8 1019 67 0 6.2 60 19:40 16.05.2020
2893 Rain 7 1025 91 0 1.12 276 19:22 16.05.2020
2894 Rain 7 1025 89 0 1.12 276 18:42 16.05.2020
2895 Rain 7 1025 89 0 0.79 290 18:24 16.05.2020
2896 Rain 8 1025 86 0 0.79 290 17:57 16.05.2020
2897 Rain 9 1025 85 0 0.79 290 17:38 16.05.2020
2898 Rain 8 1025 86 0 0.45 136 17:19 16.05.2020
2899 Clouds 9 1018 67 0 7.7 50 16:41 16.05.2020
2900 Clouds 9 1018 67 0 7.7 50 16:22 16.05.2020
2901 Rain 8 1025 83 0 0.66 169 15:58 16.05.2020
2902 Clouds 8 1019 67 0 7.2 60 15:39 16.05.2020
2903 Clouds 9 1019 67 0 7.2 60 15:19 16.05.2020
2904 Clouds 9 1019 62 0 7.2 50 14:46 16.05.2020
2905 Rain 10 1019 80 0 0.447 22 14:21 16.05.2020
2906 Rain 9 1019 80 0 0.28 133 13:58 16.05.2020
2907 Rain 9 1019 77 0 0.28 133 13:40 16.05.2020
2908 Clouds 8 1026 89 0 0.45 124 13:22 16.05.2020
2909 Clouds 8 1026 89 0 0.45 154 12:45 16.05.2020
2910 Clouds 9 1019 80 0 0.447 0 12:22 16.05.2020
2911 Clouds 9 1037 90 0 0.894 45 11:59 16.05.2020
2912 Clouds 9 1037 86 0 0.894 45 11:38 16.05.2020
2913 Rain 8 1019 77 0 0.79 110 11:20 16.05.2020
2914 Rain 8 1019 77 0 0.79 110 10:56 16.05.2020
2915 Rain 7 1037 92 0 1.341 90 10:37 16.05.2020
2916 Rain 8 1021 76 0 3.6 50 10:18 16.05.2020
2917 Rain 6 1026 95 0 0.89 123 09:44 16.05.2020
2918 Clouds 6 1020 81 0 4.6 50 09:26 16.05.2020
2919 Rain 5 1020 81 0 5.1 60 08:43 16.05.2020
2920 Rain 4 1026 96 0 0.7 205 08:22 16.05.2020
2921 Rain 4 1025 96 0 0.7 205 07:55 16.05.2020
2922 Rain 4 1025 96 0 0.7 205 07:37 16.05.2020
2923 Clouds 4 1025 96 0 0.87 216 07:18 16.05.2020
2924 Clouds 3 1025 96 0 0.87 216 06:43 16.05.2020
2925 Clouds 2 1025 96 0 0.84 200 06:18 16.05.2020
2926 Clouds 2 1024 96 0 0.84 200 05:39 16.05.2020
2927 Clouds 2 1024 96 0 0.8 190 04:30 16.05.2020
2928 Clouds 4 1019 81 0 4.1 50 02:59 16.05.2020
2929 Clouds 4 1019 76 0 3.6 60 02:27 16.05.2020
2930 Clouds 3 1019 81 0 3.6 80 01:56 16.05.2020
2931 Clouds 3 1020 81 0 4.1 90 01:33 16.05.2020
2932 Clouds 3 1019 76 0 5.1 50 00:54 16.05.2020
2933 Clouds 3 1019 76 0 5.1 50 00:23 16.05.2020
2934 Clouds 2 1026 95 0 0.69 20 23:56 15.05.2020
2935 Clouds 2 1025 95 0 0.69 20 23:37 15.05.2020
2936 Clouds 4 1019 81 0 3.6 120 23:18 15.05.2020
2937 Clouds 4 1019 71 0 5.1 100 22:40 15.05.2020
2938 Clouds 4 1019 71 0 5.1 100 22:19 15.05.2020
2939 Clouds 4 1019 81 0 5.7 60 21:40 15.05.2020
2940 Clouds 3 1025 93 0 1.77 10 21:22 15.05.2020
2941 Clouds 3 1024 93 0 1.6 18 20:59 15.05.2020
2942 Clouds 3 1024 93 0 1.6 18 20:59 15.05.2020
2943 Clouds 2 1024 92 0 0.45 327 20:41 15.05.2020
2944 Clouds 2 1024 92 0 1.82 9 20:23 15.05.2020
2945 Clouds 3 1024 92 0 1.82 9 19:58 15.05.2020
2946 Clouds 3 1024 91 0 1.75 8 19:40 15.05.2020
2947 Clouds 3 1024 91 0 2.28 4 19:22 15.05.2020
2948 Clouds 3 1023 90 0 2.14 1 18:46 15.05.2020
2949 Clouds 3 1023 90 0 2.47 359 18:27 15.05.2020
2950 Clouds 4 1023 89 0 0.45 334 17:41 15.05.2020
2951 Clouds 4 1022 90 0 2.87 353 17:20 15.05.2020
2952 Clouds 3 1022 90 0 2.87 353 16:58 15.05.2020
2953 Clouds 3 1022 89 0 2.87 353 16:39 15.05.2020
2954 Clouds 3 1022 89 0 2.96 347 16:20 15.05.2020
2955 Clouds 4 1021 89 0 2.96 347 15:59 15.05.2020
2956 Clouds 4 1016 76 0 3.6 40 15:39 15.05.2020
2957 Clouds 4 1021 90 0 0.45 288 15:20 15.05.2020
2958 Clouds 4 1021 90 0 0.45 288 15:20 15.05.2020
2959 Clouds 5 1021 88 0 0.45 346 14:55 15.05.2020
2960 Clouds 4 1020 88 0 2.92 346 14:36 15.05.2020
2961 Clouds 4 1020 90 0 2.85 344 14:18 15.05.2020
2962 Clouds 4 1020 90 0 2.85 344 14:18 15.05.2020
2963 Clouds 4 1020 93 0 2.85 344 13:41 15.05.2020
2964 Clouds 4 1019 95 0 2.75 341 13:20 15.05.2020
2965 Clouds 3 1019 96 0 2.75 341 12:41 15.05.2020
2966 Clouds 3 1019 96 0 2.44 341 12:21 15.05.2020
2967 Clouds 3 1018 97 0 0.89 344 11:59 15.05.2020
2968 Clouds 3 1018 97 0 0.89 277 11:40 15.05.2020
2969 Clouds 3 1018 97 0 0.45 132 11:21 15.05.2020
2970 Clouds 3 1018 97 0 2.36 342 10:59 15.05.2020
2971 Clouds 3 1017 96 0 2.36 342 10:40 15.05.2020
2972 Clouds 3 1017 96 0 2.53 349 10:22 15.05.2020
2973 Clouds 3 1017 96 0 2.53 349 09:59 15.05.2020
2974 Clouds 3 1016 96 0 2.53 349 09:37 15.05.2020
2975 Clouds 3 1016 96 0 2.53 349 09:37 15.05.2020
2976 Clouds 3 1016 96 0 2.03 357 09:18 15.05.2020
2977 Clouds 3 1016 96 0 2.03 357 08:57 15.05.2020
2978 Clouds 3 1015 96 0 2.03 357 08:37 15.05.2020
2979 Rain 3 1015 96 0 1.67 7 08:18 15.05.2020
2980 Rain 3 1015 96 0 1.67 7 08:18 15.05.2020
2981 Rain 2 1015 91 0 0.45 285 07:43 15.05.2020
2982 Rain 4 1014 97 0 0.47 31 07:24 15.05.2020
2983 Rain 3 1014 96 0 0.47 31 06:41 15.05.2020
2984 Rain 2 1014 96 0 0.43 347 05:49 15.05.2020
2985 Rain 3 1014 96 0 1.44 146 04:27 15.05.2020
2986 Rain 3 1014 96 0 1.44 146 03:45 15.05.2020
2987 Rain 3 1014 96 0 1.12 177 02:30 15.05.2020
2988 Clouds 3 1015 96 0 0.36 250 01:19 15.05.2020
2989 Clouds 3 1015 95 0 0.36 250 00:46 15.05.2020
2990 Clouds 4 1015 95 0 0.86 161 00:28 15.05.2020
2991 Clouds 3 1015 95 0 0.86 161 23:43 14.05.2020
2992 Clouds 3 1016 95 0 1.25 168 23:21 14.05.2020
2993 Clouds 3 1016 95 0 1.25 168 22:57 14.05.2020
2994 Clouds 3 1016 94 0 1.25 168 22:39 14.05.2020
2995 Clouds 3 1016 94 0 1.59 157 22:19 14.05.2020
2996 Clouds 3 1016 93 0 1.59 157 21:55 14.05.2020
2997 Clouds 3 1016 93 0 1.59 157 21:37 14.05.2020
2998 Clouds 6 1016 92 0 1.64 151 21:18 14.05.2020
2999 Clouds 6 1016 91 0 1.28 151 20:42 14.05.2020
3000 Rain 6 1016 90 0 1.08 139 20:20 14.05.2020
3001 Rain 6 1016 90 0 1.08 139 20:20 14.05.2020
3002 Rain 7 1016 89 0 1.08 139 19:59 14.05.2020
3003 Rain 7 1016 88 0 1.08 139 19:39 14.05.2020
3004 Rain 5 1015 87 0 0.45 346 19:20 14.05.2020
3005 Rain 5 1015 85 0 0.77 124 18:58 14.05.2020
3006 Rain 5 1015 85 0 0.77 124 18:58 14.05.2020
3007 Rain 5 1015 85 0 0.77 124 18:58 14.05.2020
3008 Rain 5 1023 99 0 0.447 202 18:38 14.05.2020
3009 Rain 9 1015 81 0 0.45 324 18:20 14.05.2020
3010 Rain 7 1007 75 0 3.13 49 17:58 14.05.2020
3011 Rain 6 1023 97 0 0.894 247 17:37 14.05.2020
3012 Rain 6 1023 97 0 0.447 225 17:19 14.05.2020
3013 Rain 6 1006 80 0 0.5 173 16:57 14.05.2020
3014 Rain 6 1023 96 0 0.894 22 16:37 14.05.2020
3015 Clouds 6 1023 98 0 1.341 0 16:18 14.05.2020
3016 Clouds 6 1010 81 0 8.7 50 15:55 14.05.2020
3017 Clouds 6 1010 81 0 8.2 70 15:36 14.05.2020
3018 Clouds 6 1010 81 0 8.2 70 15:36 14.05.2020
3019 Clouds 7 1010 81 0 8.2 70 15:18 14.05.2020
3020 Clouds 7 1007 76 0 1.34 44 14:40 14.05.2020
3021 Rain 7 1007 75 0 2.24 58 14:20 14.05.2020
3022 Rain 6 1006 81 0 0.447 22 13:57 14.05.2020
3023 Rain 7 1016 81 0 0.45 144 13:38 14.05.2020
3024 Clouds 7 1016 82 0 0.45 138 13:20 14.05.2020
3025 Clouds 7 1016 80 0 0.45 120 12:58 14.05.2020
3026 Clouds 7 1016 84 0 0.45 134 12:38 14.05.2020
3027 Clouds 7 1011 81 0 8.2 60 12:19 14.05.2020
3028 Clouds 5 1006 82 0 1.341 22 11:57 14.05.2020
3029 Clouds 5 1023 98 0 0.894 22 11:38 14.05.2020
3030 Clouds 5 1006 82 0 0.894 0 11:19 14.05.2020
3031 Clouds 6 1016 94 0 0.45 130 10:45 14.05.2020
3032 Clouds 5 1016 95 0 0.99 119 10:26 14.05.2020
3033 Clouds 5 1016 96 0 0.99 119 09:57 14.05.2020
3034 Clouds 5 1016 96 0 0.99 119 09:38 14.05.2020
3035 Clouds 5 1017 96 0 0.84 102 09:19 14.05.2020
3036 Clouds 5 1017 96 0 0.84 102 08:40 14.05.2020
3037 Clouds 5 1016 95 0 0.54 80 08:20 14.05.2020
3038 Clouds 4 1016 95 0 0.54 80 07:45 14.05.2020
3039 Clouds 4 1016 95 0 0.45 341 07:24 14.05.2020
3040 Clouds 4 1016 94 0 0.45 341 06:54 14.05.2020
3041 Mist 5 1010 93 0 1 0 06:28 14.05.2020
3042 Rain 5 1010 100 0 1.5 90 05:44 14.05.2020
3043 Rain 5 1005 81 0 0.84 264 05:23 14.05.2020
3044 Rain 5 1005 80 0 0.98 223 04:25 14.05.2020
3045 Clouds 5 1009 93 0 2.6 260 03:22 14.05.2020
3046 Rain 5 1004 79 0 1.28 197 02:40 14.05.2020
3047 Rain 5 1008 100 0 1.5 80 01:55 14.05.2020
3048 Rain 5 1009 87 0 1.87 202 00:58 14.05.2020
3049 Rain 5 1008 87 0 1.5 0 00:37 14.05.2020
3050 Rain 6 1008 87 0 1.5 0 00:19 14.05.2020
3051 Clouds 7 1008 81 0 1.5 290 23:39 13.05.2020
3052 Clouds 7 1008 81 0 1.5 290 23:18 13.05.2020
3053 Clouds 7 1006 76 0 0.5 0 22:42 13.05.2020
3054 Clouds 7 1006 76 0 0.5 0 22:42 13.05.2020
3055 Clouds 8 1006 76 0 0.5 0 22:23 13.05.2020
3056 Clouds 8 1005 81 0 1.5 30 21:59 13.05.2020
3057 Clouds 8 1005 81 0 1.5 30 21:59 13.05.2020
3058 Rain 8 1018 68 0 6.259 135 21:40 13.05.2020
3059 Rain 8 1001 58 0 9.388 157 21:20 13.05.2020
3060 Rain 8 1018 65 0 7.153 135 20:59 13.05.2020
3061 Rain 8 1000 54 0 14.305 157 20:39 13.05.2020
3062 Rain 9 999 54 0 12.517 157 20:21 13.05.2020
3063 Rain 9 1000 58 0 13.411 157 19:43 13.05.2020
3064 Rain 9 1000 59 0 10.729 135 19:24 13.05.2020
3065 Rain 9 1001 60 0 10.729 157 18:55 13.05.2020
3066 Rain 9 1018 68 0 8.941 157 18:36 13.05.2020
3067 Rain 9 1019 76 0 5.812 67 18:18 13.05.2020
3068 Rain 8 1019 84 0 4.023 45 17:38 13.05.2020
3069 Rain 8 1019 84 0 4.023 45 17:38 13.05.2020
3070 Rain 8 1019 90 0 2.682 45 17:19 13.05.2020
3071 Rain 10 1001 60 0 10.282 135 16:54 13.05.2020
3072 Rain 10 1019 66 0 9.388 157 16:36 13.05.2020
3073 Rain 10 1019 66 0 9.388 157 16:36 13.05.2020
3074 Rain 10 1018 65 0 10.729 157 16:18 13.05.2020
3075 Rain 10 1001 56 0 9.388 157 15:42 13.05.2020
3076 Rain 10 1001 56 0 9.388 157 15:42 13.05.2020
3077 Rain 9 1019 82 0 4.917 45 15:19 13.05.2020
3078 Rain 9 1002 58 0 7.6 180 14:57 13.05.2020
3079 Rain 9 1020 78 0 7.153 157 14:39 13.05.2020
3080 Rain 9 1003 62 0 9.388 157 14:20 13.05.2020
3081 Rain 9 1003 59 0 8.941 157 13:55 13.05.2020
3082 Rain 9 1020 86 0 3.576 45 13:37 13.05.2020
3083 Rain 9 1021 88 0 3.576 45 13:19 13.05.2020
3084 Clouds 9 1009 81 0 3.1 260 12:43 13.05.2020
3085 Clouds 8 1009 81 0 3.1 260 12:21 13.05.2020
3086 Clouds 7 1009 81 0 1 0 11:57 13.05.2020
3087 Clouds 7 1009 81 0 1 0 11:57 13.05.2020
3088 Clouds 8 1009 81 0 2.1 250 11:38 13.05.2020
3089 Clouds 8 1009 81 0 2.1 250 11:20 13.05.2020
3090 Clouds 7 1009 87 0 2.1 270 10:59 13.05.2020
3091 Clouds 6 1009 81 0 7.7 50 10:38 13.05.2020
3092 Clouds 6 1009 81 0 7.7 50 10:19 13.05.2020
3093 Rain 6 1005 78 0 3.67 152 09:56 13.05.2020
3094 Rain 6 1023 99 0 1.788 90 09:38 13.05.2020
3095 Rain 5 1006 78 0 3.28 158 09:19 13.05.2020
3096 Rain 6 1007 78 0 3.28 158 08:40 13.05.2020
3097 Rain 5 1007 78 0 3.41 163 08:21 13.05.2020
3098 Rain 5 1008 78 0 3.41 163 07:56 13.05.2020
3099 Rain 5 1017 95 0 3.41 163 07:34 13.05.2020
3100 Rain 5 1018 95 0 3.17 160 06:55 13.05.2020
3101 Rain 5 1017 94 0 3.17 160 06:35 13.05.2020
3102 Rain 5 1025 96 0 2.235 337 05:48 13.05.2020
3103 Clouds 6 1011 93 0 2.79 189 04:21 13.05.2020
3104 Clouds 7 1012 87 0 1.5 110 02:43 13.05.2020
3105 Rain 6 1017 92 0 2.81 181 01:47 13.05.2020
3106 Clouds 6 1018 94 0 3.19 177 00:59 13.05.2020
3107 Rain 6 1018 93 0 3.18 174 00:28 13.05.2020
3108 Rain 5 1018 93 0 3.18 174 23:59 12.05.2020
3109 Rain 5 1018 93 0 3.18 174 23:39 12.05.2020
3110 Clouds 5 1018 92 0 3.04 171 23:20 12.05.2020
3111 Clouds 5 1019 92 0 3.04 171 22:42 12.05.2020
3112 Clouds 5 1019 92 0 2.69 167 22:23 12.05.2020
3113 Clouds 5 1019 92 0 2.69 167 22:23 12.05.2020
3114 Clouds 5 1019 91 0 2.69 167 21:59 12.05.2020
3115 Clouds 5 1019 91 0 2.69 167 21:59 12.05.2020
3116 Clouds 5 1019 90 0 2.69 167 21:40 12.05.2020
3117 Clouds 5 1019 89 0 2.22 169 21:22 12.05.2020
3118 Clouds 5 1018 88 0 2.22 169 20:59 12.05.2020
3119 Clouds 5 1018 88 0 2.22 169 20:59 12.05.2020
3120 Clouds 6 1018 86 0 2.22 169 20:40 12.05.2020
3121 Clouds 6 1018 86 0 1.38 168 20:22 12.05.2020
3122 Clouds 6 1018 84 0 1.38 168 19:59 12.05.2020
3123 Clouds 6 1018 81 0 1.38 168 19:40 12.05.2020
3124 Clouds 7 1018 79 0 0.89 170 19:21 12.05.2020
3125 Clouds 7 1011 79 0 0.89 170 18:57 12.05.2020
3126 Clouds 7 1028 86 0 0.447 45 18:38 12.05.2020
3127 Clouds 8 1017 78 0 0.72 174 18:20 12.05.2020
3128 Clouds 7 1017 75 0 0.72 174 17:43 12.05.2020
3129 Clouds 7 1017 73 0 0.58 266 17:24 12.05.2020
3130 Clouds 7 1017 73 0 0.58 266 16:47 12.05.2020
3131 Clouds 8 1017 74 0 0.45 125 16:26 12.05.2020
3132 Clouds 8 1017 74 0 0.45 125 16:26 12.05.2020
3133 Clouds 7 1018 79 0 0.45 128 15:57 12.05.2020
3134 Clouds 7 1018 77 0 0.45 133 15:39 12.05.2020
3135 Clouds 7 1018 77 0 0.45 123 15:20 12.05.2020
3136 Clouds 7 1018 73 0 0.61 227 14:58 12.05.2020
3137 Clouds 7 1018 74 0 0.61 227 14:39 12.05.2020
3138 Clouds 7 1018 75 0 0.53 169 14:20 12.05.2020
3139 Clouds 6 1018 78 0 0.45 113 13:59 12.05.2020
3140 Clouds 6 1018 76 0 0.89 115 13:41 12.05.2020
3141 Clouds 7 1018 77 0 0.89 125 13:20 12.05.2020
3142 Clouds 7 1018 77 0 0.45 130 12:58 12.05.2020
3143 Clouds 6 1018 82 0 0.89 307 12:40 12.05.2020
3144 Clouds 6 1018 82 0 0.89 307 12:40 12.05.2020
3145 Clouds 6 1014 75 0 8.2 60 12:21 12.05.2020
3146 Clouds 5 1014 75 0 7.2 50 11:58 12.05.2020
3147 Clouds 5 1014 70 0 6.2 50 11:39 12.05.2020
3148 Clouds 5 1014 70 0 6.2 50 11:21 12.05.2020
3149 Clouds 5 1018 86 0 0.45 101 10:59 12.05.2020
3150 Clouds 4 1019 86 0 0.45 155 10:40 12.05.2020
3151 Clouds 4 1018 87 0 0.45 126 10:22 12.05.2020
3152 Clouds 4 1018 87 0 0.45 126 10:22 12.05.2020
3153 Clouds 3 1018 85 0 0.45 133 09:59 12.05.2020
3154 Clouds 3 1018 88 0 0.89 128 09:40 12.05.2020
3155 Clouds 2 1018 91 0 0.45 135 09:21 12.05.2020
3156 Clouds 1 1018 93 0 0.45 140 08:57 12.05.2020
3157 Clouds 1 1018 94 0 0.45 139 08:38 12.05.2020
3158 Clouds 0 1018 94 0 2.42 357 08:19 12.05.2020
3159 Clouds 0 1018 95 0 2.42 357 07:41 12.05.2020
3160 Clouds 0 1018 95 0 2.43 356 07:22 12.05.2020
3161 Clouds 1 1017 95 0 2.43 356 06:49 12.05.2020
3162 Clouds -1 1017 94 0 2.42 356 06:27 12.05.2020
3163 Clouds -1 1017 94 0 2.42 356 05:50 12.05.2020
3164 Clouds -1 1016 94 0 2.42 356 05:30 12.05.2020
3165 Clouds 1 1015 94 0 2.7 345 03:27 12.05.2020
3166 Clouds 2 1014 93 0 2.7 345 02:41 12.05.2020
3167 Rain 0 1014 93 0 2.76 340 02:18 12.05.2020
3168 Rain 2 1014 92 0 0.45 334 01:27 12.05.2020
3169 Rain 0 1013 95 0 1.34 76 00:27 12.05.2020
3170 Rain 0 1012 95 0 2.39 339 23:58 11.05.2020
3171 Rain 0 1012 96 0 1.34 57 23:40 11.05.2020
3172 Rain 0 1012 97 0 2.03 343 23:20 11.05.2020
3173 Rain 0 1012 96 0 1.34 48 22:58 11.05.2020
3174 Rain 0 1012 96 0 1.34 48 22:58 11.05.2020
3175 Rain 1 1012 99 0 0.89 24 22:40 11.05.2020
3176 Rain 2 1002 81 0 1.61 345 22:20 11.05.2020
3177 Rain 2 1002 81 0 0.894 0 21:58 11.05.2020
3178 Rain 2 1001 80 0 1.341 0 21:39 11.05.2020
3179 Rain 2 1001 80 0 1.341 0 21:39 11.05.2020
3180 Rain 3 1017 97 0 2.682 315 21:19 11.05.2020
3181 Rain 5 1000 79 0 1.98 351 20:57 11.05.2020
3182 Rain 5 1000 79 0 1.98 351 20:57 11.05.2020
3183 Rain 5 1016 99 0 0.894 45 20:39 11.05.2020
3184 Clouds 5 999 79 0 2.235 135 20:20 11.05.2020
3185 Rain 6 1004 93 0 1.62 352 19:55 11.05.2020
3186 Rain 6 1004 93 0 0.5 0 19:36 11.05.2020
3187 Rain 6 1003 93 0 2.1 100 19:18 11.05.2020
3188 Rain 6 1003 93 0 2.1 100 18:55 11.05.2020
3189 Rain 6 1003 93 0 0.5 0 18:36 11.05.2020
3190 Rain 6 1003 93 0 0.5 0 18:18 11.05.2020
3191 Rain 6 1003 93 0 0.5 0 18:18 11.05.2020
3192 Rain 6 1002 87 0 1.5 220 17:41 11.05.2020
3193 Rain 6 1002 87 0 1.5 220 17:22 11.05.2020
3194 Rain 6 1002 87 0 3.1 230 16:58 11.05.2020
3195 Rain 6 1002 93 0 3.1 260 16:38 11.05.2020
3196 Rain 6 1002 93 0 3.1 260 16:20 11.05.2020
3197 Rain 7 1000 82 0 2.6 280 15:57 11.05.2020
3198 Rain 7 1000 82 0 2.6 280 15:38 11.05.2020
3199 Rain 8 1000 82 0 2.6 280 15:18 11.05.2020
3200 Rain 8 1000 77 0 4.1 270 14:42 11.05.2020
3201 Rain 8 1000 77 0 4.1 270 14:42 11.05.2020
3202 Rain 9 1000 77 0 4.1 270 14:22 11.05.2020
3203 Rain 9 1000 77 0 4.1 270 14:22 11.05.2020
3204 Rain 11 999 72 0 4.1 260 13:59 11.05.2020
3205 Clouds 11 999 67 0 5.7 280 13:40 11.05.2020
3206 Clouds 11 999 67 0 5.7 280 13:18 11.05.2020
3207 Clouds 11 999 67 0 5.7 280 13:18 11.05.2020
3208 Clouds 12 999 68 0 5.1 270 12:56 11.05.2020
3209 Clouds 12 999 68 0 5.1 270 12:56 11.05.2020
3210 Clouds 11 998 72 0 3.6 270 12:38 11.05.2020
3211 Clouds 11 998 72 0 3.6 270 12:19 11.05.2020
3212 Clouds 11 998 72 0 2.6 280 11:54 11.05.2020
3213 Rain 11 998 72 0 3.6 300 11:36 11.05.2020
3214 Rain 11 998 72 0 3.6 300 11:18 11.05.2020
3215 Rain 10 993 57 0 10.729 157 10:54 11.05.2020
3216 Rain 10 1008 64 0 7.153 135 10:36 11.05.2020
3217 Rain 10 1008 65 0 8.494 135 10:18 11.05.2020
3218 Clouds 9 997 51 0 7.2 90 09:41 11.05.2020
3219 Clouds 9 997 51 0 7.2 90 09:20 11.05.2020
3220 Rain 5 1010 99 0 4.18 163 08:56 11.05.2020
3221 Rain 5 1010 99 0 0.45 139 08:37 11.05.2020
3222 Rain 5 1010 99 0 4.45 161 08:18 11.05.2020
3223 Rain 6 1010 99 0 4.45 161 07:46 11.05.2020
3224 Rain 5 1010 99 0 4.6 154 07:27 11.05.2020
3225 Rain 5 1010 95 0 0.89 108 06:51 11.05.2020
3226 Rain 6 1009 94 0 4.44 151 05:58 11.05.2020
3227 Rain 6 1009 94 0 4.41 159 05:25 11.05.2020
3228 Rain 6 1013 99 0 4.62 166 04:32 11.05.2020
3229 Rain 7 1013 99 0 0.45 291 03:29 11.05.2020
3230 Rain 7 1015 86 0 0.45 171 02:29 11.05.2020
3231 Rain 7 1016 94 0 4.37 156 01:40 11.05.2020
3232 Rain 8 1016 85 0 4.4 156 00:53 11.05.2020
3233 Rain 8 1017 89 0 4.52 159 00:20 11.05.2020
3234 Rain 8 1017 88 0 4.52 159 23:43 10.05.2020
3235 Rain 8 1018 87 0 4.15 158 23:24 10.05.2020
3236 Rain 8 1018 89 0 2.24 77 22:57 10.05.2020
3237 Rain 8 1018 86 0 4.15 158 22:38 10.05.2020
3238 Clouds 11 1004 48 0 2.6 0 22:20 10.05.2020
3239 Clouds 12 1003 40 0 5.1 90 21:44 10.05.2020
3240 Clouds 12 1003 40 0 5.1 90 21:20 10.05.2020
3241 Clouds 13 1003 42 0 8.7 80 20:55 10.05.2020
3242 Clouds 13 1002 37 0 8.7 80 20:36 10.05.2020
3243 Clouds 13 1002 37 0 8.7 80 20:36 10.05.2020
3244 Clouds 13 1002 37 0 8.7 80 20:18 10.05.2020
3245 Clouds 13 1003 40 0 7.7 90 19:40 10.05.2020
3246 Clouds 13 1003 40 0 7.7 90 19:22 10.05.2020
3247 Clouds 15 1003 35 0 6.7 90 18:57 10.05.2020
3248 Clouds 15 1003 35 0 6.7 90 18:57 10.05.2020
3249 Clouds 16 1004 35 0 6.2 80 18:37 10.05.2020
3250 Clouds 16 1004 35 0 6.2 80 18:19 10.05.2020
3251 Clouds 16 1004 40 0 6.2 80 17:59 10.05.2020
3252 Clouds 16 1004 41 0 5.7 90 17:40 10.05.2020
3253 Clouds 16 1004 41 0 5.7 90 17:21 10.05.2020
3254 Clouds 16 1005 36 0 6.7 90 16:58 10.05.2020
3255 Clouds 17 1005 41 0 6.2 100 16:40 10.05.2020
3256 Clouds 16 1005 41 0 6.2 100 16:19 10.05.2020
3257 Clouds 17 1006 41 0 5.1 100 15:44 10.05.2020
3258 Clouds 16 1006 41 0 5.1 100 15:25 10.05.2020
3259 Clouds 16 1006 41 0 6.2 100 14:59 10.05.2020
3260 Clouds 17 1006 41 0 6.7 100 14:38 10.05.2020
3261 Clouds 16 1006 41 0 6.7 100 14:20 10.05.2020
3262 Clouds 16 1006 41 0 6.7 100 14:20 10.05.2020
3263 Clouds 16 1006 41 0 6.7 100 14:20 10.05.2020
3264 Clouds 15 1007 40 0 6.2 100 13:59 10.05.2020
3265 Clouds 15 1007 49 0 4.6 120 13:38 10.05.2020
3266 Clouds 15 1007 49 0 4.6 120 13:20 10.05.2020
3267 Clouds 14 1007 64 0 2.1 0 12:57 10.05.2020
3268 Clouds 13 1008 77 0 2.1 0 12:39 10.05.2020
3269 Clouds 13 1008 77 0 2.1 0 12:21 10.05.2020
3270 Clouds 13 1008 72 0 2.6 280 11:57 10.05.2020
3271 Clouds 12 1008 82 0 1.5 270 11:39 10.05.2020
3272 Clouds 12 1008 82 0 1.5 270 11:20 10.05.2020
3273 Clouds 11 1009 82 0 1 0 10:47 10.05.2020
3274 Clouds 10 1010 93 0 1 0 10:29 10.05.2020
3275 Clouds 10 1010 93 0 1.89 175 09:58 10.05.2020
3276 Rain 9 1010 100 0 1.5 130 09:40 10.05.2020
3277 Rain 9 1010 100 0 1.5 130 09:21 10.05.2020
3278 Rain 9 1010 93 0 1.5 100 08:51 10.05.2020
3279 Rain 8 1010 100 0 0.5 0 08:24 10.05.2020
3280 Clouds 8 1010 100 0 0.5 0 07:45 10.05.2020
3281 Rain 8 1010 93 0 0.5 150 07:21 10.05.2020
3282 Rain 8 1010 100 0 2.1 100 06:58 10.05.2020
3283 Rain 6 1022 82 0 0.45 82 06:35 10.05.2020
3284 Rain 6 1022 84 0 3.04 164 05:52 10.05.2020
3285 Rain 8 1010 100 0 1 0 04:58 10.05.2020
3286 Rain 8 1010 100 0 3.05 159 04:38 10.05.2020
3287 Rain 8 1010 100 0 3.11 156 04:20 10.05.2020
3288 Rain 9 1010 100 0 1.5 280 03:39 10.05.2020
3289 Clouds 10 1010 100 0 3.22 161 02:50 10.05.2020
3290 Clouds 10 1010 100 0 3.04 164 02:22 10.05.2020
3291 Clouds 10 1010 100 0 0.5 0 01:42 10.05.2020
3292 Clouds 10 1010 100 0 0.5 0 01:21 10.05.2020
3293 Clouds 11 1011 93 0 2.1 80 00:55 10.05.2020
3294 Rain 10 1011 100 0 2.1 80 00:29 10.05.2020
3295 Rain 10 1012 93 0 2.6 220 23:59 09.05.2020
3296 Rain 10 1012 93 0 2.6 260 23:39 09.05.2020
3297 Rain 10 1012 93 0 2.6 260 23:20 09.05.2020
3298 Clouds 10 1011 93 0 1.5 0 22:44 09.05.2020
3299 Clouds 11 1011 93 0 1.5 0 22:24 09.05.2020
3300 Rain 11 1010 88 0 2.6 0 21:59 09.05.2020
3301 Rain 12 1010 72 0 1 0 21:41 09.05.2020
3302 Rain 12 1010 72 0 1 0 21:22 09.05.2020
3303 Clouds 13 1009 68 0 1 0 20:58 09.05.2020
3304 Clouds 14 1009 60 0 1 0 20:39 09.05.2020
3305 Clouds 14 1009 60 0 1 0 20:20 09.05.2020
3306 Clouds 16 1009 53 0 1 0 19:58 09.05.2020
3307 Clouds 16 1009 50 0 1.5 0 19:38 09.05.2020
3308 Clouds 17 1009 50 0 1.5 0 19:19 09.05.2020
3309 Clouds 17 1009 44 0 1.5 260 18:44 09.05.2020
3310 Clouds 16 1009 44 0 1.5 260 18:26 09.05.2020
3311 Clouds 16 1009 44 0 1.5 260 18:26 09.05.2020
3312 Clouds 16 1010 47 0 3.1 260 17:56 09.05.2020
3313 Clouds 16 1010 47 0 4.1 260 17:36 09.05.2020
3314 Clouds 17 1010 47 0 4.1 260 17:18 09.05.2020
3315 Rain 16 1010 47 0 1.5 0 16:41 09.05.2020
3316 Rain 17 1010 47 0 1.5 0 16:19 09.05.2020
3317 Clouds 17 1012 49 0 3.6 250 15:45 09.05.2020
3318 Clouds 17 1012 49 0 3.6 250 15:26 09.05.2020
3319 Rain 16 1012 53 0 4.1 260 14:59 09.05.2020
3320 Rain 16 1012 53 0 3.6 250 14:40 09.05.2020
3321 Rain 16 1012 53 0 3.6 250 14:19 09.05.2020
3322 Rain 16 1013 60 0 3.1 260 13:57 09.05.2020
3323 Rain 16 1013 60 0 3.6 260 13:38 09.05.2020
3324 Rain 16 1013 60 0 3.6 260 13:19 09.05.2020
3325 Rain 16 1014 60 0 2.6 250 12:41 09.05.2020
3326 Rain 15 1014 60 0 2.6 250 12:22 09.05.2020
3327 Rain 15 1014 64 0 3.6 260 11:55 09.05.2020
3328 Clouds 15 1014 63 0 3.6 270 11:37 09.05.2020
3329 Clouds 15 1014 63 0 3.6 270 11:18 09.05.2020
3330 Clouds 15 1014 63 0 3.6 270 11:18 09.05.2020
3331 Rain 13 1010 71 0 2.21 171 10:42 09.05.2020
3332 Clouds 13 1010 74 0 0.894 135 10:23 09.05.2020
3333 Clouds 13 1010 76 0 2.29 172 09:55 09.05.2020
3334 Clouds 13 1028 80 0 0.447 270 09:37 09.05.2020
3335 Clouds 12 1015 72 0 1.92 181 09:18 09.05.2020
3336 Clouds 11 1027 81 0 0.447 90 08:48 09.05.2020
3337 Clouds 10 1027 83 0 0.894 90 08:30 09.05.2020
3338 Clouds 8 1023 83 0 1.61 191 07:48 09.05.2020
3339 Clouds 8 1023 83 0 1.61 191 07:48 09.05.2020
3340 Clouds 8 1023 82 0 1.61 191 07:30 09.05.2020
3341 Clouds 7 1023 82 0 1.51 194 06:47 09.05.2020
3342 Clouds 8 1015 93 0 1 90 06:22 09.05.2020
3343 Clouds 8 1015 93 0 0.5 0 05:45 09.05.2020
3344 Clouds 9 1016 87 0 1.36 179 03:44 09.05.2020
3345 Clouds 9 1016 87 0 1.74 203 03:21 09.05.2020
3346 Clouds 9 1016 87 0 1 0 02:30 09.05.2020
3347 Clouds 10 1016 82 0 1 0 01:51 09.05.2020
3348 Clouds 10 1016 82 0 1 0 01:23 09.05.2020
3349 Clouds 10 1016 82 0 2.6 70 00:46 09.05.2020
3350 Clouds 10 1016 82 0 1 0 00:28 09.05.2020
3351 Clouds 10 1016 87 0 1 0 23:48 08.05.2020
3352 Clouds 10 1016 82 0 2.1 100 23:28 08.05.2020
3353 Clouds 10 1016 87 0 2.1 90 22:57 08.05.2020
3354 Clouds 11 1016 77 0 2.6 100 22:39 08.05.2020
3355 Clouds 11 1016 77 0 2.6 100 22:19 08.05.2020
3356 Clouds 12 1016 77 0 3.1 90 21:58 08.05.2020
3357 Clouds 12 1016 68 0 1 0 21:39 08.05.2020
3358 Clouds 12 1016 68 0 1 0 21:18 08.05.2020
3359 Clouds 12 1016 68 0 0.5 0 20:56 08.05.2020
3360 Clouds 13 1016 68 0 2.04 172 20:38 08.05.2020
3361 Clouds 13 1016 68 0 1.86 169 20:20 08.05.2020
3362 Clouds 14 1015 60 0 0.5 0 19:44 08.05.2020
3363 Clouds 14 1015 60 0 0.5 0 19:23 08.05.2020
3364 Clouds 15 1016 49 0 1.5 230 18:50 08.05.2020
3365 Clouds 15 1016 47 0 2.6 250 18:32 08.05.2020
3366 Clouds 17 1016 47 0 3.1 240 17:59 08.05.2020
3367 Clouds 17 1016 49 0 2.6 250 17:40 08.05.2020
3368 Clouds 17 1016 49 0 2.6 250 17:18 08.05.2020
3369 Clouds 16 1017 41 0 4.6 260 16:42 08.05.2020
3370 Clouds 16 1017 41 0 4.6 260 16:24 08.05.2020
3371 Clouds 16 1017 46 0 2.6 270 15:55 08.05.2020
3372 Clouds 15 1017 46 0 2.6 250 15:37 08.05.2020
3373 Clouds 15 1017 46 0 2.6 250 15:18 08.05.2020
3374 Clouds 15 1018 46 0 3.6 250 14:41 08.05.2020
3375 Clouds 15 1018 46 0 3.6 250 14:20 08.05.2020
3376 Clouds 15 1018 49 0 4.6 250 13:59 08.05.2020
3377 Clouds 14 1019 52 0 3.1 260 13:39 08.05.2020
3378 Clouds 14 1019 52 0 3.1 260 13:19 08.05.2020
3379 Clouds 15 1019 52 10000 3.6 270 12:45 08.05.2020
3380 Clouds 14 1019 52 10000 3.6 270 12:25 08.05.2020
3381 Clouds 14 1019 55 10000 2.1 250 11:57 08.05.2020
3382 Clouds 14 1019 59 10000 0.5 0 11:39 08.05.2020
3383 Clouds 14 1019 59 10000 0.5 0 11:20 08.05.2020
3384 Clouds 14 1016 58 0 1.86 167 10:55 08.05.2020
3385 Clouds 14 1033 70 0 1.341 180 10:37 08.05.2020
3386 Clouds 12 1020 63 10000 1.53 173 10:18 08.05.2020
3387 Clouds 10 1033 74 0 0.894 112 09:41 08.05.2020
3388 Clouds 9 1033 73 0 0.447 90 09:19 08.05.2020
3389 Clouds 9 1016 71 0 1.58 183 08:52 08.05.2020
3390 Clouds 9 1016 69 0 0.894 135 08:25 08.05.2020
3391 Clouds 8 1028 82 0 1.21 193 07:55 08.05.2020
3392 Clouds 8 1028 79 0 1.21 193 07:37 08.05.2020
3393 Clouds 8 1028 79 0 1.23 197 07:19 08.05.2020
3394 Clouds 8 1028 78 0 1.23 197 06:42 08.05.2020
3395 Clouds 8 1021 93 0 1.5 198 06:20 08.05.2020
3396 Clouds 9 1034 69 0 1.341 270 05:32 08.05.2020
3397 Clouds 8 1021 93 0 1.55 193 03:23 08.05.2020
3398 Clouds 8 1021 87 0 2.1 120 02:29 08.05.2020
3399 Clouds 8 1022 81 0 0.5 0 01:40 08.05.2020
3400 Clouds 8 1022 81 0 0.5 0 01:20 08.05.2020
3401 Clouds 9 1022 81 0 0.5 0 00:47 08.05.2020
3402 Clouds 8 1022 81 0 2.6 110 00:27 08.05.2020
3403 Clouds 9 1022 81 0 2.1 100 23:56 07.05.2020
3404 Clouds 8 1022 81 0 3.1 80 23:37 07.05.2020
3405 Clouds 8 1022 81 0 3.1 80 23:19 07.05.2020
3406 Clouds 8 1022 87 0 2.6 100 22:41 07.05.2020
3407 Clouds 8 1022 87 0 2.6 100 22:20 07.05.2020
3408 Clouds 9 1021 76 0 1 0 21:57 07.05.2020
3409 Clouds 9 1021 76 0 1 0 21:57 07.05.2020
3410 Clouds 10 1021 63 0 0.77 190 21:38 07.05.2020
3411 Clouds 10 1021 63 0 0.77 190 21:38 07.05.2020
3412 Clear 10 1021 63 0 1.08 189 21:20 07.05.2020
3413 Clear 11 1021 55 0 3.6 60 20:57 07.05.2020
3414 Clear 12 1020 48 0 6.2 40 20:38 07.05.2020
3415 Clouds 13 1020 48 0 6.2 40 20:19 07.05.2020
3416 Clouds 14 1020 45 0 3.1 60 19:47 07.05.2020
3417 Clear 14 1020 43 0 0.5 0 19:23 07.05.2020
3418 Clear 14 1021 46 0 2.1 240 18:56 07.05.2020
3419 Clear 14 1021 46 0 3.6 260 18:38 07.05.2020
3420 Clear 14 1021 46 0 3.6 260 18:20 07.05.2020
3421 Clear 15 1021 46 10000 3.1 50 17:41 07.05.2020
3422 Clear 15 1021 46 10000 3.1 50 17:41 07.05.2020
3423 Clear 15 1021 46 10000 3.1 50 17:20 07.05.2020
3424 Clear 15 1021 46 10000 2.1 260 16:43 07.05.2020
3425 Clear 14 1021 46 10000 2.1 260 16:19 07.05.2020
3426 Clear 14 1022 45 10000 1.5 250 15:57 07.05.2020
3427 Clear 13 1022 52 10000 2.6 80 15:38 07.05.2020
3428 Clear 13 1022 52 10000 2.6 80 15:18 07.05.2020
3429 Clear 14 1022 52 10000 1.5 0 14:56 07.05.2020
3430 Clear 14 1023 59 10000 2.1 70 14:37 07.05.2020
3431 Clear 13 1022 55 0 5.7 260 14:18 07.05.2020
3432 Clear 13 1022 55 0 5.7 260 14:18 07.05.2020
3433 Clear 13 1022 55 0 5.7 260 13:41 07.05.2020
3434 Clear 13 1022 55 0 5.7 260 13:22 07.05.2020
3435 Clear 12 1029 43 0 0.45 122 12:42 07.05.2020
3436 Clear 12 1022 59 10000 4.1 0 12:20 07.05.2020
3437 Clear 13 1022 63 10000 1 0 11:40 07.05.2020
3438 Clear 13 1022 63 10000 1 0 11:22 07.05.2020
3439 Clear 11 1022 62 10000 1.5 250 10:58 07.05.2020
3440 Clear 11 1029 57 0 0.53 155 10:40 07.05.2020
3441 Clear 10 1029 66 0 0.19 134 10:20 07.05.2020
3442 Clear 8 1029 74 0 0.19 134 09:40 07.05.2020
3443 Clear 8 1029 74 0 0.19 134 09:40 07.05.2020
3444 Clear 7 1021 35 0 0.33 359 09:20 07.05.2020
3445 Clear 6 1029 80 0 0.24 328 08:56 07.05.2020
3446 Clear 5 1029 82 0 0.24 328 08:37 07.05.2020
3447 Clear 4 1029 90 0 0.28 330 08:18 07.05.2020
3448 Clear 3 1030 92 0 0.28 330 07:41 07.05.2020
3449 Clear 2 1029 91 0 0.42 334 07:21 07.05.2020
3450 Clear 2 1029 90 0 0.42 334 06:39 07.05.2020
3451 Clear 1 1029 90 0 0.48 325 06:21 07.05.2020
3452 Clear 3 1021 60 0 3.129 135 05:25 07.05.2020
3453 Clear 3 1023 100 0 4.1 110 03:50 07.05.2020
3454 Clear 3 1023 93 0 3.6 100 03:21 07.05.2020
3455 Clear 3 1023 93 0 4.1 100 02:41 07.05.2020
3456 Clouds 4 1023 87 0 4.6 110 01:41 07.05.2020
3457 Clouds 4 1023 87 0 4.6 110 01:23 07.05.2020
3458 Clouds 4 1023 87 0 3.1 80 00:44 07.05.2020
3459 Clouds 4 1023 87 0 3.1 80 00:25 07.05.2020
3460 Clouds 4 1022 93 0 3.6 110 23:46 06.05.2020
3461 Clouds 5 1022 81 0 2.6 80 23:24 06.05.2020
3462 Clouds 5 1022 81 0 3.1 80 22:57 06.05.2020
3463 Clouds 5 1022 71 0 3.1 80 22:39 06.05.2020
3464 Clouds 5 1022 71 0 3.1 80 22:19 06.05.2020
3465 Clouds 5 1022 71 0 5.7 60 21:56 06.05.2020
3466 Clouds 5 1022 71 0 6.7 60 21:38 06.05.2020
3467 Clouds 4 1027 85 0 2.16 347 21:18 06.05.2020
3468 Clouds 6 1019 81 0 2.16 347 20:42 06.05.2020
3469 Clouds 6 1019 82 0 2.46 342 20:23 06.05.2020
3470 Clouds 6 1019 82 0 2.46 342 20:23 06.05.2020
3471 Clouds 6 1018 81 0 2.46 342 19:57 06.05.2020
3472 Clouds 6 1036 99 0 1.341 315 19:38 06.05.2020
3473 Clouds 6 1018 81 0 2.8 340 19:19 06.05.2020
3474 Clouds 6 1018 81 0 2.8 340 18:58 06.05.2020
3475 Clouds 6 1036 99 0 3.129 0 18:39 06.05.2020
3476 Clouds 6 1026 73 0 1.34 323 18:21 06.05.2020
3477 Clouds 6 1025 74 0 1.34 70 17:58 06.05.2020
3478 Clouds 6 1025 76 0 0.89 10 17:39 06.05.2020
3479 Clouds 6 1025 79 0 2.77 342 17:21 06.05.2020
3480 Clouds 6 1025 80 0 0.45 122 16:58 06.05.2020
3481 Clouds 6 1025 83 0 0.45 162 16:40 06.05.2020
3482 Clouds 6 1025 82 0 0.45 345 16:21 06.05.2020
3483 Clouds 6 1025 78 0 0.89 88 15:58 06.05.2020
3484 Clouds 6 1025 80 0 0.45 115 15:40 06.05.2020
3485 Clouds 6 1024 85 0 2.6 346 15:20 06.05.2020
3486 Clouds 7 1024 86 0 0.45 128 14:42 06.05.2020
3487 Clouds 7 1024 86 0 0.45 128 14:42 06.05.2020
3488 Clouds 7 1024 85 0 2.55 346 14:19 06.05.2020
3489 Clouds 6 1024 88 0 0.89 221 13:59 06.05.2020
3490 Clouds 6 1024 88 0 0.89 90 13:40 06.05.2020
3491 Clouds 6 1024 90 0 0.45 165 13:22 06.05.2020
3492 Clouds 5 1024 90 0 2.38 344 12:54 06.05.2020
3493 Clouds 5 1025 92 0 2.38 344 12:36 06.05.2020
3494 Clouds 5 1025 92 0 0.45 3 12:18 06.05.2020
3495 Clouds 5 1024 89 0 0.89 161 11:40 06.05.2020
3496 Clouds 6 1024 79 0 0.45 358 11:21 06.05.2020
3497 Clouds 6 1023 85 0 0.45 330 10:56 06.05.2020
3498 Clouds 6 1023 88 0 2.27 341 10:37 06.05.2020
3499 Clouds 5 1023 92 0 2.05 337 10:18 06.05.2020
3500 Clouds 5 1024 93 0 2.05 337 09:41 06.05.2020
3501 Clouds 4 1015 83 0 3.129 315 09:22 06.05.2020
3502 Clouds 5 1024 95 0 2.58 346 08:45 06.05.2020
3503 Rain 5 1023 95 0 2.83 346 08:22 06.05.2020
3504 Rain 4 1023 95 0 2.83 346 07:59 06.05.2020
3505 Rain 4 1023 95 0 2.83 346 07:39 06.05.2020
3506 Rain 4 1023 95 0 2.85 342 07:20 06.05.2020
3507 Rain 4 1023 95 0 2.85 342 06:51 06.05.2020
3508 Clouds 4 1023 95 0 2.62 336 06:21 06.05.2020
3509 Rain 6 1018 93 0 2.62 336 05:52 06.05.2020
3510 Drizzle 6 1018 93 0 2.62 336 05:34 06.05.2020
3511 Clouds 6 1031 95 0 4.917 270 04:31 06.05.2020
3512 Clouds 6 1031 93 0 3.576 247 03:36 06.05.2020
3513 Rain 5 1023 96 0 2.27 329 02:58 06.05.2020
3514 Clouds 5 1023 95 0 2.25 320 02:29 06.05.2020
3515 Rain 5 1023 95 0 2.31 320 01:53 06.05.2020
3516 Rain 5 1023 95 0 2.48 321 01:28 06.05.2020
3517 Rain 6 1023 95 0 2.48 321 00:46 06.05.2020
3518 Rain 5 1022 99 0 0.89 96 00:23 06.05.2020
3519 Rain 5 1021 99 0 2.52 317 23:55 05.05.2020
3520 Rain 7 1032 89 0 8.494 247 23:37 05.05.2020
3521 Clouds 7 1018 100 0 1 0 23:18 05.05.2020
3522 Rain 8 1018 93 0 2.1 110 22:41 05.05.2020
3523 Rain 7 1031 92 0 9.388 247 22:19 05.05.2020
3524 Rain 7 1014 81 0 6.706 247 21:56 05.05.2020
3525 Rain 7 1031 94 0 8.047 225 21:38 05.05.2020
3526 Rain 5 1023 94 0 2.76 323 21:19 05.05.2020
3527 Rain 6 1022 94 0 2.76 323 20:56 05.05.2020
3528 Rain 7 1022 93 0 2.76 323 20:38 05.05.2020
3529 Clouds 7 1021 93 0 2.67 329 20:18 05.05.2020
3530 Clouds 10 1015 87 0 2.1 70 19:42 05.05.2020
3531 Clouds 10 1015 87 0 2.1 70 19:24 05.05.2020
3532 Clouds 10 1015 87 0 1 0 18:58 05.05.2020
3533 Rain 10 1016 93 0 1.5 250 18:40 05.05.2020
3534 Clouds 8 1022 91 0 1.71 313 18:20 05.05.2020
3535 Clouds 8 1022 92 0 1.71 313 17:58 05.05.2020
3536 Clouds 8 1022 90 0 1.71 313 17:39 05.05.2020
3537 Rain 7 1022 90 0 0.58 354 17:21 05.05.2020
3538 Rain 8 1022 90 0 0.58 354 16:55 05.05.2020
3539 Rain 8 1022 90 0 0.58 354 16:36 05.05.2020
3540 Rain 7 1022 90 0 2.49 327 16:18 05.05.2020
3541 Rain 7 1022 89 0 2.49 327 15:41 05.05.2020
3542 Clouds 10 1016 76 10000 5.1 40 15:22 05.05.2020
3543 Clouds 10 1016 76 10000 5.1 40 15:22 05.05.2020
3544 Clouds 9 1016 87 10000 2.1 0 14:57 05.05.2020
3545 Clouds 9 1016 87 10000 0.99 337 14:38 05.05.2020
3546 Clouds 9 1016 87 10000 1.49 323 14:20 05.05.2020
3547 Clouds 10 1016 93 10000 3.1 80 13:57 05.05.2020
3548 Rain 8 1016 93 0 3.1 60 13:38 05.05.2020
3549 Rain 8 1016 93 0 3.1 60 13:20 05.05.2020
3550 Rain 7 1022 92 0 1.07 267 12:58 05.05.2020
3551 Rain 7 1022 93 0 1.07 267 12:38 05.05.2020
3552 Rain 7 1022 93 0 1.07 267 12:38 05.05.2020
3553 Rain 10 1016 93 4500 1.5 0 12:19 05.05.2020
3554 Rain 10 1015 93 10000 3.6 90 11:42 05.05.2020
3555 Rain 10 1015 93 10000 3.6 90 11:20 05.05.2020
3556 Rain 10 1015 93 10000 3.6 90 11:20 05.05.2020
3557 Rain 8 1022 99 0 0.27 216 10:59 05.05.2020
3558 Rain 8 1022 99 0 1.79 124 10:38 05.05.2020
3559 Rain 8 1022 96 0 1.5 290 10:19 05.05.2020
3560 Clouds 7 1015 93 10000 2.1 90 09:57 05.05.2020
3561 Rain 7 1015 93 10000 2.1 90 09:39 05.05.2020
3562 Rain 7 1015 93 10000 2.1 90 09:20 05.05.2020
3563 Rain 7 1017 93 0 2.1 90 08:41 05.05.2020
3564 Rain 6 1022 93 0 1.3 301 08:20 05.05.2020
3565 Rain 6 1022 93 0 1.3 301 07:57 05.05.2020
3566 Rain 6 1022 92 0 1.3 301 07:38 05.05.2020
3567 Clouds 6 1022 92 0 0.42 330 07:18 05.05.2020
3568 Clouds 6 1021 89 0 0.42 330 06:42 05.05.2020
3569 Rain 10 1015 93 0 4.6 260 06:20 05.05.2020
3570 Clouds 10 1014 87 0 1.22 321 05:34 05.05.2020
3571 Clouds 10 1015 87 0 2.1 90 03:24 05.05.2020
3572 Clouds 11 1016 87 0 3.1 100 01:27 05.05.2020
3573 Clouds 11 1016 87 0 4.1 110 00:50 05.05.2020
3574 Clouds 11 1016 87 0 2.6 100 00:20 05.05.2020
3575 Clouds 13 1016 63 0 5.7 60 23:43 04.05.2020
3576 Clouds 13 1016 63 0 5.7 60 23:21 04.05.2020
3577 Clouds 13 1015 63 0 5.1 60 22:56 04.05.2020
3578 Clouds 14 1015 59 0 6.2 30 22:38 04.05.2020
3579 Clouds 14 1015 59 0 6.2 30 22:19 04.05.2020
3580 Clouds 14 1014 59 0 6.7 40 21:53 04.05.2020
3581 Clouds 14 1014 59 0 6.7 40 21:53 04.05.2020
3582 Clouds 14 1014 59 0 6.7 40 21:53 04.05.2020
3583 Clouds 14 1014 59 0 6.7 40 21:53 04.05.2020
3584 Clouds 14 1014 59 0 6.7 40 21:53 04.05.2020
3585 Clouds 15 1014 55 0 6.7 30 21:30 04.05.2020
3586 Clouds 15 1014 55 0 6.7 30 21:30 04.05.2020
3587 Clouds 15 1014 55 0 6.7 30 21:30 04.05.2020
3588 Clouds 15 1014 55 0 6.7 30 21:30 04.05.2020
3589 Clouds 15 1014 55 0 6.7 30 21:30 04.05.2020
3590 Clouds 16 1014 52 0 4.6 20 20:44 04.05.2020
3591 Clouds 16 1014 52 0 4.6 20 20:23 04.05.2020
3592 Clouds 16 1014 49 0 4.6 30 19:59 04.05.2020
3593 Clouds 16 1014 56 10000 3.6 60 19:40 04.05.2020
3594 Clouds 16 1014 56 10000 3.6 60 19:20 04.05.2020
3595 Clouds 17 1014 49 0 4.6 60 18:55 04.05.2020
3596 Clouds 17 1014 46 0 2.6 250 18:37 04.05.2020
3597 Clouds 17 1014 46 0 2.6 250 18:18 04.05.2020
3598 Clouds 17 1015 49 0 3.1 270 17:55 04.05.2020
3599 Clouds 17 1015 49 0 3.1 270 17:55 04.05.2020
3600 Clouds 17 1015 49 10000 3.1 270 17:36 04.05.2020
3601 Clouds 17 1015 49 10000 3.1 270 17:18 04.05.2020
3602 Clouds 17 1016 52 10000 3.1 250 16:42 04.05.2020
3603 Clouds 17 1016 52 10000 3.1 250 16:21 04.05.2020
3604 Clouds 17 1016 52 10000 3.1 240 15:46 04.05.2020
3605 Clouds 17 1016 49 10000 3.1 230 15:25 04.05.2020
3606 Clouds 17 1016 52 10000 3.6 250 14:56 04.05.2020
3607 Clouds 17 1017 52 10000 3.6 220 14:38 04.05.2020
3608 Clouds 17 1017 52 10000 3.6 220 14:38 04.05.2020
3609 Clouds 17 1017 52 10000 3.6 220 14:38 04.05.2020
3610 Clouds 17 1017 52 10000 3.6 220 14:38 04.05.2020
3611 Clouds 17 1017 52 10000 3.6 220 14:38 04.05.2020
3612 Clouds 16 1017 52 0 5.1 260 13:41 04.05.2020
3613 Clouds 15 1017 55 0 3.6 260 12:45 04.05.2020
3614 Clouds 13 1017 52 0 2.1 270 12:45 04.05.2020
3615 Clouds 15 1018 52 10000 1 0 12:00 04.05.2020
3616 Clouds 14 1018 52 10000 1 0 11:59 04.05.2020
3617 Clouds 15 1018 52 10000 1 0 11:57 04.05.2020
3618 Clouds 15 1018 52 10000 1 0 11:57 04.05.2020
3619 Clouds 11 1018 87 10000 0.5 0 09:32 04.05.2020
3620 Clouds 8 1019 87 10000 1 0 08:34 04.05.2020
3621 Clouds 8 1019 87 10000 1 0 08:34 04.05.2020
3622 Clouds 8 1019 87 10000 1 0 08:34 04.05.2020
3623 Clouds 8 1019 87 10000 1 0 08:34 04.05.2020
3624 Clouds 8 1019 87 10000 1 0 08:34 04.05.2020
3625 Clear 4 1025 89 0 0.98 251 07:43 04.05.2020
3626 Clear 3 1025 91 0 0.98 250 06:37 04.05.2020
3627 Clear 3 1025 91 0 0.98 250 06:37 04.05.2020
3628 Clear 3 1025 91 0 0.98 250 06:37 04.05.2020
3629 Clear 3 1025 91 0 0.98 250 06:37 04.05.2020
3630 Clouds 7 1019 100 0 1.5 90 04:55 04.05.2020
3631 Clouds 8 1019 100 0 1 130 03:18 04.05.2020
3632 Clouds 8 1019 100 0 1 130 03:18 04.05.2020
3633 Clouds 8 1020 100 0 1.5 100 02:30 04.05.2020
3634 Clouds 8 1019 93 0 1.41 296 00:36 04.05.2020
3635 Clouds 9 1020 87 0 1.2 300 23:45 03.05.2020
3636 Clouds 9 1019 93 0 1.5 110 23:24 03.05.2020
3637 Clouds 9 1019 93 0 1.5 90 22:56 03.05.2020
3638 Clouds 9 1019 87 0 1.5 70 22:38 03.05.2020
3639 Clouds 9 1019 87 0 1.5 70 22:19 03.05.2020
3640 Rain 10 1019 87 0 1.5 70 21:41 03.05.2020
3641 Rain 10 1019 87 0 1.5 70 21:20 03.05.2020
3642 Rain 10 1019 82 0 1.5 70 20:47 03.05.2020
3643 Rain 10 1018 82 0 2.6 60 20:23 03.05.2020
3644 Rain 10 1019 87 0 2.1 80 19:55 03.05.2020
3645 Rain 10 1019 87 0 2.1 80 19:55 03.05.2020
3646 Clouds 11 1019 76 0 2.1 80 19:36 03.05.2020
3647 Clouds 11 1019 76 0 2.1 80 19:18 03.05.2020
3648 Rain 11 1018 62 0 1.5 250 18:39 03.05.2020
3649 Rain 11 1018 62 0 1.5 250 18:20 03.05.2020
3650 Clouds 12 1018 67 0 2.6 290 17:42 03.05.2020
3651 Clouds 12 1018 67 0 2.6 290 17:22 03.05.2020
3652 Clouds 12 1019 62 0 4.1 300 16:58 03.05.2020
3653 Clouds 12 1018 62 0 3.1 290 16:39 03.05.2020
3654 Clouds 12 1018 62 0 3.1 290 16:18 03.05.2020
3655 Clouds 12 1018 58 0 4.6 270 15:55 03.05.2020
3656 Clouds 13 1018 55 0 4.6 270 15:37 03.05.2020
3657 Clouds 13 1018 55 0 4.6 270 15:37 03.05.2020
3658 Clouds 13 1018 55 0 4.6 270 15:37 03.05.2020
3659 Clouds 13 1018 55 0 4.6 270 15:19 03.05.2020
3660 Clouds 13 1018 58 0 4.1 260 14:43 03.05.2020
3661 Clouds 13 1018 58 0 4.1 260 14:22 03.05.2020
3662 Clouds 13 1018 58 0 4.1 260 14:22 03.05.2020
3663 Clouds 12 1018 54 0 3.6 240 14:02 03.05.2020
3664 Clouds 12 1018 58 0 4.1 250 13:36 03.05.2020
3665 Clouds 12 1018 58 0 4.1 250 13:36 03.05.2020
3666 Clouds 12 1018 58 0 4.1 250 13:36 03.05.2020
3667 Clouds 10 1018 62 0 2.6 260 12:48 03.05.2020
3668 Clouds 10 1018 62 0 2.6 260 12:26 03.05.2020
3669 Clouds 9 1019 62 0 1 0 11:57 03.05.2020
3670 Clouds 9 1019 66 0 1 0 11:39 03.05.2020
3671 Clouds 9 1019 66 0 1 0 11:20 03.05.2020
3672 Clouds 9 1019 71 0 1.5 270 10:52 03.05.2020
3673 Clouds 8 1019 71 0 2.73 325 10:24 03.05.2020
3674 Clouds 6 1019 87 0 2.6 80 09:40 03.05.2020
3675 Clouds 6 1019 87 0 2.6 80 09:40 03.05.2020
3676 Clouds 4 1019 93 0 2.1 110 08:58 03.05.2020
3677 Clouds 4 1019 93 0 1 0 08:35 03.05.2020
3678 Clouds 4 1019 93 0 1 0 08:35 03.05.2020
3679 Clouds 1 1023 95 0 3.04 329 07:43 03.05.2020
3680 Clouds 1 1023 95 0 3.04 329 07:43 03.05.2020
3681 Clouds 1 1023 95 0 3.04 329 07:43 03.05.2020
3682 Clouds 1 1023 95 0 3.04 329 07:43 03.05.2020
3683 Clouds 1 1023 95 0 3.04 329 07:42 03.05.2020
3684 Clouds 0 1022 95 0 2.98 328 06:44 03.05.2020
3685 Clouds 0 1022 95 0 2.98 328 06:44 03.05.2020
3686 Clouds 1 1021 95 0 2.51 330 05:54 03.05.2020
3687 Clouds 1 1021 94 0 2.51 330 05:35 03.05.2020
3688 Clouds 1 1021 94 0 2.37 329 04:28 03.05.2020
3689 Clouds 2 1021 94 0 2.37 329 03:38 03.05.2020
3690 Clouds 0 1021 94 0 2.67 326 02:31 03.05.2020
3691 Rain 0 1021 94 0 3.02 329 01:59 03.05.2020
3692 Rain 0 1021 94 0 3.02 329 01:39 03.05.2020
3693 Rain 0 1021 94 0 3.06 336 01:20 03.05.2020
3694 Rain 0 1021 93 0 3.06 336 00:38 03.05.2020
3695 Rain 0 1021 93 0 3.04 339 00:20 03.05.2020
3696 Rain 1 1021 93 0 3.04 339 23:46 02.05.2020
3697 Rain 1 1021 93 0 2.85 336 23:27 02.05.2020
3698 Rain 1 1020 93 0 2.85 336 22:56 02.05.2020
3699 Rain 1 1020 93 0 2.85 336 22:38 02.05.2020
3700 Rain 1 1020 93 0 2.9 339 22:19 02.05.2020
3701 Rain 3 1014 81 0 7.2 30 21:41 02.05.2020
3702 Rain 2 1019 92 0 3.11 326 21:20 02.05.2020
3703 Rain 2 1019 92 0 3.11 326 20:58 02.05.2020
3704 Rain 2 1019 92 0 3.11 326 20:58 02.05.2020
3705 Rain 2 1019 91 0 0.45 238 20:38 02.05.2020
3706 Rain 2 1018 91 0 3.2 335 20:20 02.05.2020
3707 Rain 3 1018 92 0 3.2 335 19:58 02.05.2020
3708 Rain 3 1017 92 0 3.2 335 19:39 02.05.2020
3709 Rain 3 1017 92 0 3.2 335 19:39 02.05.2020
3710 Clouds 8 1012 87 0 0.5 0 19:20 02.05.2020
3711 Rain 9 1012 81 0 2.1 230 18:56 02.05.2020
3712 Clouds 9 1012 76 0 3.6 220 18:38 02.05.2020
3713 Rain 4 1017 89 0 2.48 320 18:19 02.05.2020
3714 Rain 4 1017 87 0 2.48 320 17:55 02.05.2020
3715 Rain 4 1017 86 0 2.48 320 17:37 02.05.2020
3716 Rain 4 1017 86 0 0.45 162 17:19 02.05.2020
3717 Rain 4 1018 80 0 2.11 326 16:44 02.05.2020
3718 Snow 6 1013 99 0 2.1 288 16:25 02.05.2020
3719 Snow 6 1013 98 0 3.13 95 15:55 02.05.2020
3720 Snow 6 1013 99 0 0.45 140 15:36 02.05.2020
3721 Rain 6 1012 71 0 3.1 270 15:18 02.05.2020
3722 Clouds 6 1012 58 0 0.5 0 14:41 02.05.2020
3723 Clouds 6 1012 58 0 0.5 0 14:22 02.05.2020
3724 Clouds 6 1013 58 0 2.1 80 13:57 02.05.2020
3725 Snow 5 1013 99 0 3.13 79 13:37 02.05.2020
3726 Snow 5 1013 99 0 3.13 81 13:18 02.05.2020
3727 Snow 6 1014 99 0 1.22 292 12:40 02.05.2020
3728 Rain 9 1013 76 0 2.1 100 12:20 02.05.2020
3729 Snow 5 1013 99 0 1.78 295 11:56 02.05.2020
3730 Snow 5 1013 99 0 1.78 295 11:38 02.05.2020
3731 Snow 4 1013 99 0 1.97 307 11:19 02.05.2020
3732 Snow 4 1013 99 0 1.97 307 10:40 02.05.2020
3733 Rain 3 1013 87 0 0.5 0 10:22 02.05.2020
3734 Clouds 3 1013 87 0 2.04 305 09:58 02.05.2020
3735 Clouds 3 1017 90 0 0.45 134 09:39 02.05.2020
3736 Rain 3 1013 87 0 0.5 0 09:21 02.05.2020
3737 Clouds 3 1013 93 0 2.16 319 08:55 02.05.2020
3738 Clouds 3 1013 93 0 2.1 50 08:33 02.05.2020
3739 Snow 1 1017 94 0 2.83 323 07:50 02.05.2020
3740 Snow 1 1017 94 0 2.83 323 07:30 02.05.2020
3741 Snow 1 1017 94 0 2.99 323 06:56 02.05.2020
3742 Rain 2 1012 100 0 1 0 06:28 02.05.2020
3743 Rain 2 1012 93 0 1.5 0 05:27 02.05.2020
3744 Rain 2 1012 87 0 2.6 220 04:27 02.05.2020
3745 Rain 2 1011 81 0 2.1 300 03:38 02.05.2020
3746 Rain 3 1009 100 0 2.1 210 02:41 02.05.2020
3747 Rain 4 1010 100 0 1 0 01:56 02.05.2020
3748 Rain 3 1009 100 0 2.1 80 01:20 02.05.2020
3749 Rain 4 1009 100 0 1 0 00:42 02.05.2020
3750 Rain 4 1009 100 0 1 0 00:20 02.05.2020
3751 Rain 4 1009 100 0 2.1 90 23:40 01.05.2020
3752 Rain 4 1009 100 0 2.1 90 23:21 01.05.2020
3753 Rain 4 1009 100 0 1.5 100 22:58 01.05.2020
3754 Rain 4 1009 93 0 2.1 200 22:38 01.05.2020
3755 Rain 4 1009 93 0 2.1 200 22:38 01.05.2020
3756 Rain 4 1009 93 0 2.1 200 22:19 01.05.2020
3757 Rain 4 1008 93 0 2.13 284 21:57 01.05.2020
3758 Rain 4 1007 93 0 2.13 284 21:39 01.05.2020
3759 Rain 4 1007 93 0 1.4 292 21:19 01.05.2020
3760 Clouds 4 1007 87 0 0.5 0 20:57 01.05.2020
3761 Clouds 5 1007 87 0 0.5 0 20:38 01.05.2020
3762 Clouds 5 1007 87 0 0.5 0 20:19 01.05.2020
3763 Clouds 5 1007 87 0 1.5 50 19:54 01.05.2020
3764 Rain 5 1007 76 0 1.5 270 19:36 01.05.2020
3765 Rain 5 1007 76 0 1.5 270 19:18 01.05.2020
3766 Clouds 5 1007 71 0 1 0 18:54 01.05.2020
3767 Clouds 5 1006 71 0 2.6 250 18:36 01.05.2020
3768 Clouds 5 1006 71 0 2.6 250 18:18 01.05.2020
3769 Clouds 6 1006 62 0 1.5 260 17:39 01.05.2020
3770 Clouds 6 1006 62 0 1.5 260 17:21 01.05.2020
3771 Clouds 10 1006 62 0 1 0 16:57 01.05.2020
3772 Clouds 10 1006 66 0 0.5 0 16:38 01.05.2020
3773 Clouds 10 1006 66 0 0.5 0 16:20 01.05.2020
3774 Rain 10 1007 66 10000 2.36 231 15:56 01.05.2020
3775 Clouds 6 1007 71 10000 1 0 15:38 01.05.2020
3776 Snow 6 1009 99 0 2.5 201 15:18 01.05.2020
3777 Snow 6 1009 99 0 2.5 201 14:42 01.05.2020
3778 Snow 5 1009 99 0 1.97 188 14:23 01.05.2020
3779 Rain 4 1008 87 0 3.1 90 13:42 01.05.2020
3780 Rain 4 1008 87 0 3.1 90 13:23 01.05.2020
3781 Snow 4 1009 99 0 1.46 204 12:59 01.05.2020
3782 Snow 4 1009 99 0 1.46 204 12:40 01.05.2020
3783 Snow 4 1009 99 0 1.61 195 12:21 01.05.2020
3784 Snow 4 1009 99 0 1.61 195 11:59 01.05.2020
3785 Snow 4 1009 99 0 1.61 195 11:41 01.05.2020
3786 Snow 4 1009 99 0 2.17 239 11:19 01.05.2020
3787 Clouds 3 1008 71 10000 1 0 10:54 01.05.2020
3788 Clouds 4 1008 76 10000 2.17 239 10:36 01.05.2020
3789 Clouds 4 1008 76 10000 1.97 241 10:18 01.05.2020
3790 Clouds 4 1008 76 10000 1.97 241 10:18 01.05.2020
3791 Clouds 3 1009 99 0 1.97 241 09:41 01.05.2020
3792 Clouds 3 1009 95 0 1.73 233 09:19 01.05.2020
3793 Clouds 3 1009 97 0 0.45 284 08:46 01.05.2020
3794 Clouds 3 1009 97 0 0.45 284 08:46 01.05.2020
3795 Clouds 3 1009 94 0 2.68 97 08:28 01.05.2020
3796 Clouds 2 1014 91 0 1.47 222 07:58 01.05.2020
3797 Clouds 1 1014 91 0 1.47 222 07:39 01.05.2020
3798 Clouds 1 1014 90 0 0.69 224 07:18 01.05.2020
3799 Clouds 3 1009 93 0 2.6 110 06:27 01.05.2020
3800 Clouds 3 1009 100 0 2.1 100 05:21 01.05.2020
3801 Clouds 4 1009 100 0 1.5 0 03:44 01.05.2020
3802 Clouds 4 1009 93 0 2.6 100 02:53 01.05.2020
3803 Clouds 5 1009 100 0 2.6 200 02:34 01.05.2020
3804 Clouds 4 1010 100 0 1 0 01:53 01.05.2020
3805 Clouds 5 1009 100 0 2.1 90 01:27 01.05.2020
3806 Clouds 6 1010 93 0 1 0 00:40 01.05.2020
3807 Clouds 6 1010 93 0 1 0 00:21 01.05.2020
3808 Clouds 6 1010 93 0 1.5 120 23:57 30.04.2020
3809 Clouds 6 1010 93 0 1 0 23:39 30.04.2020
3810 Clouds 6 1010 93 0 1 0 23:20 30.04.2020
3811 Clouds 6 1010 100 0 1.5 100 22:56 30.04.2020
3812 Clouds 6 1010 93 0 1.5 60 22:38 30.04.2020
3813 Clouds 6 1010 93 0 1.5 60 22:18 30.04.2020
3814 Clouds 4 1009 93 0 1.5 90 21:42 30.04.2020
3815 Clouds 4 1009 93 0 1.5 90 21:22 30.04.2020
3816 Clouds 4 1009 93 0 1 0 20:58 30.04.2020
3817 Rain 4 1009 93 0 0.5 0 20:40 30.04.2020
3818 Rain 4 1009 93 0 0.5 0 20:18 30.04.2020
3819 Rain 4 1009 93 0 1 0 19:46 30.04.2020
3820 Rain 4 1009 87 0 1 0 19:26 30.04.2020
3821 Rain 4 1009 87 0 2.1 260 18:59 30.04.2020
3822 Rain 4 1009 87 0 1 220 18:39 30.04.2020
3823 Rain 4 1009 87 0 1 220 18:21 30.04.2020
3824 Rain 4 1009 81 0 1 0 17:58 30.04.2020
3825 Rain 4 1009 87 10000 1.5 270 17:39 30.04.2020
3826 Rain 7 1009 87 10000 1.5 270 17:20 30.04.2020
3827 Rain 7 1009 87 10000 2.6 270 16:57 30.04.2020
3828 Rain 8 1009 81 10000 2.1 280 16:38 30.04.2020
3829 Rain 8 1009 81 10000 2.1 280 16:18 30.04.2020
3830 Rain 8 1009 87 10000 2.6 270 15:45 30.04.2020
3831 Rain 8 1009 81 10000 2.6 280 15:24 30.04.2020
3832 Rain 8 1009 81 10000 2.6 270 14:57 30.04.2020
3833 Rain 8 1009 81 10000 3.1 270 14:39 30.04.2020
3834 Rain 8 1009 81 10000 3.1 270 14:19 30.04.2020
3835 Rain 8 1009 87 7000 2.1 280 13:55 30.04.2020
3836 Rain 8 1009 76 0 3.1 260 13:36 30.04.2020
3837 Rain 8 1009 76 0 3.1 260 13:18 30.04.2020
3838 Rain 8 1009 76 10000 2.6 270 12:41 30.04.2020
3839 Rain 9 1009 76 10000 2.6 270 12:20 30.04.2020
3840 Clouds 8 1010 71 10000 2.6 250 11:58 30.04.2020
3841 Clouds 8 1010 71 10000 2.6 250 11:36 30.04.2020
3842 Clouds 9 1010 71 10000 2.6 250 11:18 30.04.2020
3843 Clouds 9 1010 71 10000 3.6 230 10:41 30.04.2020
3844 Clouds 9 1010 71 10000 3.6 230 10:22 30.04.2020
3845 Clouds 8 1010 76 10000 3.6 250 09:58 30.04.2020
3846 Clouds 8 1010 81 10000 2.6 270 09:39 30.04.2020
3847 Clouds 8 1010 81 10000 2.6 270 09:20 30.04.2020
3848 Clouds 7 1009 87 10000 1.5 120 08:48 30.04.2020
3849 Clouds 7 1009 87 10000 1.5 120 08:26 30.04.2020
3850 Clouds 7 1009 81 0 2.1 0 07:57 30.04.2020
3851 Clouds 7 1009 87 10000 2.1 260 07:39 30.04.2020
3852 Clouds 5 1016 87 0 2.97 181 07:19 30.04.2020
3853 Clouds 5 1016 86 0 2.97 181 06:32 30.04.2020
3854 Clouds 7 1009 87 0 1.5 110 05:47 30.04.2020
3855 Clouds 7 1010 93 0 2.1 110 04:46 30.04.2020
3856 Clouds 7 1010 87 0 1.98 191 04:24 30.04.2020
3857 Clouds 6 1011 93 0 1 100 02:50 30.04.2020
3858 Clouds 6 1011 93 0 1.5 100 02:28 30.04.2020
3859 Clouds 6 1011 81 0 0.5 0 01:37 30.04.2020
3860 Clouds 6 1011 81 10000 1.5 0 00:53 30.04.2020
3861 Clouds 6 1011 81 10000 1.5 0 00:53 30.04.2020
3862 Clouds 6 1012 87 0 2.1 100 00:24 30.04.2020
3863 Clouds 6 1012 93 0 2.6 100 23:58 29.04.2020
3864 Clouds 6 1012 87 0 2.6 120 23:40 29.04.2020
3865 Clouds 6 1012 87 0 2.6 120 23:22 29.04.2020
3866 Clouds 7 1012 87 0 1 0 22:58 29.04.2020
3867 Clouds 7 1011 81 0 1 0 22:38 29.04.2020
3868 Clouds 7 1011 81 0 1 0 22:18 29.04.2020
3869 Clouds 9 1011 66 0 1 0 21:38 29.04.2020
3870 Clouds 8 1011 66 0 1 0 21:20 29.04.2020
3871 Clouds 9 1011 58 0 1 0 20:58 29.04.2020
3872 Clouds 9 1011 58 0 1 0 20:58 29.04.2020
3873 Clouds 10 1011 76 10000 3.6 90 20:39 29.04.2020
3874 Clouds 10 1011 76 10000 3.6 90 20:19 29.04.2020
3875 Clouds 10 1010 51 0 2.1 0 19:43 29.04.2020
3876 Clouds 10 1010 51 0 2.1 0 19:43 29.04.2020
3877 Clouds 10 1010 51 0 2.1 0 19:22 29.04.2020
3878 Clouds 10 1010 51 0 2.6 270 18:58 29.04.2020
3879 Clouds 10 1010 51 0 3.1 260 18:40 29.04.2020
3880 Clouds 11 1010 51 0 3.1 260 18:19 29.04.2020
3881 Clouds 11 1010 48 10000 2.1 250 17:44 29.04.2020
3882 Clouds 11 1010 48 10000 2.1 250 17:22 29.04.2020
3883 Clouds 11 1010 51 10000 3.6 290 16:59 29.04.2020
3884 Clouds 11 1011 54 10000 4.6 280 16:37 29.04.2020
3885 Clouds 11 1011 54 10000 4.6 280 16:18 29.04.2020
3886 Clouds 11 1010 41 10000 3.1 290 15:55 29.04.2020
3887 Clouds 11 1011 41 10000 3.1 310 15:37 29.04.2020
3888 Clouds 11 1011 41 10000 3.1 310 15:37 29.04.2020
3889 Clouds 11 1011 41 10000 3.1 310 15:19 29.04.2020
3890 Clouds 10 1011 44 10000 4.1 290 14:44 29.04.2020
3891 Clouds 10 1011 44 10000 4.1 290 14:26 29.04.2020
3892 Clouds 9 1011 54 10000 4.6 290 13:58 29.04.2020
3893 Clouds 9 1012 62 0 3.6 240 13:38 29.04.2020
3894 Clouds 6 1012 62 0 3.6 240 13:19 29.04.2020
3895 Clouds 9 1012 66 0 4.6 250 12:55 29.04.2020
3896 Clouds 9 1012 66 0 3.6 250 12:37 29.04.2020
3897 Clouds 9 1012 66 0 3.6 250 12:37 29.04.2020
3898 Clouds 9 1012 66 0 3.6 250 12:18 29.04.2020
3899 Clouds 8 1012 66 10000 1 0 11:39 29.04.2020
3900 Clouds 5 1011 98 0 2.87 337 11:20 29.04.2020
3901 Clouds 5 1011 98 0 2.87 337 11:20 29.04.2020
3902 Clouds 5 1011 98 0 2.87 337 11:20 29.04.2020
3903 Clouds 5 1011 99 0 2.87 337 10:54 29.04.2020
3904 Clouds 5 1011 99 0 1.79 294 10:36 29.04.2020
3905 Clouds 4 1011 99 0 1.34 233 10:18 29.04.2020
3906 Clouds 4 1012 99 0 0.45 252 09:41 29.04.2020
3907 Clouds 3 1012 87 10000 0.5 0 09:21 29.04.2020
3908 Snow 2 1016 93 0 2.96 340 08:44 29.04.2020
3909 Snow 2 1016 94 0 2.96 333 08:26 29.04.2020
3910 Snow 1 1016 94 0 2.96 333 07:55 29.04.2020
3911 Snow 1 1015 94 0 2.96 333 07:29 29.04.2020
3912 Snow 1 1015 94 0 3.37 330 06:53 29.04.2020
3913 Snow 1 1015 94 0 3.37 330 06:32 29.04.2020
3914 Rain 3 1011 93 10000 1 0 05:53 29.04.2020
3915 Rain 3 1010 93 10000 0.5 0 05:20 29.04.2020
3916 Rain 3 1010 93 10000 1.5 0 04:20 29.04.2020
3917 Rain 3 1010 93 10000 1.5 0 03:54 29.04.2020
3918 Rain 3 1011 93 10000 1.88 324 02:30 29.04.2020
3919 Rain 3 1011 93 10000 1.5 30 01:37 29.04.2020
3920 Rain 3 1011 93 10000 1.5 30 01:19 29.04.2020
3921 Rain 3 1011 87 10000 1 0 00:38 29.04.2020
3922 Rain 3 1011 87 10000 1 0 00:18 29.04.2020
3923 Rain 3 1011 87 10000 1 0 23:45 28.04.2020
3924 Rain 3 1011 81 10000 2.6 290 23:21 28.04.2020
3925 Rain 4 1010 87 10000 1.5 240 22:40 28.04.2020
3926 Rain 4 1010 87 10000 1.5 240 22:22 28.04.2020
3927 Rain 8 1010 87 10000 1.5 0 21:59 28.04.2020
3928 Rain 6 1010 93 5000 1 0 21:40 28.04.2020
3929 Rain 6 1010 93 5000 1 0 21:22 28.04.2020
3930 Rain 7 1009 87 5000 0.5 0 20:59 28.04.2020
3931 Rain 6 1009 93 7000 1 0 20:40 28.04.2020
3932 Rain 7 1009 93 7000 1 0 20:20 28.04.2020
3933 Rain 7 1008 87 10000 2.1 0 19:56 28.04.2020
3934 Rain 8 1008 82 10000 3.6 350 19:38 28.04.2020
3935 Rain 8 1008 82 10000 3.6 350 19:19 28.04.2020
3936 Rain 8 1008 82 10000 3.6 350 19:19 28.04.2020
3937 Drizzle 8 1008 71 10000 2.6 0 18:57 28.04.2020
3938 Rain 8 1008 71 10000 4.1 0 18:37 28.04.2020
3939 Rain 8 1008 71 10000 4.1 0 18:37 28.04.2020
3940 Rain 8 1008 71 10000 4.1 0 18:18 28.04.2020
3941 Clouds 10 1007 67 10000 1.5 0 17:37 28.04.2020
3942 Clouds 10 1007 67 10000 1.5 0 17:19 28.04.2020
3943 Clouds 10 1007 67 10000 3.1 120 16:57 28.04.2020
3944 Clouds 10 1007 67 10000 3.6 80 16:39 28.04.2020
3945 Clouds 9 1007 67 10000 3.6 80 16:21 28.04.2020
3946 Clouds 10 1008 72 10000 2.1 50 15:56 28.04.2020
3947 Clouds 9 1008 77 10000 2.1 30 15:38 28.04.2020
3948 Clouds 10 1008 77 10000 2.1 30 15:20 28.04.2020
3949 Clouds 11 1008 77 10000 2.1 80 14:54 28.04.2020
3950 Rain 11 1008 87 10000 3.6 270 14:36 28.04.2020
3951 Rain 11 1008 87 10000 3.6 270 14:18 28.04.2020
3952 Rain 10 1008 82 0 1 0 13:41 28.04.2020
3953 Rain 10 1008 82 0 1 0 13:23 28.04.2020
3954 Rain 10 1009 87 0 2.1 260 12:59 28.04.2020
3955 Rain 10 1009 82 10000 3.6 80 12:41 28.04.2020
3956 Rain 10 1009 82 10000 3.6 80 12:22 28.04.2020
3957 Drizzle 10 1009 87 10000 0.5 0 11:42 28.04.2020
3958 Drizzle 10 1009 87 10000 0.5 0 11:22 28.04.2020
3959 Rain 10 1009 87 10000 1 0 10:57 28.04.2020
3960 Drizzle 9 1009 93 10000 2.1 190 10:38 28.04.2020
3961 Drizzle 9 1009 93 10000 2.1 190 10:38 28.04.2020
3962 Drizzle 9 1009 93 10000 2.1 190 10:18 28.04.2020
3963 Rain 9 1009 93 6000 2.72 153 09:43 28.04.2020
3964 Rain 9 1009 93 6000 2.61 153 09:25 28.04.2020
3965 Rain 9 1009 93 8000 1 0 08:55 28.04.2020
3966 Rain 9 1009 93 7000 2.1 110 08:37 28.04.2020
3967 Rain 9 1009 93 7000 2.1 110 08:18 28.04.2020
3968 Rain 9 1009 87 10000 1.5 100 07:41 28.04.2020
3969 Rain 9 1009 87 10000 1.5 100 07:18 28.04.2020
3970 Clouds 6 1009 93 0 0.5 0 06:40 28.04.2020
3971 Clouds 9 1009 93 0 2.43 155 05:52 28.04.2020
3972 Clouds 9 1009 93 0 2.43 155 05:34 28.04.2020
3973 Clouds 9 1009 87 0 2.1 110 04:33 28.04.2020
3974 Clouds 9 1010 87 0 2.1 100 02:39 28.04.2020
3975 Clouds 10 1010 87 0 1.5 90 01:51 28.04.2020
3976 Clouds 10 1010 87 0 0.5 0 01:22 28.04.2020
3977 Clouds 11 1010 71 0 4.1 270 00:32 28.04.2020
3978 Clouds 12 1010 67 0 4.1 270 23:58 27.04.2020
3979 Clouds 12 1010 71 0 2.1 270 23:40 27.04.2020
3980 Clouds 11 1010 71 0 2.1 270 23:20 27.04.2020
3981 Clouds 11 1009 87 0 2.1 80 22:43 27.04.2020
3982 Clouds 11 1009 87 0 2.1 80 22:23 27.04.2020
3983 Clouds 11 1009 76 0 2.33 170 21:57 27.04.2020
3984 Clouds 12 1008 71 0 1.5 100 21:39 27.04.2020
3985 Clouds 12 1008 71 0 1.5 100 21:19 27.04.2020
3986 Clouds 13 1008 63 0 0.5 0 20:57 27.04.2020
3987 Clouds 13 1007 55 0 2.6 50 20:39 27.04.2020
3988 Clouds 13 1007 55 0 2.6 50 20:21 27.04.2020
3989 Clouds 15 1007 45 0 4.1 20 19:56 27.04.2020
3990 Clouds 16 1007 45 0 3.6 20 19:37 27.04.2020
3991 Clouds 16 1007 45 0 3.6 20 19:37 27.04.2020
3992 Clouds 16 1007 45 0 3.6 20 19:37 27.04.2020
3993 Clouds 16 1007 45 0 3.6 20 19:19 27.04.2020
3994 Clouds 17 1007 45 0 3.1 50 18:55 27.04.2020
3995 Clouds 17 1008 43 0 2.1 0 18:37 27.04.2020
3996 Clouds 17 1008 43 0 2.1 0 18:18 27.04.2020
3997 Clouds 16 1008 49 10000 3.6 260 17:41 27.04.2020
3998 Clouds 17 1008 49 10000 3.6 260 17:19 27.04.2020
3999 Clouds 16 1009 42 10000 3.6 250 16:41 27.04.2020
4000 Clouds 16 1009 42 10000 3.6 250 16:22 27.04.2020
4001 Clouds 16 1009 45 10000 3.1 0 15:59 27.04.2020
4002 Clouds 15 1010 48 10000 2.6 230 15:41 27.04.2020
4003 Clouds 15 1010 48 10000 2.6 230 15:21 27.04.2020
4004 Clouds 15 1010 51 10000 3.1 230 14:58 27.04.2020
4005 Clouds 15 1010 55 10000 4.1 240 14:40 27.04.2020
4006 Clouds 15 1010 55 10000 4.1 240 14:19 27.04.2020
4007 Clouds 15 1010 55 10000 6.2 260 13:57 27.04.2020
4008 Clouds 15 1010 55 10000 6.2 260 13:57 27.04.2020
4009 Rain 15 1010 55 0 4.6 270 13:37 27.04.2020
4010 Rain 15 1010 55 0 4.6 270 13:18 27.04.2020
4011 Clouds 14 1011 67 10000 1.5 0 12:43 27.04.2020
4012 Clouds 14 1011 67 10000 1.5 0 12:22 27.04.2020
4013 Clouds 14 1011 72 10000 1.5 180 11:55 27.04.2020
4014 Clouds 13 1012 72 10000 1 0 11:37 27.04.2020
4015 Clouds 13 1012 72 10000 1 0 11:18 27.04.2020
4016 Clouds 13 1012 76 10000 0.72 195 10:42 27.04.2020
4017 Clouds 12 1012 76 10000 0.72 195 10:24 27.04.2020
4018 Clouds 12 1012 76 10000 0.72 195 10:24 27.04.2020
4019 Clouds 11 1012 82 10000 0.5 0 09:58 27.04.2020
4020 Rain 7 1017 94 0 0.94 187 09:39 27.04.2020
4021 Clouds 10 1012 81 10000 0.5 0 09:18 27.04.2020
4022 Fog 6 1013 100 500 0.69 212 08:48 27.04.2020
4023 Rain 5 1016 99 0 0.89 90 08:30 27.04.2020
4024 Rain 5 1016 99 0 0.89 90 07:45 27.04.2020
4025 Rain 5 1016 99 0 0.89 90 07:25 27.04.2020
4026 Rain 5 1016 99 0 0.69 212 06:58 27.04.2020
4027 Rain 3 1017 99 0 0.69 212 06:30 27.04.2020
4028 Rain 3 1016 99 0 0.97 187 05:56 27.04.2020
4029 Rain 3 1016 98 0 0.97 187 05:18 27.04.2020
4030 Rain 3 1018 98 0 1.79 77 04:39 27.04.2020
4031 Rain 3 1019 99 0 0.89 67 03:45 27.04.2020
4032 Rain 5 1018 89 0 1.29 186 02:30 27.04.2020
4033 Rain 5 1018 91 0 1.75 195 01:20 27.04.2020
4034 Rain 5 1018 91 0 1.75 195 00:40 27.04.2020
4035 Rain 4 1019 99 0 0.9 187 00:18 27.04.2020
4036 Clouds 8 1012 93 0 2.6 50 23:41 26.04.2020
4037 Clouds 7 1012 93 0 2.6 50 23:22 26.04.2020
4038 Clouds 7 1011 100 0 2.1 90 22:59 26.04.2020
4039 Rain 7 1011 93 0 1.5 0 22:40 26.04.2020
4040 Rain 7 1011 93 0 1.5 0 22:21 26.04.2020
4041 Rain 8 1011 93 0 3.1 250 21:59 26.04.2020
4042 Rain 8 1011 93 0 3.1 250 21:59 26.04.2020
4043 Rain 4 1019 98 0 1.34 93 21:40 26.04.2020
4044 Rain 8 1011 93 0 1 0 21:19 26.04.2020
4045 Rain 8 1011 100 0 0.24 35 20:56 26.04.2020
4046 Rain 8 1010 93 0 0.24 35 20:37 26.04.2020
4047 Rain 8 1010 93 0 0.24 35 20:19 26.04.2020
4048 Rain 8 1011 93 0 1 0 19:57 26.04.2020
4049 Rain 8 1011 87 0 0.24 35 19:37 26.04.2020
4050 Rain 8 1011 87 0 0.24 35 19:19 26.04.2020
4051 Rain 8 1011 93 0 3.1 220 18:44 26.04.2020
4052 Rain 4 1018 94 0 1.18 172 18:24 26.04.2020
4053 Rain 4 1018 99 0 1.18 172 17:45 26.04.2020
4054 Rain 4 1019 99 0 2.24 274 17:24 26.04.2020
4055 Rain 9 1010 82 0 2.6 280 16:59 26.04.2020
4056 Rain 9 1010 87 0 2.6 230 16:40 26.04.2020
4057 Rain 9 1010 87 0 2.6 230 16:21 26.04.2020
4058 Rain 10 1009 72 0 5.1 310 15:58 26.04.2020
4059 Clouds 11 1009 59 0 5.7 300 15:38 26.04.2020
4060 Clouds 11 1009 59 0 5.7 300 15:20 26.04.2020
4061 Rain 12 1009 55 0 1 0 14:54 26.04.2020
4062 Clouds 12 1009 55 0 0.5 0 14:36 26.04.2020
4063 Clouds 11 1009 55 0 1.5 240 14:18 26.04.2020
4064 Clouds 11 1009 63 0 1.5 220 13:41 26.04.2020
4065 Clouds 12 1009 63 0 1.5 220 13:23 26.04.2020
4066 Clouds 11 1010 63 0 2.1 260 12:58 26.04.2020
4067 Clouds 10 1010 62 0 3.6 260 12:39 26.04.2020
4068 Clouds 10 1010 62 0 3.6 260 12:20 26.04.2020
4069 Clouds 11 1009 63 0 1.5 250 11:57 26.04.2020
4070 Rain 11 1009 55 0 2.1 230 11:38 26.04.2020
4071 Rain 11 1009 55 0 2.1 230 11:38 26.04.2020
4072 Rain 11 1009 55 0 2.1 230 11:20 26.04.2020
4073 Clouds 11 1009 62 0 1 0 10:55 26.04.2020
4074 Rain 11 1009 62 0 1.13 351 10:37 26.04.2020
4075 Rain 11 1009 62 0 1.13 351 10:18 26.04.2020
4076 Rain 8 1016 66 0 1.13 351 09:39 26.04.2020
4077 Clouds 9 1009 87 0 1.56 341 09:21 26.04.2020
4078 Clouds 7 1009 93 0 0.5 0 08:43 26.04.2020
4079 Clouds 5 1016 81 0 1.56 341 08:23 26.04.2020
4080 Clouds 5 1016 80 0 1.56 341 07:58 26.04.2020
4081 Clouds 5 1016 82 0 1.56 341 07:40 26.04.2020
4082 Clouds 4 1016 80 0 1.56 341 07:18 26.04.2020
4083 Clouds 4 1016 80 0 1.56 341 06:39 26.04.2020
4084 Clouds 6 1009 93 0 2.6 100 05:55 26.04.2020
4085 Fog 6 1010 100 0 1.5 90 05:36 26.04.2020
4086 Mist 6 1009 100 0 1.27 336 04:44 26.04.2020
4087 Clouds 7 1009 93 0 1 0 03:56 26.04.2020
4088 Clouds 7 1010 93 0 1.15 338 02:46 26.04.2020
4089 Clouds 7 1010 100 0 1.09 335 02:26 26.04.2020
4090 Clouds 8 1009 93 0 1.09 335 01:40 26.04.2020
4091 Clouds 8 1009 93 0 1.09 335 01:21 26.04.2020
4092 Clouds 8 1009 93 0 0.5 0 00:39 26.04.2020
4093 Clouds 8 1009 93 0 0.5 0 00:18 26.04.2020
4094 Clouds 8 1010 100 0 1.08 334 23:38 25.04.2020
4095 Clouds 8 1010 100 0 1.08 334 23:20 25.04.2020
4096 Rain 8 1010 93 0 1.08 334 22:55 25.04.2020
4097 Rain 8 1010 93 0 0.5 0 22:37 25.04.2020
4098 Rain 8 1010 93 0 0.5 0 22:18 25.04.2020
4099 Clouds 9 1009 93 0 2.1 120 21:39 25.04.2020
4100 Clouds 9 1009 93 0 2.1 120 21:20 25.04.2020
4101 Rain 9 1009 93 0 2.6 70 20:57 25.04.2020
4102 Rain 9 1009 93 0 2.6 80 20:39 25.04.2020
4103 Rain 9 1009 93 0 2.6 80 20:20 25.04.2020
4104 Rain 10 1010 93 0 1.5 0 19:41 25.04.2020
4105 Rain 10 1010 93 0 1.5 0 19:23 25.04.2020
4106 Clouds 10 1010 87 0 1.5 280 18:58 25.04.2020
4107 Rain 10 1010 87 0 2.6 60 18:39 25.04.2020
4108 Rain 7 1016 62 0 0.45 287 18:20 25.04.2020
4109 Rain 7 1016 64 0 0.89 275 17:58 25.04.2020
4110 Rain 7 1016 62 0 0.45 276 17:38 25.04.2020
4111 Rain 7 1016 57 0 0.45 82 17:19 25.04.2020
4112 Rain 8 1017 66 0 0.89 262 16:55 25.04.2020
4113 Rain 8 1016 68 0 1.34 277 16:37 25.04.2020
4114 Rain 8 1017 68 0 0.45 171 16:18 25.04.2020
4115 Rain 6 1020 71 0 1.34 167 15:40 25.04.2020
4116 Clouds 11 1010 72 0 5.1 80 15:20 25.04.2020
4117 Rain 11 1011 72 0 2.1 0 14:58 25.04.2020
4118 Rain 11 1011 72 0 2.1 0 14:58 25.04.2020
4119 Clouds 12 1010 55 0 3.6 70 14:39 25.04.2020
4120 Clouds 12 1010 55 0 3.6 70 14:20 25.04.2020
4121 Clouds 12 1010 55 0 3.1 0 13:43 25.04.2020
4122 Clouds 12 1010 55 0 3.1 0 13:19 25.04.2020
4123 Clouds 12 1010 55 0 6.2 60 12:58 25.04.2020
4124 Clouds 12 1011 55 0 2.1 260 12:40 25.04.2020
4125 Clouds 11 1011 55 0 2.1 260 12:20 25.04.2020
4126 Clouds 12 1011 52 0 2.42 340 11:57 25.04.2020
4127 Clouds 12 1011 55 0 1.5 70 11:39 25.04.2020
4128 Clouds 12 1011 55 0 1.5 70 11:20 25.04.2020
4129 Clouds 11 1012 67 0 2.1 90 10:43 25.04.2020
4130 Clouds 11 1012 67 0 2.1 90 10:23 25.04.2020
4131 Clouds 10 1012 76 0 2.1 80 09:48 25.04.2020
4132 Clouds 9 1012 81 0 1 0 09:29 25.04.2020
4133 Rain 8 1012 76 0 2.4 334 08:58 25.04.2020
4134 Rain 8 1012 76 0 2.4 334 08:58 25.04.2020
4135 Clouds 8 1012 87 0 1 0 08:40 25.04.2020
4136 Clouds 7 1012 87 0 1 0 08:21 25.04.2020
4137 Clouds 8 1012 81 0 2.4 334 07:58 25.04.2020
4138 Clouds 5 1018 72 0 2.28 334 07:39 25.04.2020
4139 Clouds 5 1018 74 0 2.4 334 06:48 25.04.2020
4140 Clouds 8 1012 76 0 1.5 150 06:30 25.04.2020
4141 Clouds 8 1012 81 0 1 160 05:40 25.04.2020
4142 Clouds 8 1012 81 0 1 160 05:19 25.04.2020
4143 Clouds 5 1019 74 0 1.48 333 02:59 25.04.2020
4144 Clouds 5 1020 75 0 1.48 333 02:25 25.04.2020
4145 Clouds 5 1020 74 0 1.48 333 01:54 25.04.2020
4146 Clouds 8 1013 76 0 1.48 333 01:34 25.04.2020
4147 Clouds 8 1013 76 0 0.5 0 00:58 25.04.2020
4148 Clouds 8 1013 54 10000 1.5 0 00:34 25.04.2020
4149 Clouds 9 1013 66 0 1 0 23:55 24.04.2020
4150 Clouds 9 1013 66 0 1 0 23:55 24.04.2020
4151 Clouds 9 1013 62 0 1 0 23:36 24.04.2020
4152 Clouds 9 1013 62 0 1 0 23:18 24.04.2020
4153 Clouds 10 1013 51 0 1 0 22:40 24.04.2020
4154 Clouds 10 1013 51 0 1 0 22:19 24.04.2020
4155 Clouds 11 1012 45 0 1 0 21:57 24.04.2020
4156 Clouds 11 1012 51 0 1.5 0 21:38 24.04.2020
4157 Clouds 11 1012 51 0 1.5 0 21:20 24.04.2020
4158 Clouds 12 1012 42 0 1.87 338 20:56 24.04.2020
4159 Clouds 12 1012 42 0 2.1 250 20:37 24.04.2020
4160 Clouds 13 1012 42 0 2.1 270 20:18 24.04.2020
4161 Clouds 13 1012 40 0 2.6 290 19:40 24.04.2020
4162 Clouds 13 1012 40 0 2.6 290 19:22 24.04.2020
4163 Clouds 14 1013 40 0 4.1 260 18:46 24.04.2020
4164 Clouds 14 1013 40 0 4.1 260 18:28 24.04.2020
4165 Clouds 15 1013 33 0 4.6 260 17:58 24.04.2020
4166 Clouds 15 1013 33 10000 5.1 260 17:39 24.04.2020
4167 Clouds 15 1013 33 10000 5.1 260 17:20 24.04.2020
4168 Clouds 14 1013 37 10000 4.6 270 16:58 24.04.2020
4169 Clouds 15 1013 28 10000 5.7 260 16:40 24.04.2020
4170 Clouds 14 1013 28 10000 5.7 260 16:21 24.04.2020
4171 Clouds 15 1014 28 10000 3.6 250 15:42 24.04.2020
4172 Clouds 15 1014 28 10000 3.6 250 15:21 24.04.2020
4173 Clouds 15 1014 28 10000 5.1 260 14:59 24.04.2020
4174 Clouds 15 1015 32 10000 4.6 260 14:38 24.04.2020
4175 Clouds 15 1015 32 10000 4.6 260 14:19 24.04.2020
4176 Clouds 14 1015 37 0 3.6 250 13:42 24.04.2020
4177 Clouds 14 1015 37 0 3.6 250 13:22 24.04.2020
4178 Clouds 13 1016 37 0 2.1 270 12:59 24.04.2020
4179 Clouds 13 1016 42 10000 2.04 328 12:40 24.04.2020
4180 Clouds 13 1016 42 10000 2.26 335 12:20 24.04.2020
4181 Clouds 12 1016 55 10000 1.5 0 11:55 24.04.2020
4182 Clouds 12 1017 45 10000 1.5 100 11:36 24.04.2020
4183 Clouds 12 1017 45 10000 1.5 100 11:18 24.04.2020
4184 Clouds 10 1017 58 10000 1.5 100 10:38 24.04.2020
4185 Clouds 11 1017 58 10000 1.5 100 10:20 24.04.2020
4186 Clouds 10 1017 66 0 2.1 90 09:57 24.04.2020
4187 Clouds 9 1017 71 0 1.5 100 09:39 24.04.2020
4188 Clouds 9 1017 71 0 1.5 100 09:20 24.04.2020
4189 Clouds 6 1017 93 10000 1.64 323 08:43 24.04.2020
4190 Clear 5 1023 80 0 1.64 323 08:21 24.04.2020
4191 Clear 5 1023 81 0 1.64 323 07:58 24.04.2020
4192 Clear 4 1023 81 0 1.64 323 07:40 24.04.2020
4193 Clear 4 1023 80 0 1.64 323 07:21 24.04.2020
4194 Clear 4 1023 79 0 1.64 323 06:44 24.04.2020
4195 Clear 6 1017 93 0 0.88 306 05:51 24.04.2020
4196 Clear 5 1017 86 0 0.88 306 05:23 24.04.2020
4197 Clear 7 1018 81 0 0.88 306 03:41 24.04.2020
4198 Clear 6 1018 81 0 1 0 02:51 24.04.2020
4199 Clear 6 1018 81 0 2.6 100 02:31 24.04.2020
4200 Clouds 6 1018 86 0 2.1 90 01:46 24.04.2020
4201 Clouds 8 1018 66 0 0.96 235 00:54 24.04.2020
4202 Clouds 8 1018 62 0 1.5 120 00:19 24.04.2020
4203 Clouds 8 1017 62 0 3.1 90 23:47 23.04.2020
4204 Clouds 9 1017 58 0 3.6 90 23:27 23.04.2020
4205 Clouds 9 1017 58 0 3.6 100 22:58 23.04.2020
4206 Clouds 9 1017 44 0 2.6 100 22:39 23.04.2020
4207 Clouds 10 1017 44 0 2.6 100 22:20 23.04.2020
4208 Clouds 10 1017 39 0 3.1 80 21:57 23.04.2020
4209 Clouds 11 1016 34 0 4.1 40 21:39 23.04.2020
4210 Clouds 11 1016 34 0 4.1 40 21:20 23.04.2020
4211 Clouds 11 1016 34 0 4.6 30 20:57 23.04.2020
4212 Clouds 12 1016 37 0 4.1 30 20:39 23.04.2020
4213 Clouds 12 1016 37 0 4.1 30 20:19 23.04.2020
4214 Clouds 12 1016 34 0 4.1 30 19:56 23.04.2020
4215 Clouds 14 1016 34 0 4.6 0 19:38 23.04.2020
4216 Clouds 14 1016 34 0 4.6 0 19:20 23.04.2020
4217 Clouds 14 1016 35 0 4.1 50 18:43 23.04.2020
4218 Clouds 14 1016 35 0 4.1 50 18:23 23.04.2020
4219 Clouds 14 1016 37 0 2.6 0 17:58 23.04.2020
4220 Clouds 14 1016 37 0 2.6 0 17:58 23.04.2020
4221 Clouds 14 1016 40 10000 2.6 0 17:39 23.04.2020
4222 Clouds 14 1016 40 10000 2.6 0 17:21 23.04.2020
4223 Clouds 14 1016 40 10000 3.6 0 16:56 23.04.2020
4224 Clouds 14 1016 43 10000 4.6 60 16:38 23.04.2020
4225 Clouds 14 1016 43 10000 4.6 60 16:18 23.04.2020
4226 Clouds 14 1017 40 10000 1 0 15:42 23.04.2020
4227 Clouds 14 1017 40 10000 1 0 15:22 23.04.2020
4228 Clouds 14 1017 37 10000 2.6 250 14:56 23.04.2020
4229 Clouds 13 1018 42 10000 3.1 230 14:37 23.04.2020
4230 Clouds 13 1018 42 10000 3.1 230 14:19 23.04.2020
4231 Clouds 13 1018 42 0 3.6 250 13:41 23.04.2020
4232 Clouds 13 1018 42 0 3.6 250 13:23 23.04.2020
4233 Clouds 12 1018 45 0 4.1 260 12:59 23.04.2020
4234 Clouds 12 1018 38 10000 4.1 250 12:41 23.04.2020
4235 Clear 12 1018 38 10000 4.1 250 12:23 23.04.2020
4236 Clear 12 1018 39 10000 3.1 260 11:47 23.04.2020
4237 Clear 12 1019 41 10000 1.5 270 11:28 23.04.2020
4238 Clear 12 1019 44 10000 1.69 338 10:59 23.04.2020
4239 Clear 12 1019 44 10000 1.69 338 10:59 23.04.2020
4240 Clear 11 1019 47 0 1.69 338 10:40 23.04.2020
4241 Clear 10 1019 47 0 1.69 338 10:20 23.04.2020
4242 Clear 9 1019 66 10000 0.5 0 09:41 23.04.2020
4243 Clear 9 1019 66 10000 0.5 0 09:19 23.04.2020
4244 Clear 6 1019 81 10000 1.5 280 08:52 23.04.2020
4245 Clear 6 1019 81 10000 1.5 280 08:32 23.04.2020
4246 Clear 4 1024 69 0 1.43 327 07:59 23.04.2020
4247 Clear 4 1024 71 0 1.43 327 07:40 23.04.2020
4248 Clear 3 1024 71 0 1.43 327 07:22 23.04.2020
4249 Clear 3 1024 69 0 1.43 327 06:46 23.04.2020
4250 Clear 5 1018 41 0 0.99 303 05:54 23.04.2020
4251 Clear 5 1018 41 0 0.99 303 05:54 23.04.2020
4252 Clear 5 1017 75 10000 1.5 230 05:21 23.04.2020
4253 Clear 5 1017 75 0 0.5 0 03:48 23.04.2020
4254 Clouds 6 1017 45 0 1 0 02:23 23.04.2020
4255 Clouds 5 1016 80 0 1.5 90 01:40 23.04.2020
4256 Clouds 6 1016 70 0 1 0 00:56 23.04.2020
4257 Clouds 7 1016 61 0 1 0 00:28 23.04.2020
4258 Clouds 7 1016 61 0 1 0 00:28 23.04.2020
4259 Clouds 8 1015 57 0 0.5 0 23:58 22.04.2020
4260 Clouds 8 1015 57 0 3.1 100 23:40 22.04.2020
4261 Clouds 8 1015 57 0 3.1 100 23:19 22.04.2020
4262 Clouds 9 1015 41 0 3.6 90 22:40 22.04.2020
4263 Clouds 9 1015 41 0 3.6 90 22:20 22.04.2020
4264 Clouds 10 1014 45 0 4.1 70 21:59 22.04.2020
4265 Clouds 10 1014 48 0 6.2 40 21:41 22.04.2020
4266 Clouds 10 1014 48 0 6.2 40 21:22 22.04.2020
4267 Clouds 11 1013 45 0 5.7 50 20:59 22.04.2020
4268 Clouds 12 1013 42 0 6.2 60 20:41 22.04.2020
4269 Clouds 13 1013 42 0 6.2 50 20:19 22.04.2020
4270 Clouds 13 1013 42 0 6.2 50 19:57 22.04.2020
4271 Clouds 14 1012 42 0 6.2 40 19:37 22.04.2020
4272 Clouds 15 1012 42 0 6.2 40 19:18 22.04.2020
4273 Clouds 14 1012 42 0 7.7 40 18:56 22.04.2020
4274 Clouds 15 1012 40 0 8.2 40 18:38 22.04.2020
4275 Clouds 15 1012 40 0 8.2 40 18:20 22.04.2020
4276 Clouds 15 1012 40 10000 7.2 50 17:43 22.04.2020
4277 Clouds 15 1012 40 10000 7.2 50 17:25 22.04.2020
4278 Clouds 14 1012 37 10000 8.7 30 16:56 22.04.2020
4279 Clouds 14 1013 42 10000 1.5 0 16:38 22.04.2020
4280 -273 0 0 0 0 0 16:19 22.04.2020
4281 Clouds 13 1012 42 10000 7.7 60 15:41 22.04.2020
4282 Clouds 13 1012 42 10000 7.7 60 15:22 22.04.2020
4283 Clouds 14 1012 45 10000 6.7 50 14:57 22.04.2020
4284 Clouds 13 1013 48 10000 5.7 0 14:37 22.04.2020
4285 Clouds 13 1013 48 10000 5.7 0 14:19 22.04.2020
4286 Clouds 12 1013 59 0 3.6 260 13:44 22.04.2020
4287 Clouds 12 1013 59 0 3.6 260 13:20 22.04.2020
4288 Clouds 11 1013 55 0 4.6 250 12:54 22.04.2020
4289 Clouds 11 1013 55 0 4.6 250 12:54 22.04.2020
4290 Clouds 11 1013 62 10000 4.6 260 12:36 22.04.2020
4291 Clouds 11 1013 62 10000 4.6 260 12:18 22.04.2020
4292 Clouds 11 1013 67 10000 4.1 250 11:40 22.04.2020
4293 Clouds 11 1013 67 10000 4.1 250 11:20 22.04.2020
4294 Clouds 11 1013 71 10000 3.6 250 10:58 22.04.2020
4295 Clouds 11 1013 76 10000 3.6 250 10:38 22.04.2020
4296 Clouds 11 1013 76 10000 3.6 250 10:18 22.04.2020
4297 Clouds 9 1013 81 10000 2.6 260 09:39 22.04.2020
4298 Clouds 9 1013 81 10000 2.6 260 09:20 22.04.2020
4299 Clouds 9 1013 87 10000 3.1 250 08:55 22.04.2020
4300 Clouds 7 1013 93 10000 1.5 290 08:37 22.04.2020
4301 Clouds 7 1013 93 10000 1.5 290 08:18 22.04.2020
4302 Mist 6 1012 100 3600 1.5 300 07:51 22.04.2020
4303 Mist 6 1012 100 4300 1.5 300 07:23 22.04.2020
4304 Clouds 6 1012 93 0 2.1 250 06:52 22.04.2020
4305 Clouds 6 1012 93 0 2.6 260 05:47 22.04.2020
4306 Clouds 6 1012 87 0 2.1 280 05:27 22.04.2020
4307 Clouds 6 1011 93 0 2.1 280 04:18 22.04.2020
4308 Clouds 7 1011 87 0 1 0 02:39 22.04.2020
4309 Clouds 7 1011 93 0 0.5 0 01:43 22.04.2020
4310 Clouds 7 1011 93 0 0.5 0 01:24 22.04.2020
4311 Clouds 7 1011 87 0 3.54 182 00:46 22.04.2020
4312 Clouds 7 1011 93 0 1 0 00:21 22.04.2020
4313 Clouds 8 1010 87 0 1 0 23:56 21.04.2020
4314 Clouds 8 1011 81 10000 1 0 23:36 21.04.2020
4315 Clouds 8 1011 81 10000 1 0 23:18 21.04.2020
4316 Clouds 9 1010 87 0 2.6 120 22:39 21.04.2020
4317 Clouds 9 1010 87 0 2.6 120 22:21 21.04.2020
4318 Clouds 8 1010 81 0 2.6 90 21:57 21.04.2020
4319 Clouds 9 1010 76 0 2.6 110 21:39 21.04.2020
4320 Clouds 10 1010 76 0 2.6 110 21:21 21.04.2020
4321 Clouds 11 1010 58 0 2.1 0 20:41 21.04.2020
4322 Clouds 11 1010 58 0 2.1 0 20:23 21.04.2020
4323 Clouds 12 1009 58 0 6.2 40 19:59 21.04.2020
4324 Clouds 12 1009 62 0 6.2 30 19:39 21.04.2020
4325 Clouds 13 1009 62 0 6.2 30 19:19 21.04.2020
4326 Clouds 13 1009 62 0 6.7 60 18:56 21.04.2020
4327 Clouds 13 1009 62 0 6.7 60 18:38 21.04.2020
4328 Clouds 13 1009 62 0 6.7 60 18:18 21.04.2020
4329 Clouds 13 1009 62 0 6.7 60 18:18 21.04.2020
4330 Clouds 11 1009 62 10000 7.2 50 17:40 21.04.2020
4331 Clouds 13 1009 62 10000 7.2 50 17:21 21.04.2020
4332 Clouds 12 1008 62 10000 7.2 50 16:59 21.04.2020
4333 Clouds 12 1008 58 10000 7.2 60 16:38 21.04.2020
4334 Clouds 12 1008 58 10000 7.2 60 16:19 21.04.2020
4335 Clouds 12 1009 63 10000 3.1 0 15:55 21.04.2020
4336 Clouds 12 1009 63 10000 1.5 0 15:37 21.04.2020
4337 Clouds 12 1009 63 10000 1.5 0 15:19 21.04.2020
4338 Clouds 11 1009 71 10000 1.5 0 14:45 21.04.2020
4339 Clouds 11 1009 71 10000 1.5 0 14:25 21.04.2020
4340 Clouds 11 1008 67 10000 2.1 260 13:57 21.04.2020
4341 Clouds 11 1008 71 0 2.1 260 13:38 21.04.2020
4342 Clouds 11 1008 71 0 2.1 260 13:18 21.04.2020
4343 Clouds 11 1008 76 10000 1 0 12:39 21.04.2020
4344 Clouds 11 1008 76 10000 1 0 12:20 21.04.2020
4345 Clouds 11 1009 62 10000 0.5 0 11:58 21.04.2020
4346 Clouds 10 1008 71 10000 4.6 60 11:39 21.04.2020
4347 Clouds 10 1008 71 10000 4.6 60 11:39 21.04.2020
4348 Clouds 10 1008 71 10000 4.6 60 11:19 21.04.2020
4349 Clouds 10 1008 81 10000 1.5 0 10:59 21.04.2020
4350 Clouds 10 1008 81 10000 1.5 250 10:40 21.04.2020
4351 Clouds 10 1008 81 10000 1.5 250 10:22 21.04.2020
4352 Clouds 9 1008 87 10000 2.26 173 09:59 21.04.2020
4353 Clouds 9 1009 71 10000 1 0 09:37 21.04.2020
4354 Clouds 9 1009 71 10000 1 0 09:18 21.04.2020
4355 Clouds 8 1007 93 10000 0.5 0 08:44 21.04.2020
4356 Clouds 8 1007 93 10000 0.5 0 08:26 21.04.2020
4357 Clouds 8 1007 93 10000 1 0 07:53 21.04.2020
4358 Clouds 8 1007 87 10000 2.08 176 07:28 21.04.2020
4359 Clouds 8 1007 87 0 2.08 176 06:54 21.04.2020
4360 Clouds 8 1007 87 0 2.08 176 06:36 21.04.2020
4361 Clouds 8 1007 87 0 0.5 0 05:51 21.04.2020
4362 Clouds 8 1007 87 0 1 0 05:20 21.04.2020
4363 Clouds 8 1007 81 0 0.5 0 03:47 21.04.2020
4364 Clouds 9 1008 76 0 1 0 02:47 21.04.2020
4365 Clouds 9 1008 76 0 1.5 260 01:32 21.04.2020
4366 Clouds 9 1008 71 0 2.3 182 00:39 21.04.2020
4367 Clouds 9 1008 71 0 2.65 176 00:19 21.04.2020
4368 Clouds 10 1008 62 0 3.6 50 23:43 20.04.2020
4369 Clouds 10 1008 62 0 3.6 50 23:21 20.04.2020
4370 Clouds 10 1008 62 0 6.2 40 22:56 20.04.2020
4371 Rain 10 1008 62 0 9.3 30 22:36 20.04.2020
4372 Rain 10 1008 62 0 9.3 30 22:18 20.04.2020
4373 Rain 10 1008 62 0 9.3 30 21:54 20.04.2020
4374 Clouds 11 1007 62 0 8.7 30 21:36 20.04.2020
4375 Clouds 11 1007 62 0 8.7 30 21:18 20.04.2020
4376 Clouds 11 1007 62 0 8.7 30 20:42 20.04.2020
4377 Clouds 11 1007 62 0 8.7 30 20:20 20.04.2020
4378 Clouds 11 1007 62 0 7.7 40 19:59 20.04.2020
4379 Clouds 12 1007 62 0 8.2 50 19:41 20.04.2020
4380 Clouds 12 1007 62 0 8.2 50 19:22 20.04.2020
4381 Rain 12 1007 62 0 8.7 40 18:58 20.04.2020
4382 Rain 12 1007 62 0 9.3 40 18:39 20.04.2020
4383 Rain 12 1007 62 0 9.3 40 18:20 20.04.2020
4384 Rain 12 1007 62 0 9.3 40 18:20 20.04.2020
4385 Rain 14 1007 59 0 8.2 40 17:54 20.04.2020
4386 Clouds 13 1007 62 10000 10.8 30 17:36 20.04.2020
4387 Clouds 13 1007 62 10000 10.8 30 17:18 20.04.2020
4388 Clouds 13 1007 62 10000 11.3 40 16:41 20.04.2020
4389 Clouds 13 1007 62 10000 11.3 40 16:20 20.04.2020
4390 Clouds 14 1008 62 10000 11.8 30 15:56 20.04.2020
4391 Clouds 14 1008 67 10000 10.3 40 15:38 20.04.2020
4392 Clouds 14 1008 67 10000 10.3 40 15:38 20.04.2020
4393 Clouds 13 1008 67 10000 10.3 40 15:19 20.04.2020
4394 Clouds 12 1007 67 10000 11.3 50 14:42 20.04.2020
4395 Rain 10 1022 60 0 2.682 67 14:19 20.04.2020
4396 Rain 9 1022 61 0 2.235 67 13:58 20.04.2020
4397 Rain 9 1022 61 0 2.235 67 13:58 20.04.2020
4398 Rain 10 1022 61 0 1.341 45 13:39 20.04.2020
4399 Rain 10 1022 64 0 2.235 67 13:20 20.04.2020
4400 Rain 9 1022 61 0 2.682 0 12:44 20.04.2020
4401 Rain 9 1022 65 0 2.682 0 12:23 20.04.2020
4402 Rain 9 1022 66 0 2.682 67 11:57 20.04.2020
4403 Rain 8 1022 65 0 3.576 157 11:38 20.04.2020
4404 Rain 8 1022 66 0 3.576 135 11:18 20.04.2020
4405 Rain 8 1022 68 0 3.129 67 10:54 20.04.2020
4406 Rain 8 1022 68 0 3.576 135 10:36 20.04.2020
4407 Rain 7 1022 68 0 3.576 157 10:18 20.04.2020
4408 Rain 7 1022 71 0 4.47 135 09:43 20.04.2020
4409 Rain 7 1022 71 0 4.47 135 09:25 20.04.2020
4410 Rain 6 1022 73 0 4.023 45 08:58 20.04.2020
4411 Rain 6 1022 72 0 4.023 67 08:39 20.04.2020
4412 Rain 6 1022 73 0 3.129 112 08:18 20.04.2020
4413 Rain 6 1022 73 0 2.235 157 07:42 20.04.2020
4414 Rain 6 1022 74 0 2.682 157 07:24 20.04.2020
4415 Rain 5 1022 75 0 1.788 135 06:38 20.04.2020
4416 Rain 5 1022 76 0 0.894 135 06:19 20.04.2020
4417 Rain 5 1023 76 0 2.235 67 05:20 20.04.2020
4418 Rain 6 1024 72 0 1.788 135 02:52 20.04.2020
4419 Rain 5 1024 71 0 2.235 157 02:33 20.04.2020
4420 Rain 6 1024 71 0 2.682 67 01:30 20.04.2020
4421 Rain 5 1025 79 0 0.447 90 00:47 20.04.2020
4422 Rain 5 1025 79 0 1.341 112 00:25 20.04.2020
4423 Rain 4 1025 92 0 1.788 157 23:41 19.04.2020
4424 Rain 4 1025 96 0 1.341 157 23:22 19.04.2020
4425 Rain 5 1025 98 0 1.93 176 22:59 19.04.2020
4426 Rain 4 1025 98 0 0.447 315 22:39 19.04.2020
4427 Rain 5 1025 98 0 0.894 315 22:20 19.04.2020
4428 Rain 5 1026 98 0 1.93 176 21:44 19.04.2020
4429 Rain 5 1026 98 0 0.447 202 21:25 19.04.2020
4430 Rain 5 1026 98 0 1.39 163 20:59 19.04.2020
4431 Rain 5 1026 98 0 0.447 225 20:41 19.04.2020
4432 Rain 5 1025 98 0 0.447 90 20:20 19.04.2020
4433 Rain 5 1025 97 0 1.341 90 19:57 19.04.2020
4434 Rain 5 1025 97 0 0.894 90 19:39 19.04.2020
4435 Rain 5 1025 97 0 0.894 90 19:21 19.04.2020
4436 Rain 5 1026 97 0 1.341 90 18:58 19.04.2020
4437 Rain 5 1025 97 0 1.341 90 18:39 19.04.2020
4438 Rain 6 1026 96 0 1.341 90 18:19 19.04.2020
4439 Rain 6 1026 95 0 0.894 90 17:56 19.04.2020
4440 Rain 6 1026 95 0 0.894 90 17:38 19.04.2020
4441 Rain 6 1026 95 0 0.894 90 17:19 19.04.2020
4442 Rain 6 1026 95 0 1.341 90 16:54 19.04.2020
4443 Rain 6 1026 93 0 0.894 90 16:36 19.04.2020
4444 Rain 6 1026 92 0 1.341 90 16:18 19.04.2020
4445 Rain 8 1027 85 0 1.47 157 15:41 19.04.2020
4446 Rain 7 1027 87 0 0.59 157 15:20 19.04.2020
4447 Rain 7 1027 89 0 0.59 157 14:54 19.04.2020
4448 Rain 6 1027 88 0 0.6 165 14:36 19.04.2020
4449 Rain 7 1027 88 0 0.6 165 14:18 19.04.2020
4450 Rain 9 1028 71 0 0.6 165 13:38 19.04.2020
4451 Rain 9 1028 73 0 0.6 165 13:19 19.04.2020
4452 Rain 10 1028 71 0 0.6 165 12:49 19.04.2020
4453 Rain 10 1028 71 0 0.6 165 12:49 19.04.2020
4454 Clouds 9 1028 63 0 0.43 39 12:25 19.04.2020
4455 Clouds 9 1028 67 0 0.43 39 11:55 19.04.2020
4456 Clouds 9 1028 61 0 0.43 39 11:37 19.04.2020
4457 Clouds 8 1029 64 0 0.447 67 11:18 19.04.2020
4458 Clouds 8 1029 64 0 0.43 39 10:55 19.04.2020
4459 Clouds 7 1029 67 0 0.43 39 10:37 19.04.2020
4460 Clouds 7 1029 73 0 0.894 67 10:18 19.04.2020
4461 Clouds 9 1022 64 0 0.43 39 09:44 19.04.2020
4462 Clouds 6 1029 72 0 0.894 67 09:25 19.04.2020
4463 Clouds 6 1029 78 0 0.894 112 08:41 19.04.2020
4464 Clouds 6 1023 83 0 1.1 355 08:21 19.04.2020
4465 Clouds 5 1023 83 0 1.14 353 07:58 19.04.2020
4466 Clouds 5 1023 84 0 1.1 355 07:40 19.04.2020
4467 Clouds 5 1023 83 0 1.1 355 07:21 19.04.2020
4468 Clouds 5 1029 80 0 0.894 0 06:27 19.04.2020
4469 Clouds 4 1029 81 0 1.788 337 05:46 19.04.2020
4470 Clouds 4 1030 83 0 0.894 337 04:22 19.04.2020
4471 Clouds 5 1031 83 0 2.235 315 02:55 19.04.2020
4472 Clouds 5 1031 81 0 2.235 292 02:20 19.04.2020
4473 Clouds 5 1031 83 0 0.894 270 01:37 19.04.2020
4474 Clouds 3 1031 92 0 2.682 90 00:41 19.04.2020
4475 Rain 3 1031 92 0 1.341 67 00:22 19.04.2020
4476 Rain 4 1032 90 0 2.235 270 23:46 18.04.2020
4477 Rain 4 1032 89 0 1.788 315 23:21 18.04.2020
4478 Rain 3 1032 96 0 1.341 157 22:58 18.04.2020
4479 Rain 3 1032 95 0 2.235 0 22:38 18.04.2020
4480 Rain 2 1032 96 0 2.682 0 22:20 18.04.2020
4481 Rain 3 1032 97 0 3.129 0 21:56 18.04.2020
4482 Rain 3 1032 97 0 2.235 337 21:37 18.04.2020
4483 Rain 3 1032 96 0 4.47 0 21:19 18.04.2020
4484 Rain 5 1031 84 0 1.341 337 20:40 18.04.2020
4485 Rain 4 1031 87 0 1.788 112 20:21 18.04.2020
4486 Rain 4 1031 90 0 5.812 90 19:44 18.04.2020
4487 Rain 4 1031 91 0 4.917 90 19:25 18.04.2020
4488 Rain 3 1032 92 0 4.023 157 18:59 18.04.2020
4489 Rain 4 1031 89 0 5.812 157 18:37 18.04.2020
4490 Rain 4 1031 89 0 5.812 157 18:37 18.04.2020
4491 Rain 5 1031 90 0 2.235 202 18:19 18.04.2020
4492 Rain 6 1031 89 0 3.129 337 17:41 18.04.2020
4493 Rain 6 1031 87 0 4.47 315 17:21 18.04.2020
4494 Rain 7 1031 83 0 3.129 315 16:57 18.04.2020
4495 Rain 9 1031 73 0 1.341 315 16:37 18.04.2020
4496 Rain 9 1031 73 0 1.788 315 16:19 18.04.2020
4497 Rain 9 1031 68 0 0.894 22 15:39 18.04.2020
4498 Clouds 9 1031 67 0 0.894 0 15:21 18.04.2020
4499 Clouds 9 1031 65 0 0.894 315 14:46 18.04.2020
4500 Clouds 9 1031 71 0 0.72 328 14:27 18.04.2020
4501 Rain 8 1031 74 0 0.46 307 13:56 18.04.2020
4502 Rain 8 1031 74 0 0.447 0 13:38 18.04.2020
4503 Rain 7 1031 78 0 1.788 0 13:19 18.04.2020
4504 Rain 9 1031 68 0 0.894 202 12:41 18.04.2020
4505 Clouds 9 1031 68 0 1.341 202 12:22 18.04.2020
4506 Clouds 9 1031 66 0 1.788 157 11:43 18.04.2020
4507 Clouds 9 1031 67 0 1.788 157 11:25 18.04.2020
4508 Clouds 8 1032 67 0 1.2 340 10:58 18.04.2020
4509 Clouds 8 1031 69 0 1.2 340 10:39 18.04.2020
4510 Clouds 7 1031 70 0 1.2 340 10:19 18.04.2020
4511 Clouds 7 1031 70 0 1.2 340 10:19 18.04.2020
4512 Clouds 7 1031 73 0 0.894 247 09:56 18.04.2020
4513 Clouds 9 1024 63 0 1.2 340 09:37 18.04.2020
4514 Clouds 6 1032 74 0 1.341 247 09:18 18.04.2020
4515 Clouds 6 1032 74 0 0.447 225 08:39 18.04.2020
4516 Clouds 6 1032 74 0 1.341 225 08:20 18.04.2020
4517 Clouds 6 1024 72 0 0.57 307 07:38 18.04.2020
4518 Clouds 6 1024 72 0 0.57 307 07:19 18.04.2020
4519 Clouds 4 1031 75 0 0.447 112 06:30 18.04.2020
4520 Clouds 4 1030 77 0 0.447 67 05:43 18.04.2020
4521 Clouds 5 1031 77 0 0.894 337 04:47 18.04.2020
4522 Clouds 6 1031 73 0 0.447 337 04:28 18.04.2020
4523 Clouds 5 1030 79 0 0.26 234 02:55 18.04.2020
4524 Clouds 5 1030 79 0 0.447 45 02:37 18.04.2020
4525 Clouds 5 1030 84 0 0.09 287 02:19 18.04.2020
4526 Clouds 5 1030 84 0 0.09 287 01:35 18.04.2020
4527 Clouds 5 1031 85 0 0.09 287 00:47 18.04.2020
4528 Clouds 5 1031 85 0 0.76 202 00:23 18.04.2020
4529 Clouds 5 1031 85 0 0.76 202 23:56 17.04.2020
4530 Clouds 5 1031 87 0 0.76 202 23:38 17.04.2020
4531 Clouds 5 1031 86 0 0.76 202 23:18 17.04.2020
4532 Clouds 5 1031 86 0 0.76 202 22:56 17.04.2020
4533 Clouds 5 1031 85 0 0.76 202 22:37 17.04.2020
4534 Clouds 5 1032 85 0 0.447 315 22:18 17.04.2020
4535 Clouds 6 1031 83 0 0.64 205 21:42 17.04.2020
4536 Rain 6 1031 83 0 0.447 315 21:21 17.04.2020
4537 Rain 6 1031 83 0 0.447 315 21:21 17.04.2020
4538 Rain 6 1031 82 0 1.01 195 20:57 17.04.2020
4539 Rain 6 1031 81 0 0.894 315 20:38 17.04.2020
4540 Rain 6 1031 81 0 1.341 315 20:19 17.04.2020
4541 Rain 7 1031 78 0 1.341 315 19:57 17.04.2020
4542 Rain 7 1031 80 0 0.894 337 19:39 17.04.2020
4543 Rain 7 1031 80 0 0.894 337 19:39 17.04.2020
4544 Rain 7 1031 80 0 1.341 337 19:21 17.04.2020
4545 Rain 7 1030 76 0 1.341 315 18:44 17.04.2020
4546 Clouds 8 1030 74 0 1.341 315 18:23 17.04.2020
4547 Clouds 8 1030 74 0 1.341 315 18:23 17.04.2020
4548 Clouds 8 1030 74 0 1.341 315 18:23 17.04.2020
4549 Clouds 7 1030 76 0 1.341 337 17:55 17.04.2020
4550 Clouds 7 1030 74 0 1.341 337 17:36 17.04.2020
4551 Clouds 7 1030 74 0 1.788 337 17:18 17.04.2020
4552 Clouds 8 1030 72 0 1.341 337 16:41 17.04.2020
4553 Clouds 8 1030 72 0 1.341 337 16:41 17.04.2020
4554 Clouds 8 1030 70 0 1.341 337 16:22 17.04.2020
4555 Clouds 9 1031 64 0 0.447 292 15:41 17.04.2020
4556 Clouds 9 1031 63 0 0.87 207 15:23 17.04.2020
4557 Clouds 9 1031 62 0 0.894 270 14:56 17.04.2020
4558 Clouds 8 1031 65 0 1.341 315 14:37 17.04.2020
4559 Clouds 8 1031 65 0 1.341 315 14:37 17.04.2020
4560 Clouds 9 1031 63 0 0.447 247 14:19 17.04.2020
4561 Clouds 8 1031 67 0 0.894 202 13:41 17.04.2020
4562 Clouds 19 1016 42 0 1.5 280 13:22 17.04.2020
4563 Clouds 18 1017 42 0 2.6 280 12:58 17.04.2020
4564 Clouds 18 1017 45 10000 1.5 0 12:40 17.04.2020
4565 Clouds 17 1017 45 10000 1.5 0 12:21 17.04.2020
4566 Clouds 16 1017 45 10000 0.5 0 11:40 17.04.2020
4567 Clouds 16 1017 45 10000 0.5 0 11:19 17.04.2020
4568 Clouds 15 1018 58 10000 1 0 10:44 17.04.2020
4569 Clouds 14 1018 58 10000 1 0 10:24 17.04.2020
4570 Clouds 13 1018 54 10000 1 0 09:59 17.04.2020
4571 Clouds 12 1019 71 10000 2.1 90 09:40 17.04.2020
4572 Clouds 10 1019 71 10000 2.1 90 09:20 17.04.2020
4573 Clouds 9 1019 75 10000 0.43 354 08:49 17.04.2020
4574 Clouds 7 1019 81 10000 0.43 354 08:28 17.04.2020
4575 Clouds 7 1019 80 0 0.43 354 07:59 17.04.2020
4576 Clouds 6 1019 80 0 0.43 354 07:41 17.04.2020
4577 Clouds 6 1019 80 10000 1.5 70 07:20 17.04.2020
4578 Clouds 6 1019 86 0 2.6 110 06:45 17.04.2020
4579 Clouds 6 1019 86 0 1.5 90 06:21 17.04.2020
4580 Clouds 7 1018 81 0 2.1 110 03:37 17.04.2020
4581 Clouds 7 1018 75 0 0.5 0 03:18 17.04.2020
4582 Clouds 8 1018 75 0 1 0 01:55 17.04.2020
4583 Clouds 9 1018 66 0 0.5 0 01:23 17.04.2020
4584 Clouds 10 1018 62 0 2.1 120 00:28 17.04.2020
4585 Clouds 10 1018 54 0 3.1 100 23:56 16.04.2020
4586 Clouds 10 1018 54 0 3.1 100 23:37 16.04.2020
4587 Clouds 10 1018 58 0 3.1 110 23:19 16.04.2020
4588 Clouds 11 1018 58 0 3.6 100 22:41 16.04.2020
4589 Clouds 11 1018 58 0 3.6 100 22:23 16.04.2020
4590 Clouds 11 1017 54 0 3.6 90 21:59 16.04.2020
4591 Clouds 11 1017 54 0 3.6 90 21:41 16.04.2020
4592 Clouds 11 1017 54 0 3.6 90 21:41 16.04.2020
4593 Clouds 12 1017 54 0 3.6 90 21:41 16.04.2020
4594 Clouds 12 1017 45 0 3.6 80 21:20 16.04.2020
4595 Clouds 14 1017 51 0 0.65 216 20:44 16.04.2020
4596 Clouds 15 1016 39 0 4.6 40 20:23 16.04.2020
4597 Clouds 17 1016 45 0 1 0 20:00 16.04.2020
4598 Clouds 17 1016 45 0 1 0 19:40 16.04.2020
4599 Clouds 18 1016 40 0 1.5 250 19:20 16.04.2020
4600 Clouds 18 1016 37 0 3.6 250 18:57 16.04.2020
4601 Clouds 19 1016 37 0 3.6 250 18:39 16.04.2020
4602 Clouds 19 1016 35 0 3.6 50 18:20 16.04.2020
4603 Clouds 19 1016 37 0 5.1 50 17:55 16.04.2020
4604 Clouds 19 1016 37 0 5.1 50 17:37 16.04.2020
4605 Clouds 18 1017 37 10000 3.6 40 17:18 16.04.2020
4606 Clouds 17 1017 35 10000 0.5 0 16:41 16.04.2020
4607 Clouds 17 1018 28 10000 1.5 260 16:19 16.04.2020
4608 Clouds 19 1018 42 10000 3.1 80 15:45 16.04.2020
4609 Clouds 18 1019 39 10000 4.1 250 15:19 16.04.2020
4610 Clouds 18 1019 37 10000 4.1 250 14:58 16.04.2020
4611 Clouds 18 1019 37 10000 4.1 250 14:39 16.04.2020
4612 Clouds 18 1019 42 10000 4.6 250 14:19 16.04.2020
4613 Clouds 17 1019 42 10000 5.1 260 13:57 16.04.2020
4614 Clouds 17 1019 42 10000 5.1 260 13:37 16.04.2020
4615 Clouds 17 1019 42 10000 5.1 260 13:37 16.04.2020
4616 Clouds 17 1019 42 0 4.6 260 13:19 16.04.2020
4617 Clouds 17 1019 45 0 3.6 260 12:56 16.04.2020
4618 Clouds 17 1019 45 0 3.6 260 12:56 16.04.2020
4619 Clouds 17 1019 45 0 3.6 260 12:37 16.04.2020
4620 Clouds 17 1019 45 0 3.6 260 12:37 16.04.2020
4621 Clouds 15 1020 44 10000 2.6 260 12:18 16.04.2020
4622 Clouds 15 1020 41 10000 2.1 260 11:54 16.04.2020
4623 Clouds 15 1020 41 10000 2.1 260 11:36 16.04.2020
4624 Clouds 14 1020 41 10000 1 0 11:18 16.04.2020
4625 Clouds 14 1021 44 10000 1 0 10:39 16.04.2020
4626 Clouds 13 1021 50 10000 2.6 100 10:19 16.04.2020
4627 Clouds 10 1022 53 10000 0.5 0 09:58 16.04.2020
4628 Clouds 10 1022 53 10000 0.5 0 09:38 16.04.2020
4629 Clouds 8 1022 75 10000 1 0 09:19 16.04.2020
4630 Clouds 6 1021 80 10000 2.1 80 08:42 16.04.2020
4631 Clouds 5 1021 35 10000 1.25 183 08:23 16.04.2020
4632 Clouds 5 1021 35 10000 1.25 183 07:46 16.04.2020
4633 Clouds 4 1021 34 10000 1.1 181 07:27 16.04.2020
4634 Clouds 5 1021 34 0 0.5 0 06:46 16.04.2020
4635 Clear 4 1021 39 0 1 0 06:26 16.04.2020
4636 Clear 5 1021 39 0 0.5 0 05:49 16.04.2020
4637 Clear 5 1021 39 0 1.5 180 04:44 16.04.2020
4638 Clear 6 1021 80 0 1.81 182 03:24 16.04.2020
4639 Clouds 6 1021 70 0 1.82 182 02:52 16.04.2020
4640 Clear 6 1021 80 0 2.1 200 02:32 16.04.2020
4641 Clear 5 1021 75 0 3.1 100 01:20 16.04.2020
4642 Clear 6 1021 75 0 2.1 100 00:37 16.04.2020
4643 Clouds 7 1021 65 0 0.5 0 00:00 16.04.2020
4644 Clouds 6 1021 65 0 0.5 0 23:41 15.04.2020
4645 Clouds 7 1021 57 0 3.6 90 23:22 15.04.2020
4646 Clouds 7 1020 61 0 4.1 100 22:41 15.04.2020
4647 Clouds 7 1020 65 0 4.1 100 22:22 15.04.2020
4648 Clouds 7 1020 65 0 4.1 100 22:22 15.04.2020
4649 Clouds 8 1020 57 0 4.1 110 21:59 15.04.2020
4650 Clouds 8 1020 57 0 4.1 110 21:41 15.04.2020
4651 Clear 9 1020 46 0 4.6 70 21:23 15.04.2020
4652 Clear 10 1019 46 0 5.7 50 20:58 15.04.2020
4653 Clear 10 1019 46 0 5.7 50 20:40 15.04.2020
4654 Clear 13 1019 46 0 6.7 40 20:22 15.04.2020
4655 Clear 13 1019 46 0 6.7 40 20:22 15.04.2020
4656 Clear 14 1019 46 0 5.7 40 19:46 15.04.2020
4657 Clear 14 1019 29 0 7.2 30 19:21 15.04.2020
4658 Clear 14 1019 46 0 7.7 30 18:58 15.04.2020
4659 Clear 14 1019 46 0 7.7 30 18:40 15.04.2020
4660 Clear 14 1019 31 0 7.7 40 18:21 15.04.2020
4661 Clear 14 1019 31 0 7.7 40 18:21 15.04.2020
4662 Clear 14 1019 31 0 8.2 50 17:55 15.04.2020
4663 Clear 14 1019 31 0 8.2 50 17:36 15.04.2020
4664 Clear 14 1019 31 0 8.2 50 17:36 15.04.2020
4665 Clear 15 1020 31 0 1 0 17:18 15.04.2020
4666 Clear 14 1020 34 10000 2.1 270 16:54 15.04.2020
4667 Clear 13 1020 33 10000 2.1 280 16:36 15.04.2020
4668 Clear 15 1020 33 10000 2.1 280 16:18 15.04.2020
4669 Clear 15 1022 44 10000 2.6 80 15:55 15.04.2020
4670 Clear 15 1022 44 10000 2.6 80 15:36 15.04.2020
4671 Clear 14 1021 30 10000 2.1 260 15:18 15.04.2020
4672 Clear 14 1021 33 10000 3.1 270 14:42 15.04.2020
4673 Clear 14 1022 29 10000 3.6 270 14:23 15.04.2020
4674 Clear 13 1022 41 10000 4.6 270 14:00 15.04.2020
4675 Clear 14 1022 41 10000 4.6 270 13:40 15.04.2020
4676 Clear 13 1022 41 0 2.1 270 13:21 15.04.2020
4677 Clear 12 1022 29 0 1.5 270 12:59 15.04.2020
4678 Clear 11 1022 29 0 1.5 270 12:40 15.04.2020
4679 Clear 11 1022 43 10000 2.1 260 12:22 15.04.2020
4680 Clear 9 1023 46 10000 2.6 270 11:58 15.04.2020
4681 Clear 9 1023 46 10000 2.6 270 11:38 15.04.2020
4682 Clear 9 1023 46 10000 2.6 270 11:38 15.04.2020
4683 Clear 9 1023 46 10000 1.5 260 11:20 15.04.2020
4684 Clear 8 1023 49 10000 1 0 10:38 15.04.2020
4685 Clear 8 1023 45 10000 0.78 332 10:20 15.04.2020
4686 Clear 6 1023 56 10000 3.1 90 09:57 15.04.2020
4687 Clear 6 1023 56 10000 3.1 90 09:38 15.04.2020
4688 Clouds 4 1023 60 10000 7.2 60 09:20 15.04.2020
4689 Clouds 4 1022 69 10000 0.83 296 08:54 15.04.2020
4690 Clouds 3 1022 69 10000 0.83 296 08:36 15.04.2020
4691 Clouds 2 1022 44 10000 0.83 296 08:18 15.04.2020
4692 Clouds 1 1022 80 0 0.83 296 07:44 15.04.2020
4693 Clouds 1 1022 44 10000 0.83 296 07:26 15.04.2020
4694 Clouds 1 1021 50 0 2.6 100 06:25 15.04.2020
4695 Clouds 0 1021 86 0 3.1 100 05:48 15.04.2020
4696 Clouds 1 1021 64 0 5.7 90 04:47 15.04.2020
4697 Clouds 1 1021 64 0 6.2 100 04:22 15.04.2020
4698 Clear 2 1021 52 0 6.2 70 03:22 15.04.2020
4699 Clear 1 1021 52 0 5.7 70 02:49 15.04.2020
4700 Clear 2 1020 48 0 6.2 80 01:51 15.04.2020
4701 Clear 2 1021 48 0 5.1 110 01:25 15.04.2020
4702 Clear 2 1021 60 0 3.6 80 00:48 15.04.2020
4703 Clear 2 1020 48 0 3.6 90 00:25 15.04.2020
4704 Clear 4 1020 45 0 8.2 50 23:56 14.04.2020
4705 Clear 2 1020 45 0 8.2 50 23:38 14.04.2020
4706 Clear 3 1020 45 0 7.2 50 23:20 14.04.2020
4707 Clear 4 1020 39 0 7.7 40 22:56 14.04.2020
4708 Clear 5 1020 39 0 7.7 40 22:38 14.04.2020
4709 Clear 5 1020 39 0 7.2 80 22:20 14.04.2020
4710 Clear 5 1020 39 0 6.2 60 21:56 14.04.2020
4711 Clear 5 1020 39 0 6.2 60 21:38 14.04.2020
4712 Clear 5 1020 36 0 5.1 70 21:19 14.04.2020
4713 Clear 6 1019 36 0 5.1 0 20:55 14.04.2020
4714 Clear 6 1019 36 0 5.1 0 20:36 14.04.2020
4715 Clear 7 1018 34 0 7.7 60 20:18 14.04.2020
4716 Clear 8 1018 32 0 7.7 50 19:41 14.04.2020
4717 Clear 7 1018 32 0 8.7 60 19:22 14.04.2020
4718 Clear 10 1018 32 0 7.7 50 18:57 14.04.2020
4719 Clear 9 1018 32 0 7.7 50 18:39 14.04.2020
4720 Clear 9 1018 37 0 7.7 20 18:21 14.04.2020
4721 Clear 10 1018 35 0 6.2 20 17:58 14.04.2020
4722 Clear 9 1018 35 0 6.2 20 17:38 14.04.2020
4723 Clear 10 1018 35 10000 6.7 0 17:19 14.04.2020
4724 Clear 10 1018 35 10000 6.7 0 17:19 14.04.2020
4725 Clear 9 1018 37 10000 7.2 30 16:55 14.04.2020
4726 Clear 10 1018 37 10000 7.2 30 16:37 14.04.2020
4727 Clear 9 1018 40 10000 7.2 40 16:19 14.04.2020
4728 Clear 10 1018 35 10000 6.7 30 15:42 14.04.2020
4729 Clouds 9 1018 50 10000 8.7 20 15:23 14.04.2020
4730 Clouds 9 1018 57 10000 8.7 50 14:59 14.04.2020
4731 Clouds 9 1018 57 10000 8.7 50 14:41 14.04.2020
4732 Clouds 9 1018 57 10000 9.3 50 14:22 14.04.2020
4733 Clouds 9 1019 61 10000 9.8 50 13:57 14.04.2020
4734 Clouds 9 1019 61 10000 9.8 50 13:39 14.04.2020
4735 Clouds 9 1019 57 0 10.3 60 13:21 14.04.2020
4736 Clouds 7 1019 65 0 11.3 60 12:42 14.04.2020
4737 Clouds 5 1019 61 10000 9.3 50 12:22 14.04.2020
4738 Clouds 5 1019 65 10000 8.2 50 11:57 14.04.2020
4739 Clouds 5 1019 65 10000 8.2 50 11:38 14.04.2020
4740 Clouds 4 1019 65 10000 7.7 60 11:19 14.04.2020
4741 Clouds 5 1019 70 10000 8.2 50 10:46 14.04.2020
4742 Clouds 4 1019 65 10000 7.2 60 10:27 14.04.2020
4743 Clouds 4 1019 46 10000 8.7 60 09:58 14.04.2020
4744 Clouds 3 1019 38 10000 8.7 60 09:40 14.04.2020
4745 Clouds 3 1020 60 10000 2.1 220 09:21 14.04.2020
4746 Clouds 3 1018 75 10000 9.3 60 08:42 14.04.2020
4747 Clouds 3 1018 75 10000 9.8 60 08:24 14.04.2020
4748 Clouds 4 1018 75 0 9.3 70 07:56 14.04.2020
4749 Clouds 4 1017 70 10000 8.2 50 07:32 14.04.2020
4750 Clouds 1 1017 48 0 3.85 346 06:53 14.04.2020
4751 Clouds 1 1017 48 0 3.85 346 06:33 14.04.2020
4752 Snow 2 1017 53 0 3.76 343 04:48 14.04.2020
4753 Clouds 6 1016 76 0 4.1 80 03:00 14.04.2020
4754 Rain 7 1016 81 0 3.6 0 02:18 14.04.2020
4755 Drizzle 7 1015 76 0 10.3 60 01:25 14.04.2020
4756 Clouds 8 1015 62 0 3.1 0 00:39 14.04.2020
4757 Rain 9 1016 76 10000 8.2 340 00:19 14.04.2020
4758 Clouds 9 1015 87 0 1 0 23:45 13.04.2020
4759 Clouds 9 1014 54 0 3.6 0 23:26 13.04.2020
4760 Clouds 10 1014 47 0 4.1 0 22:59 13.04.2020
4761 Clouds 10 1014 47 0 4.1 0 22:41 13.04.2020
4762 Clouds 11 1013 41 0 6.7 0 22:22 13.04.2020
4763 Rain 11 1013 44 0 3.1 0 21:57 13.04.2020
4764 Rain 12 1013 44 0 3.1 0 21:37 13.04.2020
4765 Clouds 12 1012 44 0 2.1 80 21:19 13.04.2020
4766 Clouds 13 1012 39 0 2.6 160 20:55 13.04.2020
4767 Clouds 13 1012 39 0 2.6 160 20:55 13.04.2020
4768 Clouds 13 1012 39 0 2.6 160 20:37 13.04.2020
4769 Clouds 13 1012 34 0 2.1 0 20:18 13.04.2020
4770 Clouds 14 1012 34 0 1.5 0 19:39 13.04.2020
4771 Clouds 14 1012 39 0 1.5 0 19:20 13.04.2020
4772 Clouds 15 1012 36 0 3.6 60 18:59 13.04.2020
4773 Clouds 17 1012 36 0 3.6 60 18:39 13.04.2020
4774 Clouds 17 1012 37 0 2.1 100 18:20 13.04.2020
4775 Clouds 17 1012 39 0 1 0 17:59 13.04.2020
4776 Clouds 17 1012 39 0 1 0 17:39 13.04.2020
4777 Clouds 17 1012 37 0 1.5 190 17:20 13.04.2020
4778 Clouds 17 1012 34 0 2.6 250 16:59 13.04.2020
4779 Clouds 16 1012 34 0 2.6 250 16:41 13.04.2020
4780 Clouds 17 1013 39 0 2.1 0 16:21 13.04.2020
4781 Rain 17 1013 37 0 2.1 250 15:59 13.04.2020
4782 Rain 17 1013 37 0 2.1 250 15:41 13.04.2020
4783 Clouds 18 1013 39 0 3.6 260 15:23 13.04.2020
4784 Clouds 17 1013 42 0 4.1 260 14:56 13.04.2020
4785 Clouds 17 1013 42 0 4.1 260 14:38 13.04.2020
4786 Clouds 17 1013 42 0 4.1 260 14:38 13.04.2020
4787 Clouds 17 1014 42 0 4.1 290 14:20 13.04.2020
4788 Clouds 17 1014 42 0 4.6 0 13:55 13.04.2020
4789 Clouds 17 1014 42 0 4.6 0 13:55 13.04.2020
4790 Clouds 17 1014 42 0 4.6 0 13:37 13.04.2020
4791 Clouds 16 1014 39 0 2.1 0 13:18 13.04.2020
4792 Clouds 15 1015 44 0 2.6 280 12:56 13.04.2020
4793 Clouds 15 1015 44 0 2.6 280 12:38 13.04.2020
4794 Clouds 15 1015 44 0 4.6 260 12:19 13.04.2020
4795 Clouds 15 1015 48 0 2.6 0 11:43 13.04.2020
4796 Clouds 15 1015 47 0 1.5 280 11:19 13.04.2020
4797 Clouds 14 1015 47 0 0.46 172 10:56 13.04.2020
4798 Clouds 14 1015 47 0 0.46 172 10:38 13.04.2020
4799 Clouds 14 1015 54 0 0.46 172 10:19 13.04.2020
4800 Clouds 12 1015 53 0 0.46 172 09:55 13.04.2020
4801 Clouds 11 1015 53 0 0.91 151 09:36 13.04.2020
4802 Clouds 8 1016 61 0 0.69 149 09:18 13.04.2020
4803 Clouds 7 1016 75 0 1.5 100 08:42 13.04.2020
4804 Clouds 6 1015 93 0 1.5 80 08:24 13.04.2020
4805 Clouds 5 1015 38 0 0.5 0 07:42 13.04.2020
4806 Clouds 6 1015 80 0 0.69 149 07:24 13.04.2020
4807 Clouds 6 1015 75 0 0.69 149 06:47 13.04.2020
4808 Clouds 6 1015 41 0 0.5 0 06:25 13.04.2020
4809 Clouds 6 1015 75 0 1.5 90 05:32 13.04.2020
4810 Clouds 7 1015 75 0 0.48 164 04:53 13.04.2020
4811 Clouds 7 1015 70 0 0.5 0 04:24 13.04.2020
4812 Clouds 8 1015 75 0 1.5 70 03:48 13.04.2020
4813 Clouds 8 1015 70 0 0.5 0 02:59 13.04.2020
4814 Clouds 9 1015 70 0 0.5 0 02:37 13.04.2020
4815 Clouds 9 1015 66 0 1 0 01:43 13.04.2020
4816 Clouds 9 1015 57 0 1 0 01:25 13.04.2020
4817 Clouds 9 1015 61 0 1.43 178 00:42 13.04.2020
4818 Clouds 10 1015 61 0 0.5 0 00:21 13.04.2020
4819 Clouds 11 1015 54 0 1.77 174 23:48 12.04.2020
4820 Clouds 11 1015 53 0 1.77 174 23:23 12.04.2020
4821 Clouds 12 1015 47 0 1.77 174 22:59 12.04.2020
4822 Clouds 12 1015 47 0 1.77 174 22:37 12.04.2020
4823 Clouds 12 1015 44 0 1 0 22:19 12.04.2020
4824 Clouds 13 1014 38 0 1.5 120 21:54 12.04.2020
4825 Clouds 13 1014 38 0 1.5 120 21:36 12.04.2020
4826 Clouds 14 1014 41 0 1 0 21:18 12.04.2020
4827 Clouds 14 1014 38 0 2.1 110 20:41 12.04.2020
4828 Clouds 15 1014 33 0 3.1 100 20:22 12.04.2020
4829 Clouds 15 1014 33 0 3.1 100 20:22 12.04.2020
4830 Clouds 15 1014 31 0 3.6 90 19:57 12.04.2020
4831 Clouds 16 1014 31 0 3.6 90 19:38 12.04.2020
4832 Clouds 16 1014 28 0 4.1 70 19:18 12.04.2020
4833 Clouds 16 1014 28 0 4.1 70 19:18 12.04.2020
4834 Clouds 17 1014 29 0 3.6 50 18:41 12.04.2020
4835 Clouds 17 1014 30 0 4.1 30 18:23 12.04.2020
4836 Clouds 18 1014 32 0 3.1 0 17:58 12.04.2020
4837 Clouds 18 1014 32 0 3.1 0 17:40 12.04.2020
4838 Clouds 17 1015 37 0 1.5 250 17:21 12.04.2020
4839 Clouds 17 1015 30 0 2.6 270 16:58 12.04.2020
4840 Clouds 17 1015 30 0 2.6 270 16:39 12.04.2020
4841 Clouds 17 1015 32 0 2.6 260 16:20 12.04.2020
4842 Clouds 17 1016 34 0 3.1 250 15:47 12.04.2020
4843 Clouds 17 1016 34 0 3.1 250 15:29 12.04.2020
4844 Rain 17 1016 39 0 2.1 240 14:54 12.04.2020
4845 Rain 17 1016 39 0 2.1 240 14:36 12.04.2020
4846 Rain 17 1017 39 0 4.1 250 14:18 12.04.2020
4847 Rain 17 1017 39 0 4.1 250 14:18 12.04.2020
4848 Rain 18 1017 39 0 4.1 270 13:41 12.04.2020
4849 Rain 18 1018 42 0 2.6 280 13:23 12.04.2020
4850 Rain 17 1018 42 0 2.6 260 12:55 12.04.2020
4851 Rain 17 1018 42 0 2.6 260 12:37 12.04.2020
4852 Clouds 17 1019 42 0 1.5 280 12:18 12.04.2020
4853 Clouds 17 1019 45 0 1.5 270 11:42 12.04.2020
4854 Clouds 17 1020 41 0 0.5 0 11:22 12.04.2020
4855 Clouds 15 1020 54 0 1.35 183 10:58 12.04.2020
4856 Clouds 15 1020 54 0 1.35 183 10:40 12.04.2020
4857 Clouds 15 1020 50 0 0.5 0 10:21 12.04.2020
4858 -273 0 0 0 0 0 09:59 12.04.2020
4859 Clouds 12 1021 62 0 1.35 183 09:39 12.04.2020
4860 Clouds 9 1021 76 0 1.5 100 09:21 12.04.2020
4861 Clouds 8 1021 81 0 0.5 0 08:52 12.04.2020
4862 Clouds 8 1021 81 0 0.5 0 08:33 12.04.2020
4863 Clouds 6 1021 86 0 1 100 07:58 12.04.2020
4864 Clouds 6 1021 86 0 1 100 07:40 12.04.2020
4865 Clouds 6 1021 80 0 0.5 0 07:18 12.04.2020
4866 Clouds 6 1021 80 0 1 0 06:33 12.04.2020
4867 Clear 5 1021 80 0 1 120 05:50 12.04.2020
4868 Clear 5 1022 93 0 1 0 05:28 12.04.2020
4869 Clear 7 1022 75 0 0.54 230 03:38 12.04.2020
4870 Clear 7 1022 81 0 1.5 110 02:57 12.04.2020
4871 Clear 7 1022 81 0 1.5 110 02:34 12.04.2020
4872 Clear 8 1022 70 0 1.32 192 01:34 12.04.2020
4873 Clear 10 1022 61 0 1.5 100 00:57 12.04.2020
4874 Clear 10 1022 61 0 1.5 100 00:39 12.04.2020
4875 Clear 9 1022 66 0 1.5 130 00:19 12.04.2020
4876 Clear 9 1022 62 0 3.1 100 23:46 11.04.2020
4877 Clear 10 1022 66 0 3.6 100 23:24 11.04.2020
4878 Clear 10 1022 50 0 4.1 90 22:41 11.04.2020
4879 Clouds 11 1022 58 0 3.6 90 22:22 11.04.2020
4880 Clouds 11 1021 50 0 3.6 100 21:57 11.04.2020
4881 Clouds 12 1021 50 0 3.6 100 21:37 11.04.2020
4882 Rain 12 1021 44 0 2.1 90 21:19 11.04.2020
4883 Rain 13 1021 39 0 2.6 50 20:57 11.04.2020
4884 Rain 14 1021 39 0 2.6 50 20:39 11.04.2020
4885 Rain 15 1020 34 0 5.1 30 20:20 11.04.2020
4886 Rain 16 1020 32 0 5.1 20 19:58 11.04.2020
4887 Rain 16 1020 32 0 5.1 20 19:38 11.04.2020
4888 Rain 18 1020 34 0 3.6 0 19:19 11.04.2020
4889 Rain 19 1020 30 0 4.1 30 18:56 11.04.2020
4890 Rain 19 1020 30 0 4.1 30 18:38 11.04.2020
4891 Rain 19 1020 30 0 4.1 30 18:38 11.04.2020
4892 Clouds 19 1020 30 0 4.1 40 18:20 11.04.2020
4893 Clouds 20 1020 35 0 5.1 50 17:58 11.04.2020
4894 Clouds 18 1020 35 0 5.1 50 17:40 11.04.2020
4895 Clouds 20 1020 30 0 4.1 50 17:20 11.04.2020
4896 Clouds 18 1020 33 0 4.6 50 16:55 11.04.2020
4897 Clouds 18 1020 33 0 4.6 50 16:37 11.04.2020
4898 Clouds 18 1021 24 0 1.5 240 16:18 11.04.2020
4899 Clouds 17 1021 30 0 1 0 15:37 11.04.2020
4900 Clear 18 1022 32 0 1.5 280 15:18 11.04.2020
4901 Clear 19 1022 34 0 2.6 260 14:42 11.04.2020
4902 Clear 18 1022 37 0 3.6 250 14:24 11.04.2020
4903 Clear 18 1023 37 0 4.1 250 13:59 11.04.2020
4904 Clear 18 1023 37 0 4.1 250 13:39 11.04.2020
4905 Clear 18 1023 36 0 4.1 250 13:19 11.04.2020
4906 Clear 17 1023 45 0 4.1 260 12:42 11.04.2020
4907 Clear 16 1023 42 0 3.1 270 12:20 11.04.2020
4908 Clear 15 1023 44 0 2.1 280 11:57 11.04.2020
4909 Clear 16 1023 44 0 2.1 280 11:39 11.04.2020
4910 Clear 15 1023 44 0 1.5 260 11:19 11.04.2020
4911 Clear 14 1024 50 0 0.5 0 10:43 11.04.2020
4912 Clear 12 1024 54 0 1.38 359 10:22 11.04.2020
4913 Clear 11 1024 54 0 1.38 359 09:59 11.04.2020
4914 Clear 11 1024 54 0 1.45 11 09:39 11.04.2020
4915 Clear 9 1024 66 0 1.32 343 09:21 11.04.2020
4916 Clear 7 1024 81 0 0.5 0 08:50 11.04.2020
4917 Clear 6 1024 86 0 1 0 08:28 11.04.2020
4918 Clear 6 1024 41 0 1.5 110 07:54 11.04.2020
4919 Clear 6 1023 93 0 0.5 0 07:34 11.04.2020
4920 Clear 6 1023 80 0 1.32 343 06:55 11.04.2020
4921 Clear 5 1023 86 0 1.32 343 06:34 11.04.2020
4922 Clear 5 1023 80 0 1.18 340 05:56 11.04.2020
4923 Clear 6 1023 75 0 1.18 340 03:42 11.04.2020
4924 Clear 7 1023 75 0 1 80 02:49 11.04.2020
4925 Clear 8 1023 66 0 0.48 251 01:25 11.04.2020
4926 Clear 8 1023 70 0 1.5 80 00:44 11.04.2020
4927 Clear 9 1023 66 0 2.6 110 00:20 11.04.2020
4928 Clear 10 1023 57 0 3.6 90 23:59 10.04.2020
4929 Clear 10 1023 57 0 3.6 90 23:40 10.04.2020
4930 Clear 10 1023 50 0 4.1 100 23:19 10.04.2020
4931 Clear 10 1022 50 0 4.1 100 22:55 10.04.2020
4932 Clear 10 1022 50 0 4.1 100 22:37 10.04.2020
4933 Clear 11 1022 54 0 3.6 80 22:18 10.04.2020
4934 Clear 11 1022 54 0 3.6 80 22:18 10.04.2020
4935 Clear 12 1022 44 0 4.1 90 21:41 10.04.2020
4936 Clear 13 1022 44 10000 2.6 270 21:20 10.04.2020
4937 Clouds 13 1021 39 0 3.6 40 20:57 10.04.2020
4938 Clouds 13 1021 39 0 3.6 40 20:38 10.04.2020
4939 Clouds 15 1021 34 0 4.6 30 20:19 10.04.2020
4940 Clouds 16 1021 32 0 4.1 20 19:54 10.04.2020
4941 Clouds 16 1021 32 0 4.1 20 19:36 10.04.2020
4942 Clouds 16 1021 32 0 3.6 0 19:18 10.04.2020
4943 Clouds 17 1021 32 0 3.6 30 18:55 10.04.2020
4944 Clouds 19 1021 32 0 3.6 30 18:36 10.04.2020
4945 Clear 19 1021 32 0 4.1 0 18:18 10.04.2020
4946 Clear 19 1021 32 0 4.1 50 17:56 10.04.2020
4947 Clear 18 1021 32 0 4.1 50 17:37 10.04.2020
4948 Clear 18 1021 28 0 3.1 0 17:18 10.04.2020
4949 Clear 18 1021 28 0 1.5 240 16:41 10.04.2020
4950 Clear 17 1022 32 0 1.5 260 16:23 10.04.2020
4951 Clear 19 1022 30 0 2.6 270 15:58 10.04.2020
4952 Clear 19 1022 30 0 2.6 270 15:38 10.04.2020
4953 Clear 19 1022 32 0 2.6 270 15:20 10.04.2020
4954 Clear 18 1022 34 0 2.6 260 14:58 10.04.2020
4955 Clear 19 1022 34 0 2.6 260 14:39 10.04.2020
4956 Clear 19 1022 34 0 2.6 260 14:39 10.04.2020
4957 Clear 18 1023 34 0 3.1 270 14:20 10.04.2020
4958 Clear 18 1023 34 0 3.1 270 14:20 10.04.2020
4959 Clear 18 1023 39 0 3.1 260 13:45 10.04.2020
4960 Clear 17 1023 39 0 3.6 250 13:22 10.04.2020
4961 Clear 17 1023 45 0 4.1 270 12:55 10.04.2020
4962 Clear 17 1023 45 0 4.1 270 12:37 10.04.2020
4963 Clear 16 1023 41 0 2.6 270 12:19 10.04.2020
4964 Clear 15 1024 44 0 2.1 280 11:42 10.04.2020
4965 Clear 15 1024 51 0 1.5 280 11:24 10.04.2020
4966 Clear 14 1024 50 0 1 0 10:56 10.04.2020
4967 Clear 13 1024 50 0 1 0 10:37 10.04.2020
4968 Clear 12 1024 54 0 0.73 210 10:19 10.04.2020
4969 Clear 10 1024 66 0 1 0 09:43 10.04.2020
4970 Clear 8 1024 66 0 0.88 232 09:21 10.04.2020
4971 Clear 6 1024 81 0 0.88 232 08:48 10.04.2020
4972 Clear 5 1024 38 0 1 130 08:27 10.04.2020
4973 Clear 5 1024 38 0 1 0 07:54 10.04.2020
4974 Clear 5 1024 38 0 1 0 07:36 10.04.2020
4975 Clear 5 1024 80 0 1 0 07:18 10.04.2020
4976 Clear 5 1024 75 0 0.88 232 06:30 10.04.2020
4977 Clear 5 1024 86 0 1.5 0 05:59 10.04.2020
4978 Clear 5 1023 93 0 1.5 90 05:25 10.04.2020
4979 Clear 5 1024 75 0 0.5 0 04:53 10.04.2020
4980 Clear 5 1023 86 0 1 0 03:34 10.04.2020
4981 Clear 6 1023 70 0 0.07 193 02:51 10.04.2020
4982 Clear 7 1024 75 0 0.5 0 02:32 10.04.2020
4983 Clear 8 1024 66 0 0.5 150 01:43 10.04.2020
4984 Clear 8 1024 70 0 2.6 110 01:25 10.04.2020
4985 Clear 9 1024 66 0 4.1 110 00:45 10.04.2020
4986 Clear 9 1023 61 0 3.6 90 00:20 10.04.2020
4987 Clear 9 1023 62 0 4.1 90 23:41 09.04.2020
4988 Clear 8 1023 66 0 3.6 100 23:23 09.04.2020
4989 Clear 9 1023 58 0 3.6 90 22:56 09.04.2020
4990 Clear 9 1023 58 0 3.6 90 22:38 09.04.2020
4991 Clear 10 1023 58 0 3.1 90 22:20 09.04.2020
4992 Clear 11 1023 47 0 2.6 90 21:38 09.04.2020
4993 Rain 12 1022 34 0 1.5 0 21:19 09.04.2020
4994 Rain 13 1022 34 0 2.1 0 20:47 09.04.2020
4995 Rain 15 1022 34 0 1.5 0 20:22 09.04.2020
4996 Clouds 16 1022 32 0 3.1 0 19:59 09.04.2020
4997 Clouds 16 1022 32 0 3.1 0 19:59 09.04.2020
4998 Clouds 17 1021 28 0 1.5 0 19:38 09.04.2020
4999 Clouds 17 1021 28 0 1.5 0 19:20 09.04.2020
5000 Rain 18 1021 30 0 3.1 0 18:42 09.04.2020
5001 Clouds 18 1021 32 0 4.1 0 18:20 09.04.2020
5002 Clouds 16 1021 32 0 5.7 60 17:43 09.04.2020
5003 Clouds 16 1022 28 10000 2.6 360 17:25 09.04.2020
5004 Clouds 16 1022 30 10000 3.6 20 17:00 09.04.2020
5005 Clouds 18 1022 30 10000 3.6 20 16:39 09.04.2020
5006 Clouds 18 1022 30 10000 2.6 0 16:19 09.04.2020
5007 Clouds 18 1022 32 10000 5.7 60 15:56 09.04.2020
5008 Clouds 16 1022 32 10000 5.7 60 15:37 09.04.2020
5009 Clouds 16 1022 32 10000 6.2 50 15:19 09.04.2020
5010 Clouds 18 1022 32 10000 5.7 60 14:42 09.04.2020
5011 Clouds 17 1023 32 10000 4.1 90 14:21 09.04.2020
5012 Clouds 17 1023 36 10000 2.1 0 13:57 09.04.2020
5013 Clouds 17 1023 36 10000 2.1 0 13:39 09.04.2020
5014 Clouds 16 1023 42 0 2.1 270 13:21 09.04.2020
5015 Clouds 15 1024 44 0 2.6 270 12:43 09.04.2020
5016 Clouds 15 1024 48 0 2.1 270 12:24 09.04.2020
5017 Clouds 14 1024 54 10000 0.5 0 11:59 09.04.2020
5018 Clouds 14 1024 54 10000 0.5 0 11:41 09.04.2020
5019 Clouds 14 1024 47 10000 1.93 6 11:20 09.04.2020
5020 Clouds 13 1025 54 10000 0.5 0 10:58 09.04.2020
5021 Clouds 12 1025 54 10000 0.5 0 10:39 09.04.2020
5022 Clouds 11 1025 62 10000 1.93 6 10:20 09.04.2020
5023 Clouds 9 1025 70 10000 1.93 6 09:56 09.04.2020
5024 Clouds 9 1025 70 10000 1.93 6 09:38 09.04.2020
5025 Clouds 7 1025 66 10000 1.79 349 09:19 09.04.2020
5026 Clouds 7 1025 81 10000 1.79 349 08:43 09.04.2020
5027 Clouds 5 1025 80 10000 1.79 349 08:23 09.04.2020
5028 Clouds 5 1024 86 0 1.79 349 07:55 09.04.2020
5029 Clear 5 1024 86 10000 1.79 349 07:27 09.04.2020
5030 Clear 5 1024 86 0 0.5 0 06:55 09.04.2020
5031 Clear 4 1024 86 0 1.17 347 05:59 09.04.2020
5032 Clear 4 1024 86 0 1.17 347 05:39 09.04.2020
5033 Clear 5 1024 86 0 1.5 80 03:50 09.04.2020
5034 Clear 7 1024 75 0 0.87 341 02:27 09.04.2020
5035 Clouds 6 1024 65 0 0.72 332 01:40 09.04.2020
5036 Clouds 8 1024 70 0 1 0 01:20 09.04.2020
5037 Clouds 7 1024 65 0 0.72 332 00:41 09.04.2020
5038 Clouds 8 1024 61 0 2.6 120 00:20 09.04.2020
5039 Clouds 9 1024 53 0 3.6 100 23:58 08.04.2020
5040 Clouds 9 1024 53 0 3.6 100 23:40 08.04.2020
5041 Clouds 9 1024 50 0 3.6 100 23:20 08.04.2020
5042 Clouds 10 1024 50 0 3.6 80 22:43 08.04.2020
5043 Clouds 10 1024 50 0 3.6 80 22:24 08.04.2020
5044 Clouds 10 1024 43 0 4.1 80 21:56 08.04.2020
5045 Clouds 12 1023 44 0 3.1 90 21:37 08.04.2020
5046 Clear 12 1023 44 0 3.1 90 21:19 08.04.2020
5047 Clouds 13 1023 31 0 2.1 0 20:57 08.04.2020
5048 Clouds 13 1023 31 0 2.1 0 20:38 08.04.2020
5049 Clouds 15 1023 31 0 2.1 0 20:20 08.04.2020
5050 Clouds 15 1023 32 0 3.6 30 19:42 08.04.2020
5051 Clear 15 1022 32 0 2.6 0 19:22 08.04.2020
5052 Clear 17 1022 32 0 2.6 0 18:59 08.04.2020
5053 Clear 18 1022 28 0 3.6 40 18:40 08.04.2020
5054 Clouds 18 1023 26 0 3.1 250 18:22 08.04.2020
5055 Clouds 18 1023 26 0 3.1 250 17:44 08.04.2020
5056 Clouds 19 1023 28 10000 2.6 270 17:22 08.04.2020
5057 Clouds 19 1023 28 10000 2.6 270 17:22 08.04.2020
5058 Clouds 17 1023 28 10000 2.6 270 16:59 08.04.2020
5059 Clouds 17 1023 28 10000 2.6 270 16:41 08.04.2020
5060 Clouds 19 1024 32 10000 2.6 270 16:22 08.04.2020
5061 Clouds 16 1024 30 10000 3.6 260 15:40 08.04.2020
5062 Clouds 18 1025 29 10000 3.1 250 15:21 08.04.2020
5063 Clouds 18 1025 29 10000 3.1 250 14:59 08.04.2020
5064 Clouds 18 1025 29 10000 3.1 250 14:41 08.04.2020
5065 Clouds 17 1025 31 10000 3.6 260 14:22 08.04.2020
5066 Clouds 17 1025 31 10000 3.6 260 14:22 08.04.2020
5067 Clouds 17 1025 31 10000 3.1 260 13:45 08.04.2020
5068 Clear 17 1026 27 0 3.1 260 13:22 08.04.2020
5069 Clear 16 1026 33 0 2.1 270 12:59 08.04.2020
5070 Clear 16 1026 33 0 2.1 270 12:41 08.04.2020
5071 Clear 15 1027 38 10000 1.5 260 12:18 08.04.2020
5072 Clear 14 1027 41 10000 0.36 203 11:42 08.04.2020
5073 Clouds 14 1027 30 10000 0.36 203 11:23 08.04.2020
5074 Clouds 14 1028 35 10000 0.36 203 10:59 08.04.2020
5075 Clouds 13 1028 41 10000 1 0 10:41 08.04.2020
5076 Clouds 13 1028 41 10000 1 0 10:21 08.04.2020
5077 Clouds 11 1028 57 10000 0.5 0 09:59 08.04.2020
5078 Clouds 10 1028 57 10000 0.5 0 09:41 08.04.2020
5079 Clouds 7 1028 38 10000 1 130 09:19 08.04.2020
5080 Clouds 5 1028 38 10000 0.5 0 08:58 08.04.2020
5081 Clouds 5 1028 38 10000 0.5 0 08:40 08.04.2020
5082 Clear 5 1027 70 10000 2.6 220 08:21 08.04.2020
5083 Clear 4 1028 86 10000 1 0 07:43 08.04.2020
5084 Clear 4 1027 38 10000 0.5 0 07:22 08.04.2020
5085 Clear 4 1027 69 0 0.43 277 06:33 08.04.2020
5086 Clear 4 1027 74 0 1 0 05:22 08.04.2020
5087 Clear 6 1028 74 0 1 0 02:51 08.04.2020
5088 Clear 6 1027 69 0 1.78 196 02:22 08.04.2020
5089 Clear 6 1027 43 0 1 0 01:56 08.04.2020
5090 Clear 7 1027 43 0 1.78 196 01:28 08.04.2020
5091 Clear 7 1027 43 0 1.78 196 01:28 08.04.2020
5092 Clear 7 1027 43 0 0.5 0 00:49 08.04.2020
5093 Clear 7 1027 43 0 1.5 90 00:31 08.04.2020
5094 Clear 8 1027 43 0 1 0 23:57 07.04.2020
5095 Clear 8 1027 43 0 1 0 23:38 07.04.2020
5096 Clear 8 1027 43 0 2.19 187 23:19 07.04.2020
5097 Clear 9 1026 43 0 2.19 187 22:56 07.04.2020
5098 Clear 9 1026 43 0 2.19 187 22:38 07.04.2020
5099 Clear 9 1026 43 0 2.19 187 22:18 07.04.2020
5100 Clear 10 1026 43 0 1 0 21:42 07.04.2020
5101 Clear 11 1025 53 0 2.6 100 21:22 07.04.2020
5102 Clear 11 1025 46 0 3.1 100 20:59 07.04.2020
5103 Clear 11 1025 46 0 3.1 100 20:59 07.04.2020
5104 Clear 12 1025 44 0 3.1 110 20:41 07.04.2020
5105 Clear 14 1025 44 0 3.1 110 20:21 07.04.2020
5106 Clear 15 1025 29 0 5.1 40 19:58 07.04.2020
5107 Clear 17 1025 30 0 5.1 50 19:38 07.04.2020
5108 Clear 16 1025 30 0 5.1 50 19:20 07.04.2020
5109 Clear 16 1025 30 0 5.1 40 18:59 07.04.2020
5110 Clear 18 1025 30 0 5.1 40 18:40 07.04.2020
5111 Clear 17 1025 30 0 5.1 60 18:21 07.04.2020
5112 Clear 17 1025 30 0 5.1 60 17:47 07.04.2020
5113 Clear 19 1025 28 10000 5.7 60 17:25 07.04.2020
5114 Clear 17 1025 28 10000 5.7 60 16:59 07.04.2020
5115 Clear 17 1025 28 10000 4.6 60 16:41 07.04.2020
5116 Clear 17 1025 28 10000 4.6 60 16:41 07.04.2020
5117 Clear 16 1026 32 10000 3.6 0 16:22 07.04.2020
5118 Clear 16 1026 32 10000 3.6 0 15:44 07.04.2020
5119 Clear 16 1026 32 10000 5.1 50 15:26 07.04.2020
5120 Clear 16 1026 32 10000 4.1 60 14:55 07.04.2020
5121 Clear 16 1026 32 10000 4.1 60 14:37 07.04.2020
5122 Clear 17 1027 31 10000 2.1 0 14:18 07.04.2020
5123 Clear 17 1027 31 10000 3.1 0 13:42 07.04.2020
5124 Clear 16 1027 39 0 2.1 270 13:19 07.04.2020
5125 Clear 16 1027 39 0 2.1 270 12:57 07.04.2020
5126 Clear 16 1027 39 0 2.1 270 12:37 07.04.2020
5127 Clear 14 1028 38 10000 2.6 270 12:19 07.04.2020
5128 Clear 13 1028 44 10000 2.1 260 11:56 07.04.2020
5129 Clear 13 1028 44 10000 2.1 260 11:38 07.04.2020
5130 Clear 12 1028 43 10000 1 0 11:19 07.04.2020
5131 Clear 12 1028 37 10000 1 0 10:39 07.04.2020
5132 Clear 11 1029 46 10000 0.62 110 10:20 07.04.2020
5133 Clear 9 1029 57 10000 0.62 110 09:54 07.04.2020
5134 Clear 8 1029 57 10000 0.8 87 09:36 07.04.2020
5135 Clear 6 1029 41 10000 0.98 14 09:18 07.04.2020
5136 Clear 5 1029 41 10000 0.98 14 08:39 07.04.2020
5137 Clear 3 1029 80 10000 0.98 14 08:20 07.04.2020
5138 Clear 3 1029 80 10000 1.5 100 07:44 07.04.2020
5139 Clear 3 1029 80 10000 2.1 80 07:26 07.04.2020
5140 Clear 3 1029 41 0 1 90 06:52 07.04.2020
5141 Clear 3 1029 80 0 1 0 06:25 07.04.2020
5142 Clear 3 1029 74 0 0.5 0 05:54 07.04.2020
5143 Clear 4 1028 74 0 0.2 355 05:25 07.04.2020
5144 Clear 4 1028 44 0 1 90 03:36 07.04.2020
5145 Clear 4 1028 45 0 0.5 90 03:18 07.04.2020
5146 Clear 5 1028 65 10000 1.5 240 02:36 07.04.2020
5147 Clear 5 1028 70 0 0.7 207 01:34 07.04.2020
5148 Clear 6 1027 65 0 1 0 00:54 07.04.2020
5149 Clear 7 1027 45 0 2.1 100 00:25 07.04.2020
5150 Clear 7 1027 65 0 2.6 100 23:41 06.04.2020
5151 Clear 8 1027 57 0 2.6 110 23:21 06.04.2020
5152 Clear 8 1026 70 0 3.1 100 22:54 06.04.2020
5153 Clear 8 1026 70 0 3.1 100 22:36 06.04.2020
5154 Clear 8 1026 57 0 3.6 100 22:18 06.04.2020
5155 Clear 9 1026 50 0 3.6 90 21:42 06.04.2020
5156 Clear 10 1025 43 0 3.6 90 21:20 06.04.2020
5157 Clear 10 1025 50 0 2.6 100 20:57 06.04.2020
5158 Clear 11 1025 50 0 2.6 100 20:39 06.04.2020
5159 Clear 12 1024 44 0 0.5 0 20:21 06.04.2020
5160 Clear 13 1024 36 0 0.5 0 19:57 06.04.2020
5161 Clear 14 1024 36 0 0.5 0 19:38 06.04.2020
5162 Clear 14 1024 36 0 1 0 19:20 06.04.2020
5163 Clear 15 1024 37 0 3.6 250 18:42 06.04.2020
5164 Clear 15 1023 34 0 4.6 260 18:23 06.04.2020
5165 Clear 15 1023 32 0 4.1 250 17:57 06.04.2020
5166 Clear 16 1023 32 0 4.1 250 17:39 06.04.2020
5167 Clouds 17 1023 29 10000 4.1 250 17:18 06.04.2020
5168 Clouds 16 1023 32 10000 4.6 250 16:48 06.04.2020
5169 Clear 16 1024 27 10000 4.1 250 16:30 06.04.2020
5170 Clear 16 1024 39 10000 1.5 0 14:49 06.04.2020
5171 Clear 16 1024 39 10000 1.5 0 14:49 06.04.2020
5172 Clear 16 1024 39 10000 1.5 0 14:49 06.04.2020
5173 Clear 16 1024 43 10000 5.1 260 13:45 06.04.2020
5174 Clear 16 1024 43 10000 5.1 260 13:45 06.04.2020
5175 Clear 16 1024 43 0 4.6 250 13:22 06.04.2020
5176 Clear 15 1024 43 0 6.2 260 12:46 06.04.2020
5177 Clear 14 1024 33 10000 3.1 270 12:19 06.04.2020
5178 Clear 13 1024 37 10000 1.5 260 11:40 06.04.2020
5179 Clear 13 1024 37 10000 1.5 260 11:40 06.04.2020
5180 Clear 12 1024 44 10000 2.1 270 11:03 06.04.2020
5181 Clear 12 1024 44 10000 2.1 270 11:03 06.04.2020
5182 Clear 12 1024 44 10000 2.1 270 11:03 06.04.2020
5183 Clear 12 1024 44 10000 2.1 270 11:03 06.04.2020
5184 Clear 12 1024 43 10000 1.5 280 10:38 06.04.2020
5185 Clear 12 1024 43 10000 1.5 280 10:38 06.04.2020
5186 Clear 12 1024 43 10000 1.5 280 10:38 06.04.2020
5187 Clear 11 1024 53 10000 2.1 280 10:19 06.04.2020
5188 Clear 11 1024 53 10000 2.1 280 10:19 06.04.2020
5189 Clear 11 1024 53 10000 2.1 280 10:19 06.04.2020
5190 Clear 11 1024 53 10000 2.1 280 10:19 06.04.2020
5191 Clear 8 1024 49 10000 1 0 09:39 06.04.2020
5192 Clear 8 1024 49 10000 1 0 09:39 06.04.2020
5193 Clear 8 1024 49 10000 1 0 09:39 06.04.2020
5194 Clear 8 1024 49 10000 1 0 09:39 06.04.2020
5195 Clouds 5 1024 60 10000 1.78 185 09:19 06.04.2020
5196 Clear 5 1024 60 10000 2.01 184 09:19 06.04.2020
5197 Clouds 4 1023 74 10000 1.78 185 08:43 06.04.2020
5198 Clouds 4 1023 74 10000 1.78 185 08:43 06.04.2020
5199 Clouds 4 1023 74 10000 1.78 185 08:43 06.04.2020
5200 Clouds 4 1023 74 10000 1.78 185 08:43 06.04.2020
5201 Clouds 4 1023 74 10000 1.78 185 08:43 06.04.2020
5202 Clouds 3 1023 74 10000 1.78 185 08:23 06.04.2020
5203 Clouds 2 1023 52 10000 2.6 100 07:22 06.04.2020
5204 Clouds 2 1023 52 10000 2.6 100 07:22 06.04.2020
5205 Clouds 3 1023 74 0 1.78 185 06:27 06.04.2020
5206 Clouds 3 1022 86 0 1 0 05:47 06.04.2020
5207 Clouds 4 1021 55 0 1 0 03:56 06.04.2020
5208 Clear 4 1020 53 0 1 0 02:51 06.04.2020
5209 Clear 4 1020 75 0 1 0 01:54 06.04.2020
5210 Clear 6 1020 54 0 1 0 00:54 06.04.2020
5211 Clear 6 1020 54 0 1 0 00:28 06.04.2020
5212 Clear 7 1020 51 0 1.5 290 23:51 05.04.2020
5213 Clear 7 1020 51 0 1.5 290 23:33 05.04.2020
5214 Clear 7 1020 51 0 1 0 22:57 05.04.2020
5215 Clear 7 1020 51 0 1.5 0 22:39 05.04.2020
5216 Clear 8 1019 65 0 2.6 90 22:21 05.04.2020
5217 Clear 8 1019 65 0 2.6 90 21:59 05.04.2020
5218 Clear 9 1019 50 10000 2.1 260 21:41 05.04.2020
5219 Clear 9 1019 51 0 4.1 80 21:22 05.04.2020
5220 Clear 9 1019 51 0 4.1 80 21:22 05.04.2020
5221 Clouds 11 1019 33 0 6.2 40 20:22 05.04.2020
5222 Clouds 12 1018 29 0 5.1 30 19:43 05.04.2020
5223 Clouds 15 1018 27 0 5.7 40 19:22 05.04.2020
5224 Clouds 14 1018 27 0 6.2 40 18:48 05.04.2020
5225 Clouds 15 1018 29 0 7.7 40 18:18 05.04.2020
5226 Clouds 14 1018 27 0 7.2 40 17:44 05.04.2020
5227 Clouds 14 1018 27 0 7.2 40 17:43 05.04.2020
5228 Clouds 14 1018 27 0 7.2 40 17:43 05.04.2020
5229 Clouds 14 1018 27 0 7.2 40 17:43 05.04.2020
5230 Clouds 14 1018 27 0 7.2 40 17:43 05.04.2020
5231 Clouds 15 1019 27 0 6.7 40 17:21 05.04.2020
5232 Clouds 15 1019 27 0 6.7 40 17:21 05.04.2020
5233 Clouds 15 1019 27 0 6.7 40 17:21 05.04.2020
5234 Clouds 15 1019 27 0 6.7 50 16:47 05.04.2020
5235 Clouds 15 1019 27 0 6.7 50 16:47 05.04.2020
5236 Clouds 15 1019 27 0 6.7 50 16:47 05.04.2020
5237 Clouds 14 1019 27 0 4.6 30 16:19 05.04.2020
5238 Clouds 16 1020 29 0 1 0 15:45 05.04.2020
5239 Clouds 16 1020 29 0 1 0 15:45 05.04.2020
5240 Clouds 16 1020 29 0 1 0 15:25 05.04.2020
5241 Clouds 16 1020 26 0 2.6 250 14:48 05.04.2020
5242 Clouds 16 1020 26 0 2.6 250 14:48 05.04.2020
5243 Clouds 16 1020 26 0 2.6 250 14:48 05.04.2020
5244 Clouds 16 1020 26 0 2.6 250 14:48 05.04.2020
5245 Clouds 16 1020 26 0 2.6 250 14:48 05.04.2020
5246 Clouds 14 1021 46 0 3.1 260 13:59 05.04.2020
5247 Clouds 14 1021 35 0 4.1 250 13:40 05.04.2020
5248 Clouds 14 1021 35 0 4.1 250 13:40 05.04.2020
5249 Clouds 14 1021 35 0 4.1 250 13:40 05.04.2020
5250 Clouds 14 1021 35 0 4.1 250 13:40 05.04.2020
5251 Clouds 14 1021 35 0 4.1 250 13:40 05.04.2020
5252 Clouds 11 1022 43 0 3.1 270 12:00 05.04.2020
5253 Clouds 11 1022 43 0 3.1 270 12:00 05.04.2020
5254 Clouds 11 1022 43 0 3.1 270 12:00 05.04.2020
5255 Clouds 10 1022 34 0 1 0 11:39 05.04.2020
5256 Clouds 9 1022 34 0 0.5 0 11:19 05.04.2020
5257 Clouds 8 1022 39 0 2.15 181 10:47 05.04.2020
5258 Clouds 8 1022 39 0 2.15 181 10:47 05.04.2020
5259 Clouds 8 1023 45 0 2.15 181 10:22 05.04.2020
5260 Clouds 6 1023 56 0 2.15 181 09:53 05.04.2020
5261 Clouds 4 1023 69 0 1 0 09:25 05.04.2020
5262 Clouds 4 1023 69 0 1 0 09:25 05.04.2020
5263 Clouds 4 1023 69 0 1 0 09:25 05.04.2020
5264 Clouds 6 1023 56 0 2.15 181 09:25 05.04.2020
5265 Clouds 4 1023 69 0 1 0 09:25 05.04.2020
5266 Clouds 2 1023 86 0 2.06 190 08:18 05.04.2020
5267 Clouds 1 1022 50 0 2.55 184 05:37 05.04.2020
5268 Clouds 1 1022 50 0 2.55 184 05:37 05.04.2020
5269 Clouds 1 1022 50 0 2.55 184 05:37 05.04.2020
5270 Clouds 1 1022 50 0 2.55 184 05:37 05.04.2020
5271 Clouds 1 1022 50 0 2.55 184 05:37 05.04.2020
5272 Clouds 2 1022 74 0 2.55 184 04:29 05.04.2020
5273 Clouds 2 1022 74 0 2.55 184 04:29 05.04.2020
5274 Clouds 2 1022 50 0 2.1 90 03:27 05.04.2020
5275 Clouds 3 1022 74 0 2.37 179 02:18 05.04.2020
5276 Clouds 3 1022 69 0 2.37 179 01:42 05.04.2020
5277 Clouds 3 1022 49 0 3.6 90 00:52 05.04.2020
5278 Clouds 3 1022 49 0 3.6 90 00:52 05.04.2020
5279 Clouds 4 1022 49 0 4.1 90 00:23 05.04.2020
5280 Clear 5 1022 49 0 4.1 90 23:58 04.04.2020
5281 Clear 5 1022 49 0 3.6 100 23:39 04.04.2020
5282 Clear 5 1022 65 0 4.1 100 23:21 04.04.2020
5283 Clear 5 1022 65 0 4.1 100 22:56 04.04.2020
5284 Clear 5 1022 65 0 4.1 90 22:38 04.04.2020
5285 Clear 6 1021 61 0 3.6 90 22:19 04.04.2020
5286 Clear 6 1021 61 0 3.6 90 21:56 04.04.2020
5287 Clear 6 1021 61 0 3.1 90 21:38 04.04.2020
5288 Clouds 7 1021 53 0 3.6 70 21:18 04.04.2020
5289 Clouds 8 1021 48 0 4.6 40 20:43 04.04.2020
5290 Clouds 9 1021 48 0 4.6 40 20:23 04.04.2020
5291 Clouds 9 1020 48 0 5.1 40 19:59 04.04.2020
5292 Clouds 9 1020 48 0 5.1 40 19:59 04.04.2020
5293 Clouds 10 1020 48 0 5.7 30 19:40 04.04.2020
5294 Clouds 11 1020 48 0 6.2 30 19:20 04.04.2020
5295 Clouds 11 1020 48 0 6.2 30 18:59 04.04.2020
5296 Clouds 12 1020 41 0 5.1 30 18:39 04.04.2020
5297 Clouds 12 1020 48 0 4.1 20 18:21 04.04.2020
5298 Clouds 12 1020 40 0 4.1 20 17:58 04.04.2020
5299 Clouds 12 1020 40 0 7.2 30 17:38 04.04.2020
5300 Clouds 12 1020 41 0 7.2 40 17:19 04.04.2020
5301 Clouds 12 1020 41 0 6.7 40 16:45 04.04.2020
5302 Clouds 11 1020 41 0 6.7 40 16:27 04.04.2020
5303 Clouds 11 1020 44 0 6.2 40 15:59 04.04.2020
5304 Clouds 11 1020 38 0 3.1 0 15:39 04.04.2020
5305 Clear 11 1020 43 0 2.6 280 15:19 04.04.2020
5306 Clear 11 1020 43 0 2.6 280 15:19 04.04.2020
5307 Clear 11 1020 43 0 2.6 280 14:54 04.04.2020
5308 Clear 11 1020 41 0 2.1 270 14:36 04.04.2020
5309 Clouds 12 1020 44 0 2.6 280 14:18 04.04.2020
5310 Clouds 12 1021 47 0 2.1 0 13:42 04.04.2020
5311 Clouds 12 1021 44 0 6.7 50 13:21 04.04.2020
5312 Clouds 12 1021 44 0 6.7 50 13:21 04.04.2020
5313 Clouds 11 1021 44 0 6.7 50 12:58 04.04.2020
5314 Clouds 11 1021 44 0 4.1 70 12:39 04.04.2020
5315 Clear 10 1021 40 0 4.1 70 12:20 04.04.2020
5316 Clear 8 1021 44 0 1 0 11:42 04.04.2020
5317 Clear 9 1021 52 0 1 0 11:23 04.04.2020
5318 Clear 8 1021 52 0 1 0 10:59 04.04.2020
5319 Clear 7 1021 56 0 1.35 177 10:41 04.04.2020
5320 Clear 6 1021 60 0 0.5 0 10:22 04.04.2020
5321 Clear 6 1021 60 0 0.5 0 09:57 04.04.2020
5322 Clear 5 1021 60 0 1.5 100 09:39 04.04.2020
5323 Clear 2 1021 42 0 1.37 176 09:20 04.04.2020
5324 Clear 1 1021 80 0 1.09 189 08:44 04.04.2020
5325 Clear 1 1021 80 0 1.09 189 08:23 04.04.2020
5326 Clear 0 1021 53 0 0.5 0 07:59 04.04.2020
5327 Clear -1 1020 53 0 1.09 189 07:39 04.04.2020
5328 Clear -1 1020 86 0 1.5 100 07:21 04.04.2020
5329 Clear 0 1020 80 0 1 0 06:38 04.04.2020
5330 Clear 0 1020 56 0 2.1 100 05:52 04.04.2020
5331 Clear 0 1020 56 0 2.1 100 05:52 04.04.2020
5332 Clear 1 1020 56 0 2.1 100 05:33 04.04.2020
5333 Clear 1 1019 80 0 3.1 90 04:34 04.04.2020
5334 Clear 1 1020 80 0 3.6 110 03:57 04.04.2020
5335 Clear 1 1020 80 0 3.6 110 03:36 04.04.2020
5336 Clouds 3 1020 65 0 2.6 80 02:46 04.04.2020
5337 Clouds 2 1020 65 0 2.6 80 02:25 04.04.2020
5338 Clouds 2 1019 52 0 4.6 50 01:31 04.04.2020
5339 Clouds 5 1019 49 0 3.6 60 00:59 04.04.2020
5340 Clouds 4 1019 42 0 4.6 50 00:35 04.04.2020
5341 Clouds 4 1019 45 0 4.6 60 23:59 03.04.2020
5342 Clouds 5 1018 43 0 3.6 80 23:38 03.04.2020
5343 Clouds 5 1018 43 0 3.1 60 23:19 03.04.2020
5344 Clouds 6 1018 39 0 2.6 30 22:41 03.04.2020
5345 Clouds 6 1018 40 0 3.1 20 22:19 03.04.2020
5346 Clouds 6 1018 40 0 3.1 20 21:59 03.04.2020
5347 Clouds 6 1017 40 0 3.1 0 21:40 03.04.2020
5348 Clouds 6 1017 43 0 3.6 20 21:21 03.04.2020
5349 Clouds 6 1017 43 0 3.6 20 20:56 03.04.2020
5350 Clouds 7 1016 43 0 3.1 0 20:36 03.04.2020
5351 Clouds 7 1016 43 0 3.1 0 20:36 03.04.2020
5352 Clouds 8 1016 43 0 3.6 40 20:18 03.04.2020
5353 Clouds 7 1016 43 0 3.6 40 19:56 03.04.2020
5354 Clouds 8 1016 43 0 5.1 40 19:37 03.04.2020
5355 Clouds 8 1016 40 0 5.1 30 19:19 03.04.2020
5356 Clouds 8 1015 40 0 3.6 50 18:58 03.04.2020
5357 Clouds 9 1015 40 0 3.6 50 18:40 03.04.2020
5358 Clouds 9 1015 51 0 4.6 50 18:21 03.04.2020
5359 Clouds 9 1015 40 0 3.6 20 17:42 03.04.2020
5360 Clouds 9 1015 40 0 4.6 20 17:20 03.04.2020
5361 Clouds 9 1015 40 0 4.6 20 16:56 03.04.2020
5362 Clouds 9 1015 37 0 3.6 0 16:38 03.04.2020
5363 Clouds 9 1015 43 0 4.1 40 16:20 03.04.2020
5364 Clouds 9 1015 43 0 4.1 40 15:56 03.04.2020
5365 Clouds 9 1015 37 0 4.1 40 15:37 03.04.2020
5366 Clouds 9 1015 44 0 1.5 0 15:19 03.04.2020
5367 Clouds 7 1015 44 0 2.1 270 14:41 03.04.2020
5368 Clouds 7 1015 44 0 2.1 270 14:22 03.04.2020
5369 Clouds 9 1015 44 0 2.1 270 13:57 03.04.2020
5370 Clouds 9 1015 44 0 2.1 270 13:37 03.04.2020
5371 Clouds 9 1015 44 0 3.1 260 13:18 03.04.2020
5372 Clouds 9 1016 44 0 2.6 270 12:43 03.04.2020
5373 Clouds 8 1015 46 0 2.1 0 12:20 03.04.2020
5374 Clouds 8 1015 45 0 4.1 50 11:56 03.04.2020
5375 Clouds 8 1015 45 0 4.1 50 11:37 03.04.2020
5376 Clouds 7 1015 46 0 1 0 11:18 03.04.2020
5377 Clouds 7 1015 46 0 1 0 10:57 03.04.2020
5378 Clouds 7 1015 46 0 2.2 5 10:38 03.04.2020
5379 Clouds 6 1015 65 0 1 0 10:20 03.04.2020
5380 Clouds 6 1015 65 0 1 0 10:20 03.04.2020
5381 Clouds 6 1015 65 0 1 0 09:57 03.04.2020
5382 Clouds 5 1015 46 0 2.2 5 09:39 03.04.2020
5383 Clouds 5 1015 46 0 2.2 5 09:39 03.04.2020
5384 Clouds 3 1015 46 0 0.5 0 09:21 03.04.2020
5385 Clouds 2 1015 56 0 0.5 0 08:55 03.04.2020
5386 Clouds 2 1015 56 0 2.18 347 08:36 03.04.2020
5387 Clouds 2 1015 56 0 2.18 347 08:18 03.04.2020
5388 Clouds 2 1014 56 0 2.18 347 07:41 03.04.2020
5389 Clouds 2 1014 56 0 2.18 347 07:23 03.04.2020
5390 Clouds 2 1014 56 0 1.5 90 06:38 03.04.2020
5391 Clouds 2 1013 58 0 1.5 70 06:20 03.04.2020
5392 Clouds 2 1014 74 0 2.32 343 05:34 03.04.2020
5393 Clouds 3 1013 58 0 2.32 343 03:40 03.04.2020
5394 Clouds 4 1013 57 0 1 0 02:53 03.04.2020
5395 Clouds 4 1013 57 0 2.1 270 01:36 03.04.2020
5396 Clouds 5 1013 57 0 1 0 01:18 03.04.2020
5397 Clouds 5 1013 56 10000 1.5 260 00:34 03.04.2020
5398 Clouds 4 1012 57 0 1.5 300 23:57 02.04.2020
5399 Clouds 3 1012 57 0 1.5 270 23:39 02.04.2020
5400 Clouds 4 1012 57 0 1.5 260 23:19 02.04.2020
5401 Clouds 4 1012 57 0 1.5 260 23:19 02.04.2020
5402 Clouds 4 1012 57 0 1.5 260 23:19 02.04.2020
5403 Clouds 4 1012 65 0 1 0 22:43 02.04.2020
5404 Clouds 5 1012 65 0 1 0 22:25 02.04.2020
5405 Clouds 6 1011 61 0 1 310 21:59 02.04.2020
5406 Clouds 5 1011 57 0 1.83 338 21:38 02.04.2020
5407 Clouds 6 1011 57 0 0.5 0 21:19 02.04.2020
5408 Clouds 6 1011 57 0 0.5 0 20:55 02.04.2020
5409 Clouds 6 1010 53 0 1 0 20:37 02.04.2020
5410 Clouds 7 1010 40 0 2.1 240 20:19 02.04.2020
5411 Clouds 8 1010 46 0 1.5 260 19:42 02.04.2020
5412 Clouds 10 1010 37 0 4.1 300 19:20 02.04.2020
5413 Clouds 10 1010 37 0 4.1 300 19:20 02.04.2020
5414 Clouds 10 1010 37 0 4.1 300 19:20 02.04.2020
5415 Rain 9 1010 43 0 4.6 310 18:57 02.04.2020
5416 Rain 9 1010 43 0 4.6 310 18:39 02.04.2020
5417 Clouds 11 1010 41 0 1.5 200 18:20 02.04.2020
5418 Clouds 11 1010 41 0 1.5 0 17:55 02.04.2020
5419 Clouds 9 1010 41 0 1.5 0 17:37 02.04.2020
5420 Clouds 11 1010 41 0 2.6 280 17:18 02.04.2020
5421 Clouds 9 1010 41 0 4.1 210 16:55 02.04.2020
5422 Clouds 9 1010 41 0 4.1 210 16:36 02.04.2020
5423 Clouds 9 1010 43 0 4.6 250 16:18 02.04.2020
5424 Clouds 10 1010 41 0 3.6 250 15:42 02.04.2020
5425 Clear 11 1010 37 0 4.1 250 15:20 02.04.2020
5426 Clear 11 1010 37 0 4.1 250 14:58 02.04.2020
5427 Clear 11 1011 40 0 4.1 250 14:39 02.04.2020
5428 Clear 11 1011 38 0 4.6 260 14:19 02.04.2020
5429 Clear 10 1012 43 0 5.1 260 13:55 02.04.2020
5430 Clear 10 1012 43 0 5.1 260 13:37 02.04.2020
5431 Clear 10 1012 43 0 4.1 260 13:19 02.04.2020
5432 Clear 9 1012 46 0 3.6 250 12:47 02.04.2020
5433 Clear 9 1012 42 0 2.6 260 12:21 02.04.2020
5434 Clear 8 1012 42 0 2.6 260 11:58 02.04.2020
5435 Clear 7 1012 45 0 1.5 260 11:39 02.04.2020
5436 Clear 7 1013 52 0 1 0 11:21 02.04.2020
5437 Clear 6 1013 52 0 1 0 10:57 02.04.2020
5438 Clear 6 1013 56 0 1 0 10:39 02.04.2020
5439 Clear 5 1013 65 0 1.3 8 10:21 02.04.2020
5440 Clear 4 1013 65 0 1.3 8 09:59 02.04.2020
5441 Clear 3 1013 64 0 1.3 8 09:41 02.04.2020
5442 Clear 2 1014 80 0 1.4 2 09:23 02.04.2020
5443 Clear 1 1014 80 0 1.68 334 08:57 02.04.2020
5444 Clear 0 1014 86 0 0.5 130 08:38 02.04.2020
5445 Clear -1 1014 86 0 1.68 334 08:19 02.04.2020
5446 Clear -1 1013 86 0 1 90 07:42 02.04.2020
5447 Clear -2 1013 92 0 1.68 334 07:19 02.04.2020
5448 Clear -2 1013 86 0 1.68 334 06:26 02.04.2020
5449 Clear -2 1013 86 0 0.86 309 05:59 02.04.2020
5450 Clear -2 1013 86 0 0.5 0 05:41 02.04.2020
5451 Clouds -1 1014 92 0 2.1 100 02:46 02.04.2020
5452 Clouds 0 1015 60 0 0.6 238 01:30 02.04.2020
5453 Clouds 0 1015 60 0 1.5 90 00:42 02.04.2020
5454 Clouds 0 1015 60 0 1 0 00:24 02.04.2020
5455 Clouds 1 1015 74 0 1 0 23:41 01.04.2020
5456 Clouds 1 1015 69 0 2.6 100 23:20 01.04.2020
5457 Clouds 1 1015 69 0 2.6 100 22:58 01.04.2020
5458 Clouds 1 1015 69 0 3.6 90 22:39 01.04.2020
5459 Clouds 3 1015 69 0 3.6 100 22:21 01.04.2020
5460 Clouds 2 1015 64 0 4.1 110 21:42 01.04.2020
5461 -273 0 0 0 0 0 21:21 01.04.2020
5462 -273 0 0 0 0 0 21:21 01.04.2020
5463 -273 0 0 0 0 0 21:21 01.04.2020
5464 -273 0 0 0 0 0 21:21 01.04.2020
5465 -273 0 0 0 0 0 21:20 01.04.2020
5466 Clouds 4 1014 42 0 6.7 60 20:57 01.04.2020
5467 Clouds 4 1014 42 0 6.7 60 20:39 01.04.2020
5468 Clouds 4 1014 39 0 5.7 40 20:20 01.04.2020
5469 -273 0 0 0 0 0 20:20 01.04.2020
5470 Clouds 5 1014 34 0 5.7 40 19:59 01.04.2020
5471 Clouds 6 1014 34 0 5.7 40 19:40 01.04.2020
5472 Clouds 8 1014 32 0 4.6 60 19:20 01.04.2020
5473 Clouds 9 1014 29 0 3.1 50 18:44 01.04.2020
5474 Clouds 9 1014 32 0 1 0 18:25 01.04.2020
5475 Clouds 8 1014 34 0 1.5 200 17:58 01.04.2020
5476 Clouds 8 1014 34 0 1.5 200 17:38 01.04.2020
5477 Clouds 8 1015 37 0 2.6 250 17:19 01.04.2020
5478 Clouds 8 1015 37 0 2.6 250 16:58 01.04.2020
5479 Clouds 8 1015 37 0 2.6 250 16:58 01.04.2020
5480 Clouds 8 1015 34 0 3.6 260 16:39 01.04.2020
5481 Clouds 9 1015 40 0 2.6 260 16:21 01.04.2020
5482 Clouds 8 1015 40 0 2.6 260 15:57 01.04.2020
5483 Clouds 8 1015 40 0 2.6 260 15:57 01.04.2020
5484 Clouds 8 1015 40 0 2.1 0 15:37 01.04.2020
5485 Clear 9 1016 39 0 2.1 270 15:18 01.04.2020
5486 Clear 8 1016 39 0 2.1 270 14:55 01.04.2020
5487 Clear 8 1016 39 0 2.1 270 14:55 01.04.2020
5488 Clear 7 1016 42 0 2.1 0 14:36 01.04.2020
5489 Clear 8 1017 36 0 2.6 250 14:18 01.04.2020
5490 Clear 8 1017 36 0 2.6 250 13:55 01.04.2020
5491 Clear 8 1017 42 0 3.1 260 13:36 01.04.2020
5492 Clear 7 1017 42 0 2.6 230 13:18 01.04.2020
5493 Clear 6 1018 45 0 2.1 260 12:42 01.04.2020
5494 Clear 5 1018 48 0 2.1 240 12:23 01.04.2020
5495 Clear 5 1018 48 0 2.1 240 11:59 01.04.2020
5496 Clear 5 1018 48 0 2.1 240 11:59 01.04.2020
5497 Clear 4 1018 48 0 2.1 220 11:39 01.04.2020
5498 Clear 3 1018 44 0 1.5 190 11:20 01.04.2020
5499 Clear 2 1019 48 0 0.27 207 10:42 01.04.2020
5500 Clear 2 1019 48 0 0.27 207 10:42 01.04.2020
5501 Clear 1 1019 59 0 0.27 207 10:23 01.04.2020
5502 Clear 1 1019 59 0 0.27 207 09:59 01.04.2020
5503 Clear -1 1019 69 0 0.27 207 09:40 01.04.2020
5504 Clear -1 1019 69 0 0.27 207 09:40 01.04.2020
5505 Clear -2 1019 45 0 1 0 09:21 01.04.2020
5506 Clouds -2 1019 62 0 1 0 08:57 01.04.2020
5507 Clouds -3 1019 86 0 2.1 120 08:38 01.04.2020
5508 Clouds -4 1020 92 0 1 240 08:18 01.04.2020
5509 Clouds -4 1019 92 0 1 0 07:41 01.04.2020
5510 Clouds -4 1019 86 0 1 240 07:19 01.04.2020
5511 Clouds -4 1019 86 0 1 240 06:47 01.04.2020
5512 Clouds -4 1019 86 0 2.1 110 06:21 01.04.2020
5513 Clouds -4 1019 92 0 2.6 100 05:50 01.04.2020
5514 Clouds -5 1020 86 0 3.6 100 04:29 01.04.2020
5515 Clouds -3 1019 72 0 4.1 90 03:21 01.04.2020
5516 Clear -3 1020 73 0 4.1 90 02:41 01.04.2020
5517 Clouds -3 1020 86 0 3.6 90 01:53 01.04.2020
5518 Clouds -3 1020 86 0 3.6 90 01:27 01.04.2020
5519 Clouds -2 1020 59 0 4.1 80 00:47 01.04.2020
5520 Clouds -2 1020 69 0 3.6 100 00:23 01.04.2020
5521 Clouds -2 1020 69 0 3.6 100 23:59 31.03.2020
5522 Clouds -1 1021 64 0 3.6 110 23:40 31.03.2020
5523 Clouds -2 1021 69 0 3.6 100 23:21 31.03.2020
5524 Clouds -2 1021 59 0 3.6 90 22:41 31.03.2020
5525 Clouds -1 1021 48 0 4.6 100 22:21 31.03.2020
5526 Clouds 0 1021 44 0 4.6 80 21:58 31.03.2020
5527 Clouds 0 1021 44 0 4.6 80 21:58 31.03.2020
5528 Clouds 0 1021 44 0 4.6 80 21:40 31.03.2020
5529 Clouds 0 1021 41 0 5.1 50 21:21 31.03.2020
5530 Clear 0 1021 41 0 5.1 50 20:57 31.03.2020
5531 Clear 1 1021 41 0 3.6 50 20:37 31.03.2020
5532 Clear 1 1021 41 0 3.6 50 20:19 31.03.2020
5533 Clear 2 1021 38 0 2.6 0 19:57 31.03.2020
5534 Clear 2 1021 38 0 2.6 0 19:38 31.03.2020
5535 Clear 2 1021 38 0 3.1 0 19:19 31.03.2020
5536 Clear 2 1021 36 0 3.6 0 18:44 31.03.2020
5537 Clear 3 1021 36 0 3.1 0 18:20 31.03.2020
5538 Clear 3 1020 39 0 3.6 0 17:57 31.03.2020
5539 Clear 3 1020 39 0 3.6 0 17:57 31.03.2020
5540 Clear 3 1020 39 0 3.6 0 17:39 31.03.2020
5541 Clear 3 1020 39 0 3.6 0 17:39 31.03.2020
5542 Clear 3 1022 33 10000 3.6 320 17:21 31.03.2020
5543 Clear 3 1022 33 10000 3.6 320 16:56 31.03.2020
5544 Clear 3 1020 39 0 5.1 80 16:37 31.03.2020
5545 Clear 3 1021 45 0 3.6 0 16:18 31.03.2020
5546 Clear 4 1021 45 0 3.6 0 15:56 31.03.2020
5547 Clear 4 1021 45 0 5.7 50 15:37 31.03.2020
5548 Clear 3 1021 48 0 2.6 0 15:18 31.03.2020
5549 Clouds 4 1021 48 0 3.6 70 14:42 31.03.2020
5550 Clouds 3 1021 52 0 6.2 40 14:23 31.03.2020
5551 Clouds 3 1021 52 0 6.2 40 13:59 31.03.2020
5552 Clouds 3 1021 52 0 5.1 0 13:40 31.03.2020
5553 Clouds 4 1021 52 0 7.2 50 13:19 31.03.2020
5554 Clouds 4 1021 52 0 7.2 50 13:19 31.03.2020
5555 Clouds 4 1021 51 0 6.7 40 12:45 31.03.2020
5556 Clouds 1 1022 55 0 7.7 50 12:20 31.03.2020
5557 Clouds 3 1022 55 0 7.7 50 11:58 31.03.2020
5558 Clouds 2 1022 59 0 5.7 40 11:37 31.03.2020
5559 Clear 1 1021 59 0 5.1 30 11:19 31.03.2020
5560 Clear 0 1021 64 0 5.7 30 10:55 31.03.2020
5561 Clear 1 1021 64 0 5.7 30 10:55 31.03.2020
5562 Clear 1 1021 64 0 5.7 30 10:37 31.03.2020
5563 Clouds 0 1021 49 0 6.7 40 10:19 31.03.2020
5564 Clouds 0 1021 64 0 6.2 30 09:44 31.03.2020
5565 Clouds -2 1021 64 0 6.2 30 09:25 31.03.2020
5566 Clouds -2 1021 67 0 7.2 40 08:59 31.03.2020
5567 Clouds -3 1021 67 0 7.7 40 08:40 31.03.2020
5568 Clouds -3 1022 74 10000 0.5 0 08:20 31.03.2020
5569 Clouds -4 1022 74 10000 0.5 0 07:57 31.03.2020
5570 Clouds -3 1020 67 0 7.7 30 07:38 31.03.2020
5571 Clouds -3 1020 67 0 8.2 60 07:20 31.03.2020
5572 Clouds -3 1020 67 0 8.2 60 07:20 31.03.2020
5573 Clouds -3 1020 69 0 6.7 40 06:53 31.03.2020
5574 Clouds -3 1020 69 0 6.7 40 06:35 31.03.2020
5575 Clouds -3 1020 69 0 6.7 30 05:41 31.03.2020
5576 Clouds -3 1020 74 0 6.2 30 04:33 31.03.2020
5577 Clouds -2 1020 69 0 6.2 60 02:30 31.03.2020
5578 Clouds -2 1020 69 0 6.2 60 01:46 31.03.2020
5579 Clouds -2 1020 69 0 5.7 60 00:53 31.03.2020
5580 Clouds -1 1021 69 0 5.7 80 00:25 31.03.2020
5581 Clouds -1 1021 69 0 5.7 80 23:59 30.03.2020
5582 Clouds -1 1021 69 0 4.1 90 23:38 30.03.2020
5583 Clouds -1 1021 69 0 4.6 90 23:19 30.03.2020
5584 Clouds -1 1021 69 0 4.6 90 22:57 30.03.2020
5585 Clouds -1 1021 74 0 5.1 60 22:38 30.03.2020
5586 Clouds -1 1021 74 0 5.7 60 22:18 30.03.2020
5587 Clouds -1 1021 74 0 5.7 60 21:57 30.03.2020
5588 Clouds -1 1021 74 0 5.7 60 21:37 30.03.2020
5589 Clouds -1 1020 69 0 5.1 80 21:19 30.03.2020
5590 Clouds -1 1020 69 0 5.1 80 20:55 30.03.2020
5591 Drizzle -1 1020 80 0 4.1 80 20:36 30.03.2020
5592 Clouds -1 1020 69 0 3.1 0 20:18 30.03.2020
5593 Clouds 1 1020 69 0 2.6 0 19:40 30.03.2020
5594 Clouds 1 1020 69 0 3.6 0 19:22 30.03.2020
5595 Clouds 1 1020 69 0 3.6 0 18:57 30.03.2020
5596 Clouds 1 1019 69 0 4.6 60 18:38 30.03.2020
5597 Clouds 0 1019 69 0 4.6 60 18:20 30.03.2020
5598 Clouds 1 1019 74 0 8.2 60 17:57 30.03.2020
5599 Clouds 0 1019 74 0 8.2 60 17:38 30.03.2020
5600 Clouds 1 1019 74 0 7.7 60 17:19 30.03.2020
5601 Clouds 1 1019 74 0 7.7 60 16:55 30.03.2020
5602 Clouds 1 1019 74 0 7.7 60 16:37 30.03.2020
5603 Clouds 0 1021 69 10000 2.6 190 16:19 30.03.2020
5604 Clouds 0 1021 69 10000 2.6 190 15:54 30.03.2020
5605 Clouds 1 1019 74 0 8.7 50 15:36 30.03.2020
5606 Clouds 0 1019 74 0 7.7 60 15:18 30.03.2020
5607 Rain 0 1019 69 0 5.7 60 14:39 30.03.2020
5608 Clouds 0 1019 69 0 6.2 0 14:19 30.03.2020
5609 Clouds 0 1019 69 0 6.2 0 13:59 30.03.2020
5610 Rain 0 1019 74 0 7.2 70 13:40 30.03.2020
5611 Clouds 1 1019 74 0 6.2 60 13:20 30.03.2020
5612 Clouds 1 1019 74 0 5.1 60 12:56 30.03.2020
5613 Clouds 0 1019 74 0 5.1 60 12:37 30.03.2020
5614 Clouds 0 1019 74 0 5.1 0 12:19 30.03.2020
5615 Clouds -1 1019 80 0 6.2 0 11:55 30.03.2020
5616 Clouds -1 1019 80 0 6.2 0 11:37 30.03.2020
5617 Rain -1 1019 80 0 6.7 60 11:18 30.03.2020
5618 Rain -1 1018 80 0 6.7 70 10:39 30.03.2020
5619 Clouds -1 1018 80 0 6.2 70 10:21 30.03.2020
5620 Clouds -1 1018 80 0 6.2 70 09:54 30.03.2020
5621 Clouds -1 1018 80 0 7.2 60 09:36 30.03.2020
5622 Clouds 0 1018 80 0 7.7 60 09:18 30.03.2020
5623 Clouds -1 1018 80 0 6.2 50 08:40 30.03.2020
5624 Clouds -1 1018 80 0 6.2 60 08:21 30.03.2020
5625 Snow -1 1017 80 0 6.2 70 07:48 30.03.2020
5626 Snow -1 1017 86 0 6.7 70 07:25 30.03.2020
5627 Clouds -1 1017 80 0 6.2 80 06:52 30.03.2020
5628 Clouds -1 1017 80 0 6.2 80 06:30 30.03.2020
5629 Rain -1 1018 80 0 4.6 90 05:47 30.03.2020
5630 Rain 0 1018 80 0 4.1 0 05:18 30.03.2020
5631 Rain 0 1018 80 0 4.1 0 04:21 30.03.2020
5632 Rain 0 1018 80 0 5.7 80 03:19 30.03.2020
5633 Rain 0 1018 80 0 6.2 60 02:37 30.03.2020
5634 Rain 0 1018 80 0 5.1 70 01:26 30.03.2020
5635 Rain 0 1019 80 0 5.1 80 00:33 30.03.2020
5636 Rain -1 1019 80 0 5.7 70 23:59 29.03.2020
5637 Rain -1 1019 57 0 5.7 60 23:41 29.03.2020
5638 Rain -1 1019 57 0 3.6 0 23:22 29.03.2020
5639 Rain -1 1019 57 0 3.6 0 22:57 29.03.2020
5640 Rain -1 1019 93 0 0.5 0 22:37 29.03.2020
5641 Rain -1 1019 93 0 1.5 250 22:18 29.03.2020
5642 Rain -1 1019 93 0 2.1 270 21:40 29.03.2020
5643 Rain -1 1018 86 0 2.1 280 21:21 29.03.2020
5644 Rain 0 1018 93 0 3.1 280 20:56 29.03.2020
5645 Rain 0 1018 93 0 3.1 280 20:56 29.03.2020
5646 Rain 0 1018 93 0 3.1 280 20:38 29.03.2020
5647 Rain 0 1017 54 0 3.6 0 20:19 29.03.2020
5648 Rain 0 1017 54 0 3.6 0 19:59 29.03.2020
5649 Rain 0 1017 54 0 3.6 0 19:59 29.03.2020
5650 Rain 1 1017 75 0 6.7 40 19:41 29.03.2020
5651 Rain 1 1016 80 0 4.1 0 19:23 29.03.2020
5652 Rain 1 1016 80 0 6.2 50 18:57 29.03.2020
5653 Rain 2 1016 80 0 6.2 50 18:39 29.03.2020
5654 Rain 2 1016 80 0 5.1 50 18:20 29.03.2020
5655 Rain 2 1015 80 0 6.2 70 17:56 29.03.2020
5656 Rain 2 1015 80 0 6.2 70 17:38 29.03.2020
5657 Rain 3 1015 80 0 7.2 40 17:20 29.03.2020
5658 Rain 2 1015 80 0 7.2 40 16:57 29.03.2020
5659 Rain 3 1015 75 0 6.7 30 16:38 29.03.2020
5660 Rain 4 1015 70 0 6.2 40 16:20 29.03.2020
5661 Rain 5 1015 65 0 7.2 30 15:43 29.03.2020
5662 Rain 5 1015 65 0 7.2 30 15:43 29.03.2020
5663 Rain 5 1015 65 0 7.2 30 15:25 29.03.2020
5664 Rain 5 1015 65 0 6.7 40 14:59 29.03.2020
5665 Clouds 6 1015 61 0 6.2 50 14:40 29.03.2020
5666 Rain 6 1015 61 0 6.2 50 14:20 29.03.2020
5667 Clouds 6 1015 61 0 7.2 40 13:58 29.03.2020
5668 Clouds 7 1015 61 0 7.2 40 13:40 29.03.2020
5669 Clouds 7 1015 57 0 7.7 40 13:21 29.03.2020
5670 Clouds 7 1015 57 0 7.2 30 12:57 29.03.2020
5671 Clouds 7 1015 57 0 7.2 30 12:38 29.03.2020
5672 Clouds 7 1015 57 0 7.2 40 12:19 29.03.2020
5673 Clouds 7 1015 61 0 7.2 40 11:55 29.03.2020
5674 Clouds 8 1015 61 0 7.2 40 11:37 29.03.2020
5675 Clouds 8 1015 61 0 7.7 40 11:19 29.03.2020
5676 Clouds 7 1015 57 0 7.7 60 10:38 29.03.2020
5677 Clouds 8 1015 61 0 6.7 70 10:19 29.03.2020
5678 Clouds 6 1015 61 0 5.7 50 09:42 29.03.2020
5679 Clouds 5 1015 65 0 5.7 40 09:23 29.03.2020
5680 Clouds 5 1015 65 0 5.7 40 08:57 29.03.2020
5681 Clouds 4 1015 65 0 7.2 60 08:39 29.03.2020
5682 Clouds 4 1015 65 0 7.2 40 08:20 29.03.2020
5683 Clouds 2 1016 86 10000 2.1 220 07:44 29.03.2020
5684 Clouds 2 1016 86 10000 1 0 07:22 29.03.2020
5685 Clouds 2 1015 81 0 1 0 05:59 29.03.2020
5686 Clouds 3 1015 70 0 2.6 90 04:56 29.03.2020
5687 Clouds 3 1016 93 0 1.5 110 03:37 29.03.2020
5688 Clouds 3 1016 86 0 1.5 70 01:57 29.03.2020
5689 Clouds 3 1016 86 0 1.5 100 01:37 29.03.2020
5690 Clouds 4 1016 75 0 0.5 0 01:19 29.03.2020
5691 Clouds 4 1016 75 0 1.76 347 00:34 29.03.2020
5692 Clouds 5 1016 70 0 2.6 90 23:57 28.03.2020
5693 Clouds 5 1016 70 0 2.6 90 23:39 28.03.2020
5694 Clouds 5 1016 70 0 2.6 90 23:39 28.03.2020
5695 Clouds 6 1016 66 0 2.6 90 23:20 28.03.2020
5696 Clouds 6 1016 70 0 2.6 90 22:41 28.03.2020
5697 Clouds 6 1016 61 0 3.1 90 22:22 28.03.2020
5698 Clouds 6 1016 61 0 3.1 90 21:56 28.03.2020
5699 Clouds 7 1016 62 0 3.1 90 21:38 28.03.2020
5700 Clouds 7 1016 58 0 2.6 70 21:19 28.03.2020
5701 Clouds 7 1016 47 0 2.6 0 20:54 28.03.2020
5702 Clouds 7 1016 47 0 2.6 0 20:36 28.03.2020
5703 Clouds 7 1016 47 0 2.6 0 20:36 28.03.2020
5704 Clouds 8 1015 47 0 2.1 120 20:18 28.03.2020
5705 Clouds 8 1015 47 0 2.1 120 19:54 28.03.2020
5706 Clouds 8 1015 50 0 2.1 50 19:36 28.03.2020
5707 Clouds 9 1015 44 0 1 0 19:18 28.03.2020
5708 Clouds 10 1015 44 0 3.6 30 18:39 28.03.2020
5709 Clouds 10 1015 47 0 4.1 30 18:20 28.03.2020
5710 Clouds 11 1014 47 0 3.6 30 17:40 28.03.2020
5711 Clouds 11 1014 44 0 4.1 70 17:22 28.03.2020
5712 Clouds 11 1014 44 0 5.1 60 16:57 28.03.2020
5713 Clouds 11 1014 44 0 5.1 60 16:38 28.03.2020
5714 Clouds 11 1014 41 0 1.5 250 16:18 28.03.2020
5715 Clouds 11 1014 41 0 1.5 260 15:40 28.03.2020
5716 Clouds 11 1015 44 0 1 0 15:19 28.03.2020
5717 Clouds 11 1015 44 0 1 0 15:19 28.03.2020
5718 Clouds 11 1015 44 0 1 0 14:57 28.03.2020
5719 Clouds 11 1015 44 0 2.6 240 14:39 28.03.2020
5720 Rain 12 1015 44 0 3.1 260 14:20 28.03.2020
5721 Rain 12 1015 44 0 3.1 260 14:20 28.03.2020
5722 Clouds 12 1015 44 0 3.1 260 14:20 28.03.2020
5723 Rain 12 1015 43 0 3.6 260 13:42 28.03.2020
5724 Clouds 12 1015 47 0 3.1 260 13:23 28.03.2020
5725 Clouds 11 1015 47 0 2.1 250 12:41 28.03.2020
5726 Clouds 11 1016 50 0 2.1 240 12:22 28.03.2020
5727 Clouds 11 1016 50 0 1 0 11:43 28.03.2020
5728 Clouds 10 1016 53 0 0.5 0 11:23 28.03.2020
5729 Clouds 9 1017 65 0 0.5 0 10:58 28.03.2020
5730 Clouds 9 1017 65 0 0.5 0 10:38 28.03.2020
5731 Clouds 8 1017 70 0 1 0 10:18 28.03.2020
5732 Clouds 8 1017 75 0 0.5 0 09:43 28.03.2020
5733 Clouds 6 1017 80 0 1.92 0 09:23 28.03.2020
5734 Clouds 5 1017 80 0 1.92 0 08:55 28.03.2020
5735 Clouds 4 1018 93 0 2.1 110 08:37 28.03.2020
5736 Clouds 2 1018 50 0 2.1 110 08:18 28.03.2020
5737 Clouds 1 1017 86 0 1 0 07:42 28.03.2020
5738 Clouds 1 1017 92 0 1.22 339 06:58 28.03.2020
5739 Clouds 1 1016 51 0 0.5 0 06:35 28.03.2020
5740 Clouds 1 1016 92 0 1.22 339 05:43 28.03.2020
5741 Clouds 1 1016 51 0 1.22 339 05:21 28.03.2020
5742 Clouds 1 1016 50 0 0.5 0 04:41 28.03.2020
5743 Clouds 1 1016 50 0 1.5 80 03:42 28.03.2020
5744 Clouds 2 1016 86 0 1 0 01:57 28.03.2020
5745 Clouds 2 1016 80 0 1.76 187 01:26 28.03.2020
5746 Clouds 2 1016 80 0 1.76 187 00:57 28.03.2020
5747 Clouds 2 1016 80 0 1.76 187 00:36 28.03.2020
5748 Clouds 3 1015 51 0 3.6 100 23:56 27.03.2020
5749 Clouds 3 1015 51 0 3.6 100 23:38 27.03.2020
5750 Clouds 3 1015 51 0 3.6 100 23:38 27.03.2020
5751 Clouds 3 1015 52 0 4.1 100 23:19 27.03.2020
5752 Clouds 2 1015 52 0 4.1 100 22:56 27.03.2020
5753 Clouds 2 1015 52 0 4.1 100 22:37 27.03.2020
5754 Clouds 3 1015 52 0 4.6 110 22:18 27.03.2020
5755 Clouds 4 1015 52 0 4.1 90 21:43 27.03.2020
5756 Clouds 3 1015 52 0 5.1 90 21:24 27.03.2020
5757 Clouds 3 1015 52 0 5.1 90 20:58 27.03.2020
5758 Clouds 5 1015 52 0 7.2 50 20:40 27.03.2020
5759 Clouds 5 1015 52 0 6.7 40 20:20 27.03.2020
5760 Clouds 5 1015 52 0 6.7 40 19:57 27.03.2020
5761 Clouds 6 1014 52 0 7.2 40 19:39 27.03.2020
5762 Clouds 6 1014 52 0 7.2 40 19:39 27.03.2020
5763 Clouds 6 1014 52 0 7.7 40 19:20 27.03.2020
5764 Clouds 7 1013 46 0 4.6 60 18:44 27.03.2020
5765 Clouds 8 1013 52 0 2.1 60 18:24 27.03.2020
5766 Clouds 8 1013 52 0 3.6 50 17:58 27.03.2020
5767 Clouds 8 1013 52 0 3.6 50 17:39 27.03.2020
5768 Clouds 10 1013 48 0 1.58 181 17:19 27.03.2020
5769 Clouds 10 1013 43 0 0.5 0 16:44 27.03.2020
5770 Clouds 10 1013 43 10000 1 0 16:25 27.03.2020
5771 Clouds 10 1013 43 10000 1 0 15:55 27.03.2020
5772 Clouds 10 1013 43 0 1.5 270 15:37 27.03.2020
5773 Clouds 4 1014 48 0 1.58 181 15:19 27.03.2020
5774 Clouds 4 1014 48 0 1.58 181 14:43 27.03.2020
5775 Clouds 4 1014 48 0 1.58 181 14:24 27.03.2020
5776 Clouds 4 1014 47 0 1.8 172 13:55 27.03.2020
5777 Clouds 4 1014 47 0 1.8 172 13:36 27.03.2020
5778 Clouds 4 1014 46 0 1.72 177 13:18 27.03.2020
5779 Clouds 4 1014 46 0 1.72 177 12:42 27.03.2020
5780 Clouds 4 1014 46 0 1.72 177 12:19 27.03.2020
5781 Clouds 4 1014 46 0 1.72 177 11:55 27.03.2020
5782 Clouds 4 1014 46 0 1.72 177 11:55 27.03.2020
5783 Clouds 4 1014 46 0 1.72 177 11:36 27.03.2020
5784 Clouds 3 1015 46 0 1.64 184 11:18 27.03.2020
5785 Clouds 3 1015 46 0 1.64 184 10:41 27.03.2020
5786 Clouds 3 1015 46 0 1.64 184 10:22 27.03.2020
5787 Clouds 3 1015 46 0 1.64 184 09:59 27.03.2020
5788 Clouds 3 1015 46 0 1.64 184 09:40 27.03.2020
5789 Clouds 3 1015 46 0 1.64 184 09:22 27.03.2020
5790 Clouds 3 1015 46 0 1.64 184 08:59 27.03.2020
5791 Clouds 3 1015 46 0 1.64 184 08:59 27.03.2020
5792 Clouds 3 1015 46 0 1.64 184 08:40 27.03.2020
5793 Clouds 3 1015 46 0 1.64 184 08:21 27.03.2020
5794 Clouds -3 1017 57 0 1.39 200 07:55 27.03.2020
5795 Clouds -3 1017 57 0 1.39 200 07:37 27.03.2020
5796 Clouds -3 1017 57 0 1.39 200 07:19 27.03.2020
5797 Clouds -3 1017 57 0 1.39 200 06:38 27.03.2020
5798 Clouds -3 1017 57 0 1.39 200 05:45 27.03.2020
5799 Clouds -3 1017 60 0 1.68 204 03:26 27.03.2020
5800 Clouds -4 1017 62 0 1.76 202 01:55 27.03.2020
5801 Clouds -4 1016 62 0 1.7 204 00:58 27.03.2020
5802 Clouds -4 1016 62 0 1.7 204 00:38 27.03.2020
5803 Clouds -4 1016 62 0 1.7 204 00:19 27.03.2020
5804 Clouds -4 1016 62 0 1.7 204 23:37 26.03.2020
5805 Clouds -3 1016 60 0 2.28 181 23:18 26.03.2020
5806 Clouds -3 1016 60 0 2.28 181 22:56 26.03.2020
5807 Clouds -3 1016 60 0 2.28 181 22:36 26.03.2020
5808 Clouds -3 1016 60 0 2.28 181 22:18 26.03.2020
5809 Clouds -3 1016 60 0 2.28 181 21:40 26.03.2020
5810 Clouds -3 1016 60 0 2.28 181 21:21 26.03.2020
5811 Clouds -3 1016 60 0 2.28 181 21:21 26.03.2020
5812 Clouds -3 1016 60 0 2.28 181 20:58 26.03.2020
5813 Clouds -3 1016 60 0 2.28 181 20:39 26.03.2020
5814 Clouds -3 1016 60 0 2.28 181 20:20 26.03.2020
5815 Clouds -2 1014 58 0 1.5 167 19:57 26.03.2020
5816 Clouds -2 1014 58 0 1.5 167 19:39 26.03.2020
5817 Clouds -2 1014 58 0 1.5 167 19:20 26.03.2020
5818 Clouds -2 1014 58 0 1.5 167 18:58 26.03.2020
5819 Clouds -2 1014 58 0 1.5 167 18:39 26.03.2020
5820 Clouds -2 1014 58 0 1.5 167 18:21 26.03.2020
5821 Clouds -2 1014 58 0 1.5 167 17:44 26.03.2020
5822 Clouds 2 1013 44 0 0.7 110 17:19 26.03.2020
5823 Clouds 2 1013 44 0 0.7 110 16:47 26.03.2020
5824 Clouds 2 1013 44 0 0.7 110 16:28 26.03.2020
5825 Clouds 2 1013 44 0 0.7 110 15:59 26.03.2020
5826 Clouds 2 1013 44 0 0.7 110 15:41 26.03.2020
5827 Clouds 2 1013 44 0 0.7 110 15:22 26.03.2020
5828 Clouds 2 1013 44 0 0.7 110 14:58 26.03.2020
5829 Clouds 2 1013 44 0 0.7 110 14:39 26.03.2020
5830 Clouds 1 1014 45 0 0.41 228 14:19 26.03.2020
5831 Clouds 1 1014 45 0 0.41 228 13:44 26.03.2020
5832 Clouds 1 1014 45 0 0.27 256 13:24 26.03.2020
5833 Clouds 1 1014 45 0 0.27 256 12:58 26.03.2020
5834 Clouds 1 1014 45 0 0.27 256 12:38 26.03.2020
5835 Clouds 1 1016 51 0 0.27 256 12:20 26.03.2020
5836 Clouds 1 1017 49 0 0.27 256 11:45 26.03.2020
5837 Clouds 1 1014 45 0 0.27 256 11:22 26.03.2020
5838 Clouds -2 1016 47 0 1.3 193 10:56 26.03.2020
5839 Clouds -2 1016 47 0 1.3 193 10:37 26.03.2020
5840 Clouds -2 1016 47 0 1.3 193 10:19 26.03.2020
5841 Clouds -2 1016 47 0 1.3 193 09:44 26.03.2020
5842 Clouds -2 1016 61 0 1.3 193 09:20 26.03.2020
5843 Clouds -4 1016 69 0 1.3 193 08:55 26.03.2020
5844 Clouds -4 1016 69 0 1.3 193 08:37 26.03.2020
5845 Clouds -10 1019 73 0 1.16 217 08:18 26.03.2020
5846 Clouds -9 1019 72 0 1.05 237 07:43 26.03.2020
5847 Clouds -9 1019 72 0 1.05 237 07:21 26.03.2020
5848 Clouds -9 1019 72 0 1.05 237 06:48 26.03.2020
5849 Clouds -9 1019 72 0 1.05 237 05:57 26.03.2020
5850 Clouds -12 1019 76 0 1.17 204 04:25 26.03.2020
5851 Clouds -12 1019 76 0 1.17 204 03:41 26.03.2020
5852 Clouds -12 1019 76 0 1.17 204 02:54 26.03.2020
5853 Snow -9 1019 80 0 2.74 184 01:50 26.03.2020
5854 Snow -10 1019 79 0 2.67 186 00:52 26.03.2020
5855 Snow -10 1019 79 0 2.67 186 23:59 25.03.2020
5856 Snow -10 1019 79 0 2.67 186 23:40 25.03.2020
5857 Snow -7 1019 72 0 3.49 177 23:20 25.03.2020
5858 Snow -7 1019 72 0 3.49 177 22:40 25.03.2020
5859 Snow -7 1019 72 0 3.49 177 22:21 25.03.2020
5860 Snow -7 1019 72 0 3.49 177 21:56 25.03.2020
5861 Snow -7 1019 72 0 3.49 177 21:37 25.03.2020
5862 Snow -7 1019 72 0 3.49 177 21:19 25.03.2020
5863 Snow -7 1019 72 0 3.49 177 20:55 25.03.2020
5864 Snow -7 1019 72 0 3.49 177 20:37 25.03.2020
5865 Snow -6 1017 68 0 2.03 165 20:18 25.03.2020
5866 Snow -6 1016 68 0 2 170 19:42 25.03.2020
5867 Snow -6 1016 68 0 2 170 19:22 25.03.2020
5868 Snow -6 1016 68 0 2 170 18:57 25.03.2020
5869 Snow -5 1016 66 0 2.14 171 18:39 25.03.2020
5870 Snow -6 1016 68 0 2 170 18:21 25.03.2020
5871 Snow -5 1016 66 0 2.14 171 17:55 25.03.2020
5872 Snow -6 1016 68 0 2 170 17:37 25.03.2020
5873 Snow -2 1016 53 0 2.11 160 17:18 25.03.2020
5874 Snow -2 1016 53 0 2.11 160 16:43 25.03.2020
5875 Snow -2 1016 53 0 2.11 160 16:43 25.03.2020
5876 Snow -2 1016 53 0 2.11 160 16:23 25.03.2020
5877 Snow -2 1016 53 0 2.11 160 15:57 25.03.2020
5878 Snow -2 1016 53 0 2.11 160 15:38 25.03.2020
5879 Snow -2 1016 53 0 2.11 160 15:19 25.03.2020
5880 Snow -1 1016 52 0 1.78 160 14:42 25.03.2020
5881 Snow -2 1016 53 0 2.11 160 14:22 25.03.2020
5882 Clear -1 1018 51 0 1.29 164 13:56 25.03.2020
5883 Clouds -1 1018 51 0 1.48 160 13:38 25.03.2020
5884 Clear -1 1018 51 0 1.29 164 13:19 25.03.2020
5885 Clear -1 1018 51 0 1.29 164 12:37 25.03.2020
5886 Clouds -1 1018 51 0 1.48 160 12:19 25.03.2020
5887 Clear -1 1018 51 0 1.29 164 11:55 25.03.2020
5888 Clear -1 1018 51 0 1.29 164 11:36 25.03.2020
5889 Clear -3 1020 52 0 0.94 168 11:18 25.03.2020
5890 Clear -3 1020 52 0 0.94 168 10:55 25.03.2020
5891 Clear -3 1020 52 0 0.94 168 10:36 25.03.2020
5892 Clear -3 1020 52 0 0.94 168 10:18 25.03.2020
5893 Clear -3 1020 52 0 0.94 168 09:42 25.03.2020
5894 Clear -3 1020 52 0 0.94 168 09:22 25.03.2020
5895 Clear -3 1020 52 0 0.94 168 08:55 25.03.2020
5896 Clear -3 1021 65 0 0.45 164 08:37 25.03.2020
5897 Clear -9 1023 65 0 1.56 344 08:18 25.03.2020
5898 Clear -8 1023 64 0 1.91 344 07:39 25.03.2020
5899 Clear -8 1023 64 0 1.91 344 07:20 25.03.2020
5900 Clear -8 1023 64 0 1.91 344 06:46 25.03.2020
5901 Clear -8 1023 64 0 1.91 344 06:25 25.03.2020
5902 Clear -8 1023 64 0 1.91 344 05:50 25.03.2020
5903 Clear -9 1024 67 0 1.03 325 04:59 25.03.2020
5904 Clear -9 1024 67 0 1.03 325 04:39 25.03.2020
5905 Clear -9 1024 67 0 1.03 325 03:35 25.03.2020
5906 Clear -9 1025 72 0 1.17 225 01:57 25.03.2020
5907 Clear -9 1025 72 0 1.17 225 01:20 25.03.2020
5908 Clear -9 1025 74 0 1.26 219 00:47 25.03.2020
5909 Clear -9 1025 74 0 1.26 219 00:19 25.03.2020
5910 Clear -9 1025 74 0 1.26 219 23:44 24.03.2020
5911 Clear -9 1025 74 0 1.26 219 23:25 24.03.2020
5912 Clear -8 1025 70 0 1.35 180 22:55 24.03.2020
5913 Clear -8 1025 70 0 1.35 180 22:37 24.03.2020
5914 Clear -8 1025 70 0 1.35 180 22:19 24.03.2020
5915 Clear -8 1025 70 0 1.35 180 21:55 24.03.2020
5916 Clear -8 1025 70 0 1.35 180 21:36 24.03.2020
5917 Clear -8 1025 70 0 1.35 180 21:18 24.03.2020
5918 Clear -8 1025 70 0 1.35 180 20:42 24.03.2020
5919 Clear -8 1025 70 0 1.35 180 20:23 24.03.2020
5920 Clouds -7 1023 68 0 0.81 204 19:56 24.03.2020
5921 Clouds -7 1023 68 0 0.81 204 19:56 24.03.2020
5922 Clouds -7 1023 68 0 0.81 204 19:38 24.03.2020
5923 Clouds -7 1023 68 0 0.81 204 19:18 24.03.2020
5924 Clouds -7 1023 68 0 0.81 204 18:55 24.03.2020
5925 Clouds -7 1023 68 0 0.81 204 18:36 24.03.2020
5926 Clouds -7 1023 68 0 0.81 204 18:18 24.03.2020
5927 Clouds -7 1023 68 0 0.81 204 17:41 24.03.2020
5928 Clouds -7 1023 68 0 0.81 204 17:22 24.03.2020
5929 Clouds -7 1023 68 0 0.81 204 17:22 24.03.2020
5930 Snow 4 1022 39 10000 2.6 60 16:57 24.03.2020
5931 Snow 4 1022 39 10000 2.6 60 16:39 24.03.2020
5932 -273 0 0 0 0 0 16:20 24.03.2020
5933 Snow 4 1020 39 10000 5.1 100 16:20 24.03.2020
5934 Snow 4 1021 41 10000 5.7 90 15:55 24.03.2020
5935 Snow 5 1021 41 10000 5.7 90 15:37 24.03.2020
5936 Snow 4 1021 44 10000 6.7 70 15:19 24.03.2020
5937 Snow 3 1021 48 10000 7.2 70 14:42 24.03.2020
5938 Clouds -2 1024 51 0 1.87 146 14:18 24.03.2020
5939 Clouds -2 1024 51 0 1.87 146 13:42 24.03.2020
5940 Clouds -2 1023 51 0 1.82 143 13:24 24.03.2020
5941 Clouds -2 1023 51 0 1.82 143 12:54 24.03.2020
5942 Clouds -2 1023 51 0 1.82 143 12:36 24.03.2020
5943 Clouds -2 1023 51 0 1.82 143 12:18 24.03.2020
5944 Clouds -2 1023 51 0 1.82 143 11:39 24.03.2020
5945 Clear 1 1023 55 10000 9.8 50 11:19 24.03.2020
5946 Clear 1 1026 55 10000 2.1 110 10:43 24.03.2020
5947 Clear 1 1026 55 10000 2.1 110 10:43 24.03.2020
5948 Clouds 0 1026 55 10000 1.5 0 10:20 24.03.2020
5949 Clouds 0 1026 55 10000 1.5 0 09:58 24.03.2020
5950 Clear 1 1024 55 10000 8.2 60 09:39 24.03.2020
5951 Clear 0 1024 55 10000 8.2 50 09:21 24.03.2020
5952 Clouds 0 1024 55 10000 9.3 60 08:38 24.03.2020
5953 Clear -2 1024 58 10000 9.3 40 08:20 24.03.2020
5954 Clear -3 1024 63 10000 8.7 40 07:47 24.03.2020
5955 Clear -4 1024 63 0 8.7 40 07:24 24.03.2020
5956 Clear -4 1024 68 0 6.7 70 06:53 24.03.2020
5957 Clouds -4 1024 63 0 8.2 60 06:27 24.03.2020
5958 Clear -4 1024 58 0 6.2 60 04:57 24.03.2020
5959 Clear -3 1024 58 0 6.2 60 04:27 24.03.2020
5960 Clear -3 1024 38 0 8.2 60 03:18 24.03.2020
5961 Clear -1 1025 55 0 9.3 30 01:47 24.03.2020
5962 Clear -1 1025 55 0 8.7 30 00:48 24.03.2020
5963 Clear -1 1025 55 0 9.3 40 00:25 24.03.2020
5964 Clear -1 1025 59 0 8.2 40 23:45 23.03.2020
5965 Clear -1 1025 59 0 7.7 50 23:26 23.03.2020
5966 Clear -1 1025 64 0 7.7 40 22:56 23.03.2020
5967 Clear -1 1025 64 0 7.7 40 22:37 23.03.2020
5968 Clouds 0 1025 64 10000 7.2 50 22:19 23.03.2020
5969 Clouds 1 1025 69 10000 6.2 40 21:44 23.03.2020
5970 Clouds 1 1025 64 10000 4.6 70 21:20 23.03.2020
5971 Clouds 1 1025 64 10000 4.6 70 20:58 23.03.2020
5972 Clouds 0 1025 60 10000 4.6 60 20:39 23.03.2020
5973 Clouds 1 1024 60 10000 5.1 70 20:21 23.03.2020
5974 Clouds 1 1024 60 10000 5.1 0 19:46 23.03.2020
5975 Clouds 3 1024 60 10000 5.1 70 19:27 23.03.2020
5976 Clouds 3 1024 60 10000 6.7 60 18:59 23.03.2020
5977 Clouds 3 1024 60 10000 6.7 60 18:41 23.03.2020
5978 Clouds 3 1024 56 0 7.2 70 18:21 23.03.2020
5979 Clouds 5 1024 56 0 8.7 60 17:44 23.03.2020
5980 Clouds 5 1024 56 10000 9.3 60 17:22 23.03.2020
5981 Clouds 5 1026 65 10000 1 0 16:59 23.03.2020
5982 Clouds 6 1026 65 10000 1 0 16:41 23.03.2020
5983 Clouds 6 1024 56 10000 8.2 50 16:23 23.03.2020
5984 Clouds 5 1024 56 10000 7.7 40 15:42 23.03.2020
5985 Clouds 5 1024 56 10000 10.3 40 15:20 23.03.2020
5986 Clouds 5 1024 56 10000 10.3 40 14:55 23.03.2020
5987 Clouds 4 1024 60 10000 8.2 30 14:36 23.03.2020
5988 Clouds 4 1024 60 10000 8.7 40 14:18 23.03.2020
5989 Clouds 4 1027 60 10000 1 0 13:40 23.03.2020
5990 Clouds 4 1027 60 10000 1 0 13:40 23.03.2020
5991 Clear 4 1024 60 0 9.8 50 13:21 23.03.2020
5992 Clear 4 1024 64 0 10.3 40 12:46 23.03.2020
5993 Clear 4 1024 64 10000 10.3 40 12:26 23.03.2020
5994 Clear 4 1024 64 10000 9.3 60 11:59 23.03.2020
5995 Clear 3 1024 64 10000 9.3 60 11:40 23.03.2020
5996 Clear 2 1024 64 10000 8.2 60 11:21 23.03.2020
5997 Clouds 2 1025 64 10000 8.2 50 10:58 23.03.2020
5998 Clouds 2 1025 64 10000 8.2 50 10:58 23.03.2020
5999 Clouds 2 1025 64 10000 8.2 50 10:39 23.03.2020
6000 Clouds 2 1025 69 10000 7.2 30 10:21 23.03.2020
6001 Clouds 2 1025 69 10000 7.7 40 09:46 23.03.2020
6002 Clouds 1 1024 64 10000 6.7 20 09:21 23.03.2020
6003 Clouds 1 1024 64 10000 6.7 20 08:58 23.03.2020
6004 Clouds 1 1024 64 10000 6.7 20 08:58 23.03.2020
6005 Clouds 0 1024 64 10000 6.2 60 08:37 23.03.2020
6006 Clouds -1 1024 74 10000 5.1 50 08:18 23.03.2020
6007 Clouds -1 1024 64 0 6.7 30 07:47 23.03.2020
6008 Clouds -1 1024 64 0 6.7 30 07:29 23.03.2020
6009 Clouds -1 1024 69 0 7.7 60 06:52 23.03.2020
6010 Clouds -2 1023 69 0 9.8 50 05:55 23.03.2020
6011 Clouds -1 1023 69 0 6.7 50 05:29 23.03.2020
6012 Clouds -1 1023 69 0 8.7 30 03:41 23.03.2020
6013 Clouds 0 1023 69 0 9.3 20 02:37 23.03.2020
6014 Clouds 0 1023 64 0 8.2 20 01:34 23.03.2020
6015 Clouds 1 1022 69 0 9.8 40 00:40 23.03.2020
6016 Clouds 1 1023 69 0 8.7 40 23:53 22.03.2020
6017 Clouds 3 1022 69 0 7.7 40 23:26 22.03.2020
6018 Clouds 3 1023 97 0 9.3 40 22:56 22.03.2020
6019 Clouds 3 1023 97 0 9.3 40 22:36 22.03.2020
6020 Clouds 3 1022 97 0 8.2 40 22:18 22.03.2020
6021 Clouds 3 1022 75 0 6.7 50 21:39 22.03.2020
6022 Clouds 4 1022 75 0 6.2 40 21:20 22.03.2020
6023 Clouds 3 1022 75 0 6.2 40 20:56 22.03.2020
6024 Clouds 3 1022 75 0 7.2 40 20:38 22.03.2020
6025 Clouds 4 1023 80 10000 1.5 240 20:20 22.03.2020
6026 Clouds 4 1023 80 10000 1.5 240 19:55 22.03.2020
6027 Clouds 4 1021 80 0 7.7 40 19:37 22.03.2020
6028 Clouds 5 1021 80 0 7.7 30 19:18 22.03.2020
6029 Clouds 5 1020 80 0 8.7 50 18:55 22.03.2020
6030 Clouds 5 1020 80 0 8.7 50 18:37 22.03.2020
6031 Clouds 6 1020 80 0 8.2 40 18:18 22.03.2020
6032 Clouds 5 1020 80 0 10.3 60 17:55 22.03.2020
6033 Clouds 4 1020 80 0 10.3 60 17:36 22.03.2020
6034 Clouds 5 1020 80 0 9.8 50 17:18 22.03.2020
6035 Clouds 5 1020 80 0 9.3 40 16:41 22.03.2020
6036 Clouds 5 1020 80 0 9.8 50 16:22 22.03.2020
6037 Clouds 5 1020 80 0 9.8 50 15:59 22.03.2020
6038 Clouds 4 1019 80 0 9.8 50 15:39 22.03.2020
6039 Clouds 4 1019 80 0 7.7 40 14:47 22.03.2020
6040 Clouds 4 1019 80 0 10.3 50 14:20 22.03.2020
6041 Clouds 4 1019 80 0 10.3 50 13:58 22.03.2020
6042 Clouds 4 1019 80 0 9.3 50 13:40 22.03.2020
6043 Clouds 4 1019 80 0 10.3 50 13:19 22.03.2020
6044 Clouds 5 1019 86 0 8.7 50 12:44 22.03.2020
6045 Clouds 5 1019 86 0 8.2 60 12:22 22.03.2020
6046 Clouds 5 1019 86 0 8.2 60 12:22 22.03.2020
6047 Clouds 4 1019 86 0 8.7 60 11:58 22.03.2020
6048 Clouds 4 1019 86 0 8.7 60 11:39 22.03.2020
6049 Clouds 4 1018 86 0 9.8 50 11:20 22.03.2020
6050 Clouds 4 1018 80 0 9.8 40 10:43 22.03.2020
6051 Clouds 4 1020 80 10000 3.6 320 10:24 22.03.2020
6052 Clouds 4 1018 86 0 9.3 40 09:55 22.03.2020
6053 Clouds 4 1018 86 0 9.3 40 09:36 22.03.2020
6054 Clouds 3 1018 86 0 8.7 30 09:18 22.03.2020
6055 Clouds 3 1018 86 0 9.8 50 08:41 22.03.2020
6056 Rain 3 1017 86 0 10.3 50 08:21 22.03.2020
6057 Rain 3 1017 86 0 8.7 50 07:50 22.03.2020
6058 Rain 3 1017 86 0 6.2 50 07:19 22.03.2020
6059 Rain 3 1016 86 0 8.7 50 05:56 22.03.2020
6060 Clouds 2 1016 86 0 9.3 50 04:58 22.03.2020
6061 Clouds 3 1016 86 0 10.3 50 02:50 22.03.2020
6062 Clouds 3 1016 86 0 8.2 40 01:22 22.03.2020
6063 Clouds 3 1016 86 0 9.3 40 00:39 22.03.2020
6064 Clouds 3 1016 86 0 9.3 40 00:21 22.03.2020
6065 Clouds 3 1016 86 0 10.8 40 23:41 21.03.2020
6066 Clouds 3 1016 86 0 10.8 40 23:41 21.03.2020
6067 Clouds 3 1016 86 0 11.3 50 23:19 21.03.2020
6068 Clouds 3 1016 86 0 11.3 50 22:38 21.03.2020
6069 Clouds 3 1015 86 0 10.3 60 22:20 21.03.2020
6070 Clouds 4 1015 86 0 10.3 60 21:59 21.03.2020
6071 Clouds 4 1015 87 0 10.3 50 21:40 21.03.2020
6072 Clouds 4 1015 87 0 11.3 50 21:22 21.03.2020
6073 Clouds 4 1015 81 0 11.3 50 20:46 21.03.2020
6074 Clouds 4 1014 87 0 11.8 50 20:23 21.03.2020
6075 Clouds 5 1014 87 0 11.8 50 19:57 21.03.2020
6076 Clouds 6 1014 81 0 11.3 50 19:39 21.03.2020
6077 Clouds 6 1014 81 0 11.3 50 19:21 21.03.2020
6078 Clouds 6 1014 81 0 10.8 50 18:54 21.03.2020
6079 Clouds 6 1014 81 0 10.8 50 18:36 21.03.2020
6080 Clouds 6 1013 81 0 9.3 50 18:18 21.03.2020
6081 Clouds 7 1013 76 0 10.8 30 17:43 21.03.2020
6082 Clouds 7 1013 76 0 9.8 30 17:23 21.03.2020
6083 Clouds 8 1013 71 0 9.8 30 16:57 21.03.2020
6084 Clouds 9 1013 71 0 9.8 30 16:38 21.03.2020
6085 Snow 9 1013 71 0 9.3 30 16:18 21.03.2020
6086 Snow 9 1013 71 0 9.3 30 16:18 21.03.2020
6087 Snow 9 1013 62 0 7.7 20 15:42 21.03.2020
6088 Snow 11 1013 62 0 6.7 0 15:23 21.03.2020
6089 Snow 11 1013 62 0 6.7 0 14:58 21.03.2020
6090 Clouds 11 1015 76 10000 7.2 340 14:40 21.03.2020
6091 Snow 12 1014 62 0 8.2 40 14:20 21.03.2020
6092 Clear 11 1014 62 0 8.2 40 13:59 21.03.2020
6093 Clear 12 1014 66 0 7.2 40 13:40 21.03.2020
6094 Clear 12 1014 58 0 5.1 0 13:22 21.03.2020
6095 Clear 12 1014 58 0 5.1 0 12:59 21.03.2020
6096 Clear 12 1014 58 0 8.7 60 12:38 21.03.2020
6097 Clear 12 1014 58 0 8.7 60 12:19 21.03.2020
6098 Clear 11 1015 66 0 2.1 140 11:56 21.03.2020
6099 Clear 11 1015 66 0 2.1 140 11:38 21.03.2020
6100 Clear 10 1016 71 0 1.65 351 11:19 21.03.2020
6101 Clear 9 1016 76 0 0.5 0 10:57 21.03.2020
6102 Clear 9 1016 76 0 0.5 0 10:38 21.03.2020
6103 Clear 9 1017 76 0 1 0 10:19 21.03.2020
6104 Clear 9 1017 76 0 1 0 09:56 21.03.2020
6105 Clear 8 1017 81 0 1 0 09:37 21.03.2020
6106 Clear 7 1017 93 0 0.5 0 09:19 21.03.2020
6107 Clear 5 1017 100 0 1.65 351 08:43 21.03.2020
6108 Clear 5 1017 100 0 1.65 351 08:24 21.03.2020
6109 Clear 3 1018 100 0 2.6 90 07:45 21.03.2020
6110 Fog 3 1018 100 0 2.6 100 07:27 21.03.2020
6111 Fog 3 1018 100 0 2.1 90 06:48 21.03.2020
6112 Fog 4 1018 93 0 2.41 334 06:28 21.03.2020
6113 Fog 3 1018 100 0 1 0 05:46 21.03.2020
6114 Clouds 4 1018 100 0 2.1 80 04:46 21.03.2020
6115 Fog 6 1018 100 0 0.5 0 02:55 21.03.2020
6116 Fog 7 1019 93 0 2.12 326 02:33 21.03.2020
6117 Clouds 7 1019 100 0 0.5 0 01:33 21.03.2020
6118 Clouds 8 1019 100 0 2.23 322 00:56 21.03.2020
6119 Clouds 9 1020 93 0 2.23 322 00:37 21.03.2020
6120 Snow 8 1020 93 0 2.23 322 23:53 20.03.2020
6121 Rain 8 1020 93 0 2.23 322 23:28 20.03.2020
6122 Rain 8 1020 93 0 1.6 334 22:59 20.03.2020
6123 Rain 8 1020 93 0 1.6 334 22:59 20.03.2020
6124 Clouds 8 1021 93 0 1 0 22:40 20.03.2020
6125 Rain 9 1021 87 0 1.5 80 22:21 20.03.2020
6126 Rain 9 1021 87 0 1.5 80 21:56 20.03.2020
6127 Rain 9 1021 87 0 2.1 90 21:38 20.03.2020
6128 Rain 9 1021 87 0 2.1 100 21:18 20.03.2020
6129 Rain 10 1021 87 0 2.1 100 20:56 20.03.2020
6130 Rain 9 1021 87 0 3.1 80 20:38 20.03.2020
6131 Rain 10 1021 66 0 3.1 240 20:18 20.03.2020
6132 Rain 10 1020 58 0 6.2 290 19:44 20.03.2020
6133 Rain 11 1020 62 0 8.7 310 19:19 20.03.2020
6134 Rain 11 1019 54 0 7.7 300 18:55 20.03.2020
6135 Rain 12 1019 54 0 7.7 300 18:37 20.03.2020
6136 Clouds 12 1019 62 0 5.1 290 18:19 20.03.2020
6137 Clouds 13 1018 67 0 1.5 280 17:39 20.03.2020
6138 Clouds 14 1018 58 10000 1 0 17:21 20.03.2020
6139 Clouds 14 1018 58 10000 1 0 17:21 20.03.2020
6140 Clouds 14 1018 58 10000 1 0 16:58 20.03.2020
6141 Clouds 14 1018 58 10000 1 0 16:39 20.03.2020
6142 Clouds 14 1018 54 10000 1.65 208 16:18 20.03.2020
6143 Clouds 15 1018 58 10000 2.1 260 15:42 20.03.2020
6144 Clouds 14 1019 51 10000 2.6 240 15:22 20.03.2020
6145 Clouds 15 1019 51 10000 2.6 240 14:56 20.03.2020
6146 Clouds 15 1019 51 10000 3.1 250 14:37 20.03.2020
6147 Clouds 15 1019 44 10000 3.1 250 14:18 20.03.2020
6148 Clouds 15 1020 50 10000 3.6 250 13:43 20.03.2020
6149 Clouds 14 1020 54 0 4.1 250 13:19 20.03.2020
6150 Clouds 14 1020 50 0 3.6 240 12:41 20.03.2020
6151 Clouds 13 1020 58 10000 4.1 270 12:23 20.03.2020
6152 Clouds 13 1021 58 10000 3.6 270 11:58 20.03.2020
6153 Clouds 13 1021 58 10000 3.6 270 11:38 20.03.2020
6154 Clouds 12 1021 47 10000 1.88 184 11:19 20.03.2020
6155 Clouds 12 1021 54 10000 1.88 184 10:42 20.03.2020
6156 Clouds 11 1021 61 10000 1.88 184 10:21 20.03.2020
6157 Clouds 10 1022 61 10000 1.88 184 09:57 20.03.2020
6158 Clouds 10 1022 61 10000 1.88 184 09:39 20.03.2020
6159 Clouds 9 1022 66 10000 0.5 0 09:19 20.03.2020
6160 Clouds 8 1021 70 10000 1.88 184 08:42 20.03.2020
6161 Clouds 5 1021 86 10000 1.89 178 08:22 20.03.2020
6162 Clear 5 1021 86 10000 0.86 237 07:54 20.03.2020
6163 Clear 4 1021 82 10000 1 0 07:36 20.03.2020
6164 Clear 4 1021 82 10000 1.5 70 07:18 20.03.2020
6165 Clear 4 1021 82 0 0.5 0 06:41 20.03.2020
6166 Clear 5 1021 86 0 1.24 247 04:51 20.03.2020
6167 Clear 5 1022 86 0 0.5 40 03:22 20.03.2020
6168 Clear 6 1022 86 0 1 0 01:58 20.03.2020
6169 Clear 7 1022 80 0 1.53 217 00:59 20.03.2020
6170 Clear 7 1022 81 0 1.53 217 00:30 20.03.2020
6171 Clear 7 1022 80 0 0.5 0 23:47 19.03.2020
6172 Clear 9 1022 81 0 1.5 100 23:28 19.03.2020
6173 Clear 9 1022 70 0 2.1 80 22:57 19.03.2020
6174 Clear 9 1022 70 0 2.1 80 22:38 19.03.2020
6175 Clear 9 1022 70 0 2.6 100 22:19 19.03.2020
6176 Clear 10 1022 66 0 3.1 90 21:42 19.03.2020
6177 Clear 11 1022 66 0 3.6 90 21:20 19.03.2020
6178 Clear 11 1022 66 0 3.6 90 20:59 19.03.2020
6179 Clear 10 1022 66 0 3.6 100 20:41 19.03.2020
6180 Clouds 10 1022 66 0 3.6 90 20:22 19.03.2020
6181 Clouds 10 1022 66 0 3.6 90 19:55 19.03.2020
6182 Clouds 10 1022 66 0 3.6 100 19:37 19.03.2020
6183 Clouds 12 1022 58 0 3.1 90 19:19 19.03.2020
6184 Clouds 12 1021 58 0 1.5 20 18:54 19.03.2020
6185 Clouds 13 1021 58 0 1.5 20 18:36 19.03.2020
6186 Clouds 15 1021 55 0 1 150 18:18 19.03.2020
6187 Clouds 15 1022 45 0 1.25 215 17:41 19.03.2020
6188 Clouds 16 1022 45 10000 1 0 17:19 19.03.2020
6189 Clouds 16 1022 42 10000 1.5 250 16:44 19.03.2020
6190 Clouds 16 1022 45 10000 1.5 220 16:24 19.03.2020
6191 Clouds 15 1022 45 10000 2.1 230 15:46 19.03.2020
6192 Clouds 15 1022 48 10000 3.1 220 15:27 19.03.2020
6193 Clouds 15 1022 48 10000 3.1 220 14:58 19.03.2020
6194 Clouds 16 1023 48 10000 4.1 250 14:40 19.03.2020
6195 Clouds 16 1023 48 10000 4.1 250 14:19 19.03.2020
6196 Clouds 15 1023 44 10000 3.6 250 13:40 19.03.2020
6197 Clouds 16 1023 44 10000 3.6 250 13:40 19.03.2020
6198 Clouds 15 1024 62 10000 2.1 60 13:19 19.03.2020
6199 Clouds 15 1024 47 0 3.6 250 12:56 19.03.2020
6200 Clouds 15 1024 47 0 3.6 250 12:37 19.03.2020
6201 Clouds 14 1024 67 10000 1.5 0 12:19 19.03.2020
6202 Clouds 14 1025 66 10000 2.6 70 11:42 19.03.2020
6203 Clouds 14 1025 58 10000 2.1 250 11:23 19.03.2020
6204 Clear 13 1025 66 10000 1 0 10:56 19.03.2020
6205 Clear 13 1025 66 10000 1 0 10:36 19.03.2020
6206 Clear 12 1025 71 10000 1 0 10:18 19.03.2020
6207 Clear 10 1025 70 10000 1.56 189 09:44 19.03.2020
6208 Clear 10 1025 70 10000 1.56 189 09:26 19.03.2020
6209 Clear 8 1025 75 10000 1.56 189 08:57 19.03.2020
6210 Clear 6 1025 87 10000 1 240 08:37 19.03.2020
6211 Clear 4 1025 86 10000 1.5 100 08:18 19.03.2020
6212 Clear 4 1025 79 10000 0.5 0 07:42 19.03.2020
6213 Clear 4 1025 100 10000 0.5 0 07:22 19.03.2020
6214 Clear 4 1025 93 0 1 100 06:27 19.03.2020
6215 Clear 4 1025 93 0 0.79 252 05:25 19.03.2020
6216 Clear 4 1025 93 0 1.21 280 04:51 19.03.2020
6217 Clear 5 1025 86 0 1 0 04:22 19.03.2020
6218 Clear 5 1026 93 0 1 0 02:33 19.03.2020
6219 Clouds 6 1026 86 0 1.32 236 00:53 19.03.2020
6220 Clouds 7 1026 75 0 1.32 236 00:20 19.03.2020
6221 Clouds 7 1026 75 0 1.32 236 23:44 18.03.2020
6222 Clouds 7 1026 75 0 1 0 23:26 18.03.2020
6223 Clouds 8 1026 70 0 3.1 110 22:43 18.03.2020
6224 Clouds 9 1026 70 0 3.6 80 22:23 18.03.2020
6225 Clouds 9 1026 70 0 3.6 80 21:59 18.03.2020
6226 Clouds 8 1026 70 0 3.6 100 21:40 18.03.2020
6227 Clouds 9 1026 66 0 4.1 90 21:21 18.03.2020
6228 Clouds 9 1026 66 0 4.1 90 21:21 18.03.2020
6229 Clouds 9 1026 66 0 4.1 90 20:56 18.03.2020
6230 Clouds 9 1026 66 0 4.1 100 20:38 18.03.2020
6231 Clouds 9 1026 62 0 4.1 100 20:19 18.03.2020
6232 Clouds 10 1025 58 0 4.1 90 19:42 18.03.2020
6233 Clouds 11 1025 51 0 5.1 40 19:21 18.03.2020
6234 Clouds 12 1025 51 0 5.1 40 18:59 18.03.2020
6235 Clouds 12 1025 44 0 4.1 30 18:40 18.03.2020
6236 Clouds 13 1025 42 0 3.6 40 18:19 18.03.2020
6237 Clouds 15 1025 42 0 0.98 219 17:57 18.03.2020
6238 Clouds 15 1025 42 0 0.98 219 17:39 18.03.2020
6239 Clouds 15 1025 45 0 0.5 0 17:19 18.03.2020
6240 Clouds 15 1025 42 0 1 0 16:43 18.03.2020
6241 Clouds 16 1025 45 10000 1.5 250 16:21 18.03.2020
6242 Clouds 16 1025 45 10000 1.5 250 15:59 18.03.2020
6243 Clouds 16 1025 45 10000 2.6 250 15:39 18.03.2020
6244 Clouds 15 1026 45 10000 2.6 240 15:20 18.03.2020
6245 Clouds 15 1026 44 10000 3.1 250 14:44 18.03.2020
6246 Clouds 14 1026 48 10000 2.6 270 14:21 18.03.2020
6247 Clouds 14 1027 48 10000 1.5 280 13:42 18.03.2020
6248 Clouds 15 1027 48 0 1.5 260 13:20 18.03.2020
6249 Clouds 15 1027 50 0 2.1 260 12:58 18.03.2020
6250 Clouds 14 1027 50 0 2.1 260 12:39 18.03.2020
6251 Clouds 14 1028 54 10000 3.1 260 12:19 18.03.2020
6252 Clouds 13 1028 58 10000 2.6 280 11:39 18.03.2020
6253 Clouds 11 1029 66 10000 0.5 0 11:19 18.03.2020
6254 Clouds 11 1029 57 10000 0.5 0 10:58 18.03.2020
6255 Clouds 11 1029 57 10000 0.5 0 10:38 18.03.2020
6256 Clouds 10 1029 66 10000 0.78 94 10:19 18.03.2020
6257 Clouds 9 1030 70 10000 0.5 0 09:43 18.03.2020
6258 Clouds 8 1030 75 10000 1.5 120 09:23 18.03.2020
6259 Clouds 7 1030 75 10000 1 0 08:55 18.03.2020
6260 Clouds 6 1030 75 10000 1 0 08:37 18.03.2020
6261 Clear 5 1030 93 10000 0.5 0 08:19 18.03.2020
6262 Clear 3 1029 71 0 2.59 332 07:43 18.03.2020
6263 Clear 3 1029 71 10000 2.59 332 07:25 18.03.2020
6264 Clear 4 1030 93 0 2.59 332 06:44 18.03.2020
6265 Clear 4 1030 93 0 1 0 05:56 18.03.2020
6266 Clear 3 1030 93 0 1 0 05:34 18.03.2020
6267 Clear 4 1030 86 0 2.86 335 04:24 18.03.2020
6268 Clouds 6 1030 75 0 2.86 335 02:42 18.03.2020
6269 Clouds 7 1030 81 0 3.11 330 01:47 18.03.2020
6270 Clouds 7 1030 75 0 2.99 331 01:21 18.03.2020
6271 Clouds 7 1031 70 0 2.6 110 00:23 18.03.2020
6272 Clouds 7 1031 75 0 2.6 90 23:47 17.03.2020
6273 Clouds 7 1031 70 0 2.6 90 23:26 17.03.2020
6274 Clouds 8 1031 70 0 2.6 90 22:48 17.03.2020
6275 Clear 7 1031 66 0 3.6 90 22:29 17.03.2020
6276 Clear 8 1031 66 0 3.6 90 21:59 17.03.2020
6277 Clear 7 1030 61 0 4.1 80 21:39 17.03.2020
6278 Clouds 8 1030 66 10000 1.5 0 21:20 17.03.2020
6279 Clear 8 1030 57 0 4.1 90 20:39 17.03.2020
6280 Clear 8 1030 57 0 4.1 90 20:39 17.03.2020
6281 Clear 9 1030 62 0 3.6 90 20:21 17.03.2020
6282 Clouds 9 1030 62 0 3.6 90 19:56 17.03.2020
6283 Clouds 9 1029 50 0 4.6 30 19:38 17.03.2020
6284 Clouds 10 1029 47 0 4.6 30 19:18 17.03.2020
6285 Clouds 10 1029 47 0 6.2 30 18:54 17.03.2020
6286 Clouds 11 1029 47 0 6.2 30 18:36 17.03.2020
6287 Clouds 12 1028 44 0 3.1 40 18:18 17.03.2020
6288 Clouds 14 1028 44 0 4.6 30 17:40 17.03.2020
6289 Clouds 14 1028 44 10000 5.7 30 17:20 17.03.2020
6290 Clouds 15 1028 42 10000 3.6 40 16:45 17.03.2020
6291 Clouds 15 1029 42 10000 4.6 50 16:20 17.03.2020
6292 Clouds 15 1029 42 10000 4.6 50 15:58 17.03.2020
6293 Clouds 15 1029 41 10000 1.5 270 15:39 17.03.2020
6294 Clouds 15 1029 44 10000 2.6 250 15:18 17.03.2020
6295 Clouds 14 1029 48 10000 2.1 150 14:41 17.03.2020
6296 Clouds 14 1029 48 10000 2.1 150 14:41 17.03.2020
6297 Clouds 14 1030 44 10000 3.1 240 14:18 17.03.2020
6298 Clouds 14 1030 47 10000 3.1 240 13:43 17.03.2020
6299 Clouds 14 1031 47 0 4.6 250 13:24 17.03.2020
6300 Clouds 14 1030 47 0 3.1 260 12:54 17.03.2020
6301 Clouds 14 1030 47 0 3.1 260 12:36 17.03.2020
6302 Clouds 13 1030 50 10000 2.6 230 12:18 17.03.2020
6303 Clouds 13 1030 43 10000 2.1 230 11:42 17.03.2020
6304 Clouds 12 1031 50 10000 1.5 240 11:24 17.03.2020
6305 Clouds 11 1031 50 10000 2.6 110 10:56 17.03.2020
6306 Clouds 11 1031 50 10000 2.6 110 10:37 17.03.2020
6307 Clouds 10 1031 57 10000 3.1 110 10:18 17.03.2020
6308 Clouds 9 1031 71 10000 0.5 0 09:46 17.03.2020
6309 Clouds 7 1032 65 0 1.79 346 09:20 17.03.2020
6310 Clouds 7 1032 65 0 1.79 346 08:58 17.03.2020
6311 Clouds 5 1031 75 0 0.5 0 08:40 17.03.2020
6312 Clouds 4 1031 86 10000 2.1 90 08:18 17.03.2020
6313 Clouds 3 1031 73 10000 3.27 338 07:49 17.03.2020
6314 Clouds 3 1030 73 10000 3.27 338 07:21 17.03.2020
6315 Clouds 3 1030 86 0 0.5 0 06:49 17.03.2020
6316 Clouds 3 1030 73 0 3.27 338 06:25 17.03.2020
6317 Clouds 3 1029 73 0 1.5 110 05:26 17.03.2020
6318 Clouds 3 1029 86 0 2.6 90 03:34 17.03.2020
6319 Clouds 3 1028 86 0 0.5 0 02:31 17.03.2020
6320 Clouds 4 1028 64 0 1.86 314 01:38 17.03.2020
6321 Clouds 5 1027 62 0 1 90 00:54 17.03.2020
6322 Clouds 5 1027 86 0 1.78 319 00:19 17.03.2020
6323 Clouds 5 1027 80 0 1.78 319 23:38 16.03.2020
6324 Clouds 5 1027 86 0 1.15 240 23:19 16.03.2020
6325 Clouds 6 1026 75 0 1 0 22:38 16.03.2020
6326 Clouds 6 1026 80 10000 1.5 110 22:20 16.03.2020
6327 Clouds 6 1026 80 10000 1.5 110 22:20 16.03.2020
6328 Clouds 6 1025 80 10000 1.5 110 21:45 16.03.2020
6329 Clouds 6 1025 80 10000 1.5 110 21:27 16.03.2020
6330 Clouds 7 1025 75 10000 2.6 90 20:59 16.03.2020
6331 Clouds 7 1025 75 10000 2.6 90 20:40 16.03.2020
6332 Clouds 7 1024 65 10000 2.6 80 20:21 16.03.2020
6333 Clouds 7 1024 70 10000 2.6 90 19:46 16.03.2020
6334 Clouds 8 1023 70 10000 2.1 100 19:25 16.03.2020
6335 Clouds 9 1023 70 10000 2.1 100 18:59 16.03.2020
6336 Clouds 9 1023 70 10000 1 0 18:39 16.03.2020
6337 Clouds 11 1022 58 0 0.5 0 18:20 16.03.2020
6338 Clouds 13 1022 44 0 1 0 17:46 16.03.2020
6339 Clouds 13 1022 41 10000 1 230 17:25 16.03.2020
6340 Clouds 14 1022 41 10000 1 0 16:57 16.03.2020
6341 Clouds 14 1022 41 10000 1 0 16:39 16.03.2020
6342 Clouds 14 1021 41 10000 1 0 16:20 16.03.2020
6343 Clouds 14 1021 38 10000 1 0 15:43 16.03.2020
6344 Clouds 12 1021 44 10000 2.6 220 15:23 16.03.2020
6345 Clouds 14 1021 41 10000 3.6 240 14:47 16.03.2020
6346 Clouds 13 1021 99 10000 4.1 240 14:20 16.03.2020
6347 Clouds 13 1021 46 10000 4.1 250 13:48 16.03.2020
6348 Clouds 13 1021 46 10000 4.1 250 13:28 16.03.2020
6349 Clouds 13 1021 50 10000 1 0 12:57 16.03.2020
6350 Clouds 13 1021 50 10000 1 0 12:38 16.03.2020
6351 Clouds 12 1021 46 10000 2.1 70 12:20 16.03.2020
6352 Clouds 11 1021 57 10000 2.1 80 11:43 16.03.2020
6353 Clouds 11 1021 50 10000 0.5 0 11:23 16.03.2020
6354 Clouds 9 1021 90 10000 2.52 176 10:44 16.03.2020
6355 Clouds 8 1021 57 10000 1 0 10:24 16.03.2020
6356 Clouds 7 1021 70 10000 1 0 09:49 16.03.2020
6357 Clouds 7 1021 70 10000 1 0 09:30 16.03.2020
6358 Clouds 6 1021 90 10000 1.5 90 08:59 16.03.2020
6359 Clouds 5 1020 80 10000 1.5 110 08:39 16.03.2020
6360 Clouds 2 1019 80 10000 0.5 0 08:20 16.03.2020
6361 Clouds 1 1019 92 10000 1.5 300 07:41 16.03.2020
6362 Clouds 1 1019 92 10000 1.5 40 07:18 16.03.2020
6363 Clouds 1 1018 74 10000 2.6 240 06:28 16.03.2020
6364 Clouds 1 1018 80 10000 2.6 240 05:55 16.03.2020
6365 Clouds 2 1017 74 10000 2.1 270 04:21 16.03.2020
6366 Clouds 2 1017 74 10000 2.1 250 01:46 16.03.2020
6367 Clouds 2 1017 98 10000 2.6 250 00:44 16.03.2020
6368 Clouds 3 1016 98 10000 2.1 230 00:25 16.03.2020
6369 Clouds 3 1016 98 10000 2.6 240 23:39 15.03.2020
6370 Clouds 3 1016 99 10000 2.1 220 23:18 15.03.2020
6371 Clouds 4 1016 99 10000 2.6 250 22:42 15.03.2020
6372 Clouds 4 1016 99 10000 2.6 220 22:20 15.03.2020
6373 Clouds 5 1016 99 10000 2.6 220 21:39 15.03.2020
6374 Clouds 5 1016 99 10000 2.6 270 21:21 15.03.2020
6375 Clouds 5 1016 99 10000 2.6 270 20:55 15.03.2020
6376 Clouds 6 1016 65 10000 2.6 250 20:36 15.03.2020
6377 Clouds 6 1016 61 10000 3.1 270 20:18 15.03.2020
6378 Clouds 6 1016 61 10000 3.1 270 19:55 15.03.2020
6379 Clouds 7 1016 57 10000 1.5 270 19:37 15.03.2020
6380 Clouds 7 1016 61 10000 2.1 260 19:18 15.03.2020
6381 Clouds 8 1016 57 10000 2.1 210 18:41 15.03.2020
6382 Clouds 8 1015 53 10000 1.5 0 18:23 15.03.2020
6383 Clouds 9 1015 54 10000 1 0 17:57 15.03.2020
6384 Clouds 9 1015 54 10000 1 0 17:38 15.03.2020
6385 Clouds 10 1016 54 10000 1.5 50 17:19 15.03.2020
6386 Clouds 11 1016 50 10000 2.6 60 16:44 15.03.2020
6387 Clouds 10 1016 50 10000 2.6 60 16:26 15.03.2020
6388 Clouds 10 1016 50 10000 1.5 80 15:59 15.03.2020
6389 Clouds 10 1016 54 10000 1.5 60 15:41 15.03.2020
6390 Clouds 10 1016 50 10000 2.1 70 15:20 15.03.2020
6391 Clouds 11 1017 54 10000 2.1 80 14:46 15.03.2020
6392 Clouds 11 1017 54 10000 2.1 80 14:25 15.03.2020
6393 Clouds 11 1017 53 10000 1.5 0 13:59 15.03.2020
6394 Clouds 11 1018 61 10000 2.1 70 13:38 15.03.2020
6395 Clouds 10 1018 61 10000 2.1 70 13:20 15.03.2020
6396 Clouds 10 1019 61 10000 2.1 70 12:44 15.03.2020
6397 Clouds 10 1019 61 10000 2.1 70 12:44 15.03.2020
6398 Clouds 9 1019 61 10000 1.5 90 12:26 15.03.2020
6399 Clouds 9 1019 65 10000 2.1 90 11:57 15.03.2020
6400 Clouds 9 1019 65 10000 2.1 90 11:39 15.03.2020
6401 Snow 8 1019 70 10000 2.1 70 11:20 15.03.2020
6402 Snow 7 1019 65 10000 1 0 10:56 15.03.2020
6403 Snow 7 1019 65 10000 1 0 10:36 15.03.2020
6404 Snow 6 1019 75 10000 0.5 0 10:18 15.03.2020
6405 Snow 5 1019 75 10000 1 0 09:39 15.03.2020
6406 -273 0 0 0 0 0 09:21 15.03.2020
6407 Snow 2 1019 94 10000 1.5 250 08:42 15.03.2020
6408 Clear 0 1019 87 10000 1.5 230 08:20 15.03.2020
6409 Clear -1 1019 86 10000 1 250 07:51 15.03.2020
6410 Clear -1 1019 86 10000 1 250 07:29 15.03.2020
6411 Clear -1 1020 87 10000 2.1 250 06:52 15.03.2020
6412 Clear -1 1020 86 10000 1.5 240 05:50 15.03.2020
6413 Clear 0 1020 80 10000 2.1 250 05:18 15.03.2020
6414 Clear -1 1020 66 10000 2.1 270 04:43 15.03.2020
6415 Clear -1 1021 86 10000 2.1 230 04:24 15.03.2020
6416 Clear -1 1021 86 10000 2.1 240 03:38 15.03.2020
6417 Clear -1 1021 86 10000 2.1 260 02:38 15.03.2020
6418 Clouds 1 1022 77 10000 2.6 240 01:34 15.03.2020
6419 Clear 1 1022 80 10000 1.5 290 00:46 15.03.2020
6420 Clear 1 1022 74 10000 2.1 220 00:24 15.03.2020
6421 Clear 2 1022 74 10000 0.5 0 23:55 14.03.2020
6422 Clear 2 1022 74 10000 0.5 0 23:36 14.03.2020
6423 Clear 2 1022 86 10000 1 0 23:18 14.03.2020
6424 Clear 2 1022 86 10000 1 0 22:42 14.03.2020
6425 Clouds 2 1022 86 10000 1 0 22:23 14.03.2020
6426 Clouds 2 1022 86 10000 1 0 21:56 14.03.2020
6427 Clear 3 1022 80 10000 1.5 230 21:36 14.03.2020
6428 Clouds 3 1022 86 10000 1.5 230 21:18 14.03.2020
6429 Clouds 3 1022 86 10000 1.5 230 20:58 14.03.2020
6430 Clouds 4 1022 75 10000 0.5 0 20:40 14.03.2020
6431 Clouds 3 1022 81 10000 0.5 0 20:19 14.03.2020
6432 Clouds 4 1022 75 10000 0.5 0 19:43 14.03.2020
6433 Clouds 4 1022 70 10000 0.5 130 19:25 14.03.2020
6434 Clouds 6 1021 70 10000 0.5 0 18:42 14.03.2020
6435 Clouds 5 1021 75 10000 1 0 18:24 14.03.2020
6436 Clouds 4 1021 75 10000 1 50 17:58 14.03.2020
6437 Clouds 6 1021 75 10000 1 50 17:38 14.03.2020
6438 Clouds 5 1021 75 10000 1.5 0 17:20 14.03.2020
6439 Clouds 6 1021 70 10000 1.5 90 16:41 14.03.2020
6440 Clouds 5 1021 65 10000 1.5 0 16:23 14.03.2020
6441 Clouds 6 1021 65 10000 1.5 0 15:58 14.03.2020
6442 Clouds 5 1021 70 10000 2.1 90 15:27 14.03.2020
6443 Snow 4 1021 75 10000 2.1 70 14:58 14.03.2020
6444 Snow 5 1021 70 10000 1 0 14:36 14.03.2020
6445 Drizzle 4 1021 70 10000 1 0 14:18 14.03.2020
6446 Clouds 5 1021 70 10000 1.5 0 13:42 14.03.2020
6447 Clouds 5 1021 65 10000 1 0 13:23 14.03.2020
6448 Rain 5 1021 75 10000 1.5 0 12:47 14.03.2020
6449 Clouds 4 1021 70 10000 1 0 12:27 14.03.2020
6450 Clouds 4 1021 75 10000 1.5 120 11:59 14.03.2020
6451 Clouds 4 1021 75 10000 1.5 120 11:39 14.03.2020
6452 Clouds 3 1021 81 10000 2.1 60 11:20 14.03.2020
6453 Clouds 4 1021 81 10000 1 0 10:45 14.03.2020
6454 Clouds 2 1021 86 10000 1.5 70 10:27 14.03.2020
6455 Clouds 2 1021 86 10000 1.5 70 10:27 14.03.2020
6456 Clouds 3 1021 86 10000 1.5 70 09:57 14.03.2020
6457 Clouds 2 1021 81 10000 0.5 0 09:39 14.03.2020
6458 Clouds 2 1021 86 10000 0.5 0 09:19 14.03.2020
6459 Clouds 2 1020 93 10000 1 200 08:45 14.03.2020
6460 Clouds 1 1020 93 10000 0.5 0 08:22 14.03.2020
6461 Clouds 0 1020 93 10000 0.5 0 07:39 14.03.2020
6462 Clouds 0 1020 93 10000 1.5 0 07:20 14.03.2020
6463 Clouds 0 1020 93 10000 1 210 06:41 14.03.2020
6464 Clouds 0 1019 93 10000 1 280 05:49 14.03.2020
6465 Clouds 1 1020 93 10000 0.5 0 04:51 14.03.2020
6466 Clouds 0 1020 55 10000 0.5 0 03:25 14.03.2020
6467 Clouds 0 1020 93 10000 1.5 220 02:28 14.03.2020
6468 Clouds 0 1021 93 10000 1.5 230 01:27 14.03.2020
6469 Clouds 0 1021 86 10000 1.5 270 00:20 14.03.2020
6470 Clouds 0 1021 93 10000 1.5 260 23:32 13.03.2020
6471 Clouds 1 1022 86 10000 1.5 240 22:57 13.03.2020
6472 Clouds 1 1022 86 10000 1.5 240 22:38 13.03.2020
6473 Clouds 1 1021 86 10000 2.1 230 22:19 13.03.2020
6474 Clouds 1 1021 93 10000 1.5 240 21:39 13.03.2020
6475 Clouds 1 1021 86 10000 1.5 0 21:18 13.03.2020
6476 Clouds 2 1021 80 10000 1.5 0 20:41 13.03.2020
6477 Clouds 3 1021 81 10000 0.5 0 20:22 13.03.2020
6478 Clouds 3 1021 75 10000 0.5 0 19:49 13.03.2020
6479 Clouds 3 1021 75 10000 0.5 0 19:31 13.03.2020
6480 Clouds 3 1021 70 10000 1.5 60 18:55 13.03.2020
6481 Clouds 5 1021 70 10000 1.5 60 18:36 13.03.2020
6482 Clouds 4 1021 70 10000 0.5 70 18:18 13.03.2020
6483 Clouds 6 1021 65 10000 1 0 17:41 13.03.2020
6484 Clouds 4 1021 75 10000 1.5 100 17:21 13.03.2020
6485 Clouds 6 1022 70 10000 1.5 110 16:55 13.03.2020
6486 Clouds 7 1022 70 10000 1.5 110 16:36 13.03.2020
6487 Clouds 6 1022 91 10000 3.92 346 16:18 13.03.2020
6488 Clouds 7 1022 65 10000 1.5 80 15:41 13.03.2020
6489 Clouds 6 1022 65 10000 1 0 15:21 13.03.2020
6490 Clouds 5 1022 65 10000 1.5 290 14:44 13.03.2020
6491 Clouds 6 1022 65 10000 2.1 290 14:23 13.03.2020
6492 Clouds 6 1022 65 10000 2.1 290 13:59 13.03.2020
6493 Clouds 6 1022 65 10000 2.6 310 13:40 13.03.2020
6494 Clouds 5 1023 65 0 2.1 320 13:21 13.03.2020
6495 Clouds 6 1022 65 0 3.1 300 12:56 13.03.2020
6496 Clouds 6 1022 65 0 3.1 300 12:38 13.03.2020
6497 Clouds 6 1022 99 10000 4.1 300 12:19 13.03.2020
6498 Clouds 6 1022 99 10000 3.6 310 11:45 13.03.2020
6499 Clouds 5 1022 65 10000 2.6 290 11:26 13.03.2020
6500 Clouds 5 1022 65 10000 2.6 280 10:58 13.03.2020
6501 Clouds 5 1022 65 10000 2.6 280 10:39 13.03.2020
6502 Clouds 5 1022 65 10000 4.1 300 10:21 13.03.2020
6503 Snow 5 1022 70 10000 4.6 320 09:44 13.03.2020
6504 Rain 5 1021 75 10000 6.7 310 09:25 13.03.2020
6505 Rain 4 1021 81 10000 5.7 300 08:48 13.03.2020
6506 Drizzle 4 1020 81 10000 7.7 300 08:24 13.03.2020
6507 Drizzle 5 1020 81 10000 7.7 300 07:59 13.03.2020
6508 Rain 5 1020 87 8000 4.6 280 07:38 13.03.2020
6509 Rain 5 1019 87 0 4.6 280 07:20 13.03.2020
6510 Rain 5 1019 87 0 4.6 260 06:45 13.03.2020
6511 Rain 5 1019 87 0 3.6 250 06:18 13.03.2020
6512 Rain 5 1019 87 0 3.1 260 05:43 13.03.2020
6513 Rain 6 1018 93 0 3.1 270 04:39 13.03.2020
6514 Rain 6 1018 87 0 3.1 250 03:50 13.03.2020
6515 Rain 6 1018 93 0 2.1 250 01:48 13.03.2020
6516 Rain 7 1018 93 0 2.6 230 01:19 13.03.2020
6517 Rain 7 1018 93 0 2.6 230 00:56 13.03.2020
6518 Rain 7 1018 93 0 2.6 230 00:37 13.03.2020
6519 Rain 7 1018 100 0 0.5 0 00:18 13.03.2020
6520 Rain 8 1017 93 0 2.38 317 23:29 12.03.2020
6521 Rain 8 1017 93 0 1.5 80 22:58 12.03.2020
6522 Rain 9 1017 93 0 1.5 80 22:40 12.03.2020
6523 Rain 9 1017 87 0 1 0 22:22 12.03.2020
6524 Rain 10 1017 81 0 2.28 292 21:46 12.03.2020
6525 Rain 10 1017 81 0 2.28 292 21:28 12.03.2020
6526 Rain 10 1017 81 0 0.5 0 20:59 12.03.2020
6527 Rain 10 1016 76 0 1 0 20:40 12.03.2020
6528 Clouds 11 1016 71 0 1.87 296 20:19 12.03.2020
6529 Clouds 11 1016 71 0 1 0 19:42 12.03.2020
6530 Clouds 11 1015 71 0 1 0 19:20 12.03.2020
6531 Clouds 11 1015 71 0 1.87 296 18:45 12.03.2020
6532 Clouds 12 1015 71 0 1.5 120 18:25 12.03.2020
6533 Clouds 13 1015 67 0 1 0 17:57 12.03.2020
6534 Clouds 13 1015 67 0 1 0 17:39 12.03.2020
6535 Clouds 13 1015 58 10000 1 130 17:20 12.03.2020
6536 Clouds 12 1015 67 10000 1.69 249 16:56 12.03.2020
6537 Clouds 13 1015 67 10000 1.69 249 16:38 12.03.2020
6538 Clouds 15 1015 55 10000 1.69 249 16:19 12.03.2020
6539 Clouds 14 1015 55 10000 1 0 15:45 12.03.2020
6540 Clouds 15 1015 55 10000 1 0 15:27 12.03.2020
6541 Clouds 15 1016 48 10000 0.5 0 14:42 12.03.2020
6542 Clouds 14 1016 51 10000 2.1 310 14:24 12.03.2020
6543 Clouds 14 1016 51 10000 2.1 310 13:57 12.03.2020
6544 Clouds 14 1017 58 10000 3.1 250 13:37 12.03.2020
6545 Clouds 14 1017 58 0 4.1 250 13:19 12.03.2020
6546 Clouds 13 1018 62 0 3.6 270 12:41 12.03.2020
6547 Clouds 12 1018 66 10000 1.5 80 12:22 12.03.2020
6548 Clouds 13 1018 58 10000 1.5 260 11:57 12.03.2020
6549 Clouds 12 1018 58 10000 1.5 260 11:38 12.03.2020
6550 Clouds 12 1019 58 10000 1 0 11:20 12.03.2020
6551 Clouds 11 1018 66 10000 1 0 10:58 12.03.2020
6552 Clouds 11 1018 66 10000 1 0 10:58 12.03.2020
6553 Clouds 11 1018 66 10000 1 0 10:40 12.03.2020
6554 Clouds 10 1019 75 10000 1 0 10:22 12.03.2020
6555 Clouds 9 1019 75 10000 1 0 09:46 12.03.2020
6556 Clouds 9 1019 75 10000 1 0 09:27 12.03.2020
6557 Clear 7 1019 86 10000 2.6 110 08:45 12.03.2020
6558 Clouds 6 1018 87 10000 2.1 230 08:20 12.03.2020
6559 Clouds 5 1018 87 10000 2.1 230 07:59 12.03.2020
6560 Clouds 5 1018 93 10000 2.1 240 07:40 12.03.2020
6561 Clouds 4 1019 100 10000 0.5 0 07:21 12.03.2020
6562 Clouds 4 1019 38 0 1.79 299 05:55 12.03.2020
6563 Clouds 4 1019 100 0 1.79 299 05:26 12.03.2020
6564 Clear 5 1021 100 0 1.39 295 02:43 12.03.2020
6565 Clear 6 1021 100 0 0.5 0 01:36 12.03.2020
6566 Mist 5 1021 100 0 1.5 100 01:18 12.03.2020
6567 Clear 6 1021 93 0 1.74 236 00:40 12.03.2020
6568 Clear 7 1021 100 0 1.74 236 23:51 11.03.2020
6569 Clear 7 1021 100 0 1 100 23:26 11.03.2020
6570 Clear 7 1021 93 0 1.5 90 22:55 11.03.2020
6571 Clear 7 1021 93 0 1.5 90 22:37 11.03.2020
6572 Clear 7 1021 93 0 1.5 90 22:37 11.03.2020
6573 Clear 8 1021 93 0 0.5 0 22:18 11.03.2020
6574 Clouds 7 1021 87 0 2.6 90 21:41 11.03.2020
6575 Clouds 7 1021 87 0 2.1 90 21:23 11.03.2020
6576 Clouds 7 1021 87 0 2.1 90 20:59 11.03.2020
6577 Clouds 7 1021 87 0 3.1 80 20:40 11.03.2020
6578 Clouds 8 1021 87 0 3.1 80 20:20 11.03.2020
6579 Clouds 9 1021 87 0 3.1 80 19:57 11.03.2020
6580 Clouds 9 1021 87 0 2.6 90 19:38 11.03.2020
6581 Clouds 9 1021 81 0 2.6 80 19:20 11.03.2020
6582 Clouds 10 1021 81 0 3.1 90 18:43 11.03.2020
6583 Clouds 11 1021 81 0 2.1 110 18:24 11.03.2020
6584 Clouds 11 1021 71 0 1.5 110 17:59 11.03.2020
6585 Clouds 12 1021 71 0 1.5 110 17:39 11.03.2020
6586 Clouds 12 1021 76 10000 1.5 130 17:21 11.03.2020
6587 Clouds 13 1021 71 10000 1 0 16:47 11.03.2020
6588 Clouds 11 1021 76 10000 3.1 100 16:24 11.03.2020
6589 Clouds 12 1021 76 10000 3.1 100 15:59 11.03.2020
6590 Clouds 12 1021 76 10000 3.1 100 15:59 11.03.2020
6591 Clouds 12 1021 81 10000 2.6 100 15:41 11.03.2020
6592 Clouds 12 1022 81 10000 2.87 323 15:22 11.03.2020
6593 Clouds 12 1022 81 10000 2.87 323 14:44 11.03.2020
6594 Clouds 12 1022 87 10000 0.5 0 14:23 11.03.2020
6595 Clouds 12 1022 87 10000 0.5 0 13:57 11.03.2020
6596 Clouds 11 1023 87 10000 1 130 13:38 11.03.2020
6597 Clouds 12 1023 87 0 2.6 90 13:20 11.03.2020
6598 Clouds 12 1023 87 0 2.6 90 12:40 11.03.2020
6599 Clouds 11 1023 87 10000 2.1 80 12:20 11.03.2020
6600 Clouds 11 1023 87 10000 1.5 90 11:56 11.03.2020
6601 Clouds 10 1023 87 10000 1.5 90 11:37 11.03.2020
6602 Clouds 10 1023 93 10000 2.1 100 11:19 11.03.2020
6603 Clouds 9 1023 93 10000 1.5 100 10:42 11.03.2020
6604 Clouds 8 1022 87 10000 1.5 50 10:19 11.03.2020
6605 Clouds 7 1022 87 10000 1 70 09:43 11.03.2020
6606 Clouds 7 1023 93 10000 1 0 09:25 11.03.2020
6607 Clouds 6 1023 93 10000 1 0 08:58 11.03.2020
6608 Clouds 6 1023 100 9000 3.28 322 08:40 11.03.2020
6609 Clouds 6 1023 93 8000 1 0 08:19 11.03.2020
6610 Clouds 5 1023 93 8000 0.5 0 07:43 11.03.2020
6611 Clouds 5 1023 93 6000 2.6 90 07:19 11.03.2020
6612 Clouds 5 1023 100 0 3.76 322 06:44 11.03.2020
6613 Clouds 5 1022 100 0 2.6 120 05:36 11.03.2020
6614 Rain 5 1022 100 0 2.1 110 04:31 11.03.2020
6615 Mist 5 1022 100 0 1 0 02:24 11.03.2020
6616 Mist 5 1022 100 0 1.5 110 01:28 11.03.2020
6617 Rain 5 1022 100 0 3.86 322 00:47 11.03.2020
6618 Rain 5 1021 93 6000 1.5 0 00:18 11.03.2020
6619 Rain 5 1022 100 0 1.5 90 23:40 10.03.2020
6620 Rain 5 1022 93 0 1 0 23:21 10.03.2020
6621 Rain 5 1022 93 0 1.5 80 22:39 10.03.2020
6622 Rain 5 1022 100 0 0.5 0 22:20 10.03.2020
6623 Rain 5 1022 100 0 0.5 0 21:57 10.03.2020
6624 Rain 5 1022 100 0 1 0 21:39 10.03.2020
6625 Rain 5 1022 100 0 1.5 40 21:20 10.03.2020
6626 Rain 5 1022 100 0 1.5 40 20:59 10.03.2020
6627 Rain 5 1022 100 0 1.5 60 20:41 10.03.2020
6628 Rain 4 1022 100 0 4.5 320 20:18 10.03.2020
6629 Rain 4 1022 100 0 4.6 319 19:56 10.03.2020
6630 Rain 4 1022 100 0 4.6 319 19:37 10.03.2020
6631 Rain 4 1022 93 0 4.6 319 19:19 10.03.2020
6632 Rain 4 1021 93 0 4.6 319 18:44 10.03.2020
6633 Rain 4 1021 93 0 4.6 319 18:25 10.03.2020
6634 Rain 3 1021 100 0 1 0 17:57 10.03.2020
6635 Rain 3 1021 100 0 1 0 17:39 10.03.2020
6636 Rain 3 1020 93 3700 4.6 319 17:21 10.03.2020
6637 Rain 3 1020 100 3400 2.75 314 16:39 10.03.2020
6638 Rain 4 1020 100 4200 2.75 314 16:19 10.03.2020
6639 Rain 4 1020 100 4200 2.75 314 15:55 10.03.2020
6640 Rain 4 1020 100 4200 2.75 314 15:55 10.03.2020
6641 Rain 4 1020 100 7000 2.75 314 15:37 10.03.2020
6642 Rain 3 1020 100 5000 2.75 314 15:19 10.03.2020
6643 Rain 3 1019 86 7000 2.6 80 14:41 10.03.2020
6644 Rain 2 1020 100 4600 0.5 0 14:20 10.03.2020
6645 Snow 3 1020 100 4600 0.5 0 13:57 10.03.2020
6646 Snow 3 1021 100 2500 1 0 13:38 10.03.2020
6647 Snow 3 1021 100 0 2.1 100 13:19 10.03.2020
6648 Snow 3 1021 100 0 1 90 12:41 10.03.2020
6649 Snow 3 1021 100 0 1.8 295 12:19 10.03.2020
6650 Snow 3 1021 100 2000 1.8 295 11:57 10.03.2020
6651 Snow 3 1021 100 2000 1.8 295 11:39 10.03.2020
6652 Snow 2 1021 94 2000 1 0 11:20 10.03.2020
6653 Snow 1 1021 94 2500 1 0 10:42 10.03.2020
6654 Snow 2 1022 94 2000 1 90 10:23 10.03.2020
6655 Snow 2 1022 94 2000 1 90 09:57 10.03.2020
6656 Snow 2 1022 94 1000 1 100 09:39 10.03.2020
6657 Snow 1 1022 94 1300 1 0 09:18 10.03.2020
6658 Rain 2 1021 94 10000 0.5 0 08:46 10.03.2020
6659 Rain 1 1021 94 10000 0.5 0 08:28 10.03.2020
6660 Clouds 0 1021 86 10000 1.5 140 07:49 10.03.2020
6661 Clouds 0 1021 86 10000 1.5 140 07:30 10.03.2020
6662 Clouds 0 1021 59 0 3.64 322 06:44 10.03.2020
6663 Clouds 0 1021 59 0 3.64 322 06:25 10.03.2020
6664 Clouds 0 1020 86 0 1 0 05:41 10.03.2020
6665 Clouds 1 1020 65 0 2.1 90 04:37 10.03.2020
6666 Clouds -1 1021 65 0 1 0 03:37 10.03.2020
6667 Clouds -1 1021 65 0 2.1 90 02:26 10.03.2020
6668 Clouds 0 1022 86 0 2.1 110 01:20 10.03.2020
6669 Clouds 0 1022 100 0 4.06 327 00:41 10.03.2020
6670 Clouds 0 1022 100 0 4.06 327 00:22 10.03.2020
6671 Clouds 0 1022 89 0 4.06 327 23:40 09.03.2020
6672 Clouds 0 1022 100 0 4.06 327 23:21 09.03.2020
6673 Clouds 0 1022 93 0 1 0 22:41 09.03.2020
6674 Clouds 0 1022 93 10000 4.19 329 22:22 09.03.2020
6675 Snow 1 1022 93 10000 4.19 329 21:57 09.03.2020
6676 Snow 1 1022 93 10000 0.5 20 21:38 09.03.2020
6677 Snow 3 1021 93 10000 4.19 329 21:20 09.03.2020
6678 Clouds 3 1021 93 10000 4.19 329 20:56 09.03.2020
6679 Rain 3 1021 93 10000 0.5 0 20:37 09.03.2020
6680 Rain 2 1021 86 10000 3.92 341 20:18 09.03.2020
6681 Snow 2 1020 93 10000 3.92 341 19:44 09.03.2020
6682 Snow 4 1020 93 10000 1.5 80 19:21 09.03.2020
6683 Snow 3 1020 93 10000 1.5 80 18:57 09.03.2020
6684 Snow 3 1019 80 10000 2.1 250 18:38 09.03.2020
6685 Rain 3 1019 80 0 3.1 250 18:19 09.03.2020
6686 Snow 3 1019 75 0 3.1 260 17:57 09.03.2020
6687 Snow 4 1019 75 0 3.1 260 17:38 09.03.2020
6688 Drizzle 3 1019 86 10000 1.5 0 17:20 09.03.2020
6689 Snow 3 1018 80 10000 4.1 260 16:57 09.03.2020
6690 Snow 4 1018 80 10000 4.1 260 16:39 09.03.2020
6691 Snow 4 1011 79 10000 1.5 0 16:20 09.03.2020
6692 Rain 4 1017 70 10000 4.1 260 15:57 09.03.2020
6693 Rain 4 1017 70 10000 4.1 260 15:38 09.03.2020
6694 Clouds 4 1016 70 10000 2.6 210 15:19 09.03.2020
6695 Snow 4 1017 75 10000 2.1 230 14:41 09.03.2020
6696 Snow 4 1017 75 10000 2.1 230 14:41 09.03.2020
6697 Snow 4 1017 80 10000 3.1 230 14:23 09.03.2020
6698 Rain 4 1017 80 4500 5.1 300 13:59 09.03.2020
6699 Rain 4 1017 80 4500 5.1 300 13:40 09.03.2020
6700 Snow 3 1016 65 0 1.5 0 13:22 09.03.2020
6701 Clouds 4 1016 65 0 1.5 170 12:59 09.03.2020
6702 Clouds 4 1016 65 0 1.5 170 12:40 09.03.2020
6703 Snow 4 1016 70 0 1.5 230 12:20 09.03.2020
6704 Snow 3 1017 81 10000 2.6 240 11:41 09.03.2020
6705 Snow 3 1017 86 10000 3.1 270 11:21 09.03.2020
6706 Rain 2 1017 93 10000 3.9 345 10:58 09.03.2020
6707 Rain 2 1017 93 10000 3.9 345 10:40 09.03.2020
6708 Rain 2 1017 93 10000 3.9 345 10:40 09.03.2020
6709 Rain 2 1017 86 10000 3.9 345 10:19 09.03.2020
6710 Rain 2 1017 86 10000 3.9 345 10:19 09.03.2020
6711 Rain 1 1016 93 10000 1.5 100 09:43 09.03.2020
6712 Rain 2 1016 93 10000 2.1 100 09:24 09.03.2020
6713 Rain 2 1016 93 0 1.5 100 08:54 09.03.2020
6714 Snow 2 1014 86 10000 3.9 345 08:36 09.03.2020
6715 Rain 1 1016 93 10000 1 70 08:18 09.03.2020
6716 Rain 1 1016 93 10000 1 70 08:18 09.03.2020
6717 Rain 2 1016 93 10000 2.49 338 07:39 09.03.2020
6718 Rain 3 1015 93 10000 1 0 07:20 09.03.2020
6719 Rain 2 1015 80 0 3.1 300 06:41 09.03.2020
6720 Rain 2 1014 86 0 1 0 06:23 09.03.2020
6721 Snow 3 1013 96 0 2.1 110 05:45 09.03.2020
6722 Rain 3 1013 88 0 1.01 283 04:59 09.03.2020
6723 Rain 3 1013 88 0 1.01 283 04:40 09.03.2020
6724 Clouds 2 1014 88 0 0.5 0 04:21 09.03.2020
6725 Clouds 3 1014 69 0 1.5 240 02:55 09.03.2020
6726 Clouds 2 1015 74 0 0.5 0 00:44 09.03.2020
6727 Clouds 2 1015 74 0 2.6 310 00:25 09.03.2020
6728 Clouds 3 1015 80 0 1.5 0 23:59 08.03.2020
6729 Clouds 3 1015 80 0 1.5 0 23:38 08.03.2020
6730 Clouds 3 1015 80 0 1 0 23:18 08.03.2020
6731 Clouds 3 1015 80 0 0.5 0 22:41 08.03.2020
6732 Clouds 4 1015 69 0 0.88 254 22:22 08.03.2020
6733 Clouds 3 1015 74 0 1 0 21:59 08.03.2020
6734 Clouds 4 1015 74 0 1 0 21:41 08.03.2020
6735 Clouds 4 1015 74 0 2.1 100 21:20 08.03.2020
6736 Clouds 4 1016 69 0 2.1 120 20:58 08.03.2020
6737 Clouds 5 1018 60 0 0.5 0 20:38 08.03.2020
6738 Clouds 4 1016 69 0 1.5 110 20:19 08.03.2020
6739 Clouds 4 1016 69 0 1.5 110 20:19 08.03.2020
6740 Clouds 4 1016 69 0 1.5 100 19:40 08.03.2020
6741 Clouds 5 1016 74 0 2.6 110 19:19 08.03.2020
6742 Clouds 5 1017 65 0 1.47 313 18:56 08.03.2020
6743 Clouds 6 1016 60 10000 2.1 50 18:38 08.03.2020
6744 Clouds 5 1016 60 10000 2.1 50 18:19 08.03.2020
6745 Clouds 6 1017 37 0 1 270 17:40 08.03.2020
6746 Clouds 7 1017 32 0 1.5 240 17:22 08.03.2020
6747 Clouds 7 1017 36 0 3.1 250 16:58 08.03.2020
6748 Clouds 8 1017 36 0 3.1 250 16:40 08.03.2020
6749 Clouds 8 1017 36 0 3.1 250 16:22 08.03.2020
6750 Clouds 7 1018 45 10000 2.1 60 15:41 08.03.2020
6751 Clouds 7 1018 45 10000 2.1 60 15:22 08.03.2020
6752 Clouds 8 1018 34 0 2.1 270 14:59 08.03.2020
6753 Clouds 8 1019 42 10000 2.6 70 14:38 08.03.2020
6754 Clouds 8 1019 42 10000 2.6 70 14:19 08.03.2020
6755 Clouds 7 1020 45 0 1.5 0 13:42 08.03.2020
6756 Clouds 7 1020 45 0 1.5 0 13:42 08.03.2020
6757 Clouds 7 1020 39 0 2.6 220 13:21 08.03.2020
6758 Clouds 6 1021 36 0 1 0 12:56 08.03.2020
6759 Clouds 7 1021 36 0 1 0 12:36 08.03.2020
6760 Clouds 6 1021 36 0 1 0 12:18 08.03.2020
6761 Clouds 5 1022 52 0 1.5 230 11:41 08.03.2020
6762 Clouds 5 1022 52 0 1.5 230 11:21 08.03.2020
6763 Clouds 3 1022 51 0 1.94 338 10:57 08.03.2020
6764 Clouds 4 1022 51 0 1.94 338 10:39 08.03.2020
6765 Clouds 4 1022 51 0 1.94 338 10:20 08.03.2020
6766 Clouds 2 1022 64 0 2.1 120 09:38 08.03.2020
6767 Clouds 2 1022 64 0 2.1 120 09:20 08.03.2020
6768 Clouds 0 1023 80 0 1.5 130 08:43 08.03.2020
6769 Clouds -1 1023 86 0 2.1 110 08:21 08.03.2020
6770 Clear -3 1023 86 0 3.3 324 07:46 08.03.2020
6771 Clear -3 1023 26 10000 1.5 230 07:27 08.03.2020
6772 Clear -3 1022 92 0 2.1 90 06:43 08.03.2020
6773 Clear -3 1022 92 0 2.1 90 06:25 08.03.2020
6774 Clear -1 1022 86 0 3.3 324 05:43 08.03.2020
6775 Clear -2 1023 86 0 1 0 03:52 08.03.2020
6776 Clear -2 1024 92 0 2.1 100 02:59 08.03.2020
6777 Clouds 0 1024 58 0 0.5 0 01:38 08.03.2020
6778 Clear -1 1024 80 10000 1.5 280 01:19 08.03.2020
6779 Clouds -1 1024 74 0 0.5 0 00:32 08.03.2020
6780 Clouds 0 1024 69 0 0.5 0 23:58 07.03.2020
6781 Clear 0 1021 36 0 1.5 80 23:37 07.03.2020
6782 Clouds 0 1024 74 0 4.24 334 23:18 07.03.2020
6783 Clear 1 1020 33 0 2.1 0 22:38 07.03.2020
6784 Clouds 1 1024 56 0 2.6 260 22:19 07.03.2020
6785 Clouds 1 1024 56 0 2.6 260 22:19 07.03.2020
6786 Clouds 1 1024 56 0 3.6 300 21:45 07.03.2020
6787 Clouds 1 1023 56 0 3.1 310 21:22 07.03.2020
6788 Clouds 1 1023 56 0 3.6 320 20:41 07.03.2020
6789 Clouds 2 1023 56 0 2.6 310 20:22 07.03.2020
6790 Snow 2 1022 60 0 1.5 0 19:54 07.03.2020
6791 Snow 2 1022 52 0 1.5 290 19:36 07.03.2020
6792 Snow 3 1022 52 0 1.5 290 19:18 07.03.2020
6793 Clouds 3 1021 52 0 2.1 330 18:39 07.03.2020
6794 Clouds 3 1021 56 0 2.1 330 18:21 07.03.2020
6795 Clouds 4 1021 56 0 2.1 290 17:42 07.03.2020
6796 Clouds 4 1020 56 0 3.1 300 17:20 07.03.2020
6797 Snow 4 1020 48 0 2.1 0 16:57 07.03.2020
6798 Snow 4 1020 48 0 2.1 0 16:39 07.03.2020
6799 Snow 4 1021 78 10000 3.6 90 16:21 07.03.2020
6800 Snow 3 1021 78 10000 3.1 60 15:55 07.03.2020
6801 Snow 4 1021 78 10000 3.1 60 15:37 07.03.2020
6802 Snow 4 1019 52 0 2.1 210 15:19 07.03.2020
6803 Clouds 4 1019 52 0 3.1 260 14:45 07.03.2020
6804 Clouds 4 1019 52 0 1.5 0 14:24 07.03.2020
6805 Clouds 4 1019 52 0 1 0 13:57 07.03.2020
6806 Clouds 4 1019 52 0 1 0 13:38 07.03.2020
6807 Clouds 4 1019 76 0 4.1 50 13:18 07.03.2020
6808 Rain 4 1019 60 0 1.5 0 12:40 07.03.2020
6809 Clouds 4 1019 60 0 3.1 310 12:20 07.03.2020
6810 Clouds 3 1019 65 0 1 0 11:57 07.03.2020
6811 Clouds 3 1019 65 0 1 0 11:38 07.03.2020
6812 Clouds 3 1019 80 0 2.1 210 11:19 07.03.2020
6813 Snow 3 1018 80 0 2.1 210 10:40 07.03.2020
6814 Snow 2 1018 80 0 2.1 270 10:20 07.03.2020
6815 Rain 3 1018 86 0 3.1 230 09:56 07.03.2020
6816 Snow 3 1012 43 0 1 0 09:37 07.03.2020
6817 Rain 1 1018 93 0 2.6 250 09:18 07.03.2020
6818 Rain 0 1017 93 0 2.6 260 08:43 07.03.2020
6819 Rain 1 1017 81 0 2.1 270 08:21 07.03.2020
6820 Rain 1 1017 81 0 2.1 270 08:21 07.03.2020
6821 Rain 1 1016 100 0 2.1 240 07:49 07.03.2020
6822 Rain 1 1016 90 0 2.1 270 07:23 07.03.2020
6823 Snow -1 1009 55 0 2.6 50 06:55 07.03.2020
6824 Snow -2 1008 60 0 0.5 0 06:29 07.03.2020
6825 Snow -2 1008 60 0 0.5 0 05:52 07.03.2020
6826 Rain 2 1014 90 0 4.6 300 04:42 07.03.2020
6827 Snow 2 1012 60 0 1.5 230 02:47 07.03.2020
6828 Snow 2 1007 60 0 0.5 0 02:24 07.03.2020
6829 Clouds 2 1011 64 0 1.5 0 01:26 07.03.2020
6830 Clouds 2 1006 69 0 1 0 00:38 07.03.2020
6831 Clouds 3 1010 56 0 1.5 250 00:20 07.03.2020
6832 Snow 1 1010 60 0 1.5 270 23:44 06.03.2020
6833 Snow 1 1010 56 0 2.1 260 23:25 06.03.2020
6834 Clouds 2 1010 52 0 2.6 330 22:48 06.03.2020
6835 Clouds 2 1009 56 0 2.1 300 22:21 06.03.2020
6836 Clouds 1 1009 69 0 4.56 331 21:55 06.03.2020
6837 Clouds 1 1003 81